<?xml version="1.0" encoding="utf-8"?>
<gpx xmlns:xsi="http://www.w3.org/2001/XMLSchema-instance" xmlns:xsd="http://www.w3.org/2001/XMLSchema" version="1.1" creator="Shapelink.com" xmlns="http://www.topografix.com/GPX/1/1" xmlns:gpxtpx="http://www.garmin.com/xmlschemas/TrackPointExtension/v1">
  <metadata>
    <name>Sykling 27.28 km, 2013-06-03</name>
    <desc></desc>
    <author><name>Mikael Blom</name></author> 
    <time>2013-06-03T13:18:47Z</time>
  </metadata>
  <trk>
    <name>Sykling 27.28 km, 2013-06-03</name>
    <trkseg>
      <trkpt lat="59.9791615" lon="17.7391837">
        <ele>37.1481</ele>
        <time>2013-06-03T13:18:47Z</time>
      </trkpt>
      <trkpt lat="59.979191" lon="17.7391643">
        <ele>37.1481</ele>
        <time>2013-06-03T13:18:48Z</time>
      </trkpt>
      <trkpt lat="59.9792262" lon="17.7391446">
        <ele>37.1481</ele>
        <time>2013-06-03T13:18:49Z</time>
      </trkpt>
      <trkpt lat="59.9792651" lon="17.7391246">
        <ele>37.1481</ele>
        <time>2013-06-03T13:18:50Z</time>
      </trkpt>
      <trkpt lat="59.9793054" lon="17.7391015">
        <ele>37.1481</ele>
        <time>2013-06-03T13:18:51Z</time>
      </trkpt>
      <trkpt lat="59.979348" lon="17.739069">
        <ele>37.6287</ele>
        <time>2013-06-03T13:18:52Z</time>
      </trkpt>
      <trkpt lat="59.9793918" lon="17.7390403">
        <ele>37.6287</ele>
        <time>2013-06-03T13:18:53Z</time>
      </trkpt>
      <trkpt lat="59.9794353" lon="17.7390105">
        <ele>37.6287</ele>
        <time>2013-06-03T13:18:54Z</time>
      </trkpt>
      <trkpt lat="59.9794793" lon="17.7389819">
        <ele>37.6287</ele>
        <time>2013-06-03T13:18:55Z</time>
      </trkpt>
      <trkpt lat="59.9795225" lon="17.7389641">
        <ele>38.1094</ele>
        <time>2013-06-03T13:18:56Z</time>
      </trkpt>
      <trkpt lat="59.9795628" lon="17.7389481">
        <ele>38.1094</ele>
        <time>2013-06-03T13:18:57Z</time>
      </trkpt>
      <trkpt lat="59.9796067" lon="17.73893">
        <ele>38.1094</ele>
        <time>2013-06-03T13:18:58Z</time>
      </trkpt>
      <trkpt lat="59.9796509" lon="17.7389087">
        <ele>38.1094</ele>
        <time>2013-06-03T13:18:59Z</time>
      </trkpt>
      <trkpt lat="59.979696" lon="17.738889">
        <ele>39.0707</ele>
        <time>2013-06-03T13:19:00Z</time>
      </trkpt>
      <trkpt lat="59.9797463" lon="17.7388778">
        <ele>40.5128</ele>
        <time>2013-06-03T13:19:01Z</time>
      </trkpt>
      <trkpt lat="59.979796" lon="17.7388635">
        <ele>41.474</ele>
        <time>2013-06-03T13:19:02Z</time>
      </trkpt>
      <trkpt lat="59.9798484" lon="17.738848">
        <ele>42.916</ele>
        <time>2013-06-03T13:19:03Z</time>
      </trkpt>
      <trkpt lat="59.979898" lon="17.7388345">
        <ele>43.3966</ele>
        <time>2013-06-03T13:19:04Z</time>
      </trkpt>
      <trkpt lat="59.9799477" lon="17.7388247">
        <ele>43.8773</ele>
        <time>2013-06-03T13:19:05Z</time>
      </trkpt>
      <trkpt lat="59.979999" lon="17.7388224">
        <ele>44.8386</ele>
        <time>2013-06-03T13:19:06Z</time>
      </trkpt>
      <trkpt lat="59.9800493" lon="17.7388311">
        <ele>45.7999</ele>
        <time>2013-06-03T13:19:07Z</time>
      </trkpt>
      <trkpt lat="59.9801021" lon="17.7388294">
        <ele>47.2418</ele>
        <time>2013-06-03T13:19:08Z</time>
      </trkpt>
      <trkpt lat="59.9801483" lon="17.7388231">
        <ele>49.6453</ele>
        <time>2013-06-03T13:19:09Z</time>
      </trkpt>
      <trkpt lat="59.9801969" lon="17.7388389">
        <ele>49.6453</ele>
        <time>2013-06-03T13:19:10Z</time>
      </trkpt>
      <trkpt lat="59.9802378" lon="17.7388509">
        <ele>49.6453</ele>
        <time>2013-06-03T13:19:11Z</time>
      </trkpt>
      <trkpt lat="59.9802776" lon="17.7388519">
        <ele>49.1646</ele>
        <time>2013-06-03T13:19:12Z</time>
      </trkpt>
      <trkpt lat="59.9803086" lon="17.7388668">
        <ele>49.1646</ele>
        <time>2013-06-03T13:19:13Z</time>
      </trkpt>
      <trkpt lat="59.9803607" lon="17.7388786">
        <ele>48.684</ele>
        <time>2013-06-03T13:19:14Z</time>
      </trkpt>
      <trkpt lat="59.9803956" lon="17.7388869">
        <ele>47.7225</ele>
        <time>2013-06-03T13:19:15Z</time>
      </trkpt>
      <trkpt lat="59.9804273" lon="17.7388841">
        <ele>44.358</ele>
        <time>2013-06-03T13:19:16Z</time>
      </trkpt>
      <trkpt lat="59.9804557" lon="17.7388788">
        <ele>42.4354</ele>
        <time>2013-06-03T13:19:17Z</time>
      </trkpt>
      <trkpt lat="59.9804917" lon="17.7388461">
        <ele>42.916</ele>
        <time>2013-06-03T13:19:18Z</time>
      </trkpt>
      <trkpt lat="59.9805135" lon="17.7388181">
        <ele>41.474</ele>
        <time>2013-06-03T13:19:19Z</time>
      </trkpt>
      <trkpt lat="59.9805512" lon="17.7388093">
        <ele>42.4354</ele>
        <time>2013-06-03T13:19:20Z</time>
      </trkpt>
      <trkpt lat="59.9806037" lon="17.7388083">
        <ele>45.3192</ele>
        <time>2013-06-03T13:19:21Z</time>
      </trkpt>
      <trkpt lat="59.9806508" lon="17.7388022">
        <ele>46.7612</ele>
        <time>2013-06-03T13:19:22Z</time>
      </trkpt>
      <trkpt lat="59.9807066" lon="17.7387934">
        <ele>47.2418</ele>
        <time>2013-06-03T13:19:23Z</time>
      </trkpt>
      <trkpt lat="59.9807608" lon="17.7387809">
        <ele>45.7999</ele>
        <time>2013-06-03T13:19:24Z</time>
      </trkpt>
      <trkpt lat="59.9808102" lon="17.73876">
        <ele>46.2806</ele>
        <time>2013-06-03T13:19:25Z</time>
      </trkpt>
      <trkpt lat="59.9808588" lon="17.7387437">
        <ele>47.7225</ele>
        <time>2013-06-03T13:19:26Z</time>
      </trkpt>
      <trkpt lat="59.9808977" lon="17.7387382">
        <ele>49.6453</ele>
        <time>2013-06-03T13:19:27Z</time>
      </trkpt>
      <trkpt lat="59.9809465" lon="17.7387093">
        <ele>52.0486</ele>
        <time>2013-06-03T13:19:28Z</time>
      </trkpt>
      <trkpt lat="59.9809905" lon="17.738683">
        <ele>54.4518</ele>
        <time>2013-06-03T13:19:29Z</time>
      </trkpt>
      <trkpt lat="59.9810283" lon="17.7386581">
        <ele>54.4518</ele>
        <time>2013-06-03T13:19:30Z</time>
      </trkpt>
      <trkpt lat="59.9810728" lon="17.7386388">
        <ele>55.4131</ele>
        <time>2013-06-03T13:19:31Z</time>
      </trkpt>
      <trkpt lat="59.9811151" lon="17.7386171">
        <ele>55.4131</ele>
        <time>2013-06-03T13:19:32Z</time>
      </trkpt>
      <trkpt lat="59.9811574" lon="17.7386057">
        <ele>53.9712</ele>
        <time>2013-06-03T13:19:33Z</time>
      </trkpt>
      <trkpt lat="59.9811957" lon="17.7385939">
        <ele>53.4905</ele>
        <time>2013-06-03T13:19:34Z</time>
      </trkpt>
      <trkpt lat="59.981236" lon="17.7385854">
        <ele>52.0486</ele>
        <time>2013-06-03T13:19:35Z</time>
      </trkpt>
      <trkpt lat="59.9812924" lon="17.7385799">
        <ele>52.0486</ele>
        <time>2013-06-03T13:19:36Z</time>
      </trkpt>
      <trkpt lat="59.9813356" lon="17.7385737">
        <ele>52.5292</ele>
        <time>2013-06-03T13:19:37Z</time>
      </trkpt>
      <trkpt lat="59.9813781" lon="17.7385538">
        <ele>50.6066</ele>
        <time>2013-06-03T13:19:38Z</time>
      </trkpt>
      <trkpt lat="59.9814153" lon="17.7385446">
        <ele>49.6453</ele>
        <time>2013-06-03T13:19:39Z</time>
      </trkpt>
      <trkpt lat="59.9814459" lon="17.7385358">
        <ele>48.684</ele>
        <time>2013-06-03T13:19:40Z</time>
      </trkpt>
      <trkpt lat="59.9814883" lon="17.738523">
        <ele>50.126</ele>
        <time>2013-06-03T13:19:41Z</time>
      </trkpt>
      <trkpt lat="59.9815288" lon="17.7385074">
        <ele>51.5679</ele>
        <time>2013-06-03T13:19:42Z</time>
      </trkpt>
      <trkpt lat="59.981564" lon="17.738499">
        <ele>50.126</ele>
        <time>2013-06-03T13:19:43Z</time>
      </trkpt>
      <trkpt lat="59.9815985" lon="17.7384785">
        <ele>49.6453</ele>
        <time>2013-06-03T13:19:44Z</time>
      </trkpt>
      <trkpt lat="59.9816266" lon="17.7384491">
        <ele>48.684</ele>
        <time>2013-06-03T13:19:45Z</time>
      </trkpt>
      <trkpt lat="59.9816665" lon="17.7384322">
        <ele>51.0872</ele>
        <time>2013-06-03T13:19:46Z</time>
      </trkpt>
      <trkpt lat="59.9817119" lon="17.7384248">
        <ele>52.5292</ele>
        <time>2013-06-03T13:19:47Z</time>
      </trkpt>
      <trkpt lat="59.9817551" lon="17.7384091">
        <ele>53.4905</ele>
        <time>2013-06-03T13:19:48Z</time>
      </trkpt>
      <trkpt lat="59.9818012" lon="17.7383814">
        <ele>55.8938</ele>
        <time>2013-06-03T13:19:49Z</time>
      </trkpt>
      <trkpt lat="59.9818526" lon="17.7383535">
        <ele>57.8165</ele>
        <time>2013-06-03T13:19:50Z</time>
      </trkpt>
      <trkpt lat="59.9819012" lon="17.7383329">
        <ele>59.2584</ele>
        <time>2013-06-03T13:19:51Z</time>
      </trkpt>
      <trkpt lat="59.9819395" lon="17.7383041">
        <ele>58.2971</ele>
        <time>2013-06-03T13:19:52Z</time>
      </trkpt>
      <trkpt lat="59.9819908" lon="17.7382846">
        <ele>59.7391</ele>
        <time>2013-06-03T13:19:53Z</time>
      </trkpt>
      <trkpt lat="59.9820399" lon="17.7382696">
        <ele>60.2197</ele>
        <time>2013-06-03T13:19:54Z</time>
      </trkpt>
      <trkpt lat="59.9820878" lon="17.7382529">
        <ele>59.7391</ele>
        <time>2013-06-03T13:19:55Z</time>
      </trkpt>
      <trkpt lat="59.9821427" lon="17.7382352">
        <ele>59.2584</ele>
        <time>2013-06-03T13:19:56Z</time>
      </trkpt>
      <trkpt lat="59.9822004" lon="17.7382186">
        <ele>59.2584</ele>
        <time>2013-06-03T13:19:57Z</time>
      </trkpt>
      <trkpt lat="59.9822615" lon="17.7381989">
        <ele>59.7391</ele>
        <time>2013-06-03T13:19:58Z</time>
      </trkpt>
      <trkpt lat="59.9823253" lon="17.7381707">
        <ele>59.7391</ele>
        <time>2013-06-03T13:19:59Z</time>
      </trkpt>
      <trkpt lat="59.9823913" lon="17.7381583">
        <ele>60.2197</ele>
        <time>2013-06-03T13:20:00Z</time>
      </trkpt>
      <trkpt lat="59.9824534" lon="17.7381518">
        <ele>60.2197</ele>
        <time>2013-06-03T13:20:01Z</time>
      </trkpt>
      <trkpt lat="59.9825166" lon="17.7381493">
        <ele>59.7391</ele>
        <time>2013-06-03T13:20:02Z</time>
      </trkpt>
      <trkpt lat="59.982575" lon="17.7381562">
        <ele>59.2584</ele>
        <time>2013-06-03T13:20:03Z</time>
      </trkpt>
      <trkpt lat="59.9826324" lon="17.7381677">
        <ele>59.7391</ele>
        <time>2013-06-03T13:20:04Z</time>
      </trkpt>
      <trkpt lat="59.9826826" lon="17.738179">
        <ele>59.2584</ele>
        <time>2013-06-03T13:20:05Z</time>
      </trkpt>
      <trkpt lat="59.9827344" lon="17.7381894">
        <ele>58.2971</ele>
        <time>2013-06-03T13:20:06Z</time>
      </trkpt>
      <trkpt lat="59.9827927" lon="17.7381873">
        <ele>57.8165</ele>
        <time>2013-06-03T13:20:07Z</time>
      </trkpt>
      <trkpt lat="59.9828588" lon="17.7381951">
        <ele>58.7777</ele>
        <time>2013-06-03T13:20:08Z</time>
      </trkpt>
      <trkpt lat="59.9829232" lon="17.738207">
        <ele>61.181</ele>
        <time>2013-06-03T13:20:09Z</time>
      </trkpt>
      <trkpt lat="59.9829832" lon="17.7382272">
        <ele>62.1423</ele>
        <time>2013-06-03T13:20:10Z</time>
      </trkpt>
      <trkpt lat="59.983047" lon="17.738234">
        <ele>62.1423</ele>
        <time>2013-06-03T13:20:11Z</time>
      </trkpt>
      <trkpt lat="59.98311" lon="17.738227">
        <ele>63.1036</ele>
        <time>2013-06-03T13:20:12Z</time>
      </trkpt>
      <trkpt lat="59.9831734" lon="17.7382229">
        <ele>63.5844</ele>
        <time>2013-06-03T13:20:13Z</time>
      </trkpt>
      <trkpt lat="59.9832278" lon="17.738195">
        <ele>63.1036</ele>
        <time>2013-06-03T13:20:14Z</time>
      </trkpt>
      <trkpt lat="59.9832872" lon="17.7381668">
        <ele>62.6229</ele>
        <time>2013-06-03T13:20:15Z</time>
      </trkpt>
      <trkpt lat="59.9833552" lon="17.7381256">
        <ele>63.1036</ele>
        <time>2013-06-03T13:20:16Z</time>
      </trkpt>
      <trkpt lat="59.9834133" lon="17.7381089">
        <ele>62.1423</ele>
        <time>2013-06-03T13:20:17Z</time>
      </trkpt>
      <trkpt lat="59.9834758" lon="17.7380914">
        <ele>62.1423</ele>
        <time>2013-06-03T13:20:18Z</time>
      </trkpt>
      <trkpt lat="59.9835511" lon="17.7380837">
        <ele>63.1036</ele>
        <time>2013-06-03T13:20:19Z</time>
      </trkpt>
      <trkpt lat="59.9836278" lon="17.738071">
        <ele>65.0264</ele>
        <time>2013-06-03T13:20:20Z</time>
      </trkpt>
      <trkpt lat="59.9836939" lon="17.7380643">
        <ele>65.0264</ele>
        <time>2013-06-03T13:20:21Z</time>
      </trkpt>
      <trkpt lat="59.9837506" lon="17.7380508">
        <ele>65.5071</ele>
        <time>2013-06-03T13:20:22Z</time>
      </trkpt>
      <trkpt lat="59.9837986" lon="17.7380381">
        <ele>62.6229</ele>
        <time>2013-06-03T13:20:23Z</time>
      </trkpt>
      <trkpt lat="59.9838519" lon="17.7380215">
        <ele>62.6229</ele>
        <time>2013-06-03T13:20:24Z</time>
      </trkpt>
      <trkpt lat="59.9839073" lon="17.7380065">
        <ele>65.0264</ele>
        <time>2013-06-03T13:20:25Z</time>
      </trkpt>
      <trkpt lat="59.9839644" lon="17.7379964">
        <ele>66.4683</ele>
        <time>2013-06-03T13:20:26Z</time>
      </trkpt>
      <trkpt lat="59.9840198" lon="17.7379826">
        <ele>67.4297</ele>
        <time>2013-06-03T13:20:27Z</time>
      </trkpt>
      <trkpt lat="59.9840757" lon="17.737986">
        <ele>66.949</ele>
        <time>2013-06-03T13:20:28Z</time>
      </trkpt>
      <trkpt lat="59.9841295" lon="17.7379952">
        <ele>67.4297</ele>
        <time>2013-06-03T13:20:29Z</time>
      </trkpt>
      <trkpt lat="59.9841843" lon="17.7379972">
        <ele>67.4297</ele>
        <time>2013-06-03T13:20:30Z</time>
      </trkpt>
      <trkpt lat="59.9842498" lon="17.7380148">
        <ele>67.9103</ele>
        <time>2013-06-03T13:20:31Z</time>
      </trkpt>
      <trkpt lat="59.9843124" lon="17.7380375">
        <ele>67.4297</ele>
        <time>2013-06-03T13:20:32Z</time>
      </trkpt>
      <trkpt lat="59.9843845" lon="17.7380593">
        <ele>67.9103</ele>
        <time>2013-06-03T13:20:33Z</time>
      </trkpt>
      <trkpt lat="59.9844669" lon="17.7380728">
        <ele>68.3909</ele>
        <time>2013-06-03T13:20:34Z</time>
      </trkpt>
      <trkpt lat="59.9845376" lon="17.7380842">
        <ele>67.4297</ele>
        <time>2013-06-03T13:20:35Z</time>
      </trkpt>
      <trkpt lat="59.9846096" lon="17.7380955">
        <ele>66.4683</ele>
        <time>2013-06-03T13:20:36Z</time>
      </trkpt>
      <trkpt lat="59.9846803" lon="17.7381169">
        <ele>65.0264</ele>
        <time>2013-06-03T13:20:37Z</time>
      </trkpt>
      <trkpt lat="59.9847466" lon="17.7381309">
        <ele>64.5457</ele>
        <time>2013-06-03T13:20:38Z</time>
      </trkpt>
      <trkpt lat="59.9848118" lon="17.7381471">
        <ele>64.5457</ele>
        <time>2013-06-03T13:20:39Z</time>
      </trkpt>
      <trkpt lat="59.9848719" lon="17.7381596">
        <ele>64.0651</ele>
        <time>2013-06-03T13:20:40Z</time>
      </trkpt>
      <trkpt lat="59.9849305" lon="17.7381732">
        <ele>64.5457</ele>
        <time>2013-06-03T13:20:41Z</time>
      </trkpt>
      <trkpt lat="59.9849849" lon="17.7381851">
        <ele>65.0264</ele>
        <time>2013-06-03T13:20:42Z</time>
      </trkpt>
      <trkpt lat="59.9850429" lon="17.7382007">
        <ele>64.5457</ele>
        <time>2013-06-03T13:20:43Z</time>
      </trkpt>
      <trkpt lat="59.9851041" lon="17.7382119">
        <ele>65.0264</ele>
        <time>2013-06-03T13:20:44Z</time>
      </trkpt>
      <trkpt lat="59.9851708" lon="17.7382193">
        <ele>67.4297</ele>
        <time>2013-06-03T13:20:45Z</time>
      </trkpt>
      <trkpt lat="59.9852454" lon="17.7382336">
        <ele>69.3523</ele>
        <time>2013-06-03T13:20:46Z</time>
      </trkpt>
      <trkpt lat="59.9853009" lon="17.7382405">
        <ele>70.3135</ele>
        <time>2013-06-03T13:20:47Z</time>
      </trkpt>
      <trkpt lat="59.9853687" lon="17.7382535">
        <ele>72.2362</ele>
        <time>2013-06-03T13:20:48Z</time>
      </trkpt>
      <trkpt lat="59.9854283" lon="17.738281">
        <ele>71.2749</ele>
        <time>2013-06-03T13:20:49Z</time>
      </trkpt>
      <trkpt lat="59.9854818" lon="17.7383203">
        <ele>68.8716</ele>
        <time>2013-06-03T13:20:50Z</time>
      </trkpt>
      <trkpt lat="59.9855179" lon="17.7383481">
        <ele>67.4297</ele>
        <time>2013-06-03T13:20:51Z</time>
      </trkpt>
      <trkpt lat="59.9855686" lon="17.7383726">
        <ele>69.3523</ele>
        <time>2013-06-03T13:20:52Z</time>
      </trkpt>
      <trkpt lat="59.9856224" lon="17.7383933">
        <ele>72.7169</ele>
        <time>2013-06-03T13:20:53Z</time>
      </trkpt>
      <trkpt lat="59.9856845" lon="17.7383965">
        <ele>76.5621</ele>
        <time>2013-06-03T13:20:54Z</time>
      </trkpt>
      <trkpt lat="59.9857498" lon="17.7384032">
        <ele>78.9655</ele>
        <time>2013-06-03T13:20:55Z</time>
      </trkpt>
      <trkpt lat="59.9858198" lon="17.7384375">
        <ele>79.9266</ele>
        <time>2013-06-03T13:20:56Z</time>
      </trkpt>
      <trkpt lat="59.9858898" lon="17.738466">
        <ele>81.3688</ele>
        <time>2013-06-03T13:20:57Z</time>
      </trkpt>
      <trkpt lat="59.9859556" lon="17.7384878">
        <ele>83.772</ele>
        <time>2013-06-03T13:20:58Z</time>
      </trkpt>
      <trkpt lat="59.9860219" lon="17.7385239">
        <ele>82.3301</ele>
        <time>2013-06-03T13:20:59Z</time>
      </trkpt>
      <trkpt lat="59.9860805" lon="17.7385571">
        <ele>84.2527</ele>
        <time>2013-06-03T13:21:00Z</time>
      </trkpt>
      <trkpt lat="59.9861502" lon="17.7385942">
        <ele>83.772</ele>
        <time>2013-06-03T13:21:01Z</time>
      </trkpt>
      <trkpt lat="59.98621" lon="17.7386377">
        <ele>81.3688</ele>
        <time>2013-06-03T13:21:02Z</time>
      </trkpt>
      <trkpt lat="59.9862743" lon="17.7386898">
        <ele>81.3688</ele>
        <time>2013-06-03T13:21:03Z</time>
      </trkpt>
      <trkpt lat="59.9863341" lon="17.7387401">
        <ele>80.8882</ele>
        <time>2013-06-03T13:21:04Z</time>
      </trkpt>
      <trkpt lat="59.9864046" lon="17.7387827">
        <ele>80.8882</ele>
        <time>2013-06-03T13:21:05Z</time>
      </trkpt>
      <trkpt lat="59.9864812" lon="17.7388244">
        <ele>81.3688</ele>
        <time>2013-06-03T13:21:06Z</time>
      </trkpt>
      <trkpt lat="59.9865508" lon="17.7388668">
        <ele>82.3301</ele>
        <time>2013-06-03T13:21:07Z</time>
      </trkpt>
      <trkpt lat="59.9866151" lon="17.7389035">
        <ele>81.3688</ele>
        <time>2013-06-03T13:21:08Z</time>
      </trkpt>
      <trkpt lat="59.9866698" lon="17.7389439">
        <ele>81.3688</ele>
        <time>2013-06-03T13:21:09Z</time>
      </trkpt>
      <trkpt lat="59.9867055" lon="17.7389876">
        <ele>80.8882</ele>
        <time>2013-06-03T13:21:10Z</time>
      </trkpt>
      <trkpt lat="59.9867486" lon="17.7390407">
        <ele>78.4847</ele>
        <time>2013-06-03T13:21:11Z</time>
      </trkpt>
      <trkpt lat="59.9867908" lon="17.7390858">
        <ele>77.0428</ele>
        <time>2013-06-03T13:21:12Z</time>
      </trkpt>
      <trkpt lat="59.9868392" lon="17.7391305">
        <ele>76.5621</ele>
        <time>2013-06-03T13:21:13Z</time>
      </trkpt>
      <trkpt lat="59.9868787" lon="17.7391718">
        <ele>76.5621</ele>
        <time>2013-06-03T13:21:14Z</time>
      </trkpt>
      <trkpt lat="59.9869237" lon="17.7392103">
        <ele>76.0814</ele>
        <time>2013-06-03T13:21:15Z</time>
      </trkpt>
      <trkpt lat="59.986969" lon="17.7392446">
        <ele>76.5621</ele>
        <time>2013-06-03T13:21:16Z</time>
      </trkpt>
      <trkpt lat="59.9870182" lon="17.7392745">
        <ele>77.0428</ele>
        <time>2013-06-03T13:21:17Z</time>
      </trkpt>
      <trkpt lat="59.9870626" lon="17.7393059">
        <ele>76.0814</ele>
        <time>2013-06-03T13:21:18Z</time>
      </trkpt>
      <trkpt lat="59.9871087" lon="17.7393248">
        <ele>76.5621</ele>
        <time>2013-06-03T13:21:19Z</time>
      </trkpt>
      <trkpt lat="59.9871594" lon="17.7393253">
        <ele>75.6008</ele>
        <time>2013-06-03T13:21:20Z</time>
      </trkpt>
      <trkpt lat="59.9872108" lon="17.7393231">
        <ele>72.2362</ele>
        <time>2013-06-03T13:21:21Z</time>
      </trkpt>
      <trkpt lat="59.9872661" lon="17.7393195">
        <ele>70.7942</ele>
        <time>2013-06-03T13:21:22Z</time>
      </trkpt>
      <trkpt lat="59.9873175" lon="17.7393175">
        <ele>69.8329</ele>
        <time>2013-06-03T13:21:23Z</time>
      </trkpt>
      <trkpt lat="59.9873692" lon="17.7393159">
        <ele>69.8329</ele>
        <time>2013-06-03T13:21:24Z</time>
      </trkpt>
      <trkpt lat="59.9874211" lon="17.7393145">
        <ele>69.8329</ele>
        <time>2013-06-03T13:21:25Z</time>
      </trkpt>
      <trkpt lat="59.9874775" lon="17.7393103">
        <ele>72.7169</ele>
        <time>2013-06-03T13:21:26Z</time>
      </trkpt>
      <trkpt lat="59.9875367" lon="17.7392957">
        <ele>71.7555</ele>
        <time>2013-06-03T13:21:27Z</time>
      </trkpt>
      <trkpt lat="59.9875864" lon="17.7392863">
        <ele>70.7942</ele>
        <time>2013-06-03T13:21:28Z</time>
      </trkpt>
      <trkpt lat="59.9876464" lon="17.7392901">
        <ele>71.2749</ele>
        <time>2013-06-03T13:21:29Z</time>
      </trkpt>
      <trkpt lat="59.9877048" lon="17.7393019">
        <ele>71.2749</ele>
        <time>2013-06-03T13:21:30Z</time>
      </trkpt>
      <trkpt lat="59.9877532" lon="17.739302">
        <ele>71.2749</ele>
        <time>2013-06-03T13:21:31Z</time>
      </trkpt>
      <trkpt lat="59.9878158" lon="17.739298">
        <ele>71.2749</ele>
        <time>2013-06-03T13:21:32Z</time>
      </trkpt>
      <trkpt lat="59.987864" lon="17.7392738">
        <ele>70.7942</ele>
        <time>2013-06-03T13:21:33Z</time>
      </trkpt>
      <trkpt lat="59.9879229" lon="17.7392512">
        <ele>71.7555</ele>
        <time>2013-06-03T13:21:34Z</time>
      </trkpt>
      <trkpt lat="59.9879862" lon="17.739245">
        <ele>73.1976</ele>
        <time>2013-06-03T13:21:35Z</time>
      </trkpt>
      <trkpt lat="59.988038" lon="17.739235">
        <ele>72.7169</ele>
        <time>2013-06-03T13:21:36Z</time>
      </trkpt>
      <trkpt lat="59.9880899" lon="17.7392273">
        <ele>72.2362</ele>
        <time>2013-06-03T13:21:37Z</time>
      </trkpt>
      <trkpt lat="59.9881433" lon="17.7392184">
        <ele>73.1976</ele>
        <time>2013-06-03T13:21:38Z</time>
      </trkpt>
      <trkpt lat="59.9881964" lon="17.7392294">
        <ele>71.7555</ele>
        <time>2013-06-03T13:21:39Z</time>
      </trkpt>
      <trkpt lat="59.9882592" lon="17.7392217">
        <ele>73.1976</ele>
        <time>2013-06-03T13:21:40Z</time>
      </trkpt>
      <trkpt lat="59.9883126" lon="17.7392215">
        <ele>71.2749</ele>
        <time>2013-06-03T13:21:41Z</time>
      </trkpt>
      <trkpt lat="59.9883458" lon="17.7392192">
        <ele>67.4297</ele>
        <time>2013-06-03T13:21:42Z</time>
      </trkpt>
      <trkpt lat="59.9883982" lon="17.7392005">
        <ele>66.949</ele>
        <time>2013-06-03T13:21:43Z</time>
      </trkpt>
      <trkpt lat="59.9884455" lon="17.7391838">
        <ele>65.0264</ele>
        <time>2013-06-03T13:21:44Z</time>
      </trkpt>
      <trkpt lat="59.9884934" lon="17.7391445">
        <ele>62.1423</ele>
        <time>2013-06-03T13:21:45Z</time>
      </trkpt>
      <trkpt lat="59.9885341" lon="17.7391301">
        <ele>58.7777</ele>
        <time>2013-06-03T13:21:46Z</time>
      </trkpt>
      <trkpt lat="59.9885716" lon="17.7391093">
        <ele>54.4518</ele>
        <time>2013-06-03T13:21:47Z</time>
      </trkpt>
      <trkpt lat="59.9886176" lon="17.7391047">
        <ele>51.0872</ele>
        <time>2013-06-03T13:21:48Z</time>
      </trkpt>
      <trkpt lat="59.9886556" lon="17.7390984">
        <ele>47.2418</ele>
        <time>2013-06-03T13:21:49Z</time>
      </trkpt>
      <trkpt lat="59.9886933" lon="17.7390813">
        <ele>43.3966</ele>
        <time>2013-06-03T13:21:50Z</time>
      </trkpt>
      <trkpt lat="59.988726" lon="17.7390566">
        <ele>38.5901</ele>
        <time>2013-06-03T13:21:51Z</time>
      </trkpt>
      <trkpt lat="59.988757" lon="17.7390241">
        <ele>32.8223</ele>
        <time>2013-06-03T13:21:52Z</time>
      </trkpt>
      <trkpt lat="59.9888014" lon="17.7390017">
        <ele>30.4188</ele>
        <time>2013-06-03T13:21:53Z</time>
      </trkpt>
      <trkpt lat="59.9888262" lon="17.7389547">
        <ele>23.209</ele>
        <time>2013-06-03T13:21:54Z</time>
      </trkpt>
      <trkpt lat="59.9888542" lon="17.7389109">
        <ele>18.4023</ele>
        <time>2013-06-03T13:21:55Z</time>
      </trkpt>
      <trkpt lat="59.9888872" lon="17.7388747">
        <ele>13.5958</ele>
        <time>2013-06-03T13:21:56Z</time>
      </trkpt>
      <trkpt lat="59.9889181" lon="17.7388382">
        <ele>9.75061</ele>
        <time>2013-06-03T13:21:57Z</time>
      </trkpt>
      <trkpt lat="59.988942" lon="17.7387985">
        <ele>4.94385</ele>
        <time>2013-06-03T13:21:58Z</time>
      </trkpt>
      <trkpt lat="59.9889747" lon="17.7387776">
        <ele>2.54065</ele>
        <time>2013-06-03T13:21:59Z</time>
      </trkpt>
      <trkpt lat="59.9890146" lon="17.7387644">
        <ele>0</ele>
        <time>2013-06-03T13:22:00Z</time>
      </trkpt>
      <trkpt lat="59.9890588" lon="17.7387472">
        <ele>0</ele>
        <time>2013-06-03T13:22:01Z</time>
      </trkpt>
      <trkpt lat="59.9890941" lon="17.7387323">
        <ele>0</ele>
        <time>2013-06-03T13:22:02Z</time>
      </trkpt>
      <trkpt lat="59.9891314" lon="17.738718">
        <ele>0</ele>
        <time>2013-06-03T13:22:03Z</time>
      </trkpt>
      <trkpt lat="59.9891715" lon="17.7387042">
        <ele>0</ele>
        <time>2013-06-03T13:22:04Z</time>
      </trkpt>
      <trkpt lat="59.9892132" lon="17.7386881">
        <ele>0</ele>
        <time>2013-06-03T13:22:05Z</time>
      </trkpt>
      <trkpt lat="59.9892477" lon="17.7386632">
        <ele>0</ele>
        <time>2013-06-03T13:22:06Z</time>
      </trkpt>
      <trkpt lat="59.9892859" lon="17.7386593">
        <ele>0</ele>
        <time>2013-06-03T13:22:07Z</time>
      </trkpt>
      <trkpt lat="59.9893294" lon="17.7386528">
        <ele>0</ele>
        <time>2013-06-03T13:22:08Z</time>
      </trkpt>
      <trkpt lat="59.9893725" lon="17.7386384">
        <ele>0</ele>
        <time>2013-06-03T13:22:09Z</time>
      </trkpt>
      <trkpt lat="59.9894237" lon="17.7386327">
        <ele>0</ele>
        <time>2013-06-03T13:22:10Z</time>
      </trkpt>
      <trkpt lat="59.9894748" lon="17.7386078">
        <ele>0</ele>
        <time>2013-06-03T13:22:11Z</time>
      </trkpt>
      <trkpt lat="59.9895255" lon="17.7385897">
        <ele>0</ele>
        <time>2013-06-03T13:22:12Z</time>
      </trkpt>
      <trkpt lat="59.9895873" lon="17.7385922">
        <ele>0</ele>
        <time>2013-06-03T13:22:13Z</time>
      </trkpt>
      <trkpt lat="59.9896328" lon="17.7385949">
        <ele>0</ele>
        <time>2013-06-03T13:22:14Z</time>
      </trkpt>
      <trkpt lat="59.989678" lon="17.7385876">
        <ele>0</ele>
        <time>2013-06-03T13:22:15Z</time>
      </trkpt>
      <trkpt lat="59.9897288" lon="17.7385741">
        <ele>0</ele>
        <time>2013-06-03T13:22:16Z</time>
      </trkpt>
      <trkpt lat="59.9897749" lon="17.7385426">
        <ele>0</ele>
        <time>2013-06-03T13:22:17Z</time>
      </trkpt>
      <trkpt lat="59.9898191" lon="17.7385238">
        <ele>0</ele>
        <time>2013-06-03T13:22:18Z</time>
      </trkpt>
      <trkpt lat="59.9898702" lon="17.7385025">
        <ele>0</ele>
        <time>2013-06-03T13:22:19Z</time>
      </trkpt>
      <trkpt lat="59.9899254" lon="17.7384944">
        <ele>0</ele>
        <time>2013-06-03T13:22:20Z</time>
      </trkpt>
      <trkpt lat="59.9899702" lon="17.7384704">
        <ele>0</ele>
        <time>2013-06-03T13:22:21Z</time>
      </trkpt>
      <trkpt lat="59.9900121" lon="17.7384348">
        <ele>0</ele>
        <time>2013-06-03T13:22:22Z</time>
      </trkpt>
      <trkpt lat="59.9900504" lon="17.7383995">
        <ele>0</ele>
        <time>2013-06-03T13:22:23Z</time>
      </trkpt>
      <trkpt lat="59.9900928" lon="17.7383597">
        <ele>0</ele>
        <time>2013-06-03T13:22:24Z</time>
      </trkpt>
      <trkpt lat="59.9901541" lon="17.7383314">
        <ele>0</ele>
        <time>2013-06-03T13:22:25Z</time>
      </trkpt>
      <trkpt lat="59.990222" lon="17.7383005">
        <ele>0</ele>
        <time>2013-06-03T13:22:26Z</time>
      </trkpt>
      <trkpt lat="59.9902735" lon="17.7382794">
        <ele>0</ele>
        <time>2013-06-03T13:22:27Z</time>
      </trkpt>
      <trkpt lat="59.9903136" lon="17.738245">
        <ele>0</ele>
        <time>2013-06-03T13:22:28Z</time>
      </trkpt>
      <trkpt lat="59.9903469" lon="17.7382281">
        <ele>0</ele>
        <time>2013-06-03T13:22:29Z</time>
      </trkpt>
      <trkpt lat="59.9903882" lon="17.7382131">
        <ele>0</ele>
        <time>2013-06-03T13:22:30Z</time>
      </trkpt>
      <trkpt lat="59.9904369" lon="17.7382007">
        <ele>0</ele>
        <time>2013-06-03T13:22:31Z</time>
      </trkpt>
      <trkpt lat="59.9904937" lon="17.7381966">
        <ele>0</ele>
        <time>2013-06-03T13:22:32Z</time>
      </trkpt>
      <trkpt lat="59.9905473" lon="17.7381865">
        <ele>0</ele>
        <time>2013-06-03T13:22:33Z</time>
      </trkpt>
      <trkpt lat="59.9905984" lon="17.738178">
        <ele>0</ele>
        <time>2013-06-03T13:22:34Z</time>
      </trkpt>
      <trkpt lat="59.9906431" lon="17.7381696">
        <ele>0</ele>
        <time>2013-06-03T13:22:35Z</time>
      </trkpt>
      <trkpt lat="59.9906886" lon="17.7381637">
        <ele>0</ele>
        <time>2013-06-03T13:22:36Z</time>
      </trkpt>
      <trkpt lat="59.9907512" lon="17.738165">
        <ele>0</ele>
        <time>2013-06-03T13:22:37Z</time>
      </trkpt>
      <trkpt lat="59.9908108" lon="17.7381505">
        <ele>0</ele>
        <time>2013-06-03T13:22:38Z</time>
      </trkpt>
      <trkpt lat="59.9908679" lon="17.7381391">
        <ele>0</ele>
        <time>2013-06-03T13:22:39Z</time>
      </trkpt>
      <trkpt lat="59.9909161" lon="17.7381147">
        <ele>0</ele>
        <time>2013-06-03T13:22:40Z</time>
      </trkpt>
      <trkpt lat="59.9909575" lon="17.73809">
        <ele>0</ele>
        <time>2013-06-03T13:22:41Z</time>
      </trkpt>
      <trkpt lat="59.9910062" lon="17.7380754">
        <ele>0</ele>
        <time>2013-06-03T13:22:42Z</time>
      </trkpt>
      <trkpt lat="59.9910694" lon="17.7380645">
        <ele>0</ele>
        <time>2013-06-03T13:22:43Z</time>
      </trkpt>
      <trkpt lat="59.9911368" lon="17.7380634">
        <ele>0</ele>
        <time>2013-06-03T13:22:44Z</time>
      </trkpt>
      <trkpt lat="59.9911887" lon="17.7380379">
        <ele>0</ele>
        <time>2013-06-03T13:22:45Z</time>
      </trkpt>
      <trkpt lat="59.9912388" lon="17.7380177">
        <ele>0</ele>
        <time>2013-06-03T13:22:46Z</time>
      </trkpt>
      <trkpt lat="59.9912849" lon="17.7379903">
        <ele>0</ele>
        <time>2013-06-03T13:22:47Z</time>
      </trkpt>
      <trkpt lat="59.9913429" lon="17.7379422">
        <ele>0</ele>
        <time>2013-06-03T13:22:48Z</time>
      </trkpt>
      <trkpt lat="59.9913983" lon="17.7378759">
        <ele>0</ele>
        <time>2013-06-03T13:22:49Z</time>
      </trkpt>
      <trkpt lat="59.9914558" lon="17.7377941">
        <ele>0</ele>
        <time>2013-06-03T13:22:50Z</time>
      </trkpt>
      <trkpt lat="59.9915209" lon="17.7377108">
        <ele>0</ele>
        <time>2013-06-03T13:22:51Z</time>
      </trkpt>
      <trkpt lat="59.9915719" lon="17.7376247">
        <ele>0</ele>
        <time>2013-06-03T13:22:52Z</time>
      </trkpt>
      <trkpt lat="59.9916116" lon="17.7375455">
        <ele>0</ele>
        <time>2013-06-03T13:22:53Z</time>
      </trkpt>
      <trkpt lat="59.9916649" lon="17.7374676">
        <ele>0</ele>
        <time>2013-06-03T13:22:54Z</time>
      </trkpt>
      <trkpt lat="59.9917072" lon="17.7373755">
        <ele>0</ele>
        <time>2013-06-03T13:22:55Z</time>
      </trkpt>
      <trkpt lat="59.9917514" lon="17.7372791">
        <ele>0</ele>
        <time>2013-06-03T13:22:56Z</time>
      </trkpt>
      <trkpt lat="59.991796" lon="17.7371738">
        <ele>0</ele>
        <time>2013-06-03T13:22:57Z</time>
      </trkpt>
      <trkpt lat="59.991834" lon="17.7370721">
        <ele>0</ele>
        <time>2013-06-03T13:22:58Z</time>
      </trkpt>
      <trkpt lat="59.991866" lon="17.7369749">
        <ele>0</ele>
        <time>2013-06-03T13:22:59Z</time>
      </trkpt>
      <trkpt lat="59.9919032" lon="17.7368834">
        <ele>0</ele>
        <time>2013-06-03T13:23:00Z</time>
      </trkpt>
      <trkpt lat="59.991938" lon="17.7367839">
        <ele>0</ele>
        <time>2013-06-03T13:23:01Z</time>
      </trkpt>
      <trkpt lat="59.9919842" lon="17.7366699">
        <ele>0</ele>
        <time>2013-06-03T13:23:02Z</time>
      </trkpt>
      <trkpt lat="59.9920361" lon="17.7365653">
        <ele>0</ele>
        <time>2013-06-03T13:23:03Z</time>
      </trkpt>
      <trkpt lat="59.9921011" lon="17.7364094">
        <ele>0</ele>
        <time>2013-06-03T13:23:04Z</time>
      </trkpt>
      <trkpt lat="59.9921634" lon="17.7363271">
        <ele>0</ele>
        <time>2013-06-03T13:23:05Z</time>
      </trkpt>
      <trkpt lat="59.9922391" lon="17.7362702">
        <ele>0</ele>
        <time>2013-06-03T13:23:06Z</time>
      </trkpt>
      <trkpt lat="59.9923053" lon="17.7362393">
        <ele>0</ele>
        <time>2013-06-03T13:23:07Z</time>
      </trkpt>
      <trkpt lat="59.9923738" lon="17.7362067">
        <ele>0</ele>
        <time>2013-06-03T13:23:08Z</time>
      </trkpt>
      <trkpt lat="59.9925017" lon="17.7361458">
        <ele>0</ele>
        <time>2013-06-03T13:23:09Z</time>
      </trkpt>
      <trkpt lat="59.9925784" lon="17.7361443">
        <ele>0</ele>
        <time>2013-06-03T13:23:10Z</time>
      </trkpt>
      <trkpt lat="59.9926758" lon="17.7361431">
        <ele>0</ele>
        <time>2013-06-03T13:23:11Z</time>
      </trkpt>
      <trkpt lat="59.9927509" lon="17.7361648">
        <ele>0</ele>
        <time>2013-06-03T13:23:12Z</time>
      </trkpt>
      <trkpt lat="59.9928315" lon="17.7361953">
        <ele>0</ele>
        <time>2013-06-03T13:23:13Z</time>
      </trkpt>
      <trkpt lat="59.9929053" lon="17.7362243">
        <ele>0</ele>
        <time>2013-06-03T13:23:14Z</time>
      </trkpt>
      <trkpt lat="59.9930237" lon="17.7362416">
        <ele>0</ele>
        <time>2013-06-03T13:23:15Z</time>
      </trkpt>
      <trkpt lat="59.993128" lon="17.7362681">
        <ele>0</ele>
        <time>2013-06-03T13:23:16Z</time>
      </trkpt>
      <trkpt lat="59.9932418" lon="17.7362823">
        <ele>0</ele>
        <time>2013-06-03T13:23:17Z</time>
      </trkpt>
      <trkpt lat="59.9933404" lon="17.7363228">
        <ele>0</ele>
        <time>2013-06-03T13:23:18Z</time>
      </trkpt>
      <trkpt lat="59.9934497" lon="17.7363505">
        <ele>0</ele>
        <time>2013-06-03T13:23:19Z</time>
      </trkpt>
      <trkpt lat="59.9935455" lon="17.736397">
        <ele>0</ele>
        <time>2013-06-03T13:23:20Z</time>
      </trkpt>
      <trkpt lat="59.9936352" lon="17.7364291">
        <ele>0</ele>
        <time>2013-06-03T13:23:21Z</time>
      </trkpt>
      <trkpt lat="59.9937062" lon="17.7364802">
        <ele>0</ele>
        <time>2013-06-03T13:23:22Z</time>
      </trkpt>
      <trkpt lat="59.9937865" lon="17.7365142">
        <ele>0</ele>
        <time>2013-06-03T13:23:23Z</time>
      </trkpt>
      <trkpt lat="59.9938458" lon="17.7365555">
        <ele>0</ele>
        <time>2013-06-03T13:23:24Z</time>
      </trkpt>
      <trkpt lat="59.9939297" lon="17.7365758">
        <ele>0</ele>
        <time>2013-06-03T13:23:25Z</time>
      </trkpt>
      <trkpt lat="59.9940063" lon="17.7366006">
        <ele>0</ele>
        <time>2013-06-03T13:23:26Z</time>
      </trkpt>
      <trkpt lat="59.994109" lon="17.7366028">
        <ele>0</ele>
        <time>2013-06-03T13:23:27Z</time>
      </trkpt>
      <trkpt lat="59.9942372" lon="17.7365902">
        <ele>0</ele>
        <time>2013-06-03T13:23:28Z</time>
      </trkpt>
      <trkpt lat="59.9943446" lon="17.7365906">
        <ele>0</ele>
        <time>2013-06-03T13:23:29Z</time>
      </trkpt>
      <trkpt lat="59.9944361" lon="17.736598">
        <ele>0</ele>
        <time>2013-06-03T13:23:30Z</time>
      </trkpt>
      <trkpt lat="59.9945431" lon="17.7365736">
        <ele>0</ele>
        <time>2013-06-03T13:23:31Z</time>
      </trkpt>
      <trkpt lat="59.9946652" lon="17.736544">
        <ele>0</ele>
        <time>2013-06-03T13:23:32Z</time>
      </trkpt>
      <trkpt lat="59.9947585" lon="17.7365343">
        <ele>0</ele>
        <time>2013-06-03T13:23:33Z</time>
      </trkpt>
      <trkpt lat="59.9948647" lon="17.7365048">
        <ele>0</ele>
        <time>2013-06-03T13:23:34Z</time>
      </trkpt>
      <trkpt lat="59.9949425" lon="17.736496">
        <ele>0</ele>
        <time>2013-06-03T13:23:35Z</time>
      </trkpt>
      <trkpt lat="59.9950181" lon="17.7364907">
        <ele>0</ele>
        <time>2013-06-03T13:23:36Z</time>
      </trkpt>
      <trkpt lat="59.9950963" lon="17.7364768">
        <ele>0</ele>
        <time>2013-06-03T13:23:37Z</time>
      </trkpt>
      <trkpt lat="59.9951757" lon="17.73647">
        <ele>0</ele>
        <time>2013-06-03T13:23:38Z</time>
      </trkpt>
      <trkpt lat="59.9952637" lon="17.7364752">
        <ele>0</ele>
        <time>2013-06-03T13:23:39Z</time>
      </trkpt>
      <trkpt lat="59.9953496" lon="17.7364779">
        <ele>0</ele>
        <time>2013-06-03T13:23:40Z</time>
      </trkpt>
      <trkpt lat="59.9954369" lon="17.7364778">
        <ele>0</ele>
        <time>2013-06-03T13:23:41Z</time>
      </trkpt>
      <trkpt lat="59.9955161" lon="17.7364968">
        <ele>0</ele>
        <time>2013-06-03T13:23:42Z</time>
      </trkpt>
      <trkpt lat="59.9955979" lon="17.7365244">
        <ele>0</ele>
        <time>2013-06-03T13:23:43Z</time>
      </trkpt>
      <trkpt lat="59.9956782" lon="17.7365586">
        <ele>0</ele>
        <time>2013-06-03T13:23:44Z</time>
      </trkpt>
      <trkpt lat="59.9957564" lon="17.7365958">
        <ele>0</ele>
        <time>2013-06-03T13:23:45Z</time>
      </trkpt>
      <trkpt lat="59.9958341" lon="17.7366367">
        <ele>0</ele>
        <time>2013-06-03T13:23:46Z</time>
      </trkpt>
      <trkpt lat="59.9959121" lon="17.7366763">
        <ele>0</ele>
        <time>2013-06-03T13:23:47Z</time>
      </trkpt>
      <trkpt lat="59.9959858" lon="17.7367016">
        <ele>0</ele>
        <time>2013-06-03T13:23:48Z</time>
      </trkpt>
      <trkpt lat="59.9960572" lon="17.7367354">
        <ele>0</ele>
        <time>2013-06-03T13:23:49Z</time>
      </trkpt>
      <trkpt lat="59.9961323" lon="17.736782">
        <ele>0</ele>
        <time>2013-06-03T13:23:50Z</time>
      </trkpt>
      <trkpt lat="59.9962075" lon="17.7368398">
        <ele>0</ele>
        <time>2013-06-03T13:23:51Z</time>
      </trkpt>
      <trkpt lat="59.9962873" lon="17.7368918">
        <ele>0</ele>
        <time>2013-06-03T13:23:52Z</time>
      </trkpt>
      <trkpt lat="59.9963599" lon="17.7369246">
        <ele>0</ele>
        <time>2013-06-03T13:23:53Z</time>
      </trkpt>
      <trkpt lat="59.9964302" lon="17.7369343">
        <ele>0</ele>
        <time>2013-06-03T13:23:54Z</time>
      </trkpt>
      <trkpt lat="59.9965029" lon="17.7369487">
        <ele>0</ele>
        <time>2013-06-03T13:23:55Z</time>
      </trkpt>
      <trkpt lat="59.9965694" lon="17.7369641">
        <ele>0</ele>
        <time>2013-06-03T13:23:56Z</time>
      </trkpt>
      <trkpt lat="59.996633" lon="17.7369714">
        <ele>0</ele>
        <time>2013-06-03T13:23:57Z</time>
      </trkpt>
      <trkpt lat="59.9966927" lon="17.7369768">
        <ele>0</ele>
        <time>2013-06-03T13:23:58Z</time>
      </trkpt>
      <trkpt lat="59.9967445" lon="17.7369791">
        <ele>0</ele>
        <time>2013-06-03T13:23:59Z</time>
      </trkpt>
      <trkpt lat="59.9968041" lon="17.7369762">
        <ele>0</ele>
        <time>2013-06-03T13:24:00Z</time>
      </trkpt>
      <trkpt lat="59.9968561" lon="17.7369787">
        <ele>0</ele>
        <time>2013-06-03T13:24:01Z</time>
      </trkpt>
      <trkpt lat="59.9969236" lon="17.7369684">
        <ele>0</ele>
        <time>2013-06-03T13:24:02Z</time>
      </trkpt>
      <trkpt lat="59.9969899" lon="17.7369707">
        <ele>0</ele>
        <time>2013-06-03T13:24:03Z</time>
      </trkpt>
      <trkpt lat="59.9970437" lon="17.7369689">
        <ele>0</ele>
        <time>2013-06-03T13:24:04Z</time>
      </trkpt>
      <trkpt lat="59.9971038" lon="17.7369759">
        <ele>0</ele>
        <time>2013-06-03T13:24:05Z</time>
      </trkpt>
      <trkpt lat="59.9971716" lon="17.7369731">
        <ele>0</ele>
        <time>2013-06-03T13:24:06Z</time>
      </trkpt>
      <trkpt lat="59.9972258" lon="17.7369702">
        <ele>0</ele>
        <time>2013-06-03T13:24:07Z</time>
      </trkpt>
      <trkpt lat="59.9972788" lon="17.7369645">
        <ele>0</ele>
        <time>2013-06-03T13:24:08Z</time>
      </trkpt>
      <trkpt lat="59.9973447" lon="17.7369517">
        <ele>0</ele>
        <time>2013-06-03T13:24:09Z</time>
      </trkpt>
      <trkpt lat="59.9974104" lon="17.7369337">
        <ele>0</ele>
        <time>2013-06-03T13:24:10Z</time>
      </trkpt>
      <trkpt lat="59.9974715" lon="17.736931">
        <ele>0</ele>
        <time>2013-06-03T13:24:11Z</time>
      </trkpt>
      <trkpt lat="59.9975304" lon="17.7369186">
        <ele>0</ele>
        <time>2013-06-03T13:24:12Z</time>
      </trkpt>
      <trkpt lat="59.9976057" lon="17.7369093">
        <ele>0</ele>
        <time>2013-06-03T13:24:13Z</time>
      </trkpt>
      <trkpt lat="59.9976734" lon="17.7369036">
        <ele>0</ele>
        <time>2013-06-03T13:24:14Z</time>
      </trkpt>
      <trkpt lat="59.9977207" lon="17.7369093">
        <ele>0</ele>
        <time>2013-06-03T13:24:15Z</time>
      </trkpt>
      <trkpt lat="59.9977694" lon="17.7369171">
        <ele>0</ele>
        <time>2013-06-03T13:24:16Z</time>
      </trkpt>
      <trkpt lat="59.9978258" lon="17.736935">
        <ele>0</ele>
        <time>2013-06-03T13:24:17Z</time>
      </trkpt>
      <trkpt lat="59.9978865" lon="17.7369434">
        <ele>0</ele>
        <time>2013-06-03T13:24:18Z</time>
      </trkpt>
      <trkpt lat="59.9979735" lon="17.7369543">
        <ele>0</ele>
        <time>2013-06-03T13:24:19Z</time>
      </trkpt>
      <trkpt lat="59.9980611" lon="17.7369646">
        <ele>0</ele>
        <time>2013-06-03T13:24:20Z</time>
      </trkpt>
      <trkpt lat="59.9981542" lon="17.7369697">
        <ele>0</ele>
        <time>2013-06-03T13:24:21Z</time>
      </trkpt>
      <trkpt lat="59.9982489" lon="17.7369754">
        <ele>0</ele>
        <time>2013-06-03T13:24:22Z</time>
      </trkpt>
      <trkpt lat="59.9983289" lon="17.7369874">
        <ele>0</ele>
        <time>2013-06-03T13:24:23Z</time>
      </trkpt>
      <trkpt lat="59.9984065" lon="17.7370031">
        <ele>0</ele>
        <time>2013-06-03T13:24:24Z</time>
      </trkpt>
      <trkpt lat="59.9984753" lon="17.7370163">
        <ele>0</ele>
        <time>2013-06-03T13:24:25Z</time>
      </trkpt>
      <trkpt lat="59.9985448" lon="17.7370247">
        <ele>0</ele>
        <time>2013-06-03T13:24:26Z</time>
      </trkpt>
      <trkpt lat="59.9986179" lon="17.737033">
        <ele>0</ele>
        <time>2013-06-03T13:24:27Z</time>
      </trkpt>
      <trkpt lat="59.9986894" lon="17.7370405">
        <ele>0</ele>
        <time>2013-06-03T13:24:28Z</time>
      </trkpt>
      <trkpt lat="59.9987537" lon="17.737048">
        <ele>0</ele>
        <time>2013-06-03T13:24:29Z</time>
      </trkpt>
      <trkpt lat="59.9988249" lon="17.7370558">
        <ele>0</ele>
        <time>2013-06-03T13:24:30Z</time>
      </trkpt>
      <trkpt lat="59.998884" lon="17.7370689">
        <ele>0</ele>
        <time>2013-06-03T13:24:31Z</time>
      </trkpt>
      <trkpt lat="59.9989459" lon="17.7370787">
        <ele>0</ele>
        <time>2013-06-03T13:24:32Z</time>
      </trkpt>
      <trkpt lat="59.9989953" lon="17.7370957">
        <ele>0</ele>
        <time>2013-06-03T13:24:33Z</time>
      </trkpt>
      <trkpt lat="59.9990557" lon="17.7371041">
        <ele>0</ele>
        <time>2013-06-03T13:24:34Z</time>
      </trkpt>
      <trkpt lat="59.9991041" lon="17.7371207">
        <ele>0</ele>
        <time>2013-06-03T13:24:35Z</time>
      </trkpt>
      <trkpt lat="59.9991688" lon="17.7371262">
        <ele>0</ele>
        <time>2013-06-03T13:24:36Z</time>
      </trkpt>
      <trkpt lat="59.9992318" lon="17.7371311">
        <ele>0</ele>
        <time>2013-06-03T13:24:37Z</time>
      </trkpt>
      <trkpt lat="59.9993032" lon="17.7371324">
        <ele>0</ele>
        <time>2013-06-03T13:24:38Z</time>
      </trkpt>
      <trkpt lat="59.9993605" lon="17.7371373">
        <ele>0</ele>
        <time>2013-06-03T13:24:39Z</time>
      </trkpt>
      <trkpt lat="59.999426" lon="17.7371223">
        <ele>0</ele>
        <time>2013-06-03T13:24:40Z</time>
      </trkpt>
      <trkpt lat="59.9994913" lon="17.737116">
        <ele>0</ele>
        <time>2013-06-03T13:24:41Z</time>
      </trkpt>
      <trkpt lat="59.9995693" lon="17.7370984">
        <ele>0</ele>
        <time>2013-06-03T13:24:42Z</time>
      </trkpt>
      <trkpt lat="59.9996461" lon="17.7370813">
        <ele>0</ele>
        <time>2013-06-03T13:24:43Z</time>
      </trkpt>
      <trkpt lat="59.9997343" lon="17.7370518">
        <ele>0</ele>
        <time>2013-06-03T13:24:44Z</time>
      </trkpt>
      <trkpt lat="59.9998198" lon="17.7370248">
        <ele>0</ele>
        <time>2013-06-03T13:24:45Z</time>
      </trkpt>
      <trkpt lat="59.9999087" lon="17.7369918">
        <ele>0</ele>
        <time>2013-06-03T13:24:46Z</time>
      </trkpt>
      <trkpt lat="59.9999897" lon="17.7369466">
        <ele>0</ele>
        <time>2013-06-03T13:24:47Z</time>
      </trkpt>
      <trkpt lat="60.0000767" lon="17.736891">
        <ele>0</ele>
        <time>2013-06-03T13:24:48Z</time>
      </trkpt>
      <trkpt lat="60.0001616" lon="17.7368259">
        <ele>0</ele>
        <time>2013-06-03T13:24:49Z</time>
      </trkpt>
      <trkpt lat="60.0002392" lon="17.7367565">
        <ele>0</ele>
        <time>2013-06-03T13:24:50Z</time>
      </trkpt>
      <trkpt lat="60.000318" lon="17.7366952">
        <ele>0</ele>
        <time>2013-06-03T13:24:51Z</time>
      </trkpt>
      <trkpt lat="60.0003884" lon="17.7366409">
        <ele>0</ele>
        <time>2013-06-03T13:24:52Z</time>
      </trkpt>
      <trkpt lat="60.0004481" lon="17.7365607">
        <ele>0</ele>
        <time>2013-06-03T13:24:53Z</time>
      </trkpt>
      <trkpt lat="60.0005467" lon="17.7365281">
        <ele>0</ele>
        <time>2013-06-03T13:24:54Z</time>
      </trkpt>
      <trkpt lat="60.0006314" lon="17.7364819">
        <ele>0</ele>
        <time>2013-06-03T13:24:55Z</time>
      </trkpt>
      <trkpt lat="60.0007508" lon="17.7364232">
        <ele>0</ele>
        <time>2013-06-03T13:24:56Z</time>
      </trkpt>
      <trkpt lat="60.0008365" lon="17.7363783">
        <ele>0</ele>
        <time>2013-06-03T13:24:57Z</time>
      </trkpt>
      <trkpt lat="60.0009102" lon="17.7363141">
        <ele>0</ele>
        <time>2013-06-03T13:24:58Z</time>
      </trkpt>
      <trkpt lat="60.0009769" lon="17.7362644">
        <ele>0</ele>
        <time>2013-06-03T13:24:59Z</time>
      </trkpt>
      <trkpt lat="60.0010414" lon="17.7361955">
        <ele>0</ele>
        <time>2013-06-03T13:25:00Z</time>
      </trkpt>
      <trkpt lat="60.0011142" lon="17.7361261">
        <ele>0</ele>
        <time>2013-06-03T13:25:01Z</time>
      </trkpt>
      <trkpt lat="60.0011628" lon="17.73605">
        <ele>0</ele>
        <time>2013-06-03T13:25:02Z</time>
      </trkpt>
      <trkpt lat="60.0012368" lon="17.7359804">
        <ele>0</ele>
        <time>2013-06-03T13:25:03Z</time>
      </trkpt>
      <trkpt lat="60.0013047" lon="17.7359073">
        <ele>0</ele>
        <time>2013-06-03T13:25:04Z</time>
      </trkpt>
      <trkpt lat="60.0013877" lon="17.7358345">
        <ele>0</ele>
        <time>2013-06-03T13:25:05Z</time>
      </trkpt>
      <trkpt lat="60.0014512" lon="17.7357562">
        <ele>0</ele>
        <time>2013-06-03T13:25:06Z</time>
      </trkpt>
      <trkpt lat="60.0015488" lon="17.7356656">
        <ele>0</ele>
        <time>2013-06-03T13:25:07Z</time>
      </trkpt>
      <trkpt lat="60.0016249" lon="17.7355473">
        <ele>0</ele>
        <time>2013-06-03T13:25:08Z</time>
      </trkpt>
      <trkpt lat="60.0017034" lon="17.7354087">
        <ele>0</ele>
        <time>2013-06-03T13:25:09Z</time>
      </trkpt>
      <trkpt lat="60.0017965" lon="17.735275">
        <ele>0</ele>
        <time>2013-06-03T13:25:10Z</time>
      </trkpt>
      <trkpt lat="60.0018573" lon="17.7351494">
        <ele>0</ele>
        <time>2013-06-03T13:25:11Z</time>
      </trkpt>
      <trkpt lat="60.0019242" lon="17.7349645">
        <ele>0.618042</ele>
        <time>2013-06-03T13:25:12Z</time>
      </trkpt>
      <trkpt lat="60.0019626" lon="17.7347729">
        <ele>2.06006</ele>
        <time>2013-06-03T13:25:13Z</time>
      </trkpt>
      <trkpt lat="60.0020257" lon="17.7344838">
        <ele>9.75061</ele>
        <time>2013-06-03T13:25:14Z</time>
      </trkpt>
      <trkpt lat="60.0021189" lon="17.7343144">
        <ele>22.2476</ele>
        <time>2013-06-03T13:25:15Z</time>
      </trkpt>
      <trkpt lat="60.0021717" lon="17.7341437">
        <ele>26.5736</ele>
        <time>2013-06-03T13:25:16Z</time>
      </trkpt>
      <trkpt lat="60.0022134" lon="17.7339851">
        <ele>29.9381</ele>
        <time>2013-06-03T13:25:17Z</time>
      </trkpt>
      <trkpt lat="60.0022388" lon="17.7338076">
        <ele>31.8607</ele>
        <time>2013-06-03T13:25:18Z</time>
      </trkpt>
      <trkpt lat="60.0022575" lon="17.733647">
        <ele>33.3029</ele>
        <time>2013-06-03T13:25:19Z</time>
      </trkpt>
      <trkpt lat="60.002248" lon="17.7334069">
        <ele>33.7834</ele>
        <time>2013-06-03T13:25:20Z</time>
      </trkpt>
      <trkpt lat="60.0022332" lon="17.7332069">
        <ele>34.2642</ele>
        <time>2013-06-03T13:25:21Z</time>
      </trkpt>
      <trkpt lat="60.0022262" lon="17.7330282">
        <ele>35.7061</ele>
        <time>2013-06-03T13:25:22Z</time>
      </trkpt>
      <trkpt lat="60.0022217" lon="17.7328585">
        <ele>36.1868</ele>
        <time>2013-06-03T13:25:23Z</time>
      </trkpt>
      <trkpt lat="60.0022305" lon="17.7326807">
        <ele>37.1481</ele>
        <time>2013-06-03T13:25:24Z</time>
      </trkpt>
      <trkpt lat="60.0022693" lon="17.7325176">
        <ele>38.1094</ele>
        <time>2013-06-03T13:25:25Z</time>
      </trkpt>
      <trkpt lat="60.0022966" lon="17.7323139">
        <ele>39.0707</ele>
        <time>2013-06-03T13:25:26Z</time>
      </trkpt>
      <trkpt lat="60.0023428" lon="17.7321291">
        <ele>40.0321</ele>
        <time>2013-06-03T13:25:27Z</time>
      </trkpt>
      <trkpt lat="60.0023983" lon="17.731949">
        <ele>40.5128</ele>
        <time>2013-06-03T13:25:28Z</time>
      </trkpt>
      <trkpt lat="60.0024707" lon="17.7317948">
        <ele>42.916</ele>
        <time>2013-06-03T13:25:29Z</time>
      </trkpt>
      <trkpt lat="60.0025086" lon="17.7316091">
        <ele>42.4354</ele>
        <time>2013-06-03T13:25:30Z</time>
      </trkpt>
      <trkpt lat="60.0025634" lon="17.7314505">
        <ele>43.3966</ele>
        <time>2013-06-03T13:25:31Z</time>
      </trkpt>
      <trkpt lat="60.0026199" lon="17.7313073">
        <ele>44.358</ele>
        <time>2013-06-03T13:25:32Z</time>
      </trkpt>
      <trkpt lat="60.0026802" lon="17.7311647">
        <ele>44.8386</ele>
        <time>2013-06-03T13:25:33Z</time>
      </trkpt>
      <trkpt lat="60.0027468" lon="17.7310397">
        <ele>45.7999</ele>
        <time>2013-06-03T13:25:34Z</time>
      </trkpt>
      <trkpt lat="60.0028168" lon="17.7309199">
        <ele>46.7612</ele>
        <time>2013-06-03T13:25:35Z</time>
      </trkpt>
      <trkpt lat="60.002882" lon="17.7307973">
        <ele>47.2418</ele>
        <time>2013-06-03T13:25:36Z</time>
      </trkpt>
      <trkpt lat="60.0029427" lon="17.7306829">
        <ele>46.7612</ele>
        <time>2013-06-03T13:25:37Z</time>
      </trkpt>
      <trkpt lat="60.0030018" lon="17.7305667">
        <ele>45.7999</ele>
        <time>2013-06-03T13:25:38Z</time>
      </trkpt>
      <trkpt lat="60.0030588" lon="17.7304431">
        <ele>45.3192</ele>
        <time>2013-06-03T13:25:39Z</time>
      </trkpt>
      <trkpt lat="60.0031292" lon="17.7303473">
        <ele>45.7999</ele>
        <time>2013-06-03T13:25:40Z</time>
      </trkpt>
      <trkpt lat="60.0031924" lon="17.7302558">
        <ele>45.3192</ele>
        <time>2013-06-03T13:25:41Z</time>
      </trkpt>
      <trkpt lat="60.003257" lon="17.7301611">
        <ele>45.3192</ele>
        <time>2013-06-03T13:25:42Z</time>
      </trkpt>
      <trkpt lat="60.0033224" lon="17.7300591">
        <ele>46.2806</ele>
        <time>2013-06-03T13:25:43Z</time>
      </trkpt>
      <trkpt lat="60.003383" lon="17.7299587">
        <ele>45.7999</ele>
        <time>2013-06-03T13:25:44Z</time>
      </trkpt>
      <trkpt lat="60.0034435" lon="17.7298505">
        <ele>44.8386</ele>
        <time>2013-06-03T13:25:45Z</time>
      </trkpt>
      <trkpt lat="60.0035007" lon="17.7297442">
        <ele>43.8773</ele>
        <time>2013-06-03T13:25:46Z</time>
      </trkpt>
      <trkpt lat="60.0035588" lon="17.7296384">
        <ele>43.3966</ele>
        <time>2013-06-03T13:25:47Z</time>
      </trkpt>
      <trkpt lat="60.0036167" lon="17.729528">
        <ele>42.916</ele>
        <time>2013-06-03T13:25:48Z</time>
      </trkpt>
      <trkpt lat="60.0036623" lon="17.7294048">
        <ele>40.9934</ele>
        <time>2013-06-03T13:25:49Z</time>
      </trkpt>
      <trkpt lat="60.0037124" lon="17.7293102">
        <ele>40.5128</ele>
        <time>2013-06-03T13:25:50Z</time>
      </trkpt>
      <trkpt lat="60.0037618" lon="17.7292158">
        <ele>40.0321</ele>
        <time>2013-06-03T13:25:51Z</time>
      </trkpt>
      <trkpt lat="60.0038108" lon="17.7291304">
        <ele>39.5513</ele>
        <time>2013-06-03T13:25:52Z</time>
      </trkpt>
      <trkpt lat="60.0038601" lon="17.7290414">
        <ele>40.5128</ele>
        <time>2013-06-03T13:25:53Z</time>
      </trkpt>
      <trkpt lat="60.0039086" lon="17.7289681">
        <ele>40.5128</ele>
        <time>2013-06-03T13:25:54Z</time>
      </trkpt>
      <trkpt lat="60.0039563" lon="17.7289123">
        <ele>39.5513</ele>
        <time>2013-06-03T13:25:55Z</time>
      </trkpt>
      <trkpt lat="60.0039947" lon="17.7288624">
        <ele>38.5901</ele>
        <time>2013-06-03T13:25:56Z</time>
      </trkpt>
      <trkpt lat="60.004029" lon="17.7288191">
        <ele>38.1094</ele>
        <time>2013-06-03T13:25:57Z</time>
      </trkpt>
      <trkpt lat="60.0040678" lon="17.7288018">
        <ele>38.1094</ele>
        <time>2013-06-03T13:25:58Z</time>
      </trkpt>
      <trkpt lat="60.0041083" lon="17.7288034">
        <ele>38.5901</ele>
        <time>2013-06-03T13:25:59Z</time>
      </trkpt>
      <trkpt lat="60.0041471" lon="17.7288345">
        <ele>38.5901</ele>
        <time>2013-06-03T13:26:00Z</time>
      </trkpt>
      <trkpt lat="60.0041832" lon="17.728889">
        <ele>39.5513</ele>
        <time>2013-06-03T13:26:01Z</time>
      </trkpt>
      <trkpt lat="60.0042097" lon="17.7289641">
        <ele>38.5901</ele>
        <time>2013-06-03T13:26:02Z</time>
      </trkpt>
      <trkpt lat="60.0042305" lon="17.7290392">
        <ele>38.5901</ele>
        <time>2013-06-03T13:26:03Z</time>
      </trkpt>
      <trkpt lat="60.0042517" lon="17.7291236">
        <ele>38.1094</ele>
        <time>2013-06-03T13:26:04Z</time>
      </trkpt>
      <trkpt lat="60.0042726" lon="17.7292143">
        <ele>37.6287</ele>
        <time>2013-06-03T13:26:05Z</time>
      </trkpt>
      <trkpt lat="60.0042952" lon="17.7293065">
        <ele>37.6287</ele>
        <time>2013-06-03T13:26:06Z</time>
      </trkpt>
      <trkpt lat="60.0043217" lon="17.7294063">
        <ele>37.1481</ele>
        <time>2013-06-03T13:26:07Z</time>
      </trkpt>
      <trkpt lat="60.0043517" lon="17.7295099">
        <ele>37.1481</ele>
        <time>2013-06-03T13:26:08Z</time>
      </trkpt>
      <trkpt lat="60.0044122" lon="17.7297079">
        <ele>37.1481</ele>
        <time>2013-06-03T13:26:10Z</time>
      </trkpt>
      <trkpt lat="60.0044354" lon="17.7298036">
        <ele>36.6675</ele>
        <time>2013-06-03T13:26:11Z</time>
      </trkpt>
      <trkpt lat="60.0044577" lon="17.7299009">
        <ele>36.1868</ele>
        <time>2013-06-03T13:26:12Z</time>
      </trkpt>
      <trkpt lat="60.0044873" lon="17.7299877">
        <ele>37.1481</ele>
        <time>2013-06-03T13:26:13Z</time>
      </trkpt>
      <trkpt lat="60.0045248" lon="17.7300784">
        <ele>37.6287</ele>
        <time>2013-06-03T13:26:14Z</time>
      </trkpt>
      <trkpt lat="60.0045585" lon="17.7301752">
        <ele>38.1094</ele>
        <time>2013-06-03T13:26:15Z</time>
      </trkpt>
      <trkpt lat="60.0045856" lon="17.7302661">
        <ele>39.5513</ele>
        <time>2013-06-03T13:26:16Z</time>
      </trkpt>
      <trkpt lat="60.00461" lon="17.7303542">
        <ele>40.0321</ele>
        <time>2013-06-03T13:26:17Z</time>
      </trkpt>
      <trkpt lat="60.004635" lon="17.7304425">
        <ele>41.474</ele>
        <time>2013-06-03T13:26:18Z</time>
      </trkpt>
      <trkpt lat="60.0046613" lon="17.7305343">
        <ele>41.9547</ele>
        <time>2013-06-03T13:26:19Z</time>
      </trkpt>
      <trkpt lat="60.0046865" lon="17.7306262">
        <ele>43.3966</ele>
        <time>2013-06-03T13:26:20Z</time>
      </trkpt>
      <trkpt lat="60.0047122" lon="17.730717">
        <ele>43.8773</ele>
        <time>2013-06-03T13:26:21Z</time>
      </trkpt>
      <trkpt lat="60.0047402" lon="17.7308049">
        <ele>44.8386</ele>
        <time>2013-06-03T13:26:22Z</time>
      </trkpt>
      <trkpt lat="60.0047677" lon="17.730894">
        <ele>45.7999</ele>
        <time>2013-06-03T13:26:23Z</time>
      </trkpt>
      <trkpt lat="60.0047947" lon="17.7309829">
        <ele>45.7999</ele>
        <time>2013-06-03T13:26:24Z</time>
      </trkpt>
      <trkpt lat="60.0048215" lon="17.7310733">
        <ele>45.7999</ele>
        <time>2013-06-03T13:26:25Z</time>
      </trkpt>
      <trkpt lat="60.0048479" lon="17.731165">
        <ele>46.2806</ele>
        <time>2013-06-03T13:26:26Z</time>
      </trkpt>
      <trkpt lat="60.0048743" lon="17.7312521">
        <ele>46.2806</ele>
        <time>2013-06-03T13:26:27Z</time>
      </trkpt>
      <trkpt lat="60.0049039" lon="17.7313329">
        <ele>46.2806</ele>
        <time>2013-06-03T13:26:28Z</time>
      </trkpt>
      <trkpt lat="60.0049372" lon="17.7314083">
        <ele>46.2806</ele>
        <time>2013-06-03T13:26:29Z</time>
      </trkpt>
      <trkpt lat="60.0049744" lon="17.7314815">
        <ele>46.7612</ele>
        <time>2013-06-03T13:26:30Z</time>
      </trkpt>
      <trkpt lat="60.0050117" lon="17.7315576">
        <ele>46.7612</ele>
        <time>2013-06-03T13:26:31Z</time>
      </trkpt>
      <trkpt lat="60.0050474" lon="17.7316354">
        <ele>47.2418</ele>
        <time>2013-06-03T13:26:32Z</time>
      </trkpt>
      <trkpt lat="60.0050826" lon="17.7317152">
        <ele>47.2418</ele>
        <time>2013-06-03T13:26:33Z</time>
      </trkpt>
      <trkpt lat="60.0051159" lon="17.7317917">
        <ele>47.7225</ele>
        <time>2013-06-03T13:26:34Z</time>
      </trkpt>
      <trkpt lat="60.0051544" lon="17.7318521">
        <ele>48.684</ele>
        <time>2013-06-03T13:26:35Z</time>
      </trkpt>
      <trkpt lat="60.0051993" lon="17.7318784">
        <ele>49.1646</ele>
        <time>2013-06-03T13:26:36Z</time>
      </trkpt>
      <trkpt lat="60.0052505" lon="17.7318644">
        <ele>48.684</ele>
        <time>2013-06-03T13:26:37Z</time>
      </trkpt>
      <trkpt lat="60.0052996" lon="17.7318192">
        <ele>48.684</ele>
        <time>2013-06-03T13:26:38Z</time>
      </trkpt>
      <trkpt lat="60.005349" lon="17.7317619">
        <ele>48.684</ele>
        <time>2013-06-03T13:26:39Z</time>
      </trkpt>
      <trkpt lat="60.0054022" lon="17.7317026">
        <ele>49.1646</ele>
        <time>2013-06-03T13:26:40Z</time>
      </trkpt>
      <trkpt lat="60.0054587" lon="17.7316416">
        <ele>49.1646</ele>
        <time>2013-06-03T13:26:41Z</time>
      </trkpt>
      <trkpt lat="60.0055158" lon="17.7315774">
        <ele>49.1646</ele>
        <time>2013-06-03T13:26:42Z</time>
      </trkpt>
      <trkpt lat="60.0055757" lon="17.7315145">
        <ele>49.1646</ele>
        <time>2013-06-03T13:26:43Z</time>
      </trkpt>
      <trkpt lat="60.0056332" lon="17.7314578">
        <ele>48.2034</ele>
        <time>2013-06-03T13:26:44Z</time>
      </trkpt>
      <trkpt lat="60.0056885" lon="17.7314075">
        <ele>46.2806</ele>
        <time>2013-06-03T13:26:45Z</time>
      </trkpt>
      <trkpt lat="60.0057457" lon="17.73136">
        <ele>42.916</ele>
        <time>2013-06-03T13:26:46Z</time>
      </trkpt>
      <trkpt lat="60.0058005" lon="17.7313003">
        <ele>42.916</ele>
        <time>2013-06-03T13:26:47Z</time>
      </trkpt>
      <trkpt lat="60.0058679" lon="17.7312349">
        <ele>44.358</ele>
        <time>2013-06-03T13:26:48Z</time>
      </trkpt>
      <trkpt lat="60.0059299" lon="17.7311727">
        <ele>44.8386</ele>
        <time>2013-06-03T13:26:49Z</time>
      </trkpt>
      <trkpt lat="60.0059955" lon="17.7311089">
        <ele>44.8386</ele>
        <time>2013-06-03T13:26:50Z</time>
      </trkpt>
      <trkpt lat="60.0060606" lon="17.7310454">
        <ele>44.358</ele>
        <time>2013-06-03T13:26:51Z</time>
      </trkpt>
      <trkpt lat="60.0061285" lon="17.7309862">
        <ele>44.358</ele>
        <time>2013-06-03T13:26:52Z</time>
      </trkpt>
      <trkpt lat="60.0062004" lon="17.7309247">
        <ele>45.3192</ele>
        <time>2013-06-03T13:26:53Z</time>
      </trkpt>
      <trkpt lat="60.0062694" lon="17.7308741">
        <ele>42.916</ele>
        <time>2013-06-03T13:26:54Z</time>
      </trkpt>
      <trkpt lat="60.0063379" lon="17.7308214">
        <ele>40.5128</ele>
        <time>2013-06-03T13:26:55Z</time>
      </trkpt>
      <trkpt lat="60.006401" lon="17.7307517">
        <ele>39.5513</ele>
        <time>2013-06-03T13:26:56Z</time>
      </trkpt>
      <trkpt lat="60.0064712" lon="17.7306973">
        <ele>38.1094</ele>
        <time>2013-06-03T13:26:57Z</time>
      </trkpt>
      <trkpt lat="60.0065474" lon="17.730648">
        <ele>36.6675</ele>
        <time>2013-06-03T13:26:58Z</time>
      </trkpt>
      <trkpt lat="60.0066176" lon="17.7305803">
        <ele>36.1868</ele>
        <time>2013-06-03T13:26:59Z</time>
      </trkpt>
      <trkpt lat="60.006691" lon="17.7305234">
        <ele>35.2255</ele>
        <time>2013-06-03T13:27:00Z</time>
      </trkpt>
      <trkpt lat="60.0067609" lon="17.7304711">
        <ele>33.3029</ele>
        <time>2013-06-03T13:27:01Z</time>
      </trkpt>
      <trkpt lat="60.0068402" lon="17.7304047">
        <ele>33.7834</ele>
        <time>2013-06-03T13:27:02Z</time>
      </trkpt>
      <trkpt lat="60.0069195" lon="17.7303573">
        <ele>32.3416</ele>
        <time>2013-06-03T13:27:03Z</time>
      </trkpt>
      <trkpt lat="60.0069915" lon="17.7303196">
        <ele>31.3801</ele>
        <time>2013-06-03T13:27:04Z</time>
      </trkpt>
      <trkpt lat="60.0070598" lon="17.7302693">
        <ele>31.3801</ele>
        <time>2013-06-03T13:27:05Z</time>
      </trkpt>
      <trkpt lat="60.0071257" lon="17.730224">
        <ele>30.8995</ele>
        <time>2013-06-03T13:27:06Z</time>
      </trkpt>
      <trkpt lat="60.0071943" lon="17.7301825">
        <ele>29.9381</ele>
        <time>2013-06-03T13:27:07Z</time>
      </trkpt>
      <trkpt lat="60.0072597" lon="17.730147">
        <ele>28.9769</ele>
        <time>2013-06-03T13:27:08Z</time>
      </trkpt>
      <trkpt lat="60.0073189" lon="17.7301129">
        <ele>28.0155</ele>
        <time>2013-06-03T13:27:09Z</time>
      </trkpt>
      <trkpt lat="60.0073876" lon="17.7300799">
        <ele>26.0929</ele>
        <time>2013-06-03T13:27:10Z</time>
      </trkpt>
      <trkpt lat="60.0074585" lon="17.7300541">
        <ele>24.651</ele>
        <time>2013-06-03T13:27:11Z</time>
      </trkpt>
      <trkpt lat="60.0075452" lon="17.7300382">
        <ele>24.1703</ele>
        <time>2013-06-03T13:27:12Z</time>
      </trkpt>
      <trkpt lat="60.0076116" lon="17.7300151">
        <ele>24.651</ele>
        <time>2013-06-03T13:27:13Z</time>
      </trkpt>
      <trkpt lat="60.0076852" lon="17.7300111">
        <ele>24.1703</ele>
        <time>2013-06-03T13:27:14Z</time>
      </trkpt>
      <trkpt lat="60.007769" lon="17.7300097">
        <ele>23.6896</ele>
        <time>2013-06-03T13:27:15Z</time>
      </trkpt>
      <trkpt lat="60.0078358" lon="17.7299679">
        <ele>22.2476</ele>
        <time>2013-06-03T13:27:16Z</time>
      </trkpt>
      <trkpt lat="60.0079125" lon="17.729983">
        <ele>21.767</ele>
        <time>2013-06-03T13:27:17Z</time>
      </trkpt>
      <trkpt lat="60.0079763" lon="17.7299901">
        <ele>20.325</ele>
        <time>2013-06-03T13:27:18Z</time>
      </trkpt>
      <trkpt lat="60.008086" lon="17.7299721">
        <ele>23.6896</ele>
        <time>2013-06-03T13:27:19Z</time>
      </trkpt>
      <trkpt lat="60.0081724" lon="17.7299839">
        <ele>25.1317</ele>
        <time>2013-06-03T13:27:20Z</time>
      </trkpt>
      <trkpt lat="60.0082628" lon="17.7299862">
        <ele>25.6123</ele>
        <time>2013-06-03T13:27:21Z</time>
      </trkpt>
      <trkpt lat="60.0083505" lon="17.730002">
        <ele>26.0929</ele>
        <time>2013-06-03T13:27:22Z</time>
      </trkpt>
      <trkpt lat="60.0084296" lon="17.730022">
        <ele>26.0929</ele>
        <time>2013-06-03T13:27:23Z</time>
      </trkpt>
      <trkpt lat="60.0085155" lon="17.7300436">
        <ele>27.0543</ele>
        <time>2013-06-03T13:27:24Z</time>
      </trkpt>
      <trkpt lat="60.0086035" lon="17.7300679">
        <ele>27.5349</ele>
        <time>2013-06-03T13:27:25Z</time>
      </trkpt>
      <trkpt lat="60.0086895" lon="17.7300993">
        <ele>28.0155</ele>
        <time>2013-06-03T13:27:26Z</time>
      </trkpt>
      <trkpt lat="60.0087744" lon="17.7301359">
        <ele>28.4962</ele>
        <time>2013-06-03T13:27:27Z</time>
      </trkpt>
      <trkpt lat="60.0088506" lon="17.7301799">
        <ele>28.4962</ele>
        <time>2013-06-03T13:27:28Z</time>
      </trkpt>
      <trkpt lat="60.0089238" lon="17.7302294">
        <ele>28.0155</ele>
        <time>2013-06-03T13:27:29Z</time>
      </trkpt>
      <trkpt lat="60.0089962" lon="17.7302823">
        <ele>27.5349</ele>
        <time>2013-06-03T13:27:30Z</time>
      </trkpt>
      <trkpt lat="60.0090691" lon="17.7303346">
        <ele>27.5349</ele>
        <time>2013-06-03T13:27:31Z</time>
      </trkpt>
      <trkpt lat="60.0091397" lon="17.7303881">
        <ele>27.0543</ele>
        <time>2013-06-03T13:27:32Z</time>
      </trkpt>
      <trkpt lat="60.0092058" lon="17.7304474">
        <ele>26.0929</ele>
        <time>2013-06-03T13:27:33Z</time>
      </trkpt>
      <trkpt lat="60.0092764" lon="17.7305097">
        <ele>26.0929</ele>
        <time>2013-06-03T13:27:34Z</time>
      </trkpt>
      <trkpt lat="60.009349" lon="17.7305716">
        <ele>26.5736</ele>
        <time>2013-06-03T13:27:35Z</time>
      </trkpt>
      <trkpt lat="60.0094189" lon="17.7306398">
        <ele>27.0543</ele>
        <time>2013-06-03T13:27:36Z</time>
      </trkpt>
      <trkpt lat="60.0094852" lon="17.7307114">
        <ele>26.5736</ele>
        <time>2013-06-03T13:27:37Z</time>
      </trkpt>
      <trkpt lat="60.0095509" lon="17.7307843">
        <ele>27.0543</ele>
        <time>2013-06-03T13:27:38Z</time>
      </trkpt>
      <trkpt lat="60.0096107" lon="17.7308621">
        <ele>26.5736</ele>
        <time>2013-06-03T13:27:39Z</time>
      </trkpt>
      <trkpt lat="60.0096699" lon="17.7309411">
        <ele>26.5736</ele>
        <time>2013-06-03T13:27:40Z</time>
      </trkpt>
      <trkpt lat="60.0097297" lon="17.7310199">
        <ele>26.5736</ele>
        <time>2013-06-03T13:27:41Z</time>
      </trkpt>
      <trkpt lat="60.0097927" lon="17.7310956">
        <ele>27.0543</ele>
        <time>2013-06-03T13:27:42Z</time>
      </trkpt>
      <trkpt lat="60.0098578" lon="17.7311672">
        <ele>28.4962</ele>
        <time>2013-06-03T13:27:43Z</time>
      </trkpt>
      <trkpt lat="60.0099188" lon="17.7312412">
        <ele>29.4575</ele>
        <time>2013-06-03T13:27:44Z</time>
      </trkpt>
      <trkpt lat="60.0099768" lon="17.731318">
        <ele>29.9381</ele>
        <time>2013-06-03T13:27:45Z</time>
      </trkpt>
      <trkpt lat="60.0100322" lon="17.7313966">
        <ele>29.9381</ele>
        <time>2013-06-03T13:27:46Z</time>
      </trkpt>
      <trkpt lat="60.0100867" lon="17.7314736">
        <ele>29.9381</ele>
        <time>2013-06-03T13:27:47Z</time>
      </trkpt>
      <trkpt lat="60.010141" lon="17.7315515">
        <ele>29.4575</ele>
        <time>2013-06-03T13:27:48Z</time>
      </trkpt>
      <trkpt lat="60.0101949" lon="17.7316288">
        <ele>29.4575</ele>
        <time>2013-06-03T13:27:49Z</time>
      </trkpt>
      <trkpt lat="60.0102482" lon="17.7317055">
        <ele>29.4575</ele>
        <time>2013-06-03T13:27:50Z</time>
      </trkpt>
      <trkpt lat="60.0103011" lon="17.7317813">
        <ele>29.4575</ele>
        <time>2013-06-03T13:27:51Z</time>
      </trkpt>
      <trkpt lat="60.0103544" lon="17.7318566">
        <ele>29.4575</ele>
        <time>2013-06-03T13:27:52Z</time>
      </trkpt>
      <trkpt lat="60.0104073" lon="17.7319318">
        <ele>29.4575</ele>
        <time>2013-06-03T13:27:53Z</time>
      </trkpt>
      <trkpt lat="60.010458" lon="17.732007">
        <ele>29.4575</ele>
        <time>2013-06-03T13:27:54Z</time>
      </trkpt>
      <trkpt lat="60.0105099" lon="17.7320797">
        <ele>29.4575</ele>
        <time>2013-06-03T13:27:55Z</time>
      </trkpt>
      <trkpt lat="60.010563" lon="17.7321498">
        <ele>28.9769</ele>
        <time>2013-06-03T13:27:56Z</time>
      </trkpt>
      <trkpt lat="60.0106168" lon="17.7322157">
        <ele>28.9769</ele>
        <time>2013-06-03T13:27:57Z</time>
      </trkpt>
      <trkpt lat="60.0106702" lon="17.7322778">
        <ele>28.9769</ele>
        <time>2013-06-03T13:27:58Z</time>
      </trkpt>
      <trkpt lat="60.0107241" lon="17.7323369">
        <ele>28.9769</ele>
        <time>2013-06-03T13:27:59Z</time>
      </trkpt>
      <trkpt lat="60.0107765" lon="17.7323938">
        <ele>28.4962</ele>
        <time>2013-06-03T13:28:00Z</time>
      </trkpt>
      <trkpt lat="60.0108301" lon="17.7324454">
        <ele>28.4962</ele>
        <time>2013-06-03T13:28:01Z</time>
      </trkpt>
      <trkpt lat="60.0108849" lon="17.7324953">
        <ele>28.4962</ele>
        <time>2013-06-03T13:28:02Z</time>
      </trkpt>
      <trkpt lat="60.0109402" lon="17.7325445">
        <ele>28.4962</ele>
        <time>2013-06-03T13:28:03Z</time>
      </trkpt>
      <trkpt lat="60.0109957" lon="17.7325901">
        <ele>28.4962</ele>
        <time>2013-06-03T13:28:04Z</time>
      </trkpt>
      <trkpt lat="60.0110522" lon="17.732629">
        <ele>28.4962</ele>
        <time>2013-06-03T13:28:05Z</time>
      </trkpt>
      <trkpt lat="60.011111" lon="17.732663">
        <ele>28.4962</ele>
        <time>2013-06-03T13:28:06Z</time>
      </trkpt>
      <trkpt lat="60.0111708" lon="17.7326942">
        <ele>28.4962</ele>
        <time>2013-06-03T13:28:07Z</time>
      </trkpt>
      <trkpt lat="60.0112322" lon="17.7327218">
        <ele>28.0155</ele>
        <time>2013-06-03T13:28:08Z</time>
      </trkpt>
      <trkpt lat="60.0112951" lon="17.732745">
        <ele>28.0155</ele>
        <time>2013-06-03T13:28:09Z</time>
      </trkpt>
      <trkpt lat="60.0113583" lon="17.7327671">
        <ele>28.0155</ele>
        <time>2013-06-03T13:28:10Z</time>
      </trkpt>
      <trkpt lat="60.0114213" lon="17.7327868">
        <ele>28.0155</ele>
        <time>2013-06-03T13:28:11Z</time>
      </trkpt>
      <trkpt lat="60.0114863" lon="17.7328049">
        <ele>27.5349</ele>
        <time>2013-06-03T13:28:12Z</time>
      </trkpt>
      <trkpt lat="60.0115514" lon="17.7328139">
        <ele>28.0155</ele>
        <time>2013-06-03T13:28:13Z</time>
      </trkpt>
      <trkpt lat="60.0116148" lon="17.7328204">
        <ele>28.4962</ele>
        <time>2013-06-03T13:28:14Z</time>
      </trkpt>
      <trkpt lat="60.0116783" lon="17.7328269">
        <ele>28.0155</ele>
        <time>2013-06-03T13:28:15Z</time>
      </trkpt>
      <trkpt lat="60.0117412" lon="17.732827">
        <ele>28.0155</ele>
        <time>2013-06-03T13:28:16Z</time>
      </trkpt>
      <trkpt lat="60.0118094" lon="17.732816">
        <ele>28.4962</ele>
        <time>2013-06-03T13:28:17Z</time>
      </trkpt>
      <trkpt lat="60.0118753" lon="17.7328041">
        <ele>28.4962</ele>
        <time>2013-06-03T13:28:18Z</time>
      </trkpt>
      <trkpt lat="60.0119442" lon="17.7327895">
        <ele>28.4962</ele>
        <time>2013-06-03T13:28:19Z</time>
      </trkpt>
      <trkpt lat="60.0120141" lon="17.732775">
        <ele>28.9769</ele>
        <time>2013-06-03T13:28:20Z</time>
      </trkpt>
      <trkpt lat="60.0120831" lon="17.7327599">
        <ele>29.4575</ele>
        <time>2013-06-03T13:28:21Z</time>
      </trkpt>
      <trkpt lat="60.0121574" lon="17.7327383">
        <ele>29.9381</ele>
        <time>2013-06-03T13:28:22Z</time>
      </trkpt>
      <trkpt lat="60.0122296" lon="17.7327087">
        <ele>29.4575</ele>
        <time>2013-06-03T13:28:23Z</time>
      </trkpt>
      <trkpt lat="60.0123014" lon="17.7326803">
        <ele>29.4575</ele>
        <time>2013-06-03T13:28:24Z</time>
      </trkpt>
      <trkpt lat="60.0123721" lon="17.7326523">
        <ele>29.4575</ele>
        <time>2013-06-03T13:28:25Z</time>
      </trkpt>
      <trkpt lat="60.012439" lon="17.7326295">
        <ele>28.9769</ele>
        <time>2013-06-03T13:28:26Z</time>
      </trkpt>
      <trkpt lat="60.0125042" lon="17.7326048">
        <ele>28.0155</ele>
        <time>2013-06-03T13:28:27Z</time>
      </trkpt>
      <trkpt lat="60.0125668" lon="17.7325777">
        <ele>26.5736</ele>
        <time>2013-06-03T13:28:28Z</time>
      </trkpt>
      <trkpt lat="60.0126361" lon="17.7325513">
        <ele>26.5736</ele>
        <time>2013-06-03T13:28:29Z</time>
      </trkpt>
      <trkpt lat="60.0127077" lon="17.7325259">
        <ele>26.0929</ele>
        <time>2013-06-03T13:28:30Z</time>
      </trkpt>
      <trkpt lat="60.0127771" lon="17.7324994">
        <ele>26.0929</ele>
        <time>2013-06-03T13:28:31Z</time>
      </trkpt>
      <trkpt lat="60.0128497" lon="17.7324708">
        <ele>26.0929</ele>
        <time>2013-06-03T13:28:32Z</time>
      </trkpt>
      <trkpt lat="60.0129213" lon="17.7324539">
        <ele>26.0929</ele>
        <time>2013-06-03T13:28:33Z</time>
      </trkpt>
      <trkpt lat="60.012994" lon="17.7324399">
        <ele>26.0929</ele>
        <time>2013-06-03T13:28:34Z</time>
      </trkpt>
      <trkpt lat="60.0130678" lon="17.7324297">
        <ele>25.6123</ele>
        <time>2013-06-03T13:28:35Z</time>
      </trkpt>
      <trkpt lat="60.013143" lon="17.7324233">
        <ele>25.6123</ele>
        <time>2013-06-03T13:28:36Z</time>
      </trkpt>
      <trkpt lat="60.0132196" lon="17.73242">
        <ele>25.1317</ele>
        <time>2013-06-03T13:28:37Z</time>
      </trkpt>
      <trkpt lat="60.0132988" lon="17.7324195">
        <ele>25.1317</ele>
        <time>2013-06-03T13:28:38Z</time>
      </trkpt>
      <trkpt lat="60.0133785" lon="17.7324221">
        <ele>24.651</ele>
        <time>2013-06-03T13:28:39Z</time>
      </trkpt>
      <trkpt lat="60.0134579" lon="17.7324283">
        <ele>24.1703</ele>
        <time>2013-06-03T13:28:40Z</time>
      </trkpt>
      <trkpt lat="60.0135374" lon="17.7324367">
        <ele>23.6896</ele>
        <time>2013-06-03T13:28:41Z</time>
      </trkpt>
      <trkpt lat="60.0136151" lon="17.732447">
        <ele>23.209</ele>
        <time>2013-06-03T13:28:42Z</time>
      </trkpt>
      <trkpt lat="60.0136926" lon="17.7324618">
        <ele>22.7283</ele>
        <time>2013-06-03T13:28:43Z</time>
      </trkpt>
      <trkpt lat="60.0137707" lon="17.7324843">
        <ele>22.2476</ele>
        <time>2013-06-03T13:28:44Z</time>
      </trkpt>
      <trkpt lat="60.0138479" lon="17.7325086">
        <ele>22.2476</ele>
        <time>2013-06-03T13:28:45Z</time>
      </trkpt>
      <trkpt lat="60.0139255" lon="17.7325316">
        <ele>22.2476</ele>
        <time>2013-06-03T13:28:46Z</time>
      </trkpt>
      <trkpt lat="60.0139992" lon="17.7325576">
        <ele>22.2476</ele>
        <time>2013-06-03T13:28:47Z</time>
      </trkpt>
      <trkpt lat="60.0140686" lon="17.7325853">
        <ele>22.2476</ele>
        <time>2013-06-03T13:28:48Z</time>
      </trkpt>
      <trkpt lat="60.0141344" lon="17.7326158">
        <ele>21.767</ele>
        <time>2013-06-03T13:28:49Z</time>
      </trkpt>
      <trkpt lat="60.0141999" lon="17.7326505">
        <ele>21.2864</ele>
        <time>2013-06-03T13:28:50Z</time>
      </trkpt>
      <trkpt lat="60.0142654" lon="17.732688">
        <ele>20.8057</ele>
        <time>2013-06-03T13:28:51Z</time>
      </trkpt>
      <trkpt lat="60.0143301" lon="17.7327315">
        <ele>20.325</ele>
        <time>2013-06-03T13:28:52Z</time>
      </trkpt>
      <trkpt lat="60.0143937" lon="17.7327786">
        <ele>19.8444</ele>
        <time>2013-06-03T13:28:53Z</time>
      </trkpt>
      <trkpt lat="60.0144555" lon="17.7328296">
        <ele>19.3638</ele>
        <time>2013-06-03T13:28:54Z</time>
      </trkpt>
      <trkpt lat="60.0145187" lon="17.7328816">
        <ele>19.3638</ele>
        <time>2013-06-03T13:28:55Z</time>
      </trkpt>
      <trkpt lat="60.0145834" lon="17.7329406">
        <ele>19.3638</ele>
        <time>2013-06-03T13:28:56Z</time>
      </trkpt>
      <trkpt lat="60.0146465" lon="17.7330002">
        <ele>19.3638</ele>
        <time>2013-06-03T13:28:57Z</time>
      </trkpt>
      <trkpt lat="60.0147074" lon="17.7330594">
        <ele>19.3638</ele>
        <time>2013-06-03T13:28:58Z</time>
      </trkpt>
      <trkpt lat="60.0147684" lon="17.7331152">
        <ele>18.8831</ele>
        <time>2013-06-03T13:28:59Z</time>
      </trkpt>
      <trkpt lat="60.0148285" lon="17.7331675">
        <ele>18.8831</ele>
        <time>2013-06-03T13:29:00Z</time>
      </trkpt>
      <trkpt lat="60.0148879" lon="17.7332124">
        <ele>19.3638</ele>
        <time>2013-06-03T13:29:01Z</time>
      </trkpt>
      <trkpt lat="60.014948" lon="17.7332497">
        <ele>19.3638</ele>
        <time>2013-06-03T13:29:02Z</time>
      </trkpt>
      <trkpt lat="60.0150078" lon="17.7332786">
        <ele>19.3638</ele>
        <time>2013-06-03T13:29:03Z</time>
      </trkpt>
      <trkpt lat="60.0150683" lon="17.7333024">
        <ele>19.8444</ele>
        <time>2013-06-03T13:29:04Z</time>
      </trkpt>
      <trkpt lat="60.0151294" lon="17.7333245">
        <ele>19.8444</ele>
        <time>2013-06-03T13:29:05Z</time>
      </trkpt>
      <trkpt lat="60.0151899" lon="17.733346">
        <ele>19.8444</ele>
        <time>2013-06-03T13:29:06Z</time>
      </trkpt>
      <trkpt lat="60.0152501" lon="17.7333666">
        <ele>20.325</ele>
        <time>2013-06-03T13:29:07Z</time>
      </trkpt>
      <trkpt lat="60.0153096" lon="17.7333878">
        <ele>20.325</ele>
        <time>2013-06-03T13:29:08Z</time>
      </trkpt>
      <trkpt lat="60.0153698" lon="17.7334065">
        <ele>20.325</ele>
        <time>2013-06-03T13:29:09Z</time>
      </trkpt>
      <trkpt lat="60.0154302" lon="17.7334239">
        <ele>20.8057</ele>
        <time>2013-06-03T13:29:10Z</time>
      </trkpt>
      <trkpt lat="60.0154905" lon="17.7334412">
        <ele>20.8057</ele>
        <time>2013-06-03T13:29:11Z</time>
      </trkpt>
      <trkpt lat="60.0155514" lon="17.7334557">
        <ele>20.8057</ele>
        <time>2013-06-03T13:29:12Z</time>
      </trkpt>
      <trkpt lat="60.015612" lon="17.7334687">
        <ele>21.2864</ele>
        <time>2013-06-03T13:29:13Z</time>
      </trkpt>
      <trkpt lat="60.0156722" lon="17.7334826">
        <ele>21.2864</ele>
        <time>2013-06-03T13:29:14Z</time>
      </trkpt>
      <trkpt lat="60.0157325" lon="17.733496">
        <ele>21.2864</ele>
        <time>2013-06-03T13:29:15Z</time>
      </trkpt>
      <trkpt lat="60.0157925" lon="17.7335075">
        <ele>21.767</ele>
        <time>2013-06-03T13:29:16Z</time>
      </trkpt>
      <trkpt lat="60.0158521" lon="17.7335175">
        <ele>21.767</ele>
        <time>2013-06-03T13:29:17Z</time>
      </trkpt>
      <trkpt lat="60.0159109" lon="17.7335306">
        <ele>22.2476</ele>
        <time>2013-06-03T13:29:18Z</time>
      </trkpt>
      <trkpt lat="60.0159695" lon="17.7335443">
        <ele>22.2476</ele>
        <time>2013-06-03T13:29:19Z</time>
      </trkpt>
      <trkpt lat="60.0160283" lon="17.7335573">
        <ele>22.2476</ele>
        <time>2013-06-03T13:29:20Z</time>
      </trkpt>
      <trkpt lat="60.0160844" lon="17.7335752">
        <ele>22.2476</ele>
        <time>2013-06-03T13:29:21Z</time>
      </trkpt>
      <trkpt lat="60.016141" lon="17.7335919">
        <ele>22.2476</ele>
        <time>2013-06-03T13:29:22Z</time>
      </trkpt>
      <trkpt lat="60.0161984" lon="17.7336071">
        <ele>22.2476</ele>
        <time>2013-06-03T13:29:23Z</time>
      </trkpt>
      <trkpt lat="60.0162549" lon="17.7336234">
        <ele>22.7283</ele>
        <time>2013-06-03T13:29:24Z</time>
      </trkpt>
      <trkpt lat="60.0163115" lon="17.7336391">
        <ele>22.7283</ele>
        <time>2013-06-03T13:29:25Z</time>
      </trkpt>
      <trkpt lat="60.016368" lon="17.7336566">
        <ele>22.7283</ele>
        <time>2013-06-03T13:29:26Z</time>
      </trkpt>
      <trkpt lat="60.0164245" lon="17.733675">
        <ele>22.7283</ele>
        <time>2013-06-03T13:29:27Z</time>
      </trkpt>
      <trkpt lat="60.0164814" lon="17.7336934">
        <ele>22.7283</ele>
        <time>2013-06-03T13:29:28Z</time>
      </trkpt>
      <trkpt lat="60.0165377" lon="17.7337117">
        <ele>22.7283</ele>
        <time>2013-06-03T13:29:29Z</time>
      </trkpt>
      <trkpt lat="60.0165938" lon="17.7337307">
        <ele>22.7283</ele>
        <time>2013-06-03T13:29:30Z</time>
      </trkpt>
      <trkpt lat="60.0166511" lon="17.7337489">
        <ele>23.209</ele>
        <time>2013-06-03T13:29:31Z</time>
      </trkpt>
      <trkpt lat="60.0167081" lon="17.7337665">
        <ele>23.209</ele>
        <time>2013-06-03T13:29:32Z</time>
      </trkpt>
      <trkpt lat="60.0167656" lon="17.7337811">
        <ele>23.6896</ele>
        <time>2013-06-03T13:29:33Z</time>
      </trkpt>
      <trkpt lat="60.0168216" lon="17.7337987">
        <ele>23.6896</ele>
        <time>2013-06-03T13:29:34Z</time>
      </trkpt>
      <trkpt lat="60.0168776" lon="17.7338173">
        <ele>24.1703</ele>
        <time>2013-06-03T13:29:35Z</time>
      </trkpt>
      <trkpt lat="60.0169342" lon="17.7338357">
        <ele>24.1703</ele>
        <time>2013-06-03T13:29:36Z</time>
      </trkpt>
      <trkpt lat="60.0169932" lon="17.7338519">
        <ele>24.651</ele>
        <time>2013-06-03T13:29:37Z</time>
      </trkpt>
      <trkpt lat="60.0170507" lon="17.7338686">
        <ele>24.651</ele>
        <time>2013-06-03T13:29:38Z</time>
      </trkpt>
      <trkpt lat="60.0171076" lon="17.7338863">
        <ele>24.651</ele>
        <time>2013-06-03T13:29:39Z</time>
      </trkpt>
      <trkpt lat="60.0171641" lon="17.7339034">
        <ele>24.651</ele>
        <time>2013-06-03T13:29:40Z</time>
      </trkpt>
      <trkpt lat="60.0172207" lon="17.7339202">
        <ele>25.1317</ele>
        <time>2013-06-03T13:29:41Z</time>
      </trkpt>
      <trkpt lat="60.0172765" lon="17.7339369">
        <ele>25.1317</ele>
        <time>2013-06-03T13:29:42Z</time>
      </trkpt>
      <trkpt lat="60.0173325" lon="17.7339525">
        <ele>25.6123</ele>
        <time>2013-06-03T13:29:43Z</time>
      </trkpt>
      <trkpt lat="60.0173883" lon="17.7339697">
        <ele>25.6123</ele>
        <time>2013-06-03T13:29:44Z</time>
      </trkpt>
      <trkpt lat="60.0174443" lon="17.7339893">
        <ele>25.6123</ele>
        <time>2013-06-03T13:29:45Z</time>
      </trkpt>
      <trkpt lat="60.0174989" lon="17.7340108">
        <ele>25.6123</ele>
        <time>2013-06-03T13:29:46Z</time>
      </trkpt>
      <trkpt lat="60.0175548" lon="17.7340342">
        <ele>26.0929</ele>
        <time>2013-06-03T13:29:47Z</time>
      </trkpt>
      <trkpt lat="60.0176112" lon="17.7340613">
        <ele>26.0929</ele>
        <time>2013-06-03T13:29:48Z</time>
      </trkpt>
      <trkpt lat="60.0176666" lon="17.7340924">
        <ele>26.0929</ele>
        <time>2013-06-03T13:29:49Z</time>
      </trkpt>
      <trkpt lat="60.017721" lon="17.7341282">
        <ele>26.0929</ele>
        <time>2013-06-03T13:29:50Z</time>
      </trkpt>
      <trkpt lat="60.0177739" lon="17.734169">
        <ele>26.0929</ele>
        <time>2013-06-03T13:29:51Z</time>
      </trkpt>
      <trkpt lat="60.0178253" lon="17.7342115">
        <ele>26.0929</ele>
        <time>2013-06-03T13:29:52Z</time>
      </trkpt>
      <trkpt lat="60.0178757" lon="17.734255">
        <ele>26.0929</ele>
        <time>2013-06-03T13:29:53Z</time>
      </trkpt>
      <trkpt lat="60.0179246" lon="17.7342999">
        <ele>26.0929</ele>
        <time>2013-06-03T13:29:54Z</time>
      </trkpt>
      <trkpt lat="60.0179729" lon="17.7343453">
        <ele>26.0929</ele>
        <time>2013-06-03T13:29:55Z</time>
      </trkpt>
      <trkpt lat="60.0180215" lon="17.7343914">
        <ele>26.5736</ele>
        <time>2013-06-03T13:29:56Z</time>
      </trkpt>
      <trkpt lat="60.018068" lon="17.73444">
        <ele>26.5736</ele>
        <time>2013-06-03T13:29:57Z</time>
      </trkpt>
      <trkpt lat="60.0181143" lon="17.7344886">
        <ele>26.5736</ele>
        <time>2013-06-03T13:29:58Z</time>
      </trkpt>
      <trkpt lat="60.0181596" lon="17.7345376">
        <ele>26.5736</ele>
        <time>2013-06-03T13:29:59Z</time>
      </trkpt>
      <trkpt lat="60.0182049" lon="17.734584">
        <ele>26.5736</ele>
        <time>2013-06-03T13:30:00Z</time>
      </trkpt>
      <trkpt lat="60.0182488" lon="17.7346327">
        <ele>27.0543</ele>
        <time>2013-06-03T13:30:01Z</time>
      </trkpt>
      <trkpt lat="60.0182946" lon="17.7346817">
        <ele>26.5736</ele>
        <time>2013-06-03T13:30:02Z</time>
      </trkpt>
      <trkpt lat="60.0183419" lon="17.7347295">
        <ele>26.5736</ele>
        <time>2013-06-03T13:30:03Z</time>
      </trkpt>
      <trkpt lat="60.0183891" lon="17.7347823">
        <ele>26.0929</ele>
        <time>2013-06-03T13:30:04Z</time>
      </trkpt>
      <trkpt lat="60.0184375" lon="17.7348379">
        <ele>26.0929</ele>
        <time>2013-06-03T13:30:05Z</time>
      </trkpt>
      <trkpt lat="60.0184914" lon="17.7348895">
        <ele>25.6123</ele>
        <time>2013-06-03T13:30:06Z</time>
      </trkpt>
      <trkpt lat="60.0185453" lon="17.7349448">
        <ele>25.6123</ele>
        <time>2013-06-03T13:30:07Z</time>
      </trkpt>
      <trkpt lat="60.0186026" lon="17.734999">
        <ele>25.6123</ele>
        <time>2013-06-03T13:30:08Z</time>
      </trkpt>
      <trkpt lat="60.0186603" lon="17.7350583">
        <ele>25.6123</ele>
        <time>2013-06-03T13:30:09Z</time>
      </trkpt>
      <trkpt lat="60.0187192" lon="17.7351223">
        <ele>26.0929</ele>
        <time>2013-06-03T13:30:10Z</time>
      </trkpt>
      <trkpt lat="60.0187752" lon="17.7351945">
        <ele>25.6123</ele>
        <time>2013-06-03T13:30:11Z</time>
      </trkpt>
      <trkpt lat="60.0188322" lon="17.7352677">
        <ele>25.6123</ele>
        <time>2013-06-03T13:30:12Z</time>
      </trkpt>
      <trkpt lat="60.0188879" lon="17.7353455">
        <ele>26.0929</ele>
        <time>2013-06-03T13:30:13Z</time>
      </trkpt>
      <trkpt lat="60.0189423" lon="17.7354248">
        <ele>26.0929</ele>
        <time>2013-06-03T13:30:14Z</time>
      </trkpt>
      <trkpt lat="60.0189959" lon="17.7355038">
        <ele>26.0929</ele>
        <time>2013-06-03T13:30:15Z</time>
      </trkpt>
      <trkpt lat="60.0190482" lon="17.7355827">
        <ele>26.5736</ele>
        <time>2013-06-03T13:30:16Z</time>
      </trkpt>
      <trkpt lat="60.0190984" lon="17.7356615">
        <ele>26.5736</ele>
        <time>2013-06-03T13:30:17Z</time>
      </trkpt>
      <trkpt lat="60.0191475" lon="17.73574">
        <ele>26.0929</ele>
        <time>2013-06-03T13:30:18Z</time>
      </trkpt>
      <trkpt lat="60.0191979" lon="17.7358182">
        <ele>26.0929</ele>
        <time>2013-06-03T13:30:19Z</time>
      </trkpt>
      <trkpt lat="60.0192492" lon="17.7358964">
        <ele>26.0929</ele>
        <time>2013-06-03T13:30:20Z</time>
      </trkpt>
      <trkpt lat="60.0193016" lon="17.7359734">
        <ele>26.0929</ele>
        <time>2013-06-03T13:30:21Z</time>
      </trkpt>
      <trkpt lat="60.0193551" lon="17.736051">
        <ele>26.0929</ele>
        <time>2013-06-03T13:30:22Z</time>
      </trkpt>
      <trkpt lat="60.0194087" lon="17.7361267">
        <ele>26.0929</ele>
        <time>2013-06-03T13:30:23Z</time>
      </trkpt>
      <trkpt lat="60.019463" lon="17.736201">
        <ele>26.0929</ele>
        <time>2013-06-03T13:30:24Z</time>
      </trkpt>
      <trkpt lat="60.0195179" lon="17.7362754">
        <ele>26.0929</ele>
        <time>2013-06-03T13:30:25Z</time>
      </trkpt>
      <trkpt lat="60.0195732" lon="17.7363505">
        <ele>26.0929</ele>
        <time>2013-06-03T13:30:26Z</time>
      </trkpt>
      <trkpt lat="60.0196307" lon="17.7364269">
        <ele>26.0929</ele>
        <time>2013-06-03T13:30:27Z</time>
      </trkpt>
      <trkpt lat="60.0196896" lon="17.7365053">
        <ele>25.6123</ele>
        <time>2013-06-03T13:30:28Z</time>
      </trkpt>
      <trkpt lat="60.0197483" lon="17.7365877">
        <ele>25.6123</ele>
        <time>2013-06-03T13:30:29Z</time>
      </trkpt>
      <trkpt lat="60.0198049" lon="17.7366736">
        <ele>26.0929</ele>
        <time>2013-06-03T13:30:30Z</time>
      </trkpt>
      <trkpt lat="60.0198594" lon="17.7367648">
        <ele>26.0929</ele>
        <time>2013-06-03T13:30:31Z</time>
      </trkpt>
      <trkpt lat="60.0199143" lon="17.7368575">
        <ele>26.5736</ele>
        <time>2013-06-03T13:30:32Z</time>
      </trkpt>
      <trkpt lat="60.019964" lon="17.7369579">
        <ele>26.5736</ele>
        <time>2013-06-03T13:30:33Z</time>
      </trkpt>
      <trkpt lat="60.0200075" lon="17.7370659">
        <ele>27.0543</ele>
        <time>2013-06-03T13:30:34Z</time>
      </trkpt>
      <trkpt lat="60.0200463" lon="17.7371756">
        <ele>27.0543</ele>
        <time>2013-06-03T13:30:35Z</time>
      </trkpt>
      <trkpt lat="60.0200806" lon="17.7372875">
        <ele>27.0543</ele>
        <time>2013-06-03T13:30:36Z</time>
      </trkpt>
      <trkpt lat="60.0201133" lon="17.7373978">
        <ele>27.5349</ele>
        <time>2013-06-03T13:30:37Z</time>
      </trkpt>
      <trkpt lat="60.0201451" lon="17.7375041">
        <ele>27.5349</ele>
        <time>2013-06-03T13:30:38Z</time>
      </trkpt>
      <trkpt lat="60.0201764" lon="17.7376092">
        <ele>27.5349</ele>
        <time>2013-06-03T13:30:39Z</time>
      </trkpt>
      <trkpt lat="60.020207" lon="17.7377136">
        <ele>27.5349</ele>
        <time>2013-06-03T13:30:40Z</time>
      </trkpt>
      <trkpt lat="60.0202374" lon="17.7378167">
        <ele>27.5349</ele>
        <time>2013-06-03T13:30:41Z</time>
      </trkpt>
      <trkpt lat="60.0202681" lon="17.7379183">
        <ele>28.0155</ele>
        <time>2013-06-03T13:30:42Z</time>
      </trkpt>
      <trkpt lat="60.0202995" lon="17.738018">
        <ele>28.0155</ele>
        <time>2013-06-03T13:30:43Z</time>
      </trkpt>
      <trkpt lat="60.0203313" lon="17.7381167">
        <ele>28.0155</ele>
        <time>2013-06-03T13:30:44Z</time>
      </trkpt>
      <trkpt lat="60.0203629" lon="17.738214">
        <ele>28.0155</ele>
        <time>2013-06-03T13:30:45Z</time>
      </trkpt>
      <trkpt lat="60.0203955" lon="17.7383069">
        <ele>28.4962</ele>
        <time>2013-06-03T13:30:46Z</time>
      </trkpt>
      <trkpt lat="60.0204271" lon="17.7384007">
        <ele>28.4962</ele>
        <time>2013-06-03T13:30:47Z</time>
      </trkpt>
      <trkpt lat="60.0204587" lon="17.7384955">
        <ele>28.4962</ele>
        <time>2013-06-03T13:30:48Z</time>
      </trkpt>
      <trkpt lat="60.0204938" lon="17.7385861">
        <ele>28.9769</ele>
        <time>2013-06-03T13:30:49Z</time>
      </trkpt>
      <trkpt lat="60.0205322" lon="17.7386743">
        <ele>28.9769</ele>
        <time>2013-06-03T13:30:50Z</time>
      </trkpt>
      <trkpt lat="60.0205727" lon="17.7387612">
        <ele>28.9769</ele>
        <time>2013-06-03T13:30:51Z</time>
      </trkpt>
      <trkpt lat="60.0206161" lon="17.7388441">
        <ele>29.4575</ele>
        <time>2013-06-03T13:30:52Z</time>
      </trkpt>
      <trkpt lat="60.0206598" lon="17.7389234">
        <ele>29.4575</ele>
        <time>2013-06-03T13:30:53Z</time>
      </trkpt>
      <trkpt lat="60.0207038" lon="17.7390008">
        <ele>29.9381</ele>
        <time>2013-06-03T13:30:54Z</time>
      </trkpt>
      <trkpt lat="60.0207486" lon="17.7390777">
        <ele>30.4188</ele>
        <time>2013-06-03T13:30:55Z</time>
      </trkpt>
      <trkpt lat="60.020794" lon="17.7391531">
        <ele>30.4188</ele>
        <time>2013-06-03T13:30:56Z</time>
      </trkpt>
      <trkpt lat="60.020841" lon="17.7392243">
        <ele>30.8995</ele>
        <time>2013-06-03T13:30:57Z</time>
      </trkpt>
      <trkpt lat="60.0208892" lon="17.7392928">
        <ele>30.8995</ele>
        <time>2013-06-03T13:30:58Z</time>
      </trkpt>
      <trkpt lat="60.0209375" lon="17.7393627">
        <ele>30.8995</ele>
        <time>2013-06-03T13:30:59Z</time>
      </trkpt>
      <trkpt lat="60.0209876" lon="17.7394288">
        <ele>30.8995</ele>
        <time>2013-06-03T13:31:00Z</time>
      </trkpt>
      <trkpt lat="60.0210421" lon="17.7394886">
        <ele>31.3801</ele>
        <time>2013-06-03T13:31:01Z</time>
      </trkpt>
      <trkpt lat="60.0210974" lon="17.7395478">
        <ele>31.3801</ele>
        <time>2013-06-03T13:31:02Z</time>
      </trkpt>
      <trkpt lat="60.0211511" lon="17.7396092">
        <ele>31.8607</ele>
        <time>2013-06-03T13:31:03Z</time>
      </trkpt>
      <trkpt lat="60.0212053" lon="17.7396729">
        <ele>31.3801</ele>
        <time>2013-06-03T13:31:04Z</time>
      </trkpt>
      <trkpt lat="60.021261" lon="17.7397331">
        <ele>31.8607</ele>
        <time>2013-06-03T13:31:05Z</time>
      </trkpt>
      <trkpt lat="60.0213165" lon="17.7397962">
        <ele>31.8607</ele>
        <time>2013-06-03T13:31:06Z</time>
      </trkpt>
      <trkpt lat="60.0213712" lon="17.7398614">
        <ele>32.3416</ele>
        <time>2013-06-03T13:31:07Z</time>
      </trkpt>
      <trkpt lat="60.0214249" lon="17.7399266">
        <ele>32.3416</ele>
        <time>2013-06-03T13:31:08Z</time>
      </trkpt>
      <trkpt lat="60.0214782" lon="17.7399903">
        <ele>32.8223</ele>
        <time>2013-06-03T13:31:09Z</time>
      </trkpt>
      <trkpt lat="60.02153" lon="17.7400532">
        <ele>32.8223</ele>
        <time>2013-06-03T13:31:10Z</time>
      </trkpt>
      <trkpt lat="60.0215823" lon="17.7401131">
        <ele>33.3029</ele>
        <time>2013-06-03T13:31:11Z</time>
      </trkpt>
      <trkpt lat="60.0216355" lon="17.7401679">
        <ele>33.7834</ele>
        <time>2013-06-03T13:31:12Z</time>
      </trkpt>
      <trkpt lat="60.0216894" lon="17.7402215">
        <ele>33.7834</ele>
        <time>2013-06-03T13:31:13Z</time>
      </trkpt>
      <trkpt lat="60.0217429" lon="17.7402782">
        <ele>33.7834</ele>
        <time>2013-06-03T13:31:14Z</time>
      </trkpt>
      <trkpt lat="60.0217976" lon="17.7403314">
        <ele>34.2642</ele>
        <time>2013-06-03T13:31:15Z</time>
      </trkpt>
      <trkpt lat="60.0218507" lon="17.7403847">
        <ele>34.7449</ele>
        <time>2013-06-03T13:31:16Z</time>
      </trkpt>
      <trkpt lat="60.0219017" lon="17.7404406">
        <ele>34.2642</ele>
        <time>2013-06-03T13:31:17Z</time>
      </trkpt>
      <trkpt lat="60.0219521" lon="17.7404965">
        <ele>34.2642</ele>
        <time>2013-06-03T13:31:18Z</time>
      </trkpt>
      <trkpt lat="60.0220014" lon="17.7405519">
        <ele>34.2642</ele>
        <time>2013-06-03T13:31:19Z</time>
      </trkpt>
      <trkpt lat="60.0220514" lon="17.7406061">
        <ele>34.2642</ele>
        <time>2013-06-03T13:31:20Z</time>
      </trkpt>
      <trkpt lat="60.0221019" lon="17.7406607">
        <ele>34.2642</ele>
        <time>2013-06-03T13:31:21Z</time>
      </trkpt>
      <trkpt lat="60.0221526" lon="17.7407177">
        <ele>34.2642</ele>
        <time>2013-06-03T13:31:22Z</time>
      </trkpt>
      <trkpt lat="60.0222024" lon="17.7407793">
        <ele>34.2642</ele>
        <time>2013-06-03T13:31:23Z</time>
      </trkpt>
      <trkpt lat="60.0222521" lon="17.7408455">
        <ele>34.2642</ele>
        <time>2013-06-03T13:31:24Z</time>
      </trkpt>
      <trkpt lat="60.0223003" lon="17.7409167">
        <ele>34.2642</ele>
        <time>2013-06-03T13:31:25Z</time>
      </trkpt>
      <trkpt lat="60.0223461" lon="17.7409949">
        <ele>34.2642</ele>
        <time>2013-06-03T13:31:26Z</time>
      </trkpt>
      <trkpt lat="60.02239" lon="17.7410762">
        <ele>34.2642</ele>
        <time>2013-06-03T13:31:27Z</time>
      </trkpt>
      <trkpt lat="60.0224327" lon="17.7411596">
        <ele>34.7449</ele>
        <time>2013-06-03T13:31:28Z</time>
      </trkpt>
      <trkpt lat="60.0224744" lon="17.7412444">
        <ele>34.7449</ele>
        <time>2013-06-03T13:31:29Z</time>
      </trkpt>
      <trkpt lat="60.0225161" lon="17.7413295">
        <ele>34.7449</ele>
        <time>2013-06-03T13:31:30Z</time>
      </trkpt>
      <trkpt lat="60.0225564" lon="17.7414165">
        <ele>34.2642</ele>
        <time>2013-06-03T13:31:31Z</time>
      </trkpt>
      <trkpt lat="60.0225946" lon="17.7415047">
        <ele>34.2642</ele>
        <time>2013-06-03T13:31:32Z</time>
      </trkpt>
      <trkpt lat="60.0226307" lon="17.7415921">
        <ele>34.2642</ele>
        <time>2013-06-03T13:31:33Z</time>
      </trkpt>
      <trkpt lat="60.0226666" lon="17.7416776">
        <ele>34.7449</ele>
        <time>2013-06-03T13:31:34Z</time>
      </trkpt>
      <trkpt lat="60.0226976" lon="17.7417677">
        <ele>34.7449</ele>
        <time>2013-06-03T13:31:35Z</time>
      </trkpt>
      <trkpt lat="60.0227235" lon="17.741862">
        <ele>35.2255</ele>
        <time>2013-06-03T13:31:36Z</time>
      </trkpt>
      <trkpt lat="60.0227456" lon="17.741959">
        <ele>35.2255</ele>
        <time>2013-06-03T13:31:37Z</time>
      </trkpt>
      <trkpt lat="60.0227653" lon="17.7420572">
        <ele>35.7061</ele>
        <time>2013-06-03T13:31:38Z</time>
      </trkpt>
      <trkpt lat="60.0227835" lon="17.7421572">
        <ele>35.7061</ele>
        <time>2013-06-03T13:31:39Z</time>
      </trkpt>
      <trkpt lat="60.0228" lon="17.7422593">
        <ele>35.7061</ele>
        <time>2013-06-03T13:31:40Z</time>
      </trkpt>
      <trkpt lat="60.0228136" lon="17.7423659">
        <ele>35.7061</ele>
        <time>2013-06-03T13:31:41Z</time>
      </trkpt>
      <trkpt lat="60.0228244" lon="17.7424731">
        <ele>36.1868</ele>
        <time>2013-06-03T13:31:42Z</time>
      </trkpt>
      <trkpt lat="60.0228305" lon="17.742582">
        <ele>36.1868</ele>
        <time>2013-06-03T13:31:43Z</time>
      </trkpt>
      <trkpt lat="60.0228313" lon="17.7426917">
        <ele>36.1868</ele>
        <time>2013-06-03T13:31:44Z</time>
      </trkpt>
      <trkpt lat="60.0228313" lon="17.7427997">
        <ele>36.6675</ele>
        <time>2013-06-03T13:31:45Z</time>
      </trkpt>
      <trkpt lat="60.0228291" lon="17.7429072">
        <ele>37.1481</ele>
        <time>2013-06-03T13:31:46Z</time>
      </trkpt>
      <trkpt lat="60.0228259" lon="17.7430142">
        <ele>37.1481</ele>
        <time>2013-06-03T13:31:47Z</time>
      </trkpt>
      <trkpt lat="60.0228235" lon="17.7431208">
        <ele>37.1481</ele>
        <time>2013-06-03T13:31:48Z</time>
      </trkpt>
      <trkpt lat="60.022821" lon="17.7432254">
        <ele>37.6287</ele>
        <time>2013-06-03T13:31:49Z</time>
      </trkpt>
      <trkpt lat="60.0228194" lon="17.743328">
        <ele>37.6287</ele>
        <time>2013-06-03T13:31:50Z</time>
      </trkpt>
      <trkpt lat="60.0228187" lon="17.7434306">
        <ele>38.1094</ele>
        <time>2013-06-03T13:31:51Z</time>
      </trkpt>
      <trkpt lat="60.0228191" lon="17.7435344">
        <ele>38.1094</ele>
        <time>2013-06-03T13:31:52Z</time>
      </trkpt>
      <trkpt lat="60.022822" lon="17.7436389">
        <ele>38.5901</ele>
        <time>2013-06-03T13:31:53Z</time>
      </trkpt>
      <trkpt lat="60.022824" lon="17.7437439">
        <ele>39.0707</ele>
        <time>2013-06-03T13:31:54Z</time>
      </trkpt>
      <trkpt lat="60.0228265" lon="17.7438505">
        <ele>39.5513</ele>
        <time>2013-06-03T13:31:55Z</time>
      </trkpt>
      <trkpt lat="60.0228289" lon="17.7439599">
        <ele>40.0321</ele>
        <time>2013-06-03T13:31:56Z</time>
      </trkpt>
      <trkpt lat="60.0228296" lon="17.7440707">
        <ele>40.0321</ele>
        <time>2013-06-03T13:31:57Z</time>
      </trkpt>
      <trkpt lat="60.0228333" lon="17.7441828">
        <ele>40.5128</ele>
        <time>2013-06-03T13:31:58Z</time>
      </trkpt>
      <trkpt lat="60.0228382" lon="17.7442964">
        <ele>40.9934</ele>
        <time>2013-06-03T13:31:59Z</time>
      </trkpt>
      <trkpt lat="60.0228429" lon="17.7444111">
        <ele>41.474</ele>
        <time>2013-06-03T13:32:00Z</time>
      </trkpt>
      <trkpt lat="60.0228463" lon="17.7445256">
        <ele>41.9547</ele>
        <time>2013-06-03T13:32:01Z</time>
      </trkpt>
      <trkpt lat="60.0228498" lon="17.7446406">
        <ele>41.9547</ele>
        <time>2013-06-03T13:32:02Z</time>
      </trkpt>
      <trkpt lat="60.0228541" lon="17.744755">
        <ele>42.4354</ele>
        <time>2013-06-03T13:32:03Z</time>
      </trkpt>
      <trkpt lat="60.0228587" lon="17.7448671">
        <ele>42.916</ele>
        <time>2013-06-03T13:32:04Z</time>
      </trkpt>
      <trkpt lat="60.0228632" lon="17.7449751">
        <ele>42.916</ele>
        <time>2013-06-03T13:32:05Z</time>
      </trkpt>
      <trkpt lat="60.0228695" lon="17.7450809">
        <ele>43.3966</ele>
        <time>2013-06-03T13:32:06Z</time>
      </trkpt>
      <trkpt lat="60.0228783" lon="17.7451869">
        <ele>43.8773</ele>
        <time>2013-06-03T13:32:07Z</time>
      </trkpt>
      <trkpt lat="60.0228836" lon="17.7452911">
        <ele>44.358</ele>
        <time>2013-06-03T13:32:08Z</time>
      </trkpt>
      <trkpt lat="60.0228866" lon="17.7453922">
        <ele>44.8386</ele>
        <time>2013-06-03T13:32:09Z</time>
      </trkpt>
      <trkpt lat="60.0228877" lon="17.7454907">
        <ele>45.3192</ele>
        <time>2013-06-03T13:32:10Z</time>
      </trkpt>
      <trkpt lat="60.0228896" lon="17.7455886">
        <ele>45.7999</ele>
        <time>2013-06-03T13:32:11Z</time>
      </trkpt>
      <trkpt lat="60.0228914" lon="17.745685">
        <ele>45.7999</ele>
        <time>2013-06-03T13:32:12Z</time>
      </trkpt>
      <trkpt lat="60.0228867" lon="17.7457803">
        <ele>45.3192</ele>
        <time>2013-06-03T13:32:13Z</time>
      </trkpt>
      <trkpt lat="60.0228804" lon="17.7458754">
        <ele>45.3192</ele>
        <time>2013-06-03T13:32:14Z</time>
      </trkpt>
      <trkpt lat="60.0228741" lon="17.745971">
        <ele>44.8386</ele>
        <time>2013-06-03T13:32:15Z</time>
      </trkpt>
      <trkpt lat="60.022867" lon="17.7460656">
        <ele>44.8386</ele>
        <time>2013-06-03T13:32:16Z</time>
      </trkpt>
      <trkpt lat="60.0228593" lon="17.7461568">
        <ele>45.3192</ele>
        <time>2013-06-03T13:32:17Z</time>
      </trkpt>
      <trkpt lat="60.022851" lon="17.7462501">
        <ele>44.8386</ele>
        <time>2013-06-03T13:32:18Z</time>
      </trkpt>
      <trkpt lat="60.0228421" lon="17.7463422">
        <ele>44.358</ele>
        <time>2013-06-03T13:32:19Z</time>
      </trkpt>
      <trkpt lat="60.0228332" lon="17.746432">
        <ele>44.358</ele>
        <time>2013-06-03T13:32:20Z</time>
      </trkpt>
      <trkpt lat="60.0228253" lon="17.7465256">
        <ele>41.9547</ele>
        <time>2013-06-03T13:32:21Z</time>
      </trkpt>
      <trkpt lat="60.022822" lon="17.7466065">
        <ele>42.4354</ele>
        <time>2013-06-03T13:32:22Z</time>
      </trkpt>
      <trkpt lat="60.0228203" lon="17.7466834">
        <ele>42.916</ele>
        <time>2013-06-03T13:32:23Z</time>
      </trkpt>
      <trkpt lat="60.0228227" lon="17.7467588">
        <ele>43.8773</ele>
        <time>2013-06-03T13:32:24Z</time>
      </trkpt>
      <trkpt lat="60.022829" lon="17.7468344">
        <ele>44.358</ele>
        <time>2013-06-03T13:32:25Z</time>
      </trkpt>
      <trkpt lat="60.0228432" lon="17.74691">
        <ele>44.358</ele>
        <time>2013-06-03T13:32:26Z</time>
      </trkpt>
      <trkpt lat="60.0228664" lon="17.746979">
        <ele>44.8386</ele>
        <time>2013-06-03T13:32:27Z</time>
      </trkpt>
      <trkpt lat="60.0228963" lon="17.7470377">
        <ele>45.3192</ele>
        <time>2013-06-03T13:32:28Z</time>
      </trkpt>
      <trkpt lat="60.0229321" lon="17.7470888">
        <ele>44.8386</ele>
        <time>2013-06-03T13:32:29Z</time>
      </trkpt>
      <trkpt lat="60.0229734" lon="17.7471315">
        <ele>46.2806</ele>
        <time>2013-06-03T13:32:30Z</time>
      </trkpt>
      <trkpt lat="60.0230183" lon="17.7471768">
        <ele>45.7999</ele>
        <time>2013-06-03T13:32:31Z</time>
      </trkpt>
      <trkpt lat="60.0230691" lon="17.7472196">
        <ele>46.7612</ele>
        <time>2013-06-03T13:32:32Z</time>
      </trkpt>
      <trkpt lat="60.023126" lon="17.747253">
        <ele>46.7612</ele>
        <time>2013-06-03T13:32:33Z</time>
      </trkpt>
      <trkpt lat="60.0231823" lon="17.7472857">
        <ele>47.7225</ele>
        <time>2013-06-03T13:32:34Z</time>
      </trkpt>
      <trkpt lat="60.0232348" lon="17.747319">
        <ele>47.2418</ele>
        <time>2013-06-03T13:32:35Z</time>
      </trkpt>
      <trkpt lat="60.0232895" lon="17.7473472">
        <ele>47.7225</ele>
        <time>2013-06-03T13:32:36Z</time>
      </trkpt>
      <trkpt lat="60.0233436" lon="17.7473814">
        <ele>47.7225</ele>
        <time>2013-06-03T13:32:37Z</time>
      </trkpt>
      <trkpt lat="60.0233988" lon="17.7474154">
        <ele>48.2034</ele>
        <time>2013-06-03T13:32:38Z</time>
      </trkpt>
      <trkpt lat="60.0234523" lon="17.7474503">
        <ele>48.2034</ele>
        <time>2013-06-03T13:32:39Z</time>
      </trkpt>
      <trkpt lat="60.0235046" lon="17.7474838">
        <ele>48.2034</ele>
        <time>2013-06-03T13:32:40Z</time>
      </trkpt>
      <trkpt lat="60.0235565" lon="17.7475187">
        <ele>48.684</ele>
        <time>2013-06-03T13:32:41Z</time>
      </trkpt>
      <trkpt lat="60.0236071" lon="17.7475576">
        <ele>47.7225</ele>
        <time>2013-06-03T13:32:42Z</time>
      </trkpt>
      <trkpt lat="60.023657" lon="17.7475957">
        <ele>47.2418</ele>
        <time>2013-06-03T13:32:43Z</time>
      </trkpt>
      <trkpt lat="60.0237057" lon="17.7476343">
        <ele>46.2806</ele>
        <time>2013-06-03T13:32:44Z</time>
      </trkpt>
      <trkpt lat="60.02376" lon="17.7476729">
        <ele>46.2806</ele>
        <time>2013-06-03T13:32:45Z</time>
      </trkpt>
      <trkpt lat="60.0238154" lon="17.7477078">
        <ele>46.2806</ele>
        <time>2013-06-03T13:32:46Z</time>
      </trkpt>
      <trkpt lat="60.0238718" lon="17.7477436">
        <ele>46.2806</ele>
        <time>2013-06-03T13:32:47Z</time>
      </trkpt>
      <trkpt lat="60.0239295" lon="17.7477796">
        <ele>45.3192</ele>
        <time>2013-06-03T13:32:48Z</time>
      </trkpt>
      <trkpt lat="60.0239786" lon="17.7478228">
        <ele>44.358</ele>
        <time>2013-06-03T13:32:49Z</time>
      </trkpt>
      <trkpt lat="60.0240365" lon="17.7478599">
        <ele>43.3966</ele>
        <time>2013-06-03T13:32:50Z</time>
      </trkpt>
      <trkpt lat="60.024092" lon="17.7478943">
        <ele>42.4354</ele>
        <time>2013-06-03T13:32:51Z</time>
      </trkpt>
      <trkpt lat="60.0241445" lon="17.7479326">
        <ele>41.474</ele>
        <time>2013-06-03T13:32:52Z</time>
      </trkpt>
      <trkpt lat="60.0241961" lon="17.7479699">
        <ele>40.0321</ele>
        <time>2013-06-03T13:32:53Z</time>
      </trkpt>
      <trkpt lat="60.024252" lon="17.748003">
        <ele>39.5513</ele>
        <time>2013-06-03T13:32:54Z</time>
      </trkpt>
      <trkpt lat="60.0243102" lon="17.7480378">
        <ele>39.5513</ele>
        <time>2013-06-03T13:32:55Z</time>
      </trkpt>
      <trkpt lat="60.0243708" lon="17.7480699">
        <ele>39.5513</ele>
        <time>2013-06-03T13:32:56Z</time>
      </trkpt>
      <trkpt lat="60.0244306" lon="17.7481035">
        <ele>39.5513</ele>
        <time>2013-06-03T13:32:57Z</time>
      </trkpt>
      <trkpt lat="60.0244877" lon="17.7481512">
        <ele>39.5513</ele>
        <time>2013-06-03T13:32:58Z</time>
      </trkpt>
      <trkpt lat="60.0245406" lon="17.7482211">
        <ele>40.0321</ele>
        <time>2013-06-03T13:32:59Z</time>
      </trkpt>
      <trkpt lat="60.0245827" lon="17.7483178">
        <ele>40.5128</ele>
        <time>2013-06-03T13:33:00Z</time>
      </trkpt>
      <trkpt lat="60.0246012" lon="17.7484351">
        <ele>40.5128</ele>
        <time>2013-06-03T13:33:01Z</time>
      </trkpt>
      <trkpt lat="60.0245955" lon="17.7485599">
        <ele>40.9934</ele>
        <time>2013-06-03T13:33:02Z</time>
      </trkpt>
      <trkpt lat="60.0245791" lon="17.7486837">
        <ele>40.9934</ele>
        <time>2013-06-03T13:33:03Z</time>
      </trkpt>
      <trkpt lat="60.0245603" lon="17.748809">
        <ele>40.9934</ele>
        <time>2013-06-03T13:33:04Z</time>
      </trkpt>
      <trkpt lat="60.0245406" lon="17.7489361">
        <ele>41.474</ele>
        <time>2013-06-03T13:33:05Z</time>
      </trkpt>
      <trkpt lat="60.0245205" lon="17.7490696">
        <ele>41.474</ele>
        <time>2013-06-03T13:33:06Z</time>
      </trkpt>
      <trkpt lat="60.0245018" lon="17.749212">
        <ele>41.9547</ele>
        <time>2013-06-03T13:33:07Z</time>
      </trkpt>
      <trkpt lat="60.0244867" lon="17.7493598">
        <ele>42.4354</ele>
        <time>2013-06-03T13:33:08Z</time>
      </trkpt>
      <trkpt lat="60.0244692" lon="17.7495115">
        <ele>42.916</ele>
        <time>2013-06-03T13:33:09Z</time>
      </trkpt>
      <trkpt lat="60.0244553" lon="17.7496675">
        <ele>43.3966</ele>
        <time>2013-06-03T13:33:10Z</time>
      </trkpt>
      <trkpt lat="60.0244421" lon="17.749821">
        <ele>43.8773</ele>
        <time>2013-06-03T13:33:11Z</time>
      </trkpt>
      <trkpt lat="60.0244307" lon="17.749971">
        <ele>45.3192</ele>
        <time>2013-06-03T13:33:12Z</time>
      </trkpt>
      <trkpt lat="60.024418" lon="17.7501179">
        <ele>45.7999</ele>
        <time>2013-06-03T13:33:13Z</time>
      </trkpt>
      <trkpt lat="60.0244075" lon="17.7502605">
        <ele>46.2806</ele>
        <time>2013-06-03T13:33:14Z</time>
      </trkpt>
      <trkpt lat="60.0244002" lon="17.7504022">
        <ele>47.2418</ele>
        <time>2013-06-03T13:33:15Z</time>
      </trkpt>
      <trkpt lat="60.0243997" lon="17.7505444">
        <ele>47.7225</ele>
        <time>2013-06-03T13:33:16Z</time>
      </trkpt>
      <trkpt lat="60.0243981" lon="17.7506893">
        <ele>44.8386</ele>
        <time>2013-06-03T13:33:17Z</time>
      </trkpt>
      <trkpt lat="60.024399" lon="17.7508442">
        <ele>40.5128</ele>
        <time>2013-06-03T13:33:18Z</time>
      </trkpt>
      <trkpt lat="60.0244091" lon="17.7509977">
        <ele>39.5513</ele>
        <time>2013-06-03T13:33:19Z</time>
      </trkpt>
      <trkpt lat="60.0244203" lon="17.7511405">
        <ele>40.5128</ele>
        <time>2013-06-03T13:33:20Z</time>
      </trkpt>
      <trkpt lat="60.0244298" lon="17.7512872">
        <ele>40.5128</ele>
        <time>2013-06-03T13:33:21Z</time>
      </trkpt>
      <trkpt lat="60.0244344" lon="17.7514274">
        <ele>40.9934</ele>
        <time>2013-06-03T13:33:22Z</time>
      </trkpt>
      <trkpt lat="60.0244439" lon="17.7515721">
        <ele>42.4354</ele>
        <time>2013-06-03T13:33:23Z</time>
      </trkpt>
      <trkpt lat="60.024452" lon="17.7517156">
        <ele>44.358</ele>
        <time>2013-06-03T13:33:24Z</time>
      </trkpt>
      <trkpt lat="60.024454" lon="17.7518579">
        <ele>44.8386</ele>
        <time>2013-06-03T13:33:25Z</time>
      </trkpt>
      <trkpt lat="60.0244545" lon="17.7520015">
        <ele>45.3192</ele>
        <time>2013-06-03T13:33:26Z</time>
      </trkpt>
      <trkpt lat="60.0244531" lon="17.7521435">
        <ele>45.7999</ele>
        <time>2013-06-03T13:33:27Z</time>
      </trkpt>
      <trkpt lat="60.0244542" lon="17.7522865">
        <ele>47.7225</ele>
        <time>2013-06-03T13:33:28Z</time>
      </trkpt>
      <trkpt lat="60.0244525" lon="17.7524263">
        <ele>47.7225</ele>
        <time>2013-06-03T13:33:29Z</time>
      </trkpt>
      <trkpt lat="60.0244472" lon="17.7525644">
        <ele>47.7225</ele>
        <time>2013-06-03T13:33:30Z</time>
      </trkpt>
      <trkpt lat="60.0244407" lon="17.7527024">
        <ele>48.684</ele>
        <time>2013-06-03T13:33:31Z</time>
      </trkpt>
      <trkpt lat="60.0244291" lon="17.7528366">
        <ele>49.1646</ele>
        <time>2013-06-03T13:33:32Z</time>
      </trkpt>
      <trkpt lat="60.0244148" lon="17.7529684">
        <ele>49.6453</ele>
        <time>2013-06-03T13:33:33Z</time>
      </trkpt>
      <trkpt lat="60.0243975" lon="17.7530985">
        <ele>49.1646</ele>
        <time>2013-06-03T13:33:34Z</time>
      </trkpt>
      <trkpt lat="60.0243774" lon="17.7532277">
        <ele>49.6453</ele>
        <time>2013-06-03T13:33:35Z</time>
      </trkpt>
      <trkpt lat="60.0243566" lon="17.7533581">
        <ele>50.126</ele>
        <time>2013-06-03T13:33:36Z</time>
      </trkpt>
      <trkpt lat="60.0243308" lon="17.753486">
        <ele>50.126</ele>
        <time>2013-06-03T13:33:37Z</time>
      </trkpt>
      <trkpt lat="60.0243065" lon="17.7536141">
        <ele>50.126</ele>
        <time>2013-06-03T13:33:38Z</time>
      </trkpt>
      <trkpt lat="60.0242827" lon="17.7537379">
        <ele>50.126</ele>
        <time>2013-06-03T13:33:39Z</time>
      </trkpt>
      <trkpt lat="60.0242588" lon="17.7538649">
        <ele>50.126</ele>
        <time>2013-06-03T13:33:40Z</time>
      </trkpt>
      <trkpt lat="60.0242355" lon="17.7539915">
        <ele>50.6066</ele>
        <time>2013-06-03T13:33:41Z</time>
      </trkpt>
      <trkpt lat="60.0242142" lon="17.754115">
        <ele>51.0872</ele>
        <time>2013-06-03T13:33:42Z</time>
      </trkpt>
      <trkpt lat="60.0241976" lon="17.7542486">
        <ele>51.0872</ele>
        <time>2013-06-03T13:33:43Z</time>
      </trkpt>
      <trkpt lat="60.024178" lon="17.7543811">
        <ele>50.126</ele>
        <time>2013-06-03T13:33:44Z</time>
      </trkpt>
      <trkpt lat="60.0241568" lon="17.7545117">
        <ele>50.6066</ele>
        <time>2013-06-03T13:33:45Z</time>
      </trkpt>
      <trkpt lat="60.024133" lon="17.7546422">
        <ele>50.6066</ele>
        <time>2013-06-03T13:33:46Z</time>
      </trkpt>
      <trkpt lat="60.0241149" lon="17.7547729">
        <ele>51.5679</ele>
        <time>2013-06-03T13:33:47Z</time>
      </trkpt>
      <trkpt lat="60.0240924" lon="17.754898">
        <ele>52.0486</ele>
        <time>2013-06-03T13:33:48Z</time>
      </trkpt>
      <trkpt lat="60.0240699" lon="17.7550231">
        <ele>53.0098</ele>
        <time>2013-06-03T13:33:49Z</time>
      </trkpt>
      <trkpt lat="60.0240475" lon="17.7551474">
        <ele>53.4905</ele>
        <time>2013-06-03T13:33:50Z</time>
      </trkpt>
      <trkpt lat="60.0240246" lon="17.7552732">
        <ele>53.4905</ele>
        <time>2013-06-03T13:33:51Z</time>
      </trkpt>
      <trkpt lat="60.0240012" lon="17.7553981">
        <ele>53.9712</ele>
        <time>2013-06-03T13:33:52Z</time>
      </trkpt>
      <trkpt lat="60.0239786" lon="17.7555193">
        <ele>54.4518</ele>
        <time>2013-06-03T13:33:53Z</time>
      </trkpt>
      <trkpt lat="60.0239563" lon="17.7556348">
        <ele>55.4131</ele>
        <time>2013-06-03T13:33:54Z</time>
      </trkpt>
      <trkpt lat="60.023933" lon="17.7557544">
        <ele>56.3745</ele>
        <time>2013-06-03T13:33:55Z</time>
      </trkpt>
      <trkpt lat="60.0239131" lon="17.7558794">
        <ele>56.8551</ele>
        <time>2013-06-03T13:33:56Z</time>
      </trkpt>
      <trkpt lat="60.02389" lon="17.7560038">
        <ele>57.8165</ele>
        <time>2013-06-03T13:33:57Z</time>
      </trkpt>
      <trkpt lat="60.0238678" lon="17.7561301">
        <ele>58.7777</ele>
        <time>2013-06-03T13:33:58Z</time>
      </trkpt>
      <trkpt lat="60.0238468" lon="17.7562585">
        <ele>59.7391</ele>
        <time>2013-06-03T13:33:59Z</time>
      </trkpt>
      <trkpt lat="60.0238257" lon="17.7563823">
        <ele>60.7003</ele>
        <time>2013-06-03T13:34:00Z</time>
      </trkpt>
      <trkpt lat="60.0238033" lon="17.7565161">
        <ele>58.7777</ele>
        <time>2013-06-03T13:34:01Z</time>
      </trkpt>
      <trkpt lat="60.0237785" lon="17.7566424">
        <ele>58.7777</ele>
        <time>2013-06-03T13:34:02Z</time>
      </trkpt>
      <trkpt lat="60.0237515" lon="17.7567708">
        <ele>56.3745</ele>
        <time>2013-06-03T13:34:03Z</time>
      </trkpt>
      <trkpt lat="60.0237241" lon="17.7568979">
        <ele>54.9324</ele>
        <time>2013-06-03T13:34:04Z</time>
      </trkpt>
      <trkpt lat="60.0236947" lon="17.7570239">
        <ele>52.5292</ele>
        <time>2013-06-03T13:34:05Z</time>
      </trkpt>
      <trkpt lat="60.0236682" lon="17.7571529">
        <ele>51.5679</ele>
        <time>2013-06-03T13:34:06Z</time>
      </trkpt>
      <trkpt lat="60.0236414" lon="17.7572841">
        <ele>49.1646</ele>
        <time>2013-06-03T13:34:07Z</time>
      </trkpt>
      <trkpt lat="60.0236132" lon="17.7574117">
        <ele>48.684</ele>
        <time>2013-06-03T13:34:08Z</time>
      </trkpt>
      <trkpt lat="60.0235876" lon="17.7575298">
        <ele>47.7225</ele>
        <time>2013-06-03T13:34:09Z</time>
      </trkpt>
      <trkpt lat="60.0235607" lon="17.7576518">
        <ele>45.3192</ele>
        <time>2013-06-03T13:34:10Z</time>
      </trkpt>
      <trkpt lat="60.0235367" lon="17.7577742">
        <ele>43.3966</ele>
        <time>2013-06-03T13:34:11Z</time>
      </trkpt>
      <trkpt lat="60.0235114" lon="17.7578995">
        <ele>42.4354</ele>
        <time>2013-06-03T13:34:12Z</time>
      </trkpt>
      <trkpt lat="60.0234843" lon="17.7580281">
        <ele>41.474</ele>
        <time>2013-06-03T13:34:13Z</time>
      </trkpt>
      <trkpt lat="60.0234621" lon="17.7581468">
        <ele>41.474</ele>
        <time>2013-06-03T13:34:14Z</time>
      </trkpt>
      <trkpt lat="60.023449" lon="17.758255">
        <ele>41.9547</ele>
        <time>2013-06-03T13:34:15Z</time>
      </trkpt>
      <trkpt lat="60.0234369" lon="17.7583622">
        <ele>41.474</ele>
        <time>2013-06-03T13:34:16Z</time>
      </trkpt>
      <trkpt lat="60.0234247" lon="17.7584631">
        <ele>41.474</ele>
        <time>2013-06-03T13:34:17Z</time>
      </trkpt>
      <trkpt lat="60.0234096" lon="17.7585704">
        <ele>40.0321</ele>
        <time>2013-06-03T13:34:18Z</time>
      </trkpt>
      <trkpt lat="60.0233901" lon="17.7586762">
        <ele>39.5513</ele>
        <time>2013-06-03T13:34:19Z</time>
      </trkpt>
      <trkpt lat="60.0233762" lon="17.7587945">
        <ele>39.0707</ele>
        <time>2013-06-03T13:34:20Z</time>
      </trkpt>
      <trkpt lat="60.0233527" lon="17.7589102">
        <ele>39.5513</ele>
        <time>2013-06-03T13:34:21Z</time>
      </trkpt>
      <trkpt lat="60.0233352" lon="17.7590194">
        <ele>39.0707</ele>
        <time>2013-06-03T13:34:22Z</time>
      </trkpt>
      <trkpt lat="60.0233153" lon="17.7591279">
        <ele>39.5513</ele>
        <time>2013-06-03T13:34:23Z</time>
      </trkpt>
      <trkpt lat="60.0232951" lon="17.7592314">
        <ele>40.5128</ele>
        <time>2013-06-03T13:34:24Z</time>
      </trkpt>
      <trkpt lat="60.0232732" lon="17.7593329">
        <ele>41.9547</ele>
        <time>2013-06-03T13:34:25Z</time>
      </trkpt>
      <trkpt lat="60.0232544" lon="17.759435">
        <ele>42.916</ele>
        <time>2013-06-03T13:34:26Z</time>
      </trkpt>
      <trkpt lat="60.0232387" lon="17.7595412">
        <ele>42.916</ele>
        <time>2013-06-03T13:34:27Z</time>
      </trkpt>
      <trkpt lat="60.0232217" lon="17.7596572">
        <ele>41.9547</ele>
        <time>2013-06-03T13:34:28Z</time>
      </trkpt>
      <trkpt lat="60.0232082" lon="17.7597753">
        <ele>41.474</ele>
        <time>2013-06-03T13:34:29Z</time>
      </trkpt>
      <trkpt lat="60.0232022" lon="17.7598885">
        <ele>40.9934</ele>
        <time>2013-06-03T13:34:30Z</time>
      </trkpt>
      <trkpt lat="60.0232014" lon="17.760001">
        <ele>40.0321</ele>
        <time>2013-06-03T13:34:31Z</time>
      </trkpt>
      <trkpt lat="60.0232043" lon="17.7601116">
        <ele>40.5128</ele>
        <time>2013-06-03T13:34:32Z</time>
      </trkpt>
      <trkpt lat="60.0232144" lon="17.7602208">
        <ele>40.9934</ele>
        <time>2013-06-03T13:34:33Z</time>
      </trkpt>
      <trkpt lat="60.0232257" lon="17.7603273">
        <ele>41.474</ele>
        <time>2013-06-03T13:34:34Z</time>
      </trkpt>
      <trkpt lat="60.0232363" lon="17.7604395">
        <ele>42.4354</ele>
        <time>2013-06-03T13:34:35Z</time>
      </trkpt>
      <trkpt lat="60.023247" lon="17.7605584">
        <ele>42.916</ele>
        <time>2013-06-03T13:34:36Z</time>
      </trkpt>
      <trkpt lat="60.0232616" lon="17.7607169">
        <ele>43.3966</ele>
        <time>2013-06-03T13:34:37Z</time>
      </trkpt>
      <trkpt lat="60.0232737" lon="17.7608528">
        <ele>43.3966</ele>
        <time>2013-06-03T13:34:38Z</time>
      </trkpt>
      <trkpt lat="60.0232837" lon="17.7609767">
        <ele>43.8773</ele>
        <time>2013-06-03T13:34:39Z</time>
      </trkpt>
      <trkpt lat="60.0233285" lon="17.7611486">
        <ele>42.4354</ele>
        <time>2013-06-03T13:34:40Z</time>
      </trkpt>
      <trkpt lat="60.0233376" lon="17.7612659">
        <ele>43.3966</ele>
        <time>2013-06-03T13:34:41Z</time>
      </trkpt>
      <trkpt lat="60.0233533" lon="17.761382">
        <ele>44.358</ele>
        <time>2013-06-03T13:34:42Z</time>
      </trkpt>
      <trkpt lat="60.0233667" lon="17.7615118">
        <ele>43.8773</ele>
        <time>2013-06-03T13:34:43Z</time>
      </trkpt>
      <trkpt lat="60.023374" lon="17.7616189">
        <ele>44.8386</ele>
        <time>2013-06-03T13:34:44Z</time>
      </trkpt>
      <trkpt lat="60.0233874" lon="17.7617203">
        <ele>44.8386</ele>
        <time>2013-06-03T13:34:45Z</time>
      </trkpt>
      <trkpt lat="60.0233954" lon="17.7618432">
        <ele>45.7999</ele>
        <time>2013-06-03T13:34:46Z</time>
      </trkpt>
      <trkpt lat="60.0233989" lon="17.7619815">
        <ele>46.7612</ele>
        <time>2013-06-03T13:34:47Z</time>
      </trkpt>
      <trkpt lat="60.0233973" lon="17.7621168">
        <ele>48.2034</ele>
        <time>2013-06-03T13:34:48Z</time>
      </trkpt>
      <trkpt lat="60.0234" lon="17.7622374">
        <ele>49.1646</ele>
        <time>2013-06-03T13:34:49Z</time>
      </trkpt>
      <trkpt lat="60.0234072" lon="17.7623639">
        <ele>51.0872</ele>
        <time>2013-06-03T13:34:50Z</time>
      </trkpt>
      <trkpt lat="60.0234014" lon="17.7624916">
        <ele>51.5679</ele>
        <time>2013-06-03T13:34:51Z</time>
      </trkpt>
      <trkpt lat="60.0233932" lon="17.7626267">
        <ele>51.5679</ele>
        <time>2013-06-03T13:34:52Z</time>
      </trkpt>
      <trkpt lat="60.0233803" lon="17.7627544">
        <ele>52.0486</ele>
        <time>2013-06-03T13:34:53Z</time>
      </trkpt>
      <trkpt lat="60.0233699" lon="17.7628917">
        <ele>52.0486</ele>
        <time>2013-06-03T13:34:54Z</time>
      </trkpt>
      <trkpt lat="60.0233517" lon="17.7630155">
        <ele>53.9712</ele>
        <time>2013-06-03T13:34:55Z</time>
      </trkpt>
      <trkpt lat="60.0233332" lon="17.7631335">
        <ele>56.3745</ele>
        <time>2013-06-03T13:34:56Z</time>
      </trkpt>
      <trkpt lat="60.0233138" lon="17.7632474">
        <ele>57.8165</ele>
        <time>2013-06-03T13:34:57Z</time>
      </trkpt>
      <trkpt lat="60.023298" lon="17.7633722">
        <ele>59.2584</ele>
        <time>2013-06-03T13:34:58Z</time>
      </trkpt>
      <trkpt lat="60.0232813" lon="17.7635024">
        <ele>61.181</ele>
        <time>2013-06-03T13:34:59Z</time>
      </trkpt>
      <trkpt lat="60.0232595" lon="17.7636263">
        <ele>61.6617</ele>
        <time>2013-06-03T13:35:00Z</time>
      </trkpt>
      <trkpt lat="60.0232377" lon="17.7637545">
        <ele>63.1036</ele>
        <time>2013-06-03T13:35:01Z</time>
      </trkpt>
      <trkpt lat="60.023216" lon="17.7638847">
        <ele>65.0264</ele>
        <time>2013-06-03T13:35:02Z</time>
      </trkpt>
      <trkpt lat="60.0231902" lon="17.764013">
        <ele>65.5071</ele>
        <time>2013-06-03T13:35:03Z</time>
      </trkpt>
      <trkpt lat="60.0231523" lon="17.7641861">
        <ele>66.4683</ele>
        <time>2013-06-03T13:35:04Z</time>
      </trkpt>
      <trkpt lat="60.0231321" lon="17.7643134">
        <ele>68.3909</ele>
        <time>2013-06-03T13:35:05Z</time>
      </trkpt>
      <trkpt lat="60.0231083" lon="17.7644271">
        <ele>69.3523</ele>
        <time>2013-06-03T13:35:06Z</time>
      </trkpt>
      <trkpt lat="60.0230903" lon="17.7645625">
        <ele>67.4297</ele>
        <time>2013-06-03T13:35:07Z</time>
      </trkpt>
      <trkpt lat="60.0230638" lon="17.764671">
        <ele>66.949</ele>
        <time>2013-06-03T13:35:08Z</time>
      </trkpt>
      <trkpt lat="60.0230374" lon="17.7648155">
        <ele>61.181</ele>
        <time>2013-06-03T13:35:09Z</time>
      </trkpt>
      <trkpt lat="60.0229799" lon="17.7650108">
        <ele>55.8938</ele>
        <time>2013-06-03T13:35:10Z</time>
      </trkpt>
      <trkpt lat="60.0229513" lon="17.7651467">
        <ele>55.8938</ele>
        <time>2013-06-03T13:35:11Z</time>
      </trkpt>
      <trkpt lat="60.0229031" lon="17.7652874">
        <ele>51.5679</ele>
        <time>2013-06-03T13:35:12Z</time>
      </trkpt>
      <trkpt lat="60.0228809" lon="17.765414">
        <ele>49.1646</ele>
        <time>2013-06-03T13:35:13Z</time>
      </trkpt>
      <trkpt lat="60.0228426" lon="17.7655286">
        <ele>47.7225</ele>
        <time>2013-06-03T13:35:14Z</time>
      </trkpt>
      <trkpt lat="60.02281" lon="17.7656687">
        <ele>45.3192</ele>
        <time>2013-06-03T13:35:15Z</time>
      </trkpt>
      <trkpt lat="60.022783" lon="17.7657868">
        <ele>43.8773</ele>
        <time>2013-06-03T13:35:16Z</time>
      </trkpt>
      <trkpt lat="60.0227569" lon="17.7659055">
        <ele>43.3966</ele>
        <time>2013-06-03T13:35:17Z</time>
      </trkpt>
      <trkpt lat="60.0227354" lon="17.7660363">
        <ele>43.8773</ele>
        <time>2013-06-03T13:35:18Z</time>
      </trkpt>
      <trkpt lat="60.0227141" lon="17.7661598">
        <ele>43.3966</ele>
        <time>2013-06-03T13:35:19Z</time>
      </trkpt>
      <trkpt lat="60.0226922" lon="17.7662933">
        <ele>43.3966</ele>
        <time>2013-06-03T13:35:20Z</time>
      </trkpt>
      <trkpt lat="60.022679" lon="17.7664348">
        <ele>44.358</ele>
        <time>2013-06-03T13:35:21Z</time>
      </trkpt>
      <trkpt lat="60.0226607" lon="17.7665716">
        <ele>45.3192</ele>
        <time>2013-06-03T13:35:22Z</time>
      </trkpt>
      <trkpt lat="60.0226399" lon="17.7666898">
        <ele>45.3192</ele>
        <time>2013-06-03T13:35:23Z</time>
      </trkpt>
      <trkpt lat="60.0226269" lon="17.7668084">
        <ele>46.2806</ele>
        <time>2013-06-03T13:35:24Z</time>
      </trkpt>
      <trkpt lat="60.022612" lon="17.7669222">
        <ele>47.2418</ele>
        <time>2013-06-03T13:35:25Z</time>
      </trkpt>
      <trkpt lat="60.0225944" lon="17.7670466">
        <ele>48.2034</ele>
        <time>2013-06-03T13:35:26Z</time>
      </trkpt>
      <trkpt lat="60.0225712" lon="17.7671676">
        <ele>48.684</ele>
        <time>2013-06-03T13:35:27Z</time>
      </trkpt>
      <trkpt lat="60.0225368" lon="17.7673014">
        <ele>49.6453</ele>
        <time>2013-06-03T13:35:28Z</time>
      </trkpt>
      <trkpt lat="60.0224958" lon="17.7674391">
        <ele>46.2806</ele>
        <time>2013-06-03T13:35:29Z</time>
      </trkpt>
      <trkpt lat="60.0224582" lon="17.7675693">
        <ele>45.3192</ele>
        <time>2013-06-03T13:35:30Z</time>
      </trkpt>
      <trkpt lat="60.0224142" lon="17.7676901">
        <ele>43.8773</ele>
        <time>2013-06-03T13:35:31Z</time>
      </trkpt>
      <trkpt lat="60.0223653" lon="17.7678205">
        <ele>40.9934</ele>
        <time>2013-06-03T13:35:32Z</time>
      </trkpt>
      <trkpt lat="60.022323" lon="17.7679455">
        <ele>39.0707</ele>
        <time>2013-06-03T13:35:33Z</time>
      </trkpt>
      <trkpt lat="60.022278" lon="17.7680633">
        <ele>37.6287</ele>
        <time>2013-06-03T13:35:34Z</time>
      </trkpt>
      <trkpt lat="60.022236" lon="17.7681892">
        <ele>35.2255</ele>
        <time>2013-06-03T13:35:35Z</time>
      </trkpt>
      <trkpt lat="60.0221965" lon="17.7683114">
        <ele>34.2642</ele>
        <time>2013-06-03T13:35:36Z</time>
      </trkpt>
      <trkpt lat="60.0221645" lon="17.7684342">
        <ele>33.3029</ele>
        <time>2013-06-03T13:35:37Z</time>
      </trkpt>
      <trkpt lat="60.0221417" lon="17.768554">
        <ele>34.7449</ele>
        <time>2013-06-03T13:35:38Z</time>
      </trkpt>
      <trkpt lat="60.02212" lon="17.768693">
        <ele>32.3416</ele>
        <time>2013-06-03T13:35:39Z</time>
      </trkpt>
      <trkpt lat="60.0221027" lon="17.7688239">
        <ele>32.3416</ele>
        <time>2013-06-03T13:35:40Z</time>
      </trkpt>
      <trkpt lat="60.0220888" lon="17.7689625">
        <ele>32.3416</ele>
        <time>2013-06-03T13:35:41Z</time>
      </trkpt>
      <trkpt lat="60.0220843" lon="17.7691047">
        <ele>33.3029</ele>
        <time>2013-06-03T13:35:42Z</time>
      </trkpt>
      <trkpt lat="60.02208" lon="17.7692493">
        <ele>34.2642</ele>
        <time>2013-06-03T13:35:43Z</time>
      </trkpt>
      <trkpt lat="60.0220796" lon="17.7693966">
        <ele>35.7061</ele>
        <time>2013-06-03T13:35:44Z</time>
      </trkpt>
      <trkpt lat="60.0220823" lon="17.7695503">
        <ele>36.1868</ele>
        <time>2013-06-03T13:35:45Z</time>
      </trkpt>
      <trkpt lat="60.0220832" lon="17.7696937">
        <ele>37.6287</ele>
        <time>2013-06-03T13:35:46Z</time>
      </trkpt>
      <trkpt lat="60.0220874" lon="17.7698405">
        <ele>39.5513</ele>
        <time>2013-06-03T13:35:47Z</time>
      </trkpt>
      <trkpt lat="60.0220916" lon="17.7699873">
        <ele>40.9934</ele>
        <time>2013-06-03T13:35:48Z</time>
      </trkpt>
      <trkpt lat="60.0221003" lon="17.7701494">
        <ele>42.4354</ele>
        <time>2013-06-03T13:35:49Z</time>
      </trkpt>
      <trkpt lat="60.022106" lon="17.7702982">
        <ele>45.7999</ele>
        <time>2013-06-03T13:35:50Z</time>
      </trkpt>
      <trkpt lat="60.0221079" lon="17.7704435">
        <ele>48.2034</ele>
        <time>2013-06-03T13:35:51Z</time>
      </trkpt>
      <trkpt lat="60.0221043" lon="17.7706026">
        <ele>47.7225</ele>
        <time>2013-06-03T13:35:52Z</time>
      </trkpt>
      <trkpt lat="60.0220942" lon="17.7707618">
        <ele>47.7225</ele>
        <time>2013-06-03T13:35:53Z</time>
      </trkpt>
      <trkpt lat="60.0220728" lon="17.7709923">
        <ele>47.2418</ele>
        <time>2013-06-03T13:35:54Z</time>
      </trkpt>
      <trkpt lat="60.0220529" lon="17.7711496">
        <ele>47.2418</ele>
        <time>2013-06-03T13:35:55Z</time>
      </trkpt>
      <trkpt lat="60.0220328" lon="17.7712806">
        <ele>47.2418</ele>
        <time>2013-06-03T13:35:56Z</time>
      </trkpt>
      <trkpt lat="60.0220018" lon="17.7714243">
        <ele>47.2418</ele>
        <time>2013-06-03T13:35:57Z</time>
      </trkpt>
      <trkpt lat="60.0219683" lon="17.7715544">
        <ele>46.7612</ele>
        <time>2013-06-03T13:35:58Z</time>
      </trkpt>
      <trkpt lat="60.0219345" lon="17.7716912">
        <ele>46.2806</ele>
        <time>2013-06-03T13:35:59Z</time>
      </trkpt>
      <trkpt lat="60.0218993" lon="17.7718392">
        <ele>45.7999</ele>
        <time>2013-06-03T13:36:00Z</time>
      </trkpt>
      <trkpt lat="60.0218641" lon="17.7719937">
        <ele>45.7999</ele>
        <time>2013-06-03T13:36:01Z</time>
      </trkpt>
      <trkpt lat="60.0218321" lon="17.7721396">
        <ele>46.2806</ele>
        <time>2013-06-03T13:36:02Z</time>
      </trkpt>
      <trkpt lat="60.0217831" lon="17.7723754">
        <ele>41.9547</ele>
        <time>2013-06-03T13:36:03Z</time>
      </trkpt>
      <trkpt lat="60.0217193" lon="17.7725184">
        <ele>38.1094</ele>
        <time>2013-06-03T13:36:04Z</time>
      </trkpt>
      <trkpt lat="60.0216678" lon="17.7726366">
        <ele>36.6675</ele>
        <time>2013-06-03T13:36:05Z</time>
      </trkpt>
      <trkpt lat="60.0216155" lon="17.7727485">
        <ele>35.2255</ele>
        <time>2013-06-03T13:36:06Z</time>
      </trkpt>
      <trkpt lat="60.0215578" lon="17.7728566">
        <ele>34.2642</ele>
        <time>2013-06-03T13:36:07Z</time>
      </trkpt>
      <trkpt lat="60.0214942" lon="17.7729574">
        <ele>31.8607</ele>
        <time>2013-06-03T13:36:08Z</time>
      </trkpt>
      <trkpt lat="60.0214249" lon="17.7730401">
        <ele>31.8607</ele>
        <time>2013-06-03T13:36:09Z</time>
      </trkpt>
      <trkpt lat="60.021358" lon="17.7731265">
        <ele>32.8223</ele>
        <time>2013-06-03T13:36:10Z</time>
      </trkpt>
      <trkpt lat="60.0212985" lon="17.7732181">
        <ele>34.7449</ele>
        <time>2013-06-03T13:36:11Z</time>
      </trkpt>
      <trkpt lat="60.0212471" lon="17.7733343">
        <ele>34.7449</ele>
        <time>2013-06-03T13:36:12Z</time>
      </trkpt>
      <trkpt lat="60.0212021" lon="17.7734443">
        <ele>33.7834</ele>
        <time>2013-06-03T13:36:13Z</time>
      </trkpt>
      <trkpt lat="60.0211542" lon="17.7735581">
        <ele>34.2642</ele>
        <time>2013-06-03T13:36:14Z</time>
      </trkpt>
      <trkpt lat="60.0211182" lon="17.7736775">
        <ele>33.7834</ele>
        <time>2013-06-03T13:36:15Z</time>
      </trkpt>
      <trkpt lat="60.0210731" lon="17.7738077">
        <ele>33.7834</ele>
        <time>2013-06-03T13:36:16Z</time>
      </trkpt>
      <trkpt lat="60.0210327" lon="17.773929">
        <ele>34.7449</ele>
        <time>2013-06-03T13:36:17Z</time>
      </trkpt>
      <trkpt lat="60.020989" lon="17.7740546">
        <ele>33.7834</ele>
        <time>2013-06-03T13:36:18Z</time>
      </trkpt>
      <trkpt lat="60.0209359" lon="17.7741786">
        <ele>32.8223</ele>
        <time>2013-06-03T13:36:19Z</time>
      </trkpt>
      <trkpt lat="60.0208773" lon="17.7742971">
        <ele>32.8223</ele>
        <time>2013-06-03T13:36:20Z</time>
      </trkpt>
      <trkpt lat="60.0208114" lon="17.7744056">
        <ele>32.8223</ele>
        <time>2013-06-03T13:36:21Z</time>
      </trkpt>
      <trkpt lat="60.0207472" lon="17.7745013">
        <ele>33.7834</ele>
        <time>2013-06-03T13:36:22Z</time>
      </trkpt>
      <trkpt lat="60.020681" lon="17.7745809">
        <ele>34.7449</ele>
        <time>2013-06-03T13:36:23Z</time>
      </trkpt>
      <trkpt lat="60.0206141" lon="17.774648">
        <ele>35.2255</ele>
        <time>2013-06-03T13:36:24Z</time>
      </trkpt>
      <trkpt lat="60.0205463" lon="17.7746866">
        <ele>35.2255</ele>
        <time>2013-06-03T13:36:25Z</time>
      </trkpt>
      <trkpt lat="60.0204754" lon="17.7747084">
        <ele>34.7449</ele>
        <time>2013-06-03T13:36:26Z</time>
      </trkpt>
      <trkpt lat="60.0204055" lon="17.7747255">
        <ele>34.2642</ele>
        <time>2013-06-03T13:36:27Z</time>
      </trkpt>
      <trkpt lat="60.0203328" lon="17.7747596">
        <ele>33.3029</ele>
        <time>2013-06-03T13:36:28Z</time>
      </trkpt>
      <trkpt lat="60.0202644" lon="17.7748192">
        <ele>32.3416</ele>
        <time>2013-06-03T13:36:29Z</time>
      </trkpt>
      <trkpt lat="60.0201976" lon="17.7749016">
        <ele>31.8607</ele>
        <time>2013-06-03T13:36:30Z</time>
      </trkpt>
      <trkpt lat="60.0201389" lon="17.7750101">
        <ele>31.3801</ele>
        <time>2013-06-03T13:36:31Z</time>
      </trkpt>
      <trkpt lat="60.0200967" lon="17.7751426">
        <ele>34.2642</ele>
        <time>2013-06-03T13:36:32Z</time>
      </trkpt>
      <trkpt lat="60.0200837" lon="17.7753248">
        <ele>35.2255</ele>
        <time>2013-06-03T13:36:33Z</time>
      </trkpt>
      <trkpt lat="60.0200933" lon="17.7755253">
        <ele>35.2255</ele>
        <time>2013-06-03T13:36:34Z</time>
      </trkpt>
      <trkpt lat="60.0201184" lon="17.775658">
        <ele>37.1481</ele>
        <time>2013-06-03T13:36:35Z</time>
      </trkpt>
      <trkpt lat="60.0201494" lon="17.7757905">
        <ele>38.5901</ele>
        <time>2013-06-03T13:36:36Z</time>
      </trkpt>
      <trkpt lat="60.0201741" lon="17.7759261">
        <ele>39.0707</ele>
        <time>2013-06-03T13:36:37Z</time>
      </trkpt>
      <trkpt lat="60.0201967" lon="17.7760553">
        <ele>39.0707</ele>
        <time>2013-06-03T13:36:38Z</time>
      </trkpt>
      <trkpt lat="60.0202234" lon="17.7761785">
        <ele>39.5513</ele>
        <time>2013-06-03T13:36:39Z</time>
      </trkpt>
      <trkpt lat="60.0202563" lon="17.7763111">
        <ele>41.474</ele>
        <time>2013-06-03T13:36:40Z</time>
      </trkpt>
      <trkpt lat="60.0202907" lon="17.7764462">
        <ele>43.8773</ele>
        <time>2013-06-03T13:36:41Z</time>
      </trkpt>
      <trkpt lat="60.0203213" lon="17.776578">
        <ele>45.3192</ele>
        <time>2013-06-03T13:36:42Z</time>
      </trkpt>
      <trkpt lat="60.0203508" lon="17.7767116">
        <ele>46.2806</ele>
        <time>2013-06-03T13:36:43Z</time>
      </trkpt>
      <trkpt lat="60.020378" lon="17.7768524">
        <ele>47.2418</ele>
        <time>2013-06-03T13:36:44Z</time>
      </trkpt>
      <trkpt lat="60.0204015" lon="17.7769955">
        <ele>49.1646</ele>
        <time>2013-06-03T13:36:45Z</time>
      </trkpt>
      <trkpt lat="60.0204205" lon="17.7771507">
        <ele>50.126</ele>
        <time>2013-06-03T13:36:46Z</time>
      </trkpt>
      <trkpt lat="60.0204364" lon="17.7773198">
        <ele>48.684</ele>
        <time>2013-06-03T13:36:47Z</time>
      </trkpt>
      <trkpt lat="60.020437" lon="17.7774836">
        <ele>49.6453</ele>
        <time>2013-06-03T13:36:48Z</time>
      </trkpt>
      <trkpt lat="60.0204222" lon="17.777642">
        <ele>49.6453</ele>
        <time>2013-06-03T13:36:49Z</time>
      </trkpt>
      <trkpt lat="60.0203975" lon="17.7777907">
        <ele>50.126</ele>
        <time>2013-06-03T13:36:50Z</time>
      </trkpt>
      <trkpt lat="60.020367" lon="17.7779274">
        <ele>50.6066</ele>
        <time>2013-06-03T13:36:51Z</time>
      </trkpt>
      <trkpt lat="60.0203355" lon="17.7780572">
        <ele>51.0872</ele>
        <time>2013-06-03T13:36:52Z</time>
      </trkpt>
      <trkpt lat="60.0203019" lon="17.7781774">
        <ele>51.0872</ele>
        <time>2013-06-03T13:36:53Z</time>
      </trkpt>
      <trkpt lat="60.0202712" lon="17.7783012">
        <ele>49.6453</ele>
        <time>2013-06-03T13:36:54Z</time>
      </trkpt>
      <trkpt lat="60.0202426" lon="17.7784188">
        <ele>49.6453</ele>
        <time>2013-06-03T13:36:55Z</time>
      </trkpt>
      <trkpt lat="60.0202133" lon="17.7785396">
        <ele>50.126</ele>
        <time>2013-06-03T13:36:56Z</time>
      </trkpt>
      <trkpt lat="60.0201816" lon="17.7786617">
        <ele>50.6066</ele>
        <time>2013-06-03T13:36:57Z</time>
      </trkpt>
      <trkpt lat="60.0201452" lon="17.7787821">
        <ele>50.6066</ele>
        <time>2013-06-03T13:36:58Z</time>
      </trkpt>
      <trkpt lat="60.0201069" lon="17.7788996">
        <ele>50.6066</ele>
        <time>2013-06-03T13:36:59Z</time>
      </trkpt>
      <trkpt lat="60.0200669" lon="17.7790204">
        <ele>49.1646</ele>
        <time>2013-06-03T13:37:00Z</time>
      </trkpt>
      <trkpt lat="60.0200263" lon="17.779142">
        <ele>47.7225</ele>
        <time>2013-06-03T13:37:01Z</time>
      </trkpt>
      <trkpt lat="60.0199866" lon="17.7792649">
        <ele>46.2806</ele>
        <time>2013-06-03T13:37:02Z</time>
      </trkpt>
      <trkpt lat="60.019949" lon="17.7793899">
        <ele>45.3192</ele>
        <time>2013-06-03T13:37:03Z</time>
      </trkpt>
      <trkpt lat="60.0199117" lon="17.7795161">
        <ele>44.358</ele>
        <time>2013-06-03T13:37:04Z</time>
      </trkpt>
      <trkpt lat="60.0198742" lon="17.7796415">
        <ele>43.8773</ele>
        <time>2013-06-03T13:37:05Z</time>
      </trkpt>
      <trkpt lat="60.0198356" lon="17.7797617">
        <ele>43.3966</ele>
        <time>2013-06-03T13:37:06Z</time>
      </trkpt>
      <trkpt lat="60.0197926" lon="17.7798747">
        <ele>42.916</ele>
        <time>2013-06-03T13:37:07Z</time>
      </trkpt>
      <trkpt lat="60.0197433" lon="17.779975">
        <ele>42.4354</ele>
        <time>2013-06-03T13:37:08Z</time>
      </trkpt>
      <trkpt lat="60.019687" lon="17.7800573">
        <ele>41.9547</ele>
        <time>2013-06-03T13:37:09Z</time>
      </trkpt>
      <trkpt lat="60.0196247" lon="17.7801237">
        <ele>41.9547</ele>
        <time>2013-06-03T13:37:10Z</time>
      </trkpt>
      <trkpt lat="60.0195574" lon="17.7801723">
        <ele>41.474</ele>
        <time>2013-06-03T13:37:11Z</time>
      </trkpt>
      <trkpt lat="60.019487" lon="17.7801982">
        <ele>40.9934</ele>
        <time>2013-06-03T13:37:12Z</time>
      </trkpt>
      <trkpt lat="60.0194165" lon="17.7802282">
        <ele>40.9934</ele>
        <time>2013-06-03T13:37:13Z</time>
      </trkpt>
      <trkpt lat="60.0193455" lon="17.7802641">
        <ele>40.5128</ele>
        <time>2013-06-03T13:37:14Z</time>
      </trkpt>
      <trkpt lat="60.0192735" lon="17.7803092">
        <ele>40.5128</ele>
        <time>2013-06-03T13:37:15Z</time>
      </trkpt>
      <trkpt lat="60.0192044" lon="17.7803708">
        <ele>40.5128</ele>
        <time>2013-06-03T13:37:16Z</time>
      </trkpt>
      <trkpt lat="60.0191414" lon="17.7804538">
        <ele>40.5128</ele>
        <time>2013-06-03T13:37:17Z</time>
      </trkpt>
      <trkpt lat="60.0190782" lon="17.7805639">
        <ele>40.5128</ele>
        <time>2013-06-03T13:37:18Z</time>
      </trkpt>
      <trkpt lat="60.0190074" lon="17.7806763">
        <ele>39.5513</ele>
        <time>2013-06-03T13:37:19Z</time>
      </trkpt>
      <trkpt lat="60.0189534" lon="17.7808241">
        <ele>38.5901</ele>
        <time>2013-06-03T13:37:20Z</time>
      </trkpt>
      <trkpt lat="60.0188949" lon="17.7809479">
        <ele>38.1094</ele>
        <time>2013-06-03T13:37:21Z</time>
      </trkpt>
      <trkpt lat="60.0188312" lon="17.7810578">
        <ele>37.6287</ele>
        <time>2013-06-03T13:37:22Z</time>
      </trkpt>
      <trkpt lat="60.0187632" lon="17.7811599">
        <ele>37.1481</ele>
        <time>2013-06-03T13:37:23Z</time>
      </trkpt>
      <trkpt lat="60.0186933" lon="17.7812592">
        <ele>37.1481</ele>
        <time>2013-06-03T13:37:24Z</time>
      </trkpt>
      <trkpt lat="60.0186249" lon="17.7813547">
        <ele>36.6675</ele>
        <time>2013-06-03T13:37:25Z</time>
      </trkpt>
      <trkpt lat="60.0185601" lon="17.781453">
        <ele>36.1868</ele>
        <time>2013-06-03T13:37:26Z</time>
      </trkpt>
      <trkpt lat="60.0185022" lon="17.7815603">
        <ele>36.1868</ele>
        <time>2013-06-03T13:37:27Z</time>
      </trkpt>
      <trkpt lat="60.0184508" lon="17.7816841">
        <ele>36.1868</ele>
        <time>2013-06-03T13:37:28Z</time>
      </trkpt>
      <trkpt lat="60.0184088" lon="17.7818235">
        <ele>36.6675</ele>
        <time>2013-06-03T13:37:29Z</time>
      </trkpt>
      <trkpt lat="60.0183788" lon="17.781975">
        <ele>37.6287</ele>
        <time>2013-06-03T13:37:30Z</time>
      </trkpt>
      <trkpt lat="60.0183665" lon="17.7821544">
        <ele>38.5901</ele>
        <time>2013-06-03T13:37:31Z</time>
      </trkpt>
      <trkpt lat="60.0183469" lon="17.7823263">
        <ele>39.0707</ele>
        <time>2013-06-03T13:37:32Z</time>
      </trkpt>
      <trkpt lat="60.0183233" lon="17.7824963">
        <ele>39.5513</ele>
        <time>2013-06-03T13:37:33Z</time>
      </trkpt>
      <trkpt lat="60.0183" lon="17.78266">
        <ele>40.0321</ele>
        <time>2013-06-03T13:37:34Z</time>
      </trkpt>
      <trkpt lat="60.0182821" lon="17.7828221">
        <ele>40.5128</ele>
        <time>2013-06-03T13:37:35Z</time>
      </trkpt>
      <trkpt lat="60.0182611" lon="17.7829781">
        <ele>40.5128</ele>
        <time>2013-06-03T13:37:36Z</time>
      </trkpt>
      <trkpt lat="60.0182453" lon="17.783138">
        <ele>41.474</ele>
        <time>2013-06-03T13:37:37Z</time>
      </trkpt>
      <trkpt lat="60.0182349" lon="17.7832956">
        <ele>41.9547</ele>
        <time>2013-06-03T13:37:38Z</time>
      </trkpt>
      <trkpt lat="60.0182312" lon="17.7834529">
        <ele>41.9547</ele>
        <time>2013-06-03T13:37:39Z</time>
      </trkpt>
      <trkpt lat="60.0182339" lon="17.7836089">
        <ele>42.4354</ele>
        <time>2013-06-03T13:37:40Z</time>
      </trkpt>
      <trkpt lat="60.0182422" lon="17.7837627">
        <ele>42.916</ele>
        <time>2013-06-03T13:37:41Z</time>
      </trkpt>
      <trkpt lat="60.0182516" lon="17.7839118">
        <ele>43.3966</ele>
        <time>2013-06-03T13:37:42Z</time>
      </trkpt>
      <trkpt lat="60.0182618" lon="17.7840558">
        <ele>43.8773</ele>
        <time>2013-06-03T13:37:43Z</time>
      </trkpt>
      <trkpt lat="60.0182681" lon="17.7842011">
        <ele>44.358</ele>
        <time>2013-06-03T13:37:44Z</time>
      </trkpt>
      <trkpt lat="60.0182718" lon="17.7843471">
        <ele>44.358</ele>
        <time>2013-06-03T13:37:45Z</time>
      </trkpt>
      <trkpt lat="60.0182736" lon="17.7844906">
        <ele>44.8386</ele>
        <time>2013-06-03T13:37:46Z</time>
      </trkpt>
      <trkpt lat="60.0182723" lon="17.7846324">
        <ele>45.3192</ele>
        <time>2013-06-03T13:37:47Z</time>
      </trkpt>
      <trkpt lat="60.0182664" lon="17.7847682">
        <ele>45.7999</ele>
        <time>2013-06-03T13:37:48Z</time>
      </trkpt>
      <trkpt lat="60.0182571" lon="17.7849046">
        <ele>46.7612</ele>
        <time>2013-06-03T13:37:49Z</time>
      </trkpt>
      <trkpt lat="60.0182511" lon="17.7850397">
        <ele>47.2418</ele>
        <time>2013-06-03T13:37:50Z</time>
      </trkpt>
      <trkpt lat="60.0182441" lon="17.7851712">
        <ele>47.7225</ele>
        <time>2013-06-03T13:37:51Z</time>
      </trkpt>
      <trkpt lat="60.0182359" lon="17.7853002">
        <ele>48.2034</ele>
        <time>2013-06-03T13:37:52Z</time>
      </trkpt>
      <trkpt lat="60.0182339" lon="17.7854335">
        <ele>49.6453</ele>
        <time>2013-06-03T13:37:53Z</time>
      </trkpt>
      <trkpt lat="60.0182326" lon="17.7855654">
        <ele>50.6066</ele>
        <time>2013-06-03T13:37:54Z</time>
      </trkpt>
      <trkpt lat="60.0182306" lon="17.7856892">
        <ele>51.0872</ele>
        <time>2013-06-03T13:37:55Z</time>
      </trkpt>
      <trkpt lat="60.0182329" lon="17.7858136">
        <ele>51.5679</ele>
        <time>2013-06-03T13:37:56Z</time>
      </trkpt>
      <trkpt lat="60.018238" lon="17.7859343">
        <ele>52.0486</ele>
        <time>2013-06-03T13:37:57Z</time>
      </trkpt>
      <trkpt lat="60.0182437" lon="17.7860545">
        <ele>52.5292</ele>
        <time>2013-06-03T13:37:58Z</time>
      </trkpt>
      <trkpt lat="60.0182509" lon="17.7861772">
        <ele>53.0098</ele>
        <time>2013-06-03T13:37:59Z</time>
      </trkpt>
      <trkpt lat="60.018258" lon="17.786304">
        <ele>53.0098</ele>
        <time>2013-06-03T13:38:00Z</time>
      </trkpt>
      <trkpt lat="60.0182655" lon="17.7864368">
        <ele>53.0098</ele>
        <time>2013-06-03T13:38:01Z</time>
      </trkpt>
      <trkpt lat="60.018273" lon="17.7865775">
        <ele>53.0098</ele>
        <time>2013-06-03T13:38:02Z</time>
      </trkpt>
      <trkpt lat="60.0182795" lon="17.7867238">
        <ele>53.0098</ele>
        <time>2013-06-03T13:38:03Z</time>
      </trkpt>
      <trkpt lat="60.0182849" lon="17.7868766">
        <ele>53.0098</ele>
        <time>2013-06-03T13:38:04Z</time>
      </trkpt>
      <trkpt lat="60.0182913" lon="17.7870369">
        <ele>52.5292</ele>
        <time>2013-06-03T13:38:05Z</time>
      </trkpt>
      <trkpt lat="60.0182985" lon="17.7872037">
        <ele>53.0098</ele>
        <time>2013-06-03T13:38:06Z</time>
      </trkpt>
      <trkpt lat="60.0183037" lon="17.7873747">
        <ele>53.0098</ele>
        <time>2013-06-03T13:38:07Z</time>
      </trkpt>
      <trkpt lat="60.0183059" lon="17.7875523">
        <ele>53.4905</ele>
        <time>2013-06-03T13:38:08Z</time>
      </trkpt>
      <trkpt lat="60.0183109" lon="17.7877399">
        <ele>53.4905</ele>
        <time>2013-06-03T13:38:09Z</time>
      </trkpt>
      <trkpt lat="60.0183122" lon="17.7879167">
        <ele>53.9712</ele>
        <time>2013-06-03T13:38:10Z</time>
      </trkpt>
      <trkpt lat="60.0183145" lon="17.7880919">
        <ele>53.9712</ele>
        <time>2013-06-03T13:38:11Z</time>
      </trkpt>
      <trkpt lat="60.0183169" lon="17.7882704">
        <ele>54.4518</ele>
        <time>2013-06-03T13:38:12Z</time>
      </trkpt>
      <trkpt lat="60.0183224" lon="17.7884394">
        <ele>54.4518</ele>
        <time>2013-06-03T13:38:13Z</time>
      </trkpt>
      <trkpt lat="60.0183283" lon="17.7886004">
        <ele>53.9712</ele>
        <time>2013-06-03T13:38:14Z</time>
      </trkpt>
      <trkpt lat="60.0183433" lon="17.7887527">
        <ele>53.9712</ele>
        <time>2013-06-03T13:38:15Z</time>
      </trkpt>
      <trkpt lat="60.0183648" lon="17.7888959">
        <ele>53.4905</ele>
        <time>2013-06-03T13:38:16Z</time>
      </trkpt>
      <trkpt lat="60.0183949" lon="17.7890268">
        <ele>53.4905</ele>
        <time>2013-06-03T13:38:17Z</time>
      </trkpt>
      <trkpt lat="60.0184289" lon="17.7891517">
        <ele>53.4905</ele>
        <time>2013-06-03T13:38:18Z</time>
      </trkpt>
      <trkpt lat="60.0184673" lon="17.7892682">
        <ele>53.4905</ele>
        <time>2013-06-03T13:38:19Z</time>
      </trkpt>
      <trkpt lat="60.0185074" lon="17.7893796">
        <ele>53.4905</ele>
        <time>2013-06-03T13:38:20Z</time>
      </trkpt>
      <trkpt lat="60.0185473" lon="17.7894775">
        <ele>53.4905</ele>
        <time>2013-06-03T13:38:21Z</time>
      </trkpt>
      <trkpt lat="60.0185882" lon="17.7895643">
        <ele>53.4905</ele>
        <time>2013-06-03T13:38:22Z</time>
      </trkpt>
      <trkpt lat="60.0186325" lon="17.7896526">
        <ele>53.4905</ele>
        <time>2013-06-03T13:38:23Z</time>
      </trkpt>
      <trkpt lat="60.01868" lon="17.7897361">
        <ele>53.0098</ele>
        <time>2013-06-03T13:38:24Z</time>
      </trkpt>
      <trkpt lat="60.0187271" lon="17.7898121">
        <ele>51.5679</ele>
        <time>2013-06-03T13:38:25Z</time>
      </trkpt>
      <trkpt lat="60.018776" lon="17.7898799">
        <ele>51.5679</ele>
        <time>2013-06-03T13:38:26Z</time>
      </trkpt>
      <trkpt lat="60.0188335" lon="17.7899378">
        <ele>51.5679</ele>
        <time>2013-06-03T13:38:27Z</time>
      </trkpt>
      <trkpt lat="60.018889" lon="17.7899976">
        <ele>51.0872</ele>
        <time>2013-06-03T13:38:28Z</time>
      </trkpt>
      <trkpt lat="60.0189482" lon="17.7900556">
        <ele>51.0872</ele>
        <time>2013-06-03T13:38:29Z</time>
      </trkpt>
      <trkpt lat="60.0190124" lon="17.7901144">
        <ele>50.6066</ele>
        <time>2013-06-03T13:38:30Z</time>
      </trkpt>
      <trkpt lat="60.0190791" lon="17.7901816">
        <ele>49.6453</ele>
        <time>2013-06-03T13:38:31Z</time>
      </trkpt>
      <trkpt lat="60.019147" lon="17.7902606">
        <ele>49.1646</ele>
        <time>2013-06-03T13:38:32Z</time>
      </trkpt>
      <trkpt lat="60.0192199" lon="17.7903446">
        <ele>50.126</ele>
        <time>2013-06-03T13:38:33Z</time>
      </trkpt>
      <trkpt lat="60.0192869" lon="17.7904353">
        <ele>50.126</ele>
        <time>2013-06-03T13:38:34Z</time>
      </trkpt>
      <trkpt lat="60.0193502" lon="17.7905347">
        <ele>50.6066</ele>
        <time>2013-06-03T13:38:35Z</time>
      </trkpt>
      <trkpt lat="60.0194103" lon="17.7906436">
        <ele>51.0872</ele>
        <time>2013-06-03T13:38:36Z</time>
      </trkpt>
      <trkpt lat="60.0194663" lon="17.7907611">
        <ele>51.5679</ele>
        <time>2013-06-03T13:38:37Z</time>
      </trkpt>
      <trkpt lat="60.0195166" lon="17.7908861">
        <ele>52.0486</ele>
        <time>2013-06-03T13:38:38Z</time>
      </trkpt>
      <trkpt lat="60.0195636" lon="17.7910109">
        <ele>52.5292</ele>
        <time>2013-06-03T13:38:39Z</time>
      </trkpt>
      <trkpt lat="60.019607" lon="17.7911355">
        <ele>53.4905</ele>
        <time>2013-06-03T13:38:40Z</time>
      </trkpt>
      <trkpt lat="60.019648" lon="17.7912625">
        <ele>54.9324</ele>
        <time>2013-06-03T13:38:41Z</time>
      </trkpt>
      <trkpt lat="60.0196801" lon="17.7913884">
        <ele>55.4131</ele>
        <time>2013-06-03T13:38:42Z</time>
      </trkpt>
      <trkpt lat="60.0197107" lon="17.7915112">
        <ele>56.3745</ele>
        <time>2013-06-03T13:38:43Z</time>
      </trkpt>
      <trkpt lat="60.0197377" lon="17.7916298">
        <ele>56.8551</ele>
        <time>2013-06-03T13:38:44Z</time>
      </trkpt>
      <trkpt lat="60.0197635" lon="17.7917479">
        <ele>57.3358</ele>
        <time>2013-06-03T13:38:45Z</time>
      </trkpt>
      <trkpt lat="60.0197913" lon="17.7918633">
        <ele>57.3358</ele>
        <time>2013-06-03T13:38:46Z</time>
      </trkpt>
      <trkpt lat="60.0198219" lon="17.791977">
        <ele>57.8165</ele>
        <time>2013-06-03T13:38:47Z</time>
      </trkpt>
      <trkpt lat="60.0198558" lon="17.7920884">
        <ele>58.2971</ele>
        <time>2013-06-03T13:38:48Z</time>
      </trkpt>
      <trkpt lat="60.0198923" lon="17.792197">
        <ele>58.2971</ele>
        <time>2013-06-03T13:38:49Z</time>
      </trkpt>
      <trkpt lat="60.0199298" lon="17.7923036">
        <ele>58.2971</ele>
        <time>2013-06-03T13:38:50Z</time>
      </trkpt>
      <trkpt lat="60.0199707" lon="17.7924079">
        <ele>58.7777</ele>
        <time>2013-06-03T13:38:51Z</time>
      </trkpt>
      <trkpt lat="60.0200163" lon="17.792509">
        <ele>59.2584</ele>
        <time>2013-06-03T13:38:52Z</time>
      </trkpt>
      <trkpt lat="60.020065" lon="17.792609">
        <ele>59.2584</ele>
        <time>2013-06-03T13:38:53Z</time>
      </trkpt>
      <trkpt lat="60.0201194" lon="17.7927103">
        <ele>59.2584</ele>
        <time>2013-06-03T13:38:54Z</time>
      </trkpt>
      <trkpt lat="60.0201759" lon="17.7928161">
        <ele>59.2584</ele>
        <time>2013-06-03T13:38:55Z</time>
      </trkpt>
      <trkpt lat="60.0202318" lon="17.7929274">
        <ele>59.2584</ele>
        <time>2013-06-03T13:38:56Z</time>
      </trkpt>
      <trkpt lat="60.0202842" lon="17.7930439">
        <ele>58.7777</ele>
        <time>2013-06-03T13:38:57Z</time>
      </trkpt>
      <trkpt lat="60.020337" lon="17.7931658">
        <ele>58.2971</ele>
        <time>2013-06-03T13:38:58Z</time>
      </trkpt>
      <trkpt lat="60.0203901" lon="17.7932898">
        <ele>57.8165</ele>
        <time>2013-06-03T13:38:59Z</time>
      </trkpt>
      <trkpt lat="60.0204426" lon="17.7934143">
        <ele>57.3358</ele>
        <time>2013-06-03T13:39:00Z</time>
      </trkpt>
      <trkpt lat="60.020495" lon="17.7935442">
        <ele>57.3358</ele>
        <time>2013-06-03T13:39:01Z</time>
      </trkpt>
      <trkpt lat="60.0205474" lon="17.7936799">
        <ele>56.8551</ele>
        <time>2013-06-03T13:39:02Z</time>
      </trkpt>
      <trkpt lat="60.0206026" lon="17.7938125">
        <ele>56.8551</ele>
        <time>2013-06-03T13:39:03Z</time>
      </trkpt>
      <trkpt lat="60.0206577" lon="17.7939408">
        <ele>57.3358</ele>
        <time>2013-06-03T13:39:04Z</time>
      </trkpt>
      <trkpt lat="60.0207157" lon="17.7940649">
        <ele>56.8551</ele>
        <time>2013-06-03T13:39:05Z</time>
      </trkpt>
      <trkpt lat="60.0207776" lon="17.7941798">
        <ele>56.8551</ele>
        <time>2013-06-03T13:39:06Z</time>
      </trkpt>
      <trkpt lat="60.0208426" lon="17.7942846">
        <ele>56.8551</ele>
        <time>2013-06-03T13:39:07Z</time>
      </trkpt>
      <trkpt lat="60.0209103" lon="17.7943846">
        <ele>55.8938</ele>
        <time>2013-06-03T13:39:08Z</time>
      </trkpt>
      <trkpt lat="60.0209783" lon="17.794481">
        <ele>55.4131</ele>
        <time>2013-06-03T13:39:09Z</time>
      </trkpt>
      <trkpt lat="60.0210592" lon="17.7945745">
        <ele>54.9324</ele>
        <time>2013-06-03T13:39:10Z</time>
      </trkpt>
      <trkpt lat="60.02113" lon="17.7946762">
        <ele>54.4518</ele>
        <time>2013-06-03T13:39:11Z</time>
      </trkpt>
      <trkpt lat="60.021202" lon="17.7947753">
        <ele>54.4518</ele>
        <time>2013-06-03T13:39:12Z</time>
      </trkpt>
      <trkpt lat="60.0212689" lon="17.7948783">
        <ele>54.4518</ele>
        <time>2013-06-03T13:39:13Z</time>
      </trkpt>
      <trkpt lat="60.0213217" lon="17.7949869">
        <ele>54.4518</ele>
        <time>2013-06-03T13:39:14Z</time>
      </trkpt>
      <trkpt lat="60.0213688" lon="17.7951036">
        <ele>53.9712</ele>
        <time>2013-06-03T13:39:15Z</time>
      </trkpt>
      <trkpt lat="60.0214112" lon="17.7952329">
        <ele>53.4905</ele>
        <time>2013-06-03T13:39:16Z</time>
      </trkpt>
      <trkpt lat="60.021447" lon="17.7953771">
        <ele>52.5292</ele>
        <time>2013-06-03T13:39:17Z</time>
      </trkpt>
      <trkpt lat="60.0214778" lon="17.7955347">
        <ele>52.0486</ele>
        <time>2013-06-03T13:39:18Z</time>
      </trkpt>
      <trkpt lat="60.0215057" lon="17.7957006">
        <ele>51.5679</ele>
        <time>2013-06-03T13:39:19Z</time>
      </trkpt>
      <trkpt lat="60.021532" lon="17.7958687">
        <ele>51.5679</ele>
        <time>2013-06-03T13:39:20Z</time>
      </trkpt>
      <trkpt lat="60.0215614" lon="17.7960353">
        <ele>51.5679</ele>
        <time>2013-06-03T13:39:21Z</time>
      </trkpt>
      <trkpt lat="60.0215955" lon="17.7961997">
        <ele>51.5679</ele>
        <time>2013-06-03T13:39:22Z</time>
      </trkpt>
      <trkpt lat="60.0216329" lon="17.7963606">
        <ele>51.5679</ele>
        <time>2013-06-03T13:39:23Z</time>
      </trkpt>
      <trkpt lat="60.0216728" lon="17.7965182">
        <ele>51.5679</ele>
        <time>2013-06-03T13:39:24Z</time>
      </trkpt>
      <trkpt lat="60.0217097" lon="17.7966706">
        <ele>51.5679</ele>
        <time>2013-06-03T13:39:25Z</time>
      </trkpt>
      <trkpt lat="60.0217388" lon="17.7968177">
        <ele>52.0486</ele>
        <time>2013-06-03T13:39:26Z</time>
      </trkpt>
      <trkpt lat="60.0217558" lon="17.7969584">
        <ele>52.0486</ele>
        <time>2013-06-03T13:39:27Z</time>
      </trkpt>
      <trkpt lat="60.0217589" lon="17.7970913">
        <ele>52.0486</ele>
        <time>2013-06-03T13:39:28Z</time>
      </trkpt>
      <trkpt lat="60.0217475" lon="17.7972159">
        <ele>52.0486</ele>
        <time>2013-06-03T13:39:29Z</time>
      </trkpt>
      <trkpt lat="60.021723" lon="17.797332">
        <ele>51.5679</ele>
        <time>2013-06-03T13:39:30Z</time>
      </trkpt>
      <trkpt lat="60.0216875" lon="17.797447">
        <ele>51.0872</ele>
        <time>2013-06-03T13:39:31Z</time>
      </trkpt>
      <trkpt lat="60.0216444" lon="17.7975651">
        <ele>50.6066</ele>
        <time>2013-06-03T13:39:32Z</time>
      </trkpt>
      <trkpt lat="60.0215978" lon="17.7976992">
        <ele>49.1646</ele>
        <time>2013-06-03T13:39:33Z</time>
      </trkpt>
      <trkpt lat="60.021547" lon="17.797847">
        <ele>48.2034</ele>
        <time>2013-06-03T13:39:34Z</time>
      </trkpt>
      <trkpt lat="60.0214895" lon="17.7979993">
        <ele>47.2418</ele>
        <time>2013-06-03T13:39:35Z</time>
      </trkpt>
      <trkpt lat="60.0214254" lon="17.7981403">
        <ele>46.2806</ele>
        <time>2013-06-03T13:39:36Z</time>
      </trkpt>
      <trkpt lat="60.0213503" lon="17.7982629">
        <ele>45.7999</ele>
        <time>2013-06-03T13:39:37Z</time>
      </trkpt>
      <trkpt lat="60.0212679" lon="17.7983686">
        <ele>45.3192</ele>
        <time>2013-06-03T13:39:38Z</time>
      </trkpt>
      <trkpt lat="60.0211837" lon="17.7984592">
        <ele>45.3192</ele>
        <time>2013-06-03T13:39:39Z</time>
      </trkpt>
      <trkpt lat="60.0210973" lon="17.7985338">
        <ele>44.8386</ele>
        <time>2013-06-03T13:39:40Z</time>
      </trkpt>
      <trkpt lat="60.021012" lon="17.7986036">
        <ele>44.358</ele>
        <time>2013-06-03T13:39:41Z</time>
      </trkpt>
      <trkpt lat="60.0209311" lon="17.7986821">
        <ele>43.8773</ele>
        <time>2013-06-03T13:39:42Z</time>
      </trkpt>
      <trkpt lat="60.020855" lon="17.7987742">
        <ele>43.3966</ele>
        <time>2013-06-03T13:39:43Z</time>
      </trkpt>
      <trkpt lat="60.0207815" lon="17.7988747">
        <ele>42.4354</ele>
        <time>2013-06-03T13:39:44Z</time>
      </trkpt>
      <trkpt lat="60.0207131" lon="17.7989814">
        <ele>41.9547</ele>
        <time>2013-06-03T13:39:45Z</time>
      </trkpt>
      <trkpt lat="60.0206582" lon="17.7991031">
        <ele>41.474</ele>
        <time>2013-06-03T13:39:46Z</time>
      </trkpt>
      <trkpt lat="60.0206207" lon="17.7992392">
        <ele>40.9934</ele>
        <time>2013-06-03T13:39:47Z</time>
      </trkpt>
      <trkpt lat="60.0206088" lon="17.7994347">
        <ele>41.9547</ele>
        <time>2013-06-03T13:39:48Z</time>
      </trkpt>
      <trkpt lat="60.0206007" lon="17.7995776">
        <ele>41.9547</ele>
        <time>2013-06-03T13:39:49Z</time>
      </trkpt>
      <trkpt lat="60.0206073" lon="17.7997101">
        <ele>42.4354</ele>
        <time>2013-06-03T13:39:50Z</time>
      </trkpt>
      <trkpt lat="60.0206233" lon="17.7998408">
        <ele>42.4354</ele>
        <time>2013-06-03T13:39:51Z</time>
      </trkpt>
      <trkpt lat="60.0206421" lon="17.7999739">
        <ele>42.4354</ele>
        <time>2013-06-03T13:39:52Z</time>
      </trkpt>
      <trkpt lat="60.0206607" lon="17.8001121">
        <ele>42.4354</ele>
        <time>2013-06-03T13:39:53Z</time>
      </trkpt>
      <trkpt lat="60.0206807" lon="17.800252">
        <ele>42.916</ele>
        <time>2013-06-03T13:39:54Z</time>
      </trkpt>
      <trkpt lat="60.0207011" lon="17.800394">
        <ele>42.916</ele>
        <time>2013-06-03T13:39:55Z</time>
      </trkpt>
      <trkpt lat="60.020724" lon="17.8005463">
        <ele>43.3966</ele>
        <time>2013-06-03T13:39:56Z</time>
      </trkpt>
      <trkpt lat="60.020744" lon="17.8007355">
        <ele>43.3966</ele>
        <time>2013-06-03T13:39:57Z</time>
      </trkpt>
      <trkpt lat="60.0207674" lon="17.8009016">
        <ele>43.3966</ele>
        <time>2013-06-03T13:39:58Z</time>
      </trkpt>
      <trkpt lat="60.0207887" lon="17.8010576">
        <ele>43.8773</ele>
        <time>2013-06-03T13:39:59Z</time>
      </trkpt>
      <trkpt lat="60.0208047" lon="17.8012165">
        <ele>43.8773</ele>
        <time>2013-06-03T13:40:00Z</time>
      </trkpt>
      <trkpt lat="60.0208118" lon="17.8013731">
        <ele>44.8386</ele>
        <time>2013-06-03T13:40:01Z</time>
      </trkpt>
      <trkpt lat="60.0208089" lon="17.8015258">
        <ele>45.3192</ele>
        <time>2013-06-03T13:40:02Z</time>
      </trkpt>
      <trkpt lat="60.0207919" lon="17.8016598">
        <ele>45.3192</ele>
        <time>2013-06-03T13:40:03Z</time>
      </trkpt>
      <trkpt lat="60.0207755" lon="17.8017781">
        <ele>45.7999</ele>
        <time>2013-06-03T13:40:04Z</time>
      </trkpt>
      <trkpt lat="60.0207587" lon="17.8018907">
        <ele>45.3192</ele>
        <time>2013-06-03T13:40:05Z</time>
      </trkpt>
      <trkpt lat="60.0207435" lon="17.802003">
        <ele>45.3192</ele>
        <time>2013-06-03T13:40:06Z</time>
      </trkpt>
      <trkpt lat="60.0207281" lon="17.8021117">
        <ele>45.7999</ele>
        <time>2013-06-03T13:40:07Z</time>
      </trkpt>
      <trkpt lat="60.0207136" lon="17.8022212">
        <ele>46.2806</ele>
        <time>2013-06-03T13:40:08Z</time>
      </trkpt>
      <trkpt lat="60.020698" lon="17.8023344">
        <ele>46.2806</ele>
        <time>2013-06-03T13:40:09Z</time>
      </trkpt>
      <trkpt lat="60.020679" lon="17.8024535">
        <ele>46.7612</ele>
        <time>2013-06-03T13:40:10Z</time>
      </trkpt>
      <trkpt lat="60.0206582" lon="17.8025681">
        <ele>46.7612</ele>
        <time>2013-06-03T13:40:11Z</time>
      </trkpt>
      <trkpt lat="60.0206341" lon="17.8026886">
        <ele>47.2418</ele>
        <time>2013-06-03T13:40:12Z</time>
      </trkpt>
      <trkpt lat="60.0206089" lon="17.8028148">
        <ele>47.2418</ele>
        <time>2013-06-03T13:40:13Z</time>
      </trkpt>
      <trkpt lat="60.0205784" lon="17.8029404">
        <ele>47.2418</ele>
        <time>2013-06-03T13:40:14Z</time>
      </trkpt>
      <trkpt lat="60.020544" lon="17.8030657">
        <ele>47.7225</ele>
        <time>2013-06-03T13:40:15Z</time>
      </trkpt>
      <trkpt lat="60.0205086" lon="17.8031937">
        <ele>47.2418</ele>
        <time>2013-06-03T13:40:16Z</time>
      </trkpt>
      <trkpt lat="60.0204757" lon="17.803328">
        <ele>47.2418</ele>
        <time>2013-06-03T13:40:17Z</time>
      </trkpt>
      <trkpt lat="60.0204458" lon="17.8034689">
        <ele>47.2418</ele>
        <time>2013-06-03T13:40:18Z</time>
      </trkpt>
      <trkpt lat="60.0204215" lon="17.803616">
        <ele>47.2418</ele>
        <time>2013-06-03T13:40:19Z</time>
      </trkpt>
      <trkpt lat="60.0204002" lon="17.8037694">
        <ele>47.2418</ele>
        <time>2013-06-03T13:40:20Z</time>
      </trkpt>
      <trkpt lat="60.0203805" lon="17.8039288">
        <ele>47.2418</ele>
        <time>2013-06-03T13:40:21Z</time>
      </trkpt>
      <trkpt lat="60.0203604" lon="17.8040999">
        <ele>48.2034</ele>
        <time>2013-06-03T13:40:22Z</time>
      </trkpt>
      <trkpt lat="60.0203409" lon="17.804273">
        <ele>48.2034</ele>
        <time>2013-06-03T13:40:23Z</time>
      </trkpt>
      <trkpt lat="60.0203238" lon="17.8044407">
        <ele>48.684</ele>
        <time>2013-06-03T13:40:24Z</time>
      </trkpt>
      <trkpt lat="60.0203054" lon="17.8045983">
        <ele>49.1646</ele>
        <time>2013-06-03T13:40:25Z</time>
      </trkpt>
      <trkpt lat="60.0202837" lon="17.8047458">
        <ele>49.1646</ele>
        <time>2013-06-03T13:40:26Z</time>
      </trkpt>
      <trkpt lat="60.0202638" lon="17.8048846">
        <ele>49.1646</ele>
        <time>2013-06-03T13:40:27Z</time>
      </trkpt>
      <trkpt lat="60.0202448" lon="17.805025">
        <ele>50.126</ele>
        <time>2013-06-03T13:40:28Z</time>
      </trkpt>
      <trkpt lat="60.0202262" lon="17.8051685">
        <ele>50.126</ele>
        <time>2013-06-03T13:40:29Z</time>
      </trkpt>
      <trkpt lat="60.0202121" lon="17.805312">
        <ele>50.126</ele>
        <time>2013-06-03T13:40:30Z</time>
      </trkpt>
      <trkpt lat="60.0201997" lon="17.8054607">
        <ele>50.126</ele>
        <time>2013-06-03T13:40:31Z</time>
      </trkpt>
      <trkpt lat="60.0201889" lon="17.8056124">
        <ele>50.126</ele>
        <time>2013-06-03T13:40:32Z</time>
      </trkpt>
      <trkpt lat="60.0201777" lon="17.8057694">
        <ele>50.126</ele>
        <time>2013-06-03T13:40:33Z</time>
      </trkpt>
      <trkpt lat="60.0201665" lon="17.8059309">
        <ele>50.6066</ele>
        <time>2013-06-03T13:40:34Z</time>
      </trkpt>
      <trkpt lat="60.0201539" lon="17.806094">
        <ele>50.6066</ele>
        <time>2013-06-03T13:40:35Z</time>
      </trkpt>
      <trkpt lat="60.0201392" lon="17.8062517">
        <ele>50.6066</ele>
        <time>2013-06-03T13:40:36Z</time>
      </trkpt>
      <trkpt lat="60.0201223" lon="17.8064055">
        <ele>51.0872</ele>
        <time>2013-06-03T13:40:37Z</time>
      </trkpt>
      <trkpt lat="60.020104" lon="17.8065567">
        <ele>51.0872</ele>
        <time>2013-06-03T13:40:38Z</time>
      </trkpt>
      <trkpt lat="60.0200851" lon="17.8067053">
        <ele>51.5679</ele>
        <time>2013-06-03T13:40:39Z</time>
      </trkpt>
      <trkpt lat="60.0200622" lon="17.8068541">
        <ele>51.5679</ele>
        <time>2013-06-03T13:40:40Z</time>
      </trkpt>
      <trkpt lat="60.0200335" lon="17.8070015">
        <ele>51.5679</ele>
        <time>2013-06-03T13:40:41Z</time>
      </trkpt>
      <trkpt lat="60.0199988" lon="17.8071441">
        <ele>51.5679</ele>
        <time>2013-06-03T13:40:42Z</time>
      </trkpt>
      <trkpt lat="60.0199577" lon="17.8072834">
        <ele>51.0872</ele>
        <time>2013-06-03T13:40:43Z</time>
      </trkpt>
      <trkpt lat="60.0199133" lon="17.8074182">
        <ele>51.0872</ele>
        <time>2013-06-03T13:40:44Z</time>
      </trkpt>
      <trkpt lat="60.0198695" lon="17.8075522">
        <ele>50.6066</ele>
        <time>2013-06-03T13:40:45Z</time>
      </trkpt>
      <trkpt lat="60.0198303" lon="17.8076892">
        <ele>50.6066</ele>
        <time>2013-06-03T13:40:46Z</time>
      </trkpt>
      <trkpt lat="60.0197929" lon="17.8078296">
        <ele>50.6066</ele>
        <time>2013-06-03T13:40:47Z</time>
      </trkpt>
      <trkpt lat="60.0197576" lon="17.8079683">
        <ele>50.6066</ele>
        <time>2013-06-03T13:40:48Z</time>
      </trkpt>
      <trkpt lat="60.0197193" lon="17.8081086">
        <ele>50.126</ele>
        <time>2013-06-03T13:40:49Z</time>
      </trkpt>
      <trkpt lat="60.0196839" lon="17.8082553">
        <ele>50.6066</ele>
        <time>2013-06-03T13:40:50Z</time>
      </trkpt>
      <trkpt lat="60.0196501" lon="17.8084153">
        <ele>49.6453</ele>
        <time>2013-06-03T13:40:51Z</time>
      </trkpt>
      <trkpt lat="60.0196197" lon="17.8085893">
        <ele>47.7225</ele>
        <time>2013-06-03T13:40:52Z</time>
      </trkpt>
      <trkpt lat="60.0195971" lon="17.8087681">
        <ele>46.7612</ele>
        <time>2013-06-03T13:40:53Z</time>
      </trkpt>
      <trkpt lat="60.0195846" lon="17.8089505">
        <ele>46.7612</ele>
        <time>2013-06-03T13:40:54Z</time>
      </trkpt>
      <trkpt lat="60.0195796" lon="17.8091353">
        <ele>46.7612</ele>
        <time>2013-06-03T13:40:55Z</time>
      </trkpt>
      <trkpt lat="60.0195833" lon="17.8093282">
        <ele>46.7612</ele>
        <time>2013-06-03T13:40:56Z</time>
      </trkpt>
      <trkpt lat="60.019592" lon="17.8095162">
        <ele>47.2418</ele>
        <time>2013-06-03T13:40:57Z</time>
      </trkpt>
      <trkpt lat="60.0196069" lon="17.8097001">
        <ele>47.2418</ele>
        <time>2013-06-03T13:40:58Z</time>
      </trkpt>
      <trkpt lat="60.0196263" lon="17.8098828">
        <ele>47.2418</ele>
        <time>2013-06-03T13:40:59Z</time>
      </trkpt>
      <trkpt lat="60.0196464" lon="17.8100654">
        <ele>46.7612</ele>
        <time>2013-06-03T13:41:00Z</time>
      </trkpt>
      <trkpt lat="60.0196662" lon="17.810247">
        <ele>46.2806</ele>
        <time>2013-06-03T13:41:01Z</time>
      </trkpt>
      <trkpt lat="60.0196862" lon="17.8104328">
        <ele>46.7612</ele>
        <time>2013-06-03T13:41:02Z</time>
      </trkpt>
      <trkpt lat="60.0197055" lon="17.8106158">
        <ele>46.7612</ele>
        <time>2013-06-03T13:41:03Z</time>
      </trkpt>
      <trkpt lat="60.0197252" lon="17.8108012">
        <ele>46.7612</ele>
        <time>2013-06-03T13:41:04Z</time>
      </trkpt>
      <trkpt lat="60.0197516" lon="17.8109848">
        <ele>46.7612</ele>
        <time>2013-06-03T13:41:05Z</time>
      </trkpt>
      <trkpt lat="60.0197894" lon="17.8111577">
        <ele>47.2418</ele>
        <time>2013-06-03T13:41:06Z</time>
      </trkpt>
      <trkpt lat="60.0198383" lon="17.8113161">
        <ele>47.7225</ele>
        <time>2013-06-03T13:41:07Z</time>
      </trkpt>
      <trkpt lat="60.0198932" lon="17.8114613">
        <ele>47.7225</ele>
        <time>2013-06-03T13:41:08Z</time>
      </trkpt>
      <trkpt lat="60.0199516" lon="17.8115958">
        <ele>47.7225</ele>
        <time>2013-06-03T13:41:09Z</time>
      </trkpt>
      <trkpt lat="60.0200133" lon="17.8117171">
        <ele>47.2418</ele>
        <time>2013-06-03T13:41:10Z</time>
      </trkpt>
      <trkpt lat="60.0200806" lon="17.8118249">
        <ele>47.2418</ele>
        <time>2013-06-03T13:41:11Z</time>
      </trkpt>
      <trkpt lat="60.02015" lon="17.8119281">
        <ele>47.7225</ele>
        <time>2013-06-03T13:41:12Z</time>
      </trkpt>
      <trkpt lat="60.0202158" lon="17.8120374">
        <ele>47.7225</ele>
        <time>2013-06-03T13:41:13Z</time>
      </trkpt>
      <trkpt lat="60.0202749" lon="17.812157">
        <ele>48.2034</ele>
        <time>2013-06-03T13:41:14Z</time>
      </trkpt>
      <trkpt lat="60.0203287" lon="17.8122822">
        <ele>48.2034</ele>
        <time>2013-06-03T13:41:15Z</time>
      </trkpt>
      <trkpt lat="60.0203799" lon="17.8124117">
        <ele>47.7225</ele>
        <time>2013-06-03T13:41:16Z</time>
      </trkpt>
      <trkpt lat="60.0204313" lon="17.8125433">
        <ele>47.7225</ele>
        <time>2013-06-03T13:41:17Z</time>
      </trkpt>
      <trkpt lat="60.0204851" lon="17.8126715">
        <ele>47.7225</ele>
        <time>2013-06-03T13:41:18Z</time>
      </trkpt>
      <trkpt lat="60.0205416" lon="17.8127943">
        <ele>48.2034</ele>
        <time>2013-06-03T13:41:19Z</time>
      </trkpt>
      <trkpt lat="60.0205995" lon="17.8129132">
        <ele>48.684</ele>
        <time>2013-06-03T13:41:20Z</time>
      </trkpt>
      <trkpt lat="60.0206549" lon="17.8130346">
        <ele>49.1646</ele>
        <time>2013-06-03T13:41:21Z</time>
      </trkpt>
      <trkpt lat="60.0207043" lon="17.8131654">
        <ele>49.1646</ele>
        <time>2013-06-03T13:41:22Z</time>
      </trkpt>
      <trkpt lat="60.0207504" lon="17.8133018">
        <ele>49.6453</ele>
        <time>2013-06-03T13:41:23Z</time>
      </trkpt>
      <trkpt lat="60.0207931" lon="17.8134391">
        <ele>50.126</ele>
        <time>2013-06-03T13:41:24Z</time>
      </trkpt>
      <trkpt lat="60.0208279" lon="17.8135788">
        <ele>50.126</ele>
        <time>2013-06-03T13:41:25Z</time>
      </trkpt>
      <trkpt lat="60.0208576" lon="17.8137172">
        <ele>51.0872</ele>
        <time>2013-06-03T13:41:26Z</time>
      </trkpt>
      <trkpt lat="60.0208792" lon="17.8138474">
        <ele>52.0486</ele>
        <time>2013-06-03T13:41:27Z</time>
      </trkpt>
      <trkpt lat="60.0208908" lon="17.8139753">
        <ele>52.5292</ele>
        <time>2013-06-03T13:41:28Z</time>
      </trkpt>
      <trkpt lat="60.0208979" lon="17.8141115">
        <ele>53.0098</ele>
        <time>2013-06-03T13:41:29Z</time>
      </trkpt>
      <trkpt lat="60.0209042" lon="17.8142604">
        <ele>53.4905</ele>
        <time>2013-06-03T13:41:30Z</time>
      </trkpt>
      <trkpt lat="60.0209151" lon="17.8144101">
        <ele>54.4518</ele>
        <time>2013-06-03T13:41:31Z</time>
      </trkpt>
      <trkpt lat="60.0209278" lon="17.8145595">
        <ele>54.9324</ele>
        <time>2013-06-03T13:41:32Z</time>
      </trkpt>
      <trkpt lat="60.020942" lon="17.8147124">
        <ele>55.4131</ele>
        <time>2013-06-03T13:41:33Z</time>
      </trkpt>
      <trkpt lat="60.0209579" lon="17.8148634">
        <ele>55.8938</ele>
        <time>2013-06-03T13:41:34Z</time>
      </trkpt>
      <trkpt lat="60.0209711" lon="17.8150164">
        <ele>55.8938</ele>
        <time>2013-06-03T13:41:35Z</time>
      </trkpt>
      <trkpt lat="60.0209778" lon="17.8151893">
        <ele>55.8938</ele>
        <time>2013-06-03T13:41:36Z</time>
      </trkpt>
      <trkpt lat="60.0209755" lon="17.8153824">
        <ele>55.4131</ele>
        <time>2013-06-03T13:41:37Z</time>
      </trkpt>
      <trkpt lat="60.0209639" lon="17.8155832">
        <ele>55.8938</ele>
        <time>2013-06-03T13:41:38Z</time>
      </trkpt>
      <trkpt lat="60.0209507" lon="17.8157782">
        <ele>55.8938</ele>
        <time>2013-06-03T13:41:39Z</time>
      </trkpt>
      <trkpt lat="60.020938" lon="17.8160121">
        <ele>51.0872</ele>
        <time>2013-06-03T13:41:40Z</time>
      </trkpt>
      <trkpt lat="60.0209258" lon="17.8162342">
        <ele>48.2034</ele>
        <time>2013-06-03T13:41:41Z</time>
      </trkpt>
      <trkpt lat="60.0209156" lon="17.8164398">
        <ele>49.6453</ele>
        <time>2013-06-03T13:41:42Z</time>
      </trkpt>
      <trkpt lat="60.020915" lon="17.8166407">
        <ele>50.126</ele>
        <time>2013-06-03T13:41:43Z</time>
      </trkpt>
      <trkpt lat="60.0209235" lon="17.8168311">
        <ele>51.5679</ele>
        <time>2013-06-03T13:41:44Z</time>
      </trkpt>
      <trkpt lat="60.0209394" lon="17.8170054">
        <ele>52.5292</ele>
        <time>2013-06-03T13:41:45Z</time>
      </trkpt>
      <trkpt lat="60.020957" lon="17.8171747">
        <ele>53.4905</ele>
        <time>2013-06-03T13:41:46Z</time>
      </trkpt>
      <trkpt lat="60.0209777" lon="17.8173661">
        <ele>50.126</ele>
        <time>2013-06-03T13:41:47Z</time>
      </trkpt>
      <trkpt lat="60.0209988" lon="17.8175498">
        <ele>46.7612</ele>
        <time>2013-06-03T13:41:48Z</time>
      </trkpt>
      <trkpt lat="60.0210223" lon="17.8177309">
        <ele>44.358</ele>
        <time>2013-06-03T13:41:49Z</time>
      </trkpt>
      <trkpt lat="60.0210449" lon="17.8179112">
        <ele>41.9547</ele>
        <time>2013-06-03T13:41:50Z</time>
      </trkpt>
      <trkpt lat="60.0210592" lon="17.8180826">
        <ele>41.474</ele>
        <time>2013-06-03T13:41:51Z</time>
      </trkpt>
      <trkpt lat="60.0210607" lon="17.8182601">
        <ele>41.9547</ele>
        <time>2013-06-03T13:41:52Z</time>
      </trkpt>
      <trkpt lat="60.0210507" lon="17.8184379">
        <ele>42.4354</ele>
        <time>2013-06-03T13:41:53Z</time>
      </trkpt>
      <trkpt lat="60.0210297" lon="17.8186171">
        <ele>42.4354</ele>
        <time>2013-06-03T13:41:54Z</time>
      </trkpt>
      <trkpt lat="60.0209996" lon="17.8188075">
        <ele>40.0321</ele>
        <time>2013-06-03T13:41:55Z</time>
      </trkpt>
      <trkpt lat="60.0209643" lon="17.8189942">
        <ele>37.6287</ele>
        <time>2013-06-03T13:41:56Z</time>
      </trkpt>
      <trkpt lat="60.0209281" lon="17.8191883">
        <ele>36.1868</ele>
        <time>2013-06-03T13:41:57Z</time>
      </trkpt>
      <trkpt lat="60.0208953" lon="17.8193896">
        <ele>36.1868</ele>
        <time>2013-06-03T13:41:58Z</time>
      </trkpt>
      <trkpt lat="60.0208626" lon="17.8196058">
        <ele>34.7449</ele>
        <time>2013-06-03T13:41:59Z</time>
      </trkpt>
      <trkpt lat="60.0208346" lon="17.8197979">
        <ele>33.7834</ele>
        <time>2013-06-03T13:42:00Z</time>
      </trkpt>
      <trkpt lat="60.0207926" lon="17.8199884">
        <ele>33.3029</ele>
        <time>2013-06-03T13:42:01Z</time>
      </trkpt>
      <trkpt lat="60.0207556" lon="17.820185">
        <ele>33.7834</ele>
        <time>2013-06-03T13:42:02Z</time>
      </trkpt>
      <trkpt lat="60.0207357" lon="17.8203856">
        <ele>33.7834</ele>
        <time>2013-06-03T13:42:03Z</time>
      </trkpt>
      <trkpt lat="60.0207255" lon="17.8205924">
        <ele>33.7834</ele>
        <time>2013-06-03T13:42:04Z</time>
      </trkpt>
      <trkpt lat="60.0207229" lon="17.8208048">
        <ele>32.3416</ele>
        <time>2013-06-03T13:42:05Z</time>
      </trkpt>
      <trkpt lat="60.0207234" lon="17.8210179">
        <ele>31.3801</ele>
        <time>2013-06-03T13:42:06Z</time>
      </trkpt>
      <trkpt lat="60.0207331" lon="17.8212385">
        <ele>30.8995</ele>
        <time>2013-06-03T13:42:07Z</time>
      </trkpt>
      <trkpt lat="60.020725" lon="17.821388">
        <ele>30.4188</ele>
        <time>2013-06-03T13:42:08Z</time>
      </trkpt>
      <trkpt lat="60.0206861" lon="17.8215913">
        <ele>30.8995</ele>
        <time>2013-06-03T13:42:09Z</time>
      </trkpt>
      <trkpt lat="60.0206637" lon="17.821794">
        <ele>32.3416</ele>
        <time>2013-06-03T13:42:10Z</time>
      </trkpt>
      <trkpt lat="60.0206437" lon="17.8219883">
        <ele>30.8995</ele>
        <time>2013-06-03T13:42:11Z</time>
      </trkpt>
      <trkpt lat="60.0206289" lon="17.822195">
        <ele>31.8607</ele>
        <time>2013-06-03T13:42:12Z</time>
      </trkpt>
      <trkpt lat="60.0206271" lon="17.822389">
        <ele>31.8607</ele>
        <time>2013-06-03T13:42:13Z</time>
      </trkpt>
      <trkpt lat="60.020632" lon="17.822595">
        <ele>31.8607</ele>
        <time>2013-06-03T13:42:14Z</time>
      </trkpt>
      <trkpt lat="60.0206508" lon="17.8227844">
        <ele>31.3801</ele>
        <time>2013-06-03T13:42:15Z</time>
      </trkpt>
      <trkpt lat="60.0206655" lon="17.8229802">
        <ele>31.8607</ele>
        <time>2013-06-03T13:42:16Z</time>
      </trkpt>
      <trkpt lat="60.0206846" lon="17.8231573">
        <ele>31.3801</ele>
        <time>2013-06-03T13:42:17Z</time>
      </trkpt>
      <trkpt lat="60.0206973" lon="17.82333">
        <ele>31.3801</ele>
        <time>2013-06-03T13:42:18Z</time>
      </trkpt>
      <trkpt lat="60.020703" lon="17.8234911">
        <ele>31.3801</ele>
        <time>2013-06-03T13:42:19Z</time>
      </trkpt>
      <trkpt lat="60.0207183" lon="17.8236573">
        <ele>31.8607</ele>
        <time>2013-06-03T13:42:20Z</time>
      </trkpt>
      <trkpt lat="60.0207341" lon="17.8238299">
        <ele>32.8223</ele>
        <time>2013-06-03T13:42:21Z</time>
      </trkpt>
      <trkpt lat="60.020743" lon="17.824007">
        <ele>32.3416</ele>
        <time>2013-06-03T13:42:22Z</time>
      </trkpt>
      <trkpt lat="60.0207496" lon="17.8241905">
        <ele>33.3029</ele>
        <time>2013-06-03T13:42:23Z</time>
      </trkpt>
      <trkpt lat="60.0207415" lon="17.8243762">
        <ele>32.8223</ele>
        <time>2013-06-03T13:42:24Z</time>
      </trkpt>
      <trkpt lat="60.0207208" lon="17.8245667">
        <ele>32.8223</ele>
        <time>2013-06-03T13:42:25Z</time>
      </trkpt>
      <trkpt lat="60.0206985" lon="17.8247529">
        <ele>32.3416</ele>
        <time>2013-06-03T13:42:26Z</time>
      </trkpt>
      <trkpt lat="60.0206754" lon="17.8249424">
        <ele>32.8223</ele>
        <time>2013-06-03T13:42:27Z</time>
      </trkpt>
      <trkpt lat="60.0206555" lon="17.8251259">
        <ele>33.3029</ele>
        <time>2013-06-03T13:42:28Z</time>
      </trkpt>
      <trkpt lat="60.0206349" lon="17.825323">
        <ele>34.2642</ele>
        <time>2013-06-03T13:42:29Z</time>
      </trkpt>
      <trkpt lat="60.0206131" lon="17.8255293">
        <ele>35.2255</ele>
        <time>2013-06-03T13:42:30Z</time>
      </trkpt>
      <trkpt lat="60.0205898" lon="17.8257335">
        <ele>35.7061</ele>
        <time>2013-06-03T13:42:31Z</time>
      </trkpt>
      <trkpt lat="60.0205675" lon="17.8259331">
        <ele>35.7061</ele>
        <time>2013-06-03T13:42:32Z</time>
      </trkpt>
      <trkpt lat="60.0205455" lon="17.8261281">
        <ele>36.1868</ele>
        <time>2013-06-03T13:42:33Z</time>
      </trkpt>
      <trkpt lat="60.0205171" lon="17.8263137">
        <ele>35.7061</ele>
        <time>2013-06-03T13:42:34Z</time>
      </trkpt>
      <trkpt lat="60.020493" lon="17.8264964">
        <ele>36.1868</ele>
        <time>2013-06-03T13:42:35Z</time>
      </trkpt>
      <trkpt lat="60.0204587" lon="17.8266696">
        <ele>37.1481</ele>
        <time>2013-06-03T13:42:36Z</time>
      </trkpt>
      <trkpt lat="60.0204184" lon="17.8268457">
        <ele>36.6675</ele>
        <time>2013-06-03T13:42:37Z</time>
      </trkpt>
      <trkpt lat="60.0203764" lon="17.8270223">
        <ele>36.6675</ele>
        <time>2013-06-03T13:42:38Z</time>
      </trkpt>
      <trkpt lat="60.0203273" lon="17.8272034">
        <ele>37.1481</ele>
        <time>2013-06-03T13:42:39Z</time>
      </trkpt>
      <trkpt lat="60.0202803" lon="17.8273813">
        <ele>37.6287</ele>
        <time>2013-06-03T13:42:40Z</time>
      </trkpt>
      <trkpt lat="60.0202458" lon="17.8275738">
        <ele>37.6287</ele>
        <time>2013-06-03T13:42:41Z</time>
      </trkpt>
      <trkpt lat="60.0202163" lon="17.8277693">
        <ele>37.1481</ele>
        <time>2013-06-03T13:42:42Z</time>
      </trkpt>
      <trkpt lat="60.0201842" lon="17.8279573">
        <ele>36.6675</ele>
        <time>2013-06-03T13:42:43Z</time>
      </trkpt>
      <trkpt lat="60.0201408" lon="17.8281397">
        <ele>37.1481</ele>
        <time>2013-06-03T13:42:44Z</time>
      </trkpt>
      <trkpt lat="60.0200878" lon="17.8283052">
        <ele>36.1868</ele>
        <time>2013-06-03T13:42:45Z</time>
      </trkpt>
      <trkpt lat="60.0200309" lon="17.8284544">
        <ele>36.1868</ele>
        <time>2013-06-03T13:42:46Z</time>
      </trkpt>
      <trkpt lat="60.0199713" lon="17.8285878">
        <ele>35.2255</ele>
        <time>2013-06-03T13:42:47Z</time>
      </trkpt>
      <trkpt lat="60.0199117" lon="17.828724">
        <ele>35.2255</ele>
        <time>2013-06-03T13:42:48Z</time>
      </trkpt>
      <trkpt lat="60.019851" lon="17.8288631">
        <ele>34.2642</ele>
        <time>2013-06-03T13:42:49Z</time>
      </trkpt>
      <trkpt lat="60.0197884" lon="17.8290032">
        <ele>33.7834</ele>
        <time>2013-06-03T13:42:50Z</time>
      </trkpt>
      <trkpt lat="60.0197286" lon="17.8291431">
        <ele>33.3029</ele>
        <time>2013-06-03T13:42:51Z</time>
      </trkpt>
      <trkpt lat="60.0196717" lon="17.8292794">
        <ele>33.7834</ele>
        <time>2013-06-03T13:42:52Z</time>
      </trkpt>
      <trkpt lat="60.0196168" lon="17.829417">
        <ele>34.2642</ele>
        <time>2013-06-03T13:42:53Z</time>
      </trkpt>
      <trkpt lat="60.019562" lon="17.8295626">
        <ele>34.2642</ele>
        <time>2013-06-03T13:42:54Z</time>
      </trkpt>
      <trkpt lat="60.0195061" lon="17.8297035">
        <ele>34.2642</ele>
        <time>2013-06-03T13:42:55Z</time>
      </trkpt>
      <trkpt lat="60.0194551" lon="17.8298486">
        <ele>35.2255</ele>
        <time>2013-06-03T13:42:56Z</time>
      </trkpt>
      <trkpt lat="60.0194072" lon="17.8300029">
        <ele>35.2255</ele>
        <time>2013-06-03T13:42:57Z</time>
      </trkpt>
      <trkpt lat="60.0193621" lon="17.830162">
        <ele>35.7061</ele>
        <time>2013-06-03T13:42:58Z</time>
      </trkpt>
      <trkpt lat="60.0193314" lon="17.8303882">
        <ele>36.1868</ele>
        <time>2013-06-03T13:42:59Z</time>
      </trkpt>
      <trkpt lat="60.0193155" lon="17.8306075">
        <ele>36.1868</ele>
        <time>2013-06-03T13:43:00Z</time>
      </trkpt>
      <trkpt lat="60.019309" lon="17.8308137">
        <ele>37.1481</ele>
        <time>2013-06-03T13:43:01Z</time>
      </trkpt>
      <trkpt lat="60.0193125" lon="17.8310146">
        <ele>37.6287</ele>
        <time>2013-06-03T13:43:02Z</time>
      </trkpt>
      <trkpt lat="60.0193202" lon="17.8312119">
        <ele>37.6287</ele>
        <time>2013-06-03T13:43:03Z</time>
      </trkpt>
      <trkpt lat="60.0193292" lon="17.8314083">
        <ele>37.6287</ele>
        <time>2013-06-03T13:43:04Z</time>
      </trkpt>
      <trkpt lat="60.0193334" lon="17.8316096">
        <ele>38.1094</ele>
        <time>2013-06-03T13:43:05Z</time>
      </trkpt>
      <trkpt lat="60.0193361" lon="17.8318197">
        <ele>37.1481</ele>
        <time>2013-06-03T13:43:06Z</time>
      </trkpt>
      <trkpt lat="60.0193346" lon="17.8320199">
        <ele>35.2255</ele>
        <time>2013-06-03T13:43:07Z</time>
      </trkpt>
      <trkpt lat="60.0193326" lon="17.8322093">
        <ele>34.2642</ele>
        <time>2013-06-03T13:43:08Z</time>
      </trkpt>
      <trkpt lat="60.0193325" lon="17.8323951">
        <ele>33.7834</ele>
        <time>2013-06-03T13:43:09Z</time>
      </trkpt>
      <trkpt lat="60.0193296" lon="17.8325877">
        <ele>34.2642</ele>
        <time>2013-06-03T13:43:10Z</time>
      </trkpt>
      <trkpt lat="60.0193325" lon="17.8327722">
        <ele>34.2642</ele>
        <time>2013-06-03T13:43:11Z</time>
      </trkpt>
      <trkpt lat="60.019341" lon="17.8329499">
        <ele>34.2642</ele>
        <time>2013-06-03T13:43:12Z</time>
      </trkpt>
      <trkpt lat="60.0193559" lon="17.8331317">
        <ele>34.2642</ele>
        <time>2013-06-03T13:43:13Z</time>
      </trkpt>
      <trkpt lat="60.0193756" lon="17.8333234">
        <ele>35.2255</ele>
        <time>2013-06-03T13:43:14Z</time>
      </trkpt>
      <trkpt lat="60.0194008" lon="17.8335192">
        <ele>35.2255</ele>
        <time>2013-06-03T13:43:15Z</time>
      </trkpt>
      <trkpt lat="60.0194211" lon="17.8337176">
        <ele>35.7061</ele>
        <time>2013-06-03T13:43:16Z</time>
      </trkpt>
      <trkpt lat="60.0194368" lon="17.8339228">
        <ele>36.1868</ele>
        <time>2013-06-03T13:43:17Z</time>
      </trkpt>
      <trkpt lat="60.019446" lon="17.8341283">
        <ele>36.1868</ele>
        <time>2013-06-03T13:43:18Z</time>
      </trkpt>
      <trkpt lat="60.0194543" lon="17.8343313">
        <ele>36.1868</ele>
        <time>2013-06-03T13:43:19Z</time>
      </trkpt>
      <trkpt lat="60.0194601" lon="17.8345317">
        <ele>35.7061</ele>
        <time>2013-06-03T13:43:20Z</time>
      </trkpt>
      <trkpt lat="60.0194647" lon="17.8347319">
        <ele>35.2255</ele>
        <time>2013-06-03T13:43:21Z</time>
      </trkpt>
      <trkpt lat="60.0194691" lon="17.8349339">
        <ele>35.2255</ele>
        <time>2013-06-03T13:43:22Z</time>
      </trkpt>
      <trkpt lat="60.0194733" lon="17.835137">
        <ele>34.7449</ele>
        <time>2013-06-03T13:43:23Z</time>
      </trkpt>
      <trkpt lat="60.0194759" lon="17.8353408">
        <ele>34.7449</ele>
        <time>2013-06-03T13:43:24Z</time>
      </trkpt>
      <trkpt lat="60.0194791" lon="17.8355432">
        <ele>34.7449</ele>
        <time>2013-06-03T13:43:25Z</time>
      </trkpt>
      <trkpt lat="60.0194833" lon="17.8357421">
        <ele>35.2255</ele>
        <time>2013-06-03T13:43:26Z</time>
      </trkpt>
      <trkpt lat="60.0194872" lon="17.8359362">
        <ele>35.7061</ele>
        <time>2013-06-03T13:43:27Z</time>
      </trkpt>
      <trkpt lat="60.0194891" lon="17.8361232">
        <ele>35.7061</ele>
        <time>2013-06-03T13:43:28Z</time>
      </trkpt>
      <trkpt lat="60.0194947" lon="17.8363071">
        <ele>36.1868</ele>
        <time>2013-06-03T13:43:29Z</time>
      </trkpt>
      <trkpt lat="60.0194978" lon="17.8364895">
        <ele>36.6675</ele>
        <time>2013-06-03T13:43:30Z</time>
      </trkpt>
      <trkpt lat="60.0194979" lon="17.8366657">
        <ele>36.6675</ele>
        <time>2013-06-03T13:43:31Z</time>
      </trkpt>
      <trkpt lat="60.0194948" lon="17.8368382">
        <ele>37.1481</ele>
        <time>2013-06-03T13:43:32Z</time>
      </trkpt>
      <trkpt lat="60.0194881" lon="17.8370128">
        <ele>37.1481</ele>
        <time>2013-06-03T13:43:33Z</time>
      </trkpt>
      <trkpt lat="60.0194818" lon="17.8371909">
        <ele>37.1481</ele>
        <time>2013-06-03T13:43:34Z</time>
      </trkpt>
      <trkpt lat="60.0194751" lon="17.8373742">
        <ele>36.6675</ele>
        <time>2013-06-03T13:43:35Z</time>
      </trkpt>
      <trkpt lat="60.0194698" lon="17.8375586">
        <ele>37.1481</ele>
        <time>2013-06-03T13:43:36Z</time>
      </trkpt>
      <trkpt lat="60.0194635" lon="17.837745">
        <ele>37.6287</ele>
        <time>2013-06-03T13:43:37Z</time>
      </trkpt>
      <trkpt lat="60.0194569" lon="17.8379366">
        <ele>38.1094</ele>
        <time>2013-06-03T13:43:38Z</time>
      </trkpt>
      <trkpt lat="60.0194484" lon="17.8381301">
        <ele>37.6287</ele>
        <time>2013-06-03T13:43:39Z</time>
      </trkpt>
      <trkpt lat="60.0194406" lon="17.8383236">
        <ele>37.6287</ele>
        <time>2013-06-03T13:43:40Z</time>
      </trkpt>
      <trkpt lat="60.019431" lon="17.8385176">
        <ele>37.1481</ele>
        <time>2013-06-03T13:43:41Z</time>
      </trkpt>
      <trkpt lat="60.0194232" lon="17.8387131">
        <ele>37.6287</ele>
        <time>2013-06-03T13:43:42Z</time>
      </trkpt>
      <trkpt lat="60.0194097" lon="17.8389023">
        <ele>37.6287</ele>
        <time>2013-06-03T13:43:43Z</time>
      </trkpt>
      <trkpt lat="60.019391" lon="17.8390868">
        <ele>37.6287</ele>
        <time>2013-06-03T13:43:44Z</time>
      </trkpt>
      <trkpt lat="60.0193673" lon="17.8392743">
        <ele>36.6675</ele>
        <time>2013-06-03T13:43:45Z</time>
      </trkpt>
      <trkpt lat="60.0193393" lon="17.839454">
        <ele>35.7061</ele>
        <time>2013-06-03T13:43:46Z</time>
      </trkpt>
      <trkpt lat="60.0193092" lon="17.8396233">
        <ele>35.7061</ele>
        <time>2013-06-03T13:43:47Z</time>
      </trkpt>
      <trkpt lat="60.0192745" lon="17.8397916">
        <ele>35.2255</ele>
        <time>2013-06-03T13:43:48Z</time>
      </trkpt>
      <trkpt lat="60.0192381" lon="17.8399651">
        <ele>34.2642</ele>
        <time>2013-06-03T13:43:49Z</time>
      </trkpt>
      <trkpt lat="60.0192" lon="17.8401379">
        <ele>32.8223</ele>
        <time>2013-06-03T13:43:50Z</time>
      </trkpt>
      <trkpt lat="60.019161" lon="17.840316">
        <ele>32.3416</ele>
        <time>2013-06-03T13:43:51Z</time>
      </trkpt>
      <trkpt lat="60.0191191" lon="17.8405014">
        <ele>31.3801</ele>
        <time>2013-06-03T13:43:52Z</time>
      </trkpt>
      <trkpt lat="60.0190801" lon="17.8406869">
        <ele>30.4188</ele>
        <time>2013-06-03T13:43:53Z</time>
      </trkpt>
      <trkpt lat="60.0190363" lon="17.8408709">
        <ele>29.9381</ele>
        <time>2013-06-03T13:43:54Z</time>
      </trkpt>
      <trkpt lat="60.0189907" lon="17.8410579">
        <ele>28.9769</ele>
        <time>2013-06-03T13:43:55Z</time>
      </trkpt>
      <trkpt lat="60.0189456" lon="17.8412441">
        <ele>28.4962</ele>
        <time>2013-06-03T13:43:56Z</time>
      </trkpt>
      <trkpt lat="60.018901" lon="17.8414287">
        <ele>28.0155</ele>
        <time>2013-06-03T13:43:57Z</time>
      </trkpt>
      <trkpt lat="60.0188566" lon="17.8416113">
        <ele>27.5349</ele>
        <time>2013-06-03T13:43:58Z</time>
      </trkpt>
      <trkpt lat="60.0188125" lon="17.8417904">
        <ele>27.5349</ele>
        <time>2013-06-03T13:43:59Z</time>
      </trkpt>
      <trkpt lat="60.0187695" lon="17.8419696">
        <ele>27.0543</ele>
        <time>2013-06-03T13:44:00Z</time>
      </trkpt>
      <trkpt lat="60.018728" lon="17.842148">
        <ele>27.0543</ele>
        <time>2013-06-03T13:44:01Z</time>
      </trkpt>
      <trkpt lat="60.0186856" lon="17.8423215">
        <ele>26.5736</ele>
        <time>2013-06-03T13:44:02Z</time>
      </trkpt>
      <trkpt lat="60.0186424" lon="17.8424897">
        <ele>26.5736</ele>
        <time>2013-06-03T13:44:03Z</time>
      </trkpt>
      <trkpt lat="60.0185996" lon="17.8426565">
        <ele>26.5736</ele>
        <time>2013-06-03T13:44:04Z</time>
      </trkpt>
      <trkpt lat="60.0185576" lon="17.8428248">
        <ele>26.5736</ele>
        <time>2013-06-03T13:44:05Z</time>
      </trkpt>
      <trkpt lat="60.0185157" lon="17.8429931">
        <ele>26.5736</ele>
        <time>2013-06-03T13:44:06Z</time>
      </trkpt>
      <trkpt lat="60.0184743" lon="17.8431607">
        <ele>26.5736</ele>
        <time>2013-06-03T13:44:07Z</time>
      </trkpt>
      <trkpt lat="60.0184339" lon="17.8433275">
        <ele>26.5736</ele>
        <time>2013-06-03T13:44:08Z</time>
      </trkpt>
      <trkpt lat="60.0183948" lon="17.8434926">
        <ele>26.5736</ele>
        <time>2013-06-03T13:44:09Z</time>
      </trkpt>
      <trkpt lat="60.018357" lon="17.843658">
        <ele>26.5736</ele>
        <time>2013-06-03T13:44:10Z</time>
      </trkpt>
      <trkpt lat="60.0183204" lon="17.8438236">
        <ele>26.5736</ele>
        <time>2013-06-03T13:44:11Z</time>
      </trkpt>
      <trkpt lat="60.0182841" lon="17.8439878">
        <ele>26.5736</ele>
        <time>2013-06-03T13:44:12Z</time>
      </trkpt>
      <trkpt lat="60.0182472" lon="17.8441522">
        <ele>26.5736</ele>
        <time>2013-06-03T13:44:13Z</time>
      </trkpt>
      <trkpt lat="60.018211" lon="17.8443186">
        <ele>26.5736</ele>
        <time>2013-06-03T13:44:14Z</time>
      </trkpt>
      <trkpt lat="60.018177" lon="17.8444877">
        <ele>26.5736</ele>
        <time>2013-06-03T13:44:15Z</time>
      </trkpt>
      <trkpt lat="60.0181441" lon="17.8446605">
        <ele>26.5736</ele>
        <time>2013-06-03T13:44:16Z</time>
      </trkpt>
      <trkpt lat="60.0181107" lon="17.8448349">
        <ele>26.0929</ele>
        <time>2013-06-03T13:44:17Z</time>
      </trkpt>
      <trkpt lat="60.0180762" lon="17.8450096">
        <ele>26.0929</ele>
        <time>2013-06-03T13:44:18Z</time>
      </trkpt>
      <trkpt lat="60.0180405" lon="17.8451836">
        <ele>26.0929</ele>
        <time>2013-06-03T13:44:19Z</time>
      </trkpt>
      <trkpt lat="60.0180033" lon="17.8453562">
        <ele>26.0929</ele>
        <time>2013-06-03T13:44:20Z</time>
      </trkpt>
      <trkpt lat="60.0179645" lon="17.8455268">
        <ele>26.0929</ele>
        <time>2013-06-03T13:44:21Z</time>
      </trkpt>
      <trkpt lat="60.0179221" lon="17.8456946">
        <ele>26.0929</ele>
        <time>2013-06-03T13:44:22Z</time>
      </trkpt>
      <trkpt lat="60.0178749" lon="17.8458568">
        <ele>26.0929</ele>
        <time>2013-06-03T13:44:23Z</time>
      </trkpt>
      <trkpt lat="60.0178229" lon="17.8460106">
        <ele>26.0929</ele>
        <time>2013-06-03T13:44:24Z</time>
      </trkpt>
      <trkpt lat="60.0177645" lon="17.8461538">
        <ele>26.5736</ele>
        <time>2013-06-03T13:44:25Z</time>
      </trkpt>
      <trkpt lat="60.0177009" lon="17.846288">
        <ele>26.5736</ele>
        <time>2013-06-03T13:44:26Z</time>
      </trkpt>
      <trkpt lat="60.0176345" lon="17.8464155">
        <ele>26.5736</ele>
        <time>2013-06-03T13:44:27Z</time>
      </trkpt>
      <trkpt lat="60.0175671" lon="17.8465405">
        <ele>26.5736</ele>
        <time>2013-06-03T13:44:28Z</time>
      </trkpt>
      <trkpt lat="60.0175007" lon="17.8466685">
        <ele>26.5736</ele>
        <time>2013-06-03T13:44:29Z</time>
      </trkpt>
      <trkpt lat="60.0174382" lon="17.8468019">
        <ele>26.5736</ele>
        <time>2013-06-03T13:44:30Z</time>
      </trkpt>
      <trkpt lat="60.0173821" lon="17.8469428">
        <ele>26.5736</ele>
        <time>2013-06-03T13:44:31Z</time>
      </trkpt>
      <trkpt lat="60.0173334" lon="17.8470903">
        <ele>26.5736</ele>
        <time>2013-06-03T13:44:32Z</time>
      </trkpt>
      <trkpt lat="60.0172924" lon="17.8472429">
        <ele>26.5736</ele>
        <time>2013-06-03T13:44:33Z</time>
      </trkpt>
      <trkpt lat="60.0172574" lon="17.8474011">
        <ele>27.0543</ele>
        <time>2013-06-03T13:44:34Z</time>
      </trkpt>
      <trkpt lat="60.0172267" lon="17.8475609">
        <ele>27.0543</ele>
        <time>2013-06-03T13:44:35Z</time>
      </trkpt>
      <trkpt lat="60.0171987" lon="17.8477205">
        <ele>27.0543</ele>
        <time>2013-06-03T13:44:36Z</time>
      </trkpt>
      <trkpt lat="60.0171729" lon="17.8478803">
        <ele>27.0543</ele>
        <time>2013-06-03T13:44:37Z</time>
      </trkpt>
      <trkpt lat="60.0171486" lon="17.848039">
        <ele>27.0543</ele>
        <time>2013-06-03T13:44:38Z</time>
      </trkpt>
      <trkpt lat="60.0171265" lon="17.8481968">
        <ele>27.5349</ele>
        <time>2013-06-03T13:44:39Z</time>
      </trkpt>
      <trkpt lat="60.0171073" lon="17.8483525">
        <ele>27.5349</ele>
        <time>2013-06-03T13:44:40Z</time>
      </trkpt>
      <trkpt lat="60.0170927" lon="17.8485073">
        <ele>27.5349</ele>
        <time>2013-06-03T13:44:41Z</time>
      </trkpt>
      <trkpt lat="60.0170834" lon="17.8486602">
        <ele>27.5349</ele>
        <time>2013-06-03T13:44:42Z</time>
      </trkpt>
      <trkpt lat="60.0170749" lon="17.8488193">
        <ele>27.0543</ele>
        <time>2013-06-03T13:44:43Z</time>
      </trkpt>
      <trkpt lat="60.0170668" lon="17.8489782">
        <ele>27.0543</ele>
        <time>2013-06-03T13:44:44Z</time>
      </trkpt>
      <trkpt lat="60.0170578" lon="17.8491424">
        <ele>26.5736</ele>
        <time>2013-06-03T13:44:45Z</time>
      </trkpt>
      <trkpt lat="60.0170492" lon="17.8493087">
        <ele>26.0929</ele>
        <time>2013-06-03T13:44:46Z</time>
      </trkpt>
      <trkpt lat="60.0170397" lon="17.8494782">
        <ele>25.6123</ele>
        <time>2013-06-03T13:44:47Z</time>
      </trkpt>
      <trkpt lat="60.0170273" lon="17.849651">
        <ele>25.6123</ele>
        <time>2013-06-03T13:44:48Z</time>
      </trkpt>
      <trkpt lat="60.0170135" lon="17.8498255">
        <ele>25.1317</ele>
        <time>2013-06-03T13:44:49Z</time>
      </trkpt>
      <trkpt lat="60.0169977" lon="17.8500059">
        <ele>25.1317</ele>
        <time>2013-06-03T13:44:50Z</time>
      </trkpt>
      <trkpt lat="60.0169818" lon="17.8501894">
        <ele>25.1317</ele>
        <time>2013-06-03T13:44:51Z</time>
      </trkpt>
      <trkpt lat="60.0169668" lon="17.8503758">
        <ele>25.1317</ele>
        <time>2013-06-03T13:44:52Z</time>
      </trkpt>
      <trkpt lat="60.0169523" lon="17.8505647">
        <ele>25.1317</ele>
        <time>2013-06-03T13:44:53Z</time>
      </trkpt>
      <trkpt lat="60.0169363" lon="17.850754">
        <ele>25.1317</ele>
        <time>2013-06-03T13:44:54Z</time>
      </trkpt>
      <trkpt lat="60.0169187" lon="17.8509471">
        <ele>25.1317</ele>
        <time>2013-06-03T13:44:55Z</time>
      </trkpt>
      <trkpt lat="60.0169019" lon="17.8511394">
        <ele>25.1317</ele>
        <time>2013-06-03T13:44:56Z</time>
      </trkpt>
      <trkpt lat="60.0168839" lon="17.8513305">
        <ele>25.1317</ele>
        <time>2013-06-03T13:44:57Z</time>
      </trkpt>
      <trkpt lat="60.016864" lon="17.8515194">
        <ele>25.1317</ele>
        <time>2013-06-03T13:44:58Z</time>
      </trkpt>
      <trkpt lat="60.0168405" lon="17.851706">
        <ele>25.1317</ele>
        <time>2013-06-03T13:44:59Z</time>
      </trkpt>
      <trkpt lat="60.016813" lon="17.8518892">
        <ele>25.1317</ele>
        <time>2013-06-03T13:45:00Z</time>
      </trkpt>
      <trkpt lat="60.0167803" lon="17.8520681">
        <ele>25.1317</ele>
        <time>2013-06-03T13:45:01Z</time>
      </trkpt>
      <trkpt lat="60.016742" lon="17.8522409">
        <ele>25.1317</ele>
        <time>2013-06-03T13:45:02Z</time>
      </trkpt>
      <trkpt lat="60.0167009" lon="17.8524084">
        <ele>25.6123</ele>
        <time>2013-06-03T13:45:03Z</time>
      </trkpt>
      <trkpt lat="60.0166595" lon="17.8525727">
        <ele>25.6123</ele>
        <time>2013-06-03T13:45:04Z</time>
      </trkpt>
      <trkpt lat="60.0166176" lon="17.852733">
        <ele>25.6123</ele>
        <time>2013-06-03T13:45:05Z</time>
      </trkpt>
      <trkpt lat="60.0165769" lon="17.852891">
        <ele>25.6123</ele>
        <time>2013-06-03T13:45:06Z</time>
      </trkpt>
      <trkpt lat="60.0165385" lon="17.8530487">
        <ele>25.6123</ele>
        <time>2013-06-03T13:45:07Z</time>
      </trkpt>
      <trkpt lat="60.016502" lon="17.8532076">
        <ele>25.6123</ele>
        <time>2013-06-03T13:45:08Z</time>
      </trkpt>
      <trkpt lat="60.0164674" lon="17.8533678">
        <ele>25.6123</ele>
        <time>2013-06-03T13:45:09Z</time>
      </trkpt>
      <trkpt lat="60.0164342" lon="17.8535279">
        <ele>25.6123</ele>
        <time>2013-06-03T13:45:10Z</time>
      </trkpt>
      <trkpt lat="60.0164022" lon="17.853687">
        <ele>25.6123</ele>
        <time>2013-06-03T13:45:11Z</time>
      </trkpt>
      <trkpt lat="60.0163714" lon="17.8538448">
        <ele>25.6123</ele>
        <time>2013-06-03T13:45:12Z</time>
      </trkpt>
      <trkpt lat="60.0163408" lon="17.8540004">
        <ele>25.6123</ele>
        <time>2013-06-03T13:45:13Z</time>
      </trkpt>
      <trkpt lat="60.0163113" lon="17.8541517">
        <ele>26.0929</ele>
        <time>2013-06-03T13:45:14Z</time>
      </trkpt>
      <trkpt lat="60.0162834" lon="17.8542984">
        <ele>26.0929</ele>
        <time>2013-06-03T13:45:15Z</time>
      </trkpt>
      <trkpt lat="60.0162556" lon="17.8544401">
        <ele>26.5736</ele>
        <time>2013-06-03T13:45:16Z</time>
      </trkpt>
      <trkpt lat="60.016227" lon="17.8545766">
        <ele>27.0543</ele>
        <time>2013-06-03T13:45:17Z</time>
      </trkpt>
      <trkpt lat="60.0161979" lon="17.8547018">
        <ele>27.5349</ele>
        <time>2013-06-03T13:45:18Z</time>
      </trkpt>
      <trkpt lat="60.0161669" lon="17.8548126">
        <ele>28.0155</ele>
        <time>2013-06-03T13:45:19Z</time>
      </trkpt>
      <trkpt lat="60.0161288" lon="17.8549097">
        <ele>28.0155</ele>
        <time>2013-06-03T13:45:20Z</time>
      </trkpt>
      <trkpt lat="60.0160855" lon="17.8549933">
        <ele>28.4962</ele>
        <time>2013-06-03T13:45:21Z</time>
      </trkpt>
      <trkpt lat="60.0160431" lon="17.8550673">
        <ele>28.9769</ele>
        <time>2013-06-03T13:45:22Z</time>
      </trkpt>
      <trkpt lat="60.0159992" lon="17.8551342">
        <ele>29.4575</ele>
        <time>2013-06-03T13:45:23Z</time>
      </trkpt>
      <trkpt lat="60.0159562" lon="17.8551892">
        <ele>29.9381</ele>
        <time>2013-06-03T13:45:24Z</time>
      </trkpt>
      <trkpt lat="60.0159132" lon="17.8552388">
        <ele>30.4188</ele>
        <time>2013-06-03T13:45:25Z</time>
      </trkpt>
      <trkpt lat="60.0158691" lon="17.8552906">
        <ele>30.4188</ele>
        <time>2013-06-03T13:45:26Z</time>
      </trkpt>
      <trkpt lat="60.0158242" lon="17.8553436">
        <ele>30.8995</ele>
        <time>2013-06-03T13:45:27Z</time>
      </trkpt>
      <trkpt lat="60.0157783" lon="17.8554088">
        <ele>31.3801</ele>
        <time>2013-06-03T13:45:28Z</time>
      </trkpt>
      <trkpt lat="60.0157313" lon="17.8554748">
        <ele>30.8995</ele>
        <time>2013-06-03T13:45:29Z</time>
      </trkpt>
      <trkpt lat="60.0156825" lon="17.855545">
        <ele>30.8995</ele>
        <time>2013-06-03T13:45:30Z</time>
      </trkpt>
      <trkpt lat="60.0156348" lon="17.8556158">
        <ele>30.4188</ele>
        <time>2013-06-03T13:45:31Z</time>
      </trkpt>
      <trkpt lat="60.0155879" lon="17.8556888">
        <ele>31.3801</ele>
        <time>2013-06-03T13:45:32Z</time>
      </trkpt>
      <trkpt lat="60.0155428" lon="17.8557667">
        <ele>31.8607</ele>
        <time>2013-06-03T13:45:33Z</time>
      </trkpt>
      <trkpt lat="60.0154993" lon="17.8558444">
        <ele>31.8607</ele>
        <time>2013-06-03T13:45:34Z</time>
      </trkpt>
      <trkpt lat="60.0154553" lon="17.8559211">
        <ele>31.3801</ele>
        <time>2013-06-03T13:45:35Z</time>
      </trkpt>
      <trkpt lat="60.0154093" lon="17.8560045">
        <ele>31.8607</ele>
        <time>2013-06-03T13:45:36Z</time>
      </trkpt>
      <trkpt lat="60.0153632" lon="17.8560897">
        <ele>32.3416</ele>
        <time>2013-06-03T13:45:37Z</time>
      </trkpt>
      <trkpt lat="60.0153181" lon="17.8561749">
        <ele>32.3416</ele>
        <time>2013-06-03T13:45:38Z</time>
      </trkpt>
      <trkpt lat="60.0152724" lon="17.8562614">
        <ele>32.3416</ele>
        <time>2013-06-03T13:45:39Z</time>
      </trkpt>
      <trkpt lat="60.0152233" lon="17.8563459">
        <ele>32.3416</ele>
        <time>2013-06-03T13:45:40Z</time>
      </trkpt>
      <trkpt lat="60.0151691" lon="17.8564255">
        <ele>31.8607</ele>
        <time>2013-06-03T13:45:41Z</time>
      </trkpt>
      <trkpt lat="60.0151099" lon="17.8564995">
        <ele>31.8607</ele>
        <time>2013-06-03T13:45:42Z</time>
      </trkpt>
      <trkpt lat="60.0150464" lon="17.8565663">
        <ele>31.3801</ele>
        <time>2013-06-03T13:45:43Z</time>
      </trkpt>
      <trkpt lat="60.0149776" lon="17.8566234">
        <ele>31.3801</ele>
        <time>2013-06-03T13:45:44Z</time>
      </trkpt>
      <trkpt lat="60.0149034" lon="17.8566713">
        <ele>31.3801</ele>
        <time>2013-06-03T13:45:45Z</time>
      </trkpt>
      <trkpt lat="60.0148258" lon="17.85671">
        <ele>31.3801</ele>
        <time>2013-06-03T13:45:46Z</time>
      </trkpt>
      <trkpt lat="60.0147462" lon="17.8567407">
        <ele>31.8607</ele>
        <time>2013-06-03T13:45:47Z</time>
      </trkpt>
      <trkpt lat="60.0146653" lon="17.8567685">
        <ele>31.8607</ele>
        <time>2013-06-03T13:45:48Z</time>
      </trkpt>
      <trkpt lat="60.0145834" lon="17.8567944">
        <ele>31.8607</ele>
        <time>2013-06-03T13:45:49Z</time>
      </trkpt>
      <trkpt lat="60.014502" lon="17.8568194">
        <ele>31.8607</ele>
        <time>2013-06-03T13:45:50Z</time>
      </trkpt>
      <trkpt lat="60.0144202" lon="17.8568452">
        <ele>31.8607</ele>
        <time>2013-06-03T13:45:51Z</time>
      </trkpt>
      <trkpt lat="60.0143382" lon="17.8568732">
        <ele>31.8607</ele>
        <time>2013-06-03T13:45:52Z</time>
      </trkpt>
      <trkpt lat="60.0142566" lon="17.8569078">
        <ele>32.3416</ele>
        <time>2013-06-03T13:45:53Z</time>
      </trkpt>
      <trkpt lat="60.0141758" lon="17.8569478">
        <ele>32.3416</ele>
        <time>2013-06-03T13:45:54Z</time>
      </trkpt>
      <trkpt lat="60.0140943" lon="17.8569874">
        <ele>32.3416</ele>
        <time>2013-06-03T13:45:55Z</time>
      </trkpt>
      <trkpt lat="60.0140114" lon="17.8570266">
        <ele>32.3416</ele>
        <time>2013-06-03T13:45:56Z</time>
      </trkpt>
      <trkpt lat="60.013928" lon="17.8570711">
        <ele>32.3416</ele>
        <time>2013-06-03T13:45:57Z</time>
      </trkpt>
      <trkpt lat="60.0138458" lon="17.8571254">
        <ele>32.3416</ele>
        <time>2013-06-03T13:45:58Z</time>
      </trkpt>
      <trkpt lat="60.0137645" lon="17.8571886">
        <ele>32.3416</ele>
        <time>2013-06-03T13:45:59Z</time>
      </trkpt>
      <trkpt lat="60.0136832" lon="17.8572573">
        <ele>32.3416</ele>
        <time>2013-06-03T13:46:00Z</time>
      </trkpt>
      <trkpt lat="60.0136008" lon="17.8573307">
        <ele>32.3416</ele>
        <time>2013-06-03T13:46:01Z</time>
      </trkpt>
      <trkpt lat="60.0135174" lon="17.8574053">
        <ele>32.3416</ele>
        <time>2013-06-03T13:46:02Z</time>
      </trkpt>
      <trkpt lat="60.0134327" lon="17.8574734">
        <ele>32.3416</ele>
        <time>2013-06-03T13:46:03Z</time>
      </trkpt>
      <trkpt lat="60.0133454" lon="17.8575327">
        <ele>32.3416</ele>
        <time>2013-06-03T13:46:04Z</time>
      </trkpt>
      <trkpt lat="60.0132575" lon="17.8575791">
        <ele>32.3416</ele>
        <time>2013-06-03T13:46:05Z</time>
      </trkpt>
      <trkpt lat="60.0131698" lon="17.8576128">
        <ele>32.3416</ele>
        <time>2013-06-03T13:46:06Z</time>
      </trkpt>
      <trkpt lat="60.0130831" lon="17.8576358">
        <ele>32.3416</ele>
        <time>2013-06-03T13:46:07Z</time>
      </trkpt>
      <trkpt lat="60.0129982" lon="17.8576502">
        <ele>32.8223</ele>
        <time>2013-06-03T13:46:08Z</time>
      </trkpt>
      <trkpt lat="60.0129148" lon="17.857657">
        <ele>32.8223</ele>
        <time>2013-06-03T13:46:09Z</time>
      </trkpt>
      <trkpt lat="60.0128322" lon="17.8576577">
        <ele>32.8223</ele>
        <time>2013-06-03T13:46:10Z</time>
      </trkpt>
      <trkpt lat="60.0127507" lon="17.8576532">
        <ele>33.3029</ele>
        <time>2013-06-03T13:46:11Z</time>
      </trkpt>
      <trkpt lat="60.0126702" lon="17.8576387">
        <ele>33.3029</ele>
        <time>2013-06-03T13:46:12Z</time>
      </trkpt>
      <trkpt lat="60.0125916" lon="17.8576118">
        <ele>33.7834</ele>
        <time>2013-06-03T13:46:13Z</time>
      </trkpt>
      <trkpt lat="60.0125145" lon="17.8575823">
        <ele>33.7834</ele>
        <time>2013-06-03T13:46:14Z</time>
      </trkpt>
      <trkpt lat="60.0124403" lon="17.8575585">
        <ele>34.2642</ele>
        <time>2013-06-03T13:46:15Z</time>
      </trkpt>
      <trkpt lat="60.0123658" lon="17.8575481">
        <ele>34.2642</ele>
        <time>2013-06-03T13:46:16Z</time>
      </trkpt>
      <trkpt lat="60.01229" lon="17.8575516">
        <ele>34.7449</ele>
        <time>2013-06-03T13:46:17Z</time>
      </trkpt>
      <trkpt lat="60.0122134" lon="17.8575583">
        <ele>34.7449</ele>
        <time>2013-06-03T13:46:18Z</time>
      </trkpt>
      <trkpt lat="60.0121375" lon="17.8575686">
        <ele>35.2255</ele>
        <time>2013-06-03T13:46:19Z</time>
      </trkpt>
      <trkpt lat="60.0120642" lon="17.8575861">
        <ele>35.7061</ele>
        <time>2013-06-03T13:46:20Z</time>
      </trkpt>
      <trkpt lat="60.0119914" lon="17.857603">
        <ele>35.7061</ele>
        <time>2013-06-03T13:46:21Z</time>
      </trkpt>
      <trkpt lat="60.0119189" lon="17.8576159">
        <ele>35.7061</ele>
        <time>2013-06-03T13:46:22Z</time>
      </trkpt>
      <trkpt lat="60.0118453" lon="17.8576303">
        <ele>35.7061</ele>
        <time>2013-06-03T13:46:23Z</time>
      </trkpt>
      <trkpt lat="60.0117705" lon="17.8576497">
        <ele>35.7061</ele>
        <time>2013-06-03T13:46:24Z</time>
      </trkpt>
      <trkpt lat="60.0116945" lon="17.8576715">
        <ele>35.7061</ele>
        <time>2013-06-03T13:46:25Z</time>
      </trkpt>
      <trkpt lat="60.0116171" lon="17.857695">
        <ele>35.7061</ele>
        <time>2013-06-03T13:46:26Z</time>
      </trkpt>
      <trkpt lat="60.0115377" lon="17.8577209">
        <ele>35.2255</ele>
        <time>2013-06-03T13:46:27Z</time>
      </trkpt>
      <trkpt lat="60.0114561" lon="17.8577429">
        <ele>35.2255</ele>
        <time>2013-06-03T13:46:28Z</time>
      </trkpt>
      <trkpt lat="60.0113729" lon="17.8577579">
        <ele>35.2255</ele>
        <time>2013-06-03T13:46:29Z</time>
      </trkpt>
      <trkpt lat="60.0112895" lon="17.8577667">
        <ele>34.7449</ele>
        <time>2013-06-03T13:46:30Z</time>
      </trkpt>
      <trkpt lat="60.0112085" lon="17.8577703">
        <ele>34.7449</ele>
        <time>2013-06-03T13:46:31Z</time>
      </trkpt>
      <trkpt lat="60.0111336" lon="17.85776">
        <ele>34.7449</ele>
        <time>2013-06-03T13:46:32Z</time>
      </trkpt>
      <trkpt lat="60.0110423" lon="17.8577253">
        <ele>35.2255</ele>
        <time>2013-06-03T13:46:33Z</time>
      </trkpt>
      <trkpt lat="60.0109655" lon="17.8577083">
        <ele>34.2642</ele>
        <time>2013-06-03T13:46:34Z</time>
      </trkpt>
      <trkpt lat="60.0108826" lon="17.8576864">
        <ele>33.7834</ele>
        <time>2013-06-03T13:46:35Z</time>
      </trkpt>
      <trkpt lat="60.0107946" lon="17.8576554">
        <ele>33.3029</ele>
        <time>2013-06-03T13:46:36Z</time>
      </trkpt>
      <trkpt lat="60.0107077" lon="17.8576279">
        <ele>32.3416</ele>
        <time>2013-06-03T13:46:37Z</time>
      </trkpt>
      <trkpt lat="60.0106171" lon="17.8575978">
        <ele>31.3801</ele>
        <time>2013-06-03T13:46:38Z</time>
      </trkpt>
      <trkpt lat="60.0105248" lon="17.8575749">
        <ele>30.8995</ele>
        <time>2013-06-03T13:46:39Z</time>
      </trkpt>
      <trkpt lat="60.0104307" lon="17.8575545">
        <ele>30.4188</ele>
        <time>2013-06-03T13:46:40Z</time>
      </trkpt>
      <trkpt lat="60.0103351" lon="17.8575386">
        <ele>29.9381</ele>
        <time>2013-06-03T13:46:41Z</time>
      </trkpt>
      <trkpt lat="60.0102379" lon="17.8575272">
        <ele>29.4575</ele>
        <time>2013-06-03T13:46:42Z</time>
      </trkpt>
      <trkpt lat="60.0101395" lon="17.8575189">
        <ele>29.4575</ele>
        <time>2013-06-03T13:46:43Z</time>
      </trkpt>
      <trkpt lat="60.0100405" lon="17.8575165">
        <ele>28.9769</ele>
        <time>2013-06-03T13:46:44Z</time>
      </trkpt>
      <trkpt lat="60.0099415" lon="17.8575213">
        <ele>28.9769</ele>
        <time>2013-06-03T13:46:45Z</time>
      </trkpt>
      <trkpt lat="60.0098416" lon="17.8575329">
        <ele>28.4962</ele>
        <time>2013-06-03T13:46:46Z</time>
      </trkpt>
      <trkpt lat="60.0097411" lon="17.8575534">
        <ele>28.4962</ele>
        <time>2013-06-03T13:46:47Z</time>
      </trkpt>
      <trkpt lat="60.0096384" lon="17.8575803">
        <ele>28.4962</ele>
        <time>2013-06-03T13:46:48Z</time>
      </trkpt>
      <trkpt lat="60.0095354" lon="17.857613">
        <ele>28.4962</ele>
        <time>2013-06-03T13:46:49Z</time>
      </trkpt>
      <trkpt lat="60.0094321" lon="17.8576515">
        <ele>28.4962</ele>
        <time>2013-06-03T13:46:50Z</time>
      </trkpt>
      <trkpt lat="60.0093285" lon="17.8576928">
        <ele>28.4962</ele>
        <time>2013-06-03T13:46:51Z</time>
      </trkpt>
      <trkpt lat="60.0092247" lon="17.8577356">
        <ele>28.4962</ele>
        <time>2013-06-03T13:46:52Z</time>
      </trkpt>
      <trkpt lat="60.0091211" lon="17.8577785">
        <ele>28.0155</ele>
        <time>2013-06-03T13:46:53Z</time>
      </trkpt>
      <trkpt lat="60.0090168" lon="17.8578189">
        <ele>28.0155</ele>
        <time>2013-06-03T13:46:54Z</time>
      </trkpt>
      <trkpt lat="60.0089108" lon="17.8578593">
        <ele>28.0155</ele>
        <time>2013-06-03T13:46:55Z</time>
      </trkpt>
      <trkpt lat="60.0088045" lon="17.8579002">
        <ele>27.5349</ele>
        <time>2013-06-03T13:46:56Z</time>
      </trkpt>
      <trkpt lat="60.0086958" lon="17.8579388">
        <ele>27.5349</ele>
        <time>2013-06-03T13:46:57Z</time>
      </trkpt>
      <trkpt lat="60.0085862" lon="17.8579754">
        <ele>27.5349</ele>
        <time>2013-06-03T13:46:58Z</time>
      </trkpt>
      <trkpt lat="60.0084773" lon="17.8580101">
        <ele>27.5349</ele>
        <time>2013-06-03T13:46:59Z</time>
      </trkpt>
      <trkpt lat="60.0083694" lon="17.8580403">
        <ele>27.0543</ele>
        <time>2013-06-03T13:47:00Z</time>
      </trkpt>
      <trkpt lat="60.008262" lon="17.8580706">
        <ele>27.0543</ele>
        <time>2013-06-03T13:47:01Z</time>
      </trkpt>
      <trkpt lat="60.0081539" lon="17.8581001">
        <ele>27.0543</ele>
        <time>2013-06-03T13:47:02Z</time>
      </trkpt>
      <trkpt lat="60.0080451" lon="17.8581251">
        <ele>26.5736</ele>
        <time>2013-06-03T13:47:03Z</time>
      </trkpt>
      <trkpt lat="60.0079394" lon="17.8581559">
        <ele>26.5736</ele>
        <time>2013-06-03T13:47:04Z</time>
      </trkpt>
      <trkpt lat="60.0078336" lon="17.8581843">
        <ele>26.0929</ele>
        <time>2013-06-03T13:47:05Z</time>
      </trkpt>
      <trkpt lat="60.0077289" lon="17.85821">
        <ele>26.0929</ele>
        <time>2013-06-03T13:47:06Z</time>
      </trkpt>
      <trkpt lat="60.0076235" lon="17.8582317">
        <ele>26.0929</ele>
        <time>2013-06-03T13:47:07Z</time>
      </trkpt>
      <trkpt lat="60.0075204" lon="17.8582505">
        <ele>26.0929</ele>
        <time>2013-06-03T13:47:08Z</time>
      </trkpt>
      <trkpt lat="60.0074181" lon="17.858264">
        <ele>26.0929</ele>
        <time>2013-06-03T13:47:09Z</time>
      </trkpt>
      <trkpt lat="60.0073163" lon="17.8582698">
        <ele>25.6123</ele>
        <time>2013-06-03T13:47:10Z</time>
      </trkpt>
      <trkpt lat="60.0072149" lon="17.8582765">
        <ele>26.0929</ele>
        <time>2013-06-03T13:47:11Z</time>
      </trkpt>
      <trkpt lat="60.0071148" lon="17.8582869">
        <ele>26.0929</ele>
        <time>2013-06-03T13:47:12Z</time>
      </trkpt>
      <trkpt lat="60.0070169" lon="17.858307">
        <ele>26.0929</ele>
        <time>2013-06-03T13:47:13Z</time>
      </trkpt>
      <trkpt lat="60.0069203" lon="17.8583365">
        <ele>26.0929</ele>
        <time>2013-06-03T13:47:14Z</time>
      </trkpt>
      <trkpt lat="60.0068231" lon="17.8583749">
        <ele>26.0929</ele>
        <time>2013-06-03T13:47:15Z</time>
      </trkpt>
      <trkpt lat="60.0067252" lon="17.8584107">
        <ele>26.0929</ele>
        <time>2013-06-03T13:47:16Z</time>
      </trkpt>
      <trkpt lat="60.0066278" lon="17.8584438">
        <ele>26.0929</ele>
        <time>2013-06-03T13:47:17Z</time>
      </trkpt>
      <trkpt lat="60.00653" lon="17.8584785">
        <ele>26.0929</ele>
        <time>2013-06-03T13:47:18Z</time>
      </trkpt>
      <trkpt lat="60.0064326" lon="17.8585168">
        <ele>26.0929</ele>
        <time>2013-06-03T13:47:19Z</time>
      </trkpt>
      <trkpt lat="60.0063362" lon="17.8585546">
        <ele>25.6123</ele>
        <time>2013-06-03T13:47:20Z</time>
      </trkpt>
      <trkpt lat="60.0062408" lon="17.858593">
        <ele>25.6123</ele>
        <time>2013-06-03T13:47:21Z</time>
      </trkpt>
      <trkpt lat="60.0061454" lon="17.858628">
        <ele>25.6123</ele>
        <time>2013-06-03T13:47:22Z</time>
      </trkpt>
      <trkpt lat="60.0060503" lon="17.8586637">
        <ele>25.6123</ele>
        <time>2013-06-03T13:47:23Z</time>
      </trkpt>
      <trkpt lat="60.0059555" lon="17.8587006">
        <ele>25.6123</ele>
        <time>2013-06-03T13:47:24Z</time>
      </trkpt>
      <trkpt lat="60.0058598" lon="17.8587342">
        <ele>25.6123</ele>
        <time>2013-06-03T13:47:25Z</time>
      </trkpt>
      <trkpt lat="60.0057634" lon="17.8587689">
        <ele>26.0929</ele>
        <time>2013-06-03T13:47:26Z</time>
      </trkpt>
      <trkpt lat="60.0056683" lon="17.8588075">
        <ele>26.0929</ele>
        <time>2013-06-03T13:47:27Z</time>
      </trkpt>
      <trkpt lat="60.005573" lon="17.8588443">
        <ele>26.5736</ele>
        <time>2013-06-03T13:47:28Z</time>
      </trkpt>
      <trkpt lat="60.0054769" lon="17.8588779">
        <ele>26.5736</ele>
        <time>2013-06-03T13:47:29Z</time>
      </trkpt>
      <trkpt lat="60.0053818" lon="17.858913">
        <ele>27.0543</ele>
        <time>2013-06-03T13:47:30Z</time>
      </trkpt>
      <trkpt lat="60.0052887" lon="17.8589504">
        <ele>27.5349</ele>
        <time>2013-06-03T13:47:31Z</time>
      </trkpt>
      <trkpt lat="60.0051976" lon="17.8589882">
        <ele>27.5349</ele>
        <time>2013-06-03T13:47:32Z</time>
      </trkpt>
      <trkpt lat="60.0051071" lon="17.8590254">
        <ele>28.0155</ele>
        <time>2013-06-03T13:47:33Z</time>
      </trkpt>
      <trkpt lat="60.0050168" lon="17.8590623">
        <ele>28.0155</ele>
        <time>2013-06-03T13:47:34Z</time>
      </trkpt>
      <trkpt lat="60.0049272" lon="17.8591037">
        <ele>28.0155</ele>
        <time>2013-06-03T13:47:35Z</time>
      </trkpt>
      <trkpt lat="60.0048371" lon="17.8591475">
        <ele>28.0155</ele>
        <time>2013-06-03T13:47:36Z</time>
      </trkpt>
      <trkpt lat="60.0047473" lon="17.8591928">
        <ele>28.0155</ele>
        <time>2013-06-03T13:47:37Z</time>
      </trkpt>
      <trkpt lat="60.0046575" lon="17.8592406">
        <ele>28.0155</ele>
        <time>2013-06-03T13:47:38Z</time>
      </trkpt>
      <trkpt lat="60.0045689" lon="17.8592923">
        <ele>28.0155</ele>
        <time>2013-06-03T13:47:39Z</time>
      </trkpt>
      <trkpt lat="60.004481" lon="17.859346">
        <ele>28.0155</ele>
        <time>2013-06-03T13:47:40Z</time>
      </trkpt>
      <trkpt lat="60.0043933" lon="17.8594008">
        <ele>28.0155</ele>
        <time>2013-06-03T13:47:41Z</time>
      </trkpt>
      <trkpt lat="60.0043077" lon="17.8594558">
        <ele>28.0155</ele>
        <time>2013-06-03T13:47:42Z</time>
      </trkpt>
      <trkpt lat="60.0042232" lon="17.8595122">
        <ele>28.0155</ele>
        <time>2013-06-03T13:47:43Z</time>
      </trkpt>
      <trkpt lat="60.0041399" lon="17.8595662">
        <ele>28.4962</ele>
        <time>2013-06-03T13:47:44Z</time>
      </trkpt>
      <trkpt lat="60.0040585" lon="17.8596182">
        <ele>28.9769</ele>
        <time>2013-06-03T13:47:45Z</time>
      </trkpt>
      <trkpt lat="60.0039791" lon="17.8596667">
        <ele>28.9769</ele>
        <time>2013-06-03T13:47:46Z</time>
      </trkpt>
      <trkpt lat="60.0038983" lon="17.8597128">
        <ele>29.4575</ele>
        <time>2013-06-03T13:47:47Z</time>
      </trkpt>
      <trkpt lat="60.0038166" lon="17.8597585">
        <ele>29.4575</ele>
        <time>2013-06-03T13:47:48Z</time>
      </trkpt>
      <trkpt lat="60.0037336" lon="17.8598044">
        <ele>29.9381</ele>
        <time>2013-06-03T13:47:49Z</time>
      </trkpt>
      <trkpt lat="60.0036487" lon="17.8598471">
        <ele>29.4575</ele>
        <time>2013-06-03T13:47:50Z</time>
      </trkpt>
      <trkpt lat="60.0035634" lon="17.8598883">
        <ele>29.4575</ele>
        <time>2013-06-03T13:47:51Z</time>
      </trkpt>
      <trkpt lat="60.0034781" lon="17.8599335">
        <ele>29.9381</ele>
        <time>2013-06-03T13:47:52Z</time>
      </trkpt>
      <trkpt lat="60.0033923" lon="17.8599771">
        <ele>29.9381</ele>
        <time>2013-06-03T13:47:53Z</time>
      </trkpt>
      <trkpt lat="60.0033065" lon="17.8600186">
        <ele>29.9381</ele>
        <time>2013-06-03T13:47:54Z</time>
      </trkpt>
      <trkpt lat="60.0032199" lon="17.860063">
        <ele>29.9381</ele>
        <time>2013-06-03T13:47:55Z</time>
      </trkpt>
      <trkpt lat="60.0031331" lon="17.8601092">
        <ele>29.9381</ele>
        <time>2013-06-03T13:47:56Z</time>
      </trkpt>
      <trkpt lat="60.0030463" lon="17.8601558">
        <ele>29.9381</ele>
        <time>2013-06-03T13:47:57Z</time>
      </trkpt>
      <trkpt lat="60.0029598" lon="17.8602009">
        <ele>29.9381</ele>
        <time>2013-06-03T13:47:58Z</time>
      </trkpt>
      <trkpt lat="60.0028737" lon="17.860247">
        <ele>29.9381</ele>
        <time>2013-06-03T13:47:59Z</time>
      </trkpt>
      <trkpt lat="60.0027871" lon="17.860291">
        <ele>29.9381</ele>
        <time>2013-06-03T13:48:00Z</time>
      </trkpt>
      <trkpt lat="60.0027013" lon="17.860334">
        <ele>29.9381</ele>
        <time>2013-06-03T13:48:01Z</time>
      </trkpt>
      <trkpt lat="60.0026157" lon="17.8603779">
        <ele>29.9381</ele>
        <time>2013-06-03T13:48:02Z</time>
      </trkpt>
      <trkpt lat="60.0025299" lon="17.8604247">
        <ele>29.9381</ele>
        <time>2013-06-03T13:48:03Z</time>
      </trkpt>
      <trkpt lat="60.0024439" lon="17.8604716">
        <ele>29.9381</ele>
        <time>2013-06-03T13:48:04Z</time>
      </trkpt>
      <trkpt lat="60.0023577" lon="17.8605131">
        <ele>29.9381</ele>
        <time>2013-06-03T13:48:05Z</time>
      </trkpt>
      <trkpt lat="60.0022709" lon="17.8605519">
        <ele>29.9381</ele>
        <time>2013-06-03T13:48:06Z</time>
      </trkpt>
      <trkpt lat="60.0021845" lon="17.86059">
        <ele>30.4188</ele>
        <time>2013-06-03T13:48:07Z</time>
      </trkpt>
      <trkpt lat="60.0020984" lon="17.8606277">
        <ele>30.4188</ele>
        <time>2013-06-03T13:48:08Z</time>
      </trkpt>
      <trkpt lat="60.002012" lon="17.860662">
        <ele>29.9381</ele>
        <time>2013-06-03T13:48:09Z</time>
      </trkpt>
      <trkpt lat="60.0019239" lon="17.860692">
        <ele>29.9381</ele>
        <time>2013-06-03T13:48:10Z</time>
      </trkpt>
      <trkpt lat="60.0018345" lon="17.8607173">
        <ele>29.9381</ele>
        <time>2013-06-03T13:48:11Z</time>
      </trkpt>
      <trkpt lat="60.001745" lon="17.8607389">
        <ele>29.4575</ele>
        <time>2013-06-03T13:48:12Z</time>
      </trkpt>
      <trkpt lat="60.001655" lon="17.8607552">
        <ele>29.4575</ele>
        <time>2013-06-03T13:48:13Z</time>
      </trkpt>
      <trkpt lat="60.0015643" lon="17.8607685">
        <ele>29.4575</ele>
        <time>2013-06-03T13:48:14Z</time>
      </trkpt>
      <trkpt lat="60.0014731" lon="17.8607779">
        <ele>29.4575</ele>
        <time>2013-06-03T13:48:15Z</time>
      </trkpt>
      <trkpt lat="60.0013818" lon="17.8607821">
        <ele>29.4575</ele>
        <time>2013-06-03T13:48:16Z</time>
      </trkpt>
      <trkpt lat="60.0012901" lon="17.8607817">
        <ele>29.4575</ele>
        <time>2013-06-03T13:48:17Z</time>
      </trkpt>
      <trkpt lat="60.0011982" lon="17.8607836">
        <ele>29.4575</ele>
        <time>2013-06-03T13:48:18Z</time>
      </trkpt>
      <trkpt lat="60.0011074" lon="17.8607877">
        <ele>29.4575</ele>
        <time>2013-06-03T13:48:19Z</time>
      </trkpt>
      <trkpt lat="60.0010178" lon="17.8607934">
        <ele>29.4575</ele>
        <time>2013-06-03T13:48:20Z</time>
      </trkpt>
      <trkpt lat="60.0009281" lon="17.8608049">
        <ele>29.4575</ele>
        <time>2013-06-03T13:48:21Z</time>
      </trkpt>
      <trkpt lat="60.0008406" lon="17.860828">
        <ele>29.9381</ele>
        <time>2013-06-03T13:48:22Z</time>
      </trkpt>
      <trkpt lat="60.0007557" lon="17.8608613">
        <ele>30.4188</ele>
        <time>2013-06-03T13:48:23Z</time>
      </trkpt>
      <trkpt lat="60.0006726" lon="17.8609002">
        <ele>30.4188</ele>
        <time>2013-06-03T13:48:24Z</time>
      </trkpt>
      <trkpt lat="60.0005926" lon="17.8609426">
        <ele>30.8995</ele>
        <time>2013-06-03T13:48:25Z</time>
      </trkpt>
      <trkpt lat="60.0005134" lon="17.8609959">
        <ele>30.4188</ele>
        <time>2013-06-03T13:48:26Z</time>
      </trkpt>
      <trkpt lat="60.0004365" lon="17.8610494">
        <ele>30.8995</ele>
        <time>2013-06-03T13:48:27Z</time>
      </trkpt>
      <trkpt lat="60.0003548" lon="17.861094">
        <ele>30.8995</ele>
        <time>2013-06-03T13:48:28Z</time>
      </trkpt>
      <trkpt lat="60.0002719" lon="17.8611404">
        <ele>30.8995</ele>
        <time>2013-06-03T13:48:29Z</time>
      </trkpt>
      <trkpt lat="60.0001859" lon="17.8611877">
        <ele>30.8995</ele>
        <time>2013-06-03T13:48:30Z</time>
      </trkpt>
      <trkpt lat="60.0000992" lon="17.8612312">
        <ele>30.8995</ele>
        <time>2013-06-03T13:48:31Z</time>
      </trkpt>
      <trkpt lat="60.0000139" lon="17.861284">
        <ele>30.8995</ele>
        <time>2013-06-03T13:48:32Z</time>
      </trkpt>
      <trkpt lat="59.9999283" lon="17.8613487">
        <ele>30.8995</ele>
        <time>2013-06-03T13:48:33Z</time>
      </trkpt>
      <trkpt lat="59.9998435" lon="17.861425">
        <ele>30.8995</ele>
        <time>2013-06-03T13:48:34Z</time>
      </trkpt>
      <trkpt lat="59.9997605" lon="17.8615135">
        <ele>30.4188</ele>
        <time>2013-06-03T13:48:35Z</time>
      </trkpt>
      <trkpt lat="59.9996819" lon="17.8616139">
        <ele>30.4188</ele>
        <time>2013-06-03T13:48:36Z</time>
      </trkpt>
      <trkpt lat="59.9996089" lon="17.8617255">
        <ele>30.4188</ele>
        <time>2013-06-03T13:48:37Z</time>
      </trkpt>
      <trkpt lat="59.9995413" lon="17.8618441">
        <ele>30.4188</ele>
        <time>2013-06-03T13:48:38Z</time>
      </trkpt>
      <trkpt lat="59.9994772" lon="17.8619673">
        <ele>29.9381</ele>
        <time>2013-06-03T13:48:39Z</time>
      </trkpt>
      <trkpt lat="59.9994166" lon="17.8620929">
        <ele>29.9381</ele>
        <time>2013-06-03T13:48:40Z</time>
      </trkpt>
      <trkpt lat="59.9993597" lon="17.8622204">
        <ele>29.9381</ele>
        <time>2013-06-03T13:48:41Z</time>
      </trkpt>
      <trkpt lat="59.9993031" lon="17.8623459">
        <ele>29.9381</ele>
        <time>2013-06-03T13:48:42Z</time>
      </trkpt>
      <trkpt lat="59.9992453" lon="17.8624683">
        <ele>29.9381</ele>
        <time>2013-06-03T13:48:43Z</time>
      </trkpt>
      <trkpt lat="59.9991824" lon="17.8625832">
        <ele>29.9381</ele>
        <time>2013-06-03T13:48:44Z</time>
      </trkpt>
      <trkpt lat="59.9991194" lon="17.8626887">
        <ele>29.9381</ele>
        <time>2013-06-03T13:48:45Z</time>
      </trkpt>
      <trkpt lat="59.9990539" lon="17.8627873">
        <ele>29.9381</ele>
        <time>2013-06-03T13:48:46Z</time>
      </trkpt>
      <trkpt lat="59.9989873" lon="17.8628834">
        <ele>29.9381</ele>
        <time>2013-06-03T13:48:47Z</time>
      </trkpt>
      <trkpt lat="59.9989199" lon="17.8629819">
        <ele>29.9381</ele>
        <time>2013-06-03T13:48:48Z</time>
      </trkpt>
      <trkpt lat="59.9988514" lon="17.8630805">
        <ele>29.9381</ele>
        <time>2013-06-03T13:48:49Z</time>
      </trkpt>
      <trkpt lat="59.9987816" lon="17.8631799">
        <ele>29.4575</ele>
        <time>2013-06-03T13:48:50Z</time>
      </trkpt>
      <trkpt lat="59.9987121" lon="17.863283">
        <ele>29.4575</ele>
        <time>2013-06-03T13:48:51Z</time>
      </trkpt>
      <trkpt lat="59.9986441" lon="17.8633882">
        <ele>29.9381</ele>
        <time>2013-06-03T13:48:52Z</time>
      </trkpt>
      <trkpt lat="59.9985773" lon="17.8634907">
        <ele>29.9381</ele>
        <time>2013-06-03T13:48:53Z</time>
      </trkpt>
      <trkpt lat="59.9985111" lon="17.8635948">
        <ele>29.4575</ele>
        <time>2013-06-03T13:48:54Z</time>
      </trkpt>
      <trkpt lat="59.9984453" lon="17.863696">
        <ele>29.4575</ele>
        <time>2013-06-03T13:48:55Z</time>
      </trkpt>
      <trkpt lat="59.9983796" lon="17.8637969">
        <ele>28.9769</ele>
        <time>2013-06-03T13:48:56Z</time>
      </trkpt>
      <trkpt lat="59.9983147" lon="17.8638988">
        <ele>28.9769</ele>
        <time>2013-06-03T13:48:57Z</time>
      </trkpt>
      <trkpt lat="59.998249" lon="17.8640003">
        <ele>28.9769</ele>
        <time>2013-06-03T13:48:58Z</time>
      </trkpt>
      <trkpt lat="59.9981831" lon="17.8640998">
        <ele>28.4962</ele>
        <time>2013-06-03T13:48:59Z</time>
      </trkpt>
      <trkpt lat="59.998117" lon="17.8641985">
        <ele>28.4962</ele>
        <time>2013-06-03T13:49:00Z</time>
      </trkpt>
      <trkpt lat="59.9980512" lon="17.8642983">
        <ele>28.4962</ele>
        <time>2013-06-03T13:49:01Z</time>
      </trkpt>
      <trkpt lat="59.9979847" lon="17.8643978">
        <ele>28.0155</ele>
        <time>2013-06-03T13:49:02Z</time>
      </trkpt>
      <trkpt lat="59.9979186" lon="17.8644962">
        <ele>28.0155</ele>
        <time>2013-06-03T13:49:03Z</time>
      </trkpt>
      <trkpt lat="59.9978533" lon="17.8645935">
        <ele>28.0155</ele>
        <time>2013-06-03T13:49:04Z</time>
      </trkpt>
      <trkpt lat="59.9977884" lon="17.8646889">
        <ele>28.0155</ele>
        <time>2013-06-03T13:49:05Z</time>
      </trkpt>
      <trkpt lat="59.9977239" lon="17.8647805">
        <ele>28.0155</ele>
        <time>2013-06-03T13:49:06Z</time>
      </trkpt>
      <trkpt lat="59.9976601" lon="17.8648667">
        <ele>28.0155</ele>
        <time>2013-06-03T13:49:07Z</time>
      </trkpt>
      <trkpt lat="59.997598" lon="17.864952">
        <ele>28.0155</ele>
        <time>2013-06-03T13:49:08Z</time>
      </trkpt>
      <trkpt lat="59.9975353" lon="17.865034">
        <ele>28.0155</ele>
        <time>2013-06-03T13:49:09Z</time>
      </trkpt>
      <trkpt lat="59.9974703" lon="17.8651098">
        <ele>28.4962</ele>
        <time>2013-06-03T13:49:10Z</time>
      </trkpt>
      <trkpt lat="59.9974026" lon="17.8651763">
        <ele>28.9769</ele>
        <time>2013-06-03T13:49:11Z</time>
      </trkpt>
      <trkpt lat="59.9973328" lon="17.8652352">
        <ele>28.4962</ele>
        <time>2013-06-03T13:49:12Z</time>
      </trkpt>
      <trkpt lat="59.9972606" lon="17.8652818">
        <ele>28.9769</ele>
        <time>2013-06-03T13:49:13Z</time>
      </trkpt>
      <trkpt lat="59.9971886" lon="17.8653179">
        <ele>29.4575</ele>
        <time>2013-06-03T13:49:14Z</time>
      </trkpt>
      <trkpt lat="59.9971172" lon="17.8653437">
        <ele>29.9381</ele>
        <time>2013-06-03T13:49:15Z</time>
      </trkpt>
      <trkpt lat="59.9970467" lon="17.8653587">
        <ele>29.9381</ele>
        <time>2013-06-03T13:49:16Z</time>
      </trkpt>
      <trkpt lat="59.9969784" lon="17.8653757">
        <ele>30.4188</ele>
        <time>2013-06-03T13:49:17Z</time>
      </trkpt>
      <trkpt lat="59.9969098" lon="17.8653846">
        <ele>30.8995</ele>
        <time>2013-06-03T13:49:18Z</time>
      </trkpt>
      <trkpt lat="59.9968389" lon="17.8653883">
        <ele>31.3801</ele>
        <time>2013-06-03T13:49:19Z</time>
      </trkpt>
      <trkpt lat="59.9967669" lon="17.8653829">
        <ele>30.8995</ele>
        <time>2013-06-03T13:49:20Z</time>
      </trkpt>
      <trkpt lat="59.996695" lon="17.8653685">
        <ele>30.8995</ele>
        <time>2013-06-03T13:49:21Z</time>
      </trkpt>
      <trkpt lat="59.9966251" lon="17.8653526">
        <ele>30.8995</ele>
        <time>2013-06-03T13:49:22Z</time>
      </trkpt>
      <trkpt lat="59.9965521" lon="17.8653318">
        <ele>30.8995</ele>
        <time>2013-06-03T13:49:23Z</time>
      </trkpt>
      <trkpt lat="59.9964779" lon="17.8653093">
        <ele>30.4188</ele>
        <time>2013-06-03T13:49:24Z</time>
      </trkpt>
      <trkpt lat="59.9964019" lon="17.8652858">
        <ele>29.9381</ele>
        <time>2013-06-03T13:49:25Z</time>
      </trkpt>
      <trkpt lat="59.9963237" lon="17.8652644">
        <ele>29.4575</ele>
        <time>2013-06-03T13:49:26Z</time>
      </trkpt>
      <trkpt lat="59.9962427" lon="17.8652427">
        <ele>28.9769</ele>
        <time>2013-06-03T13:49:27Z</time>
      </trkpt>
      <trkpt lat="59.9961572" lon="17.8652126">
        <ele>28.9769</ele>
        <time>2013-06-03T13:49:28Z</time>
      </trkpt>
      <trkpt lat="59.9960719" lon="17.8651822">
        <ele>28.9769</ele>
        <time>2013-06-03T13:49:29Z</time>
      </trkpt>
      <trkpt lat="59.9959899" lon="17.865156">
        <ele>28.0155</ele>
        <time>2013-06-03T13:49:30Z</time>
      </trkpt>
      <trkpt lat="59.9959007" lon="17.8651285">
        <ele>28.4962</ele>
        <time>2013-06-03T13:49:31Z</time>
      </trkpt>
      <trkpt lat="59.9958153" lon="17.8651075">
        <ele>28.0155</ele>
        <time>2013-06-03T13:49:32Z</time>
      </trkpt>
      <trkpt lat="59.9957294" lon="17.8650813">
        <ele>27.5349</ele>
        <time>2013-06-03T13:49:33Z</time>
      </trkpt>
      <trkpt lat="59.9956393" lon="17.8650541">
        <ele>28.0155</ele>
        <time>2013-06-03T13:49:34Z</time>
      </trkpt>
      <trkpt lat="59.9955512" lon="17.8650271">
        <ele>27.5349</ele>
        <time>2013-06-03T13:49:35Z</time>
      </trkpt>
      <trkpt lat="59.995463" lon="17.8650036">
        <ele>27.0543</ele>
        <time>2013-06-03T13:49:36Z</time>
      </trkpt>
      <trkpt lat="59.9953734" lon="17.8649812">
        <ele>26.5736</ele>
        <time>2013-06-03T13:49:37Z</time>
      </trkpt>
      <trkpt lat="59.9952812" lon="17.8649524">
        <ele>27.0543</ele>
        <time>2013-06-03T13:49:38Z</time>
      </trkpt>
      <trkpt lat="59.9951885" lon="17.8649232">
        <ele>26.5736</ele>
        <time>2013-06-03T13:49:39Z</time>
      </trkpt>
      <trkpt lat="59.9950934" lon="17.8648972">
        <ele>26.5736</ele>
        <time>2013-06-03T13:49:40Z</time>
      </trkpt>
      <trkpt lat="59.994998" lon="17.8648701">
        <ele>26.0929</ele>
        <time>2013-06-03T13:49:41Z</time>
      </trkpt>
      <trkpt lat="59.9949038" lon="17.8648396">
        <ele>25.6123</ele>
        <time>2013-06-03T13:49:42Z</time>
      </trkpt>
      <trkpt lat="59.9948108" lon="17.8648054">
        <ele>25.1317</ele>
        <time>2013-06-03T13:49:43Z</time>
      </trkpt>
      <trkpt lat="59.994717" lon="17.8647664">
        <ele>25.1317</ele>
        <time>2013-06-03T13:49:44Z</time>
      </trkpt>
      <trkpt lat="59.994623" lon="17.8647226">
        <ele>24.1703</ele>
        <time>2013-06-03T13:49:45Z</time>
      </trkpt>
      <trkpt lat="59.9945287" lon="17.8646707">
        <ele>24.1703</ele>
        <time>2013-06-03T13:49:46Z</time>
      </trkpt>
      <trkpt lat="59.9944345" lon="17.8646113">
        <ele>23.6896</ele>
        <time>2013-06-03T13:49:47Z</time>
      </trkpt>
      <trkpt lat="59.99434" lon="17.8645464">
        <ele>23.209</ele>
        <time>2013-06-03T13:49:48Z</time>
      </trkpt>
      <trkpt lat="59.9942462" lon="17.8644744">
        <ele>23.209</ele>
        <time>2013-06-03T13:49:49Z</time>
      </trkpt>
      <trkpt lat="59.994154" lon="17.8643922">
        <ele>22.7283</ele>
        <time>2013-06-03T13:49:50Z</time>
      </trkpt>
      <trkpt lat="59.9940618" lon="17.8643009">
        <ele>22.2476</ele>
        <time>2013-06-03T13:49:51Z</time>
      </trkpt>
      <trkpt lat="59.9939703" lon="17.8642077">
        <ele>21.2864</ele>
        <time>2013-06-03T13:49:52Z</time>
      </trkpt>
      <trkpt lat="59.9938765" lon="17.8641133">
        <ele>21.2864</ele>
        <time>2013-06-03T13:49:53Z</time>
      </trkpt>
      <trkpt lat="59.9937853" lon="17.8640113">
        <ele>20.8057</ele>
        <time>2013-06-03T13:49:54Z</time>
      </trkpt>
      <trkpt lat="59.9936945" lon="17.863903">
        <ele>20.8057</ele>
        <time>2013-06-03T13:49:55Z</time>
      </trkpt>
      <trkpt lat="59.9936045" lon="17.8637903">
        <ele>19.8444</ele>
        <time>2013-06-03T13:49:56Z</time>
      </trkpt>
      <trkpt lat="59.9935129" lon="17.8636744">
        <ele>19.3638</ele>
        <time>2013-06-03T13:49:57Z</time>
      </trkpt>
      <trkpt lat="59.9934196" lon="17.8635568">
        <ele>18.8831</ele>
        <time>2013-06-03T13:49:58Z</time>
      </trkpt>
      <trkpt lat="59.9933239" lon="17.8634348">
        <ele>18.8831</ele>
        <time>2013-06-03T13:49:59Z</time>
      </trkpt>
      <trkpt lat="59.9932268" lon="17.8633051">
        <ele>18.8831</ele>
        <time>2013-06-03T13:50:00Z</time>
      </trkpt>
      <trkpt lat="59.993129" lon="17.8631753">
        <ele>18.4023</ele>
        <time>2013-06-03T13:50:01Z</time>
      </trkpt>
      <trkpt lat="59.9930296" lon="17.8630442">
        <ele>18.4023</ele>
        <time>2013-06-03T13:50:02Z</time>
      </trkpt>
      <trkpt lat="59.9929292" lon="17.8629101">
        <ele>18.4023</ele>
        <time>2013-06-03T13:50:03Z</time>
      </trkpt>
      <trkpt lat="59.9928291" lon="17.8627764">
        <ele>18.8831</ele>
        <time>2013-06-03T13:50:04Z</time>
      </trkpt>
      <trkpt lat="59.9927286" lon="17.8626423">
        <ele>18.8831</ele>
        <time>2013-06-03T13:50:05Z</time>
      </trkpt>
      <trkpt lat="59.9926287" lon="17.8625107">
        <ele>19.3638</ele>
        <time>2013-06-03T13:50:06Z</time>
      </trkpt>
      <trkpt lat="59.9925298" lon="17.8623818">
        <ele>19.3638</ele>
        <time>2013-06-03T13:50:07Z</time>
      </trkpt>
      <trkpt lat="59.9924327" lon="17.8622542">
        <ele>19.8444</ele>
        <time>2013-06-03T13:50:08Z</time>
      </trkpt>
      <trkpt lat="59.9923376" lon="17.8621279">
        <ele>20.325</ele>
        <time>2013-06-03T13:50:09Z</time>
      </trkpt>
      <trkpt lat="59.9922448" lon="17.8620044">
        <ele>20.8057</ele>
        <time>2013-06-03T13:50:10Z</time>
      </trkpt>
      <trkpt lat="59.9921536" lon="17.8618839">
        <ele>20.8057</ele>
        <time>2013-06-03T13:50:11Z</time>
      </trkpt>
      <trkpt lat="59.992064" lon="17.8617668">
        <ele>20.8057</ele>
        <time>2013-06-03T13:50:12Z</time>
      </trkpt>
      <trkpt lat="59.9919748" lon="17.8616513">
        <ele>21.2864</ele>
        <time>2013-06-03T13:50:13Z</time>
      </trkpt>
      <trkpt lat="59.9918857" lon="17.8615358">
        <ele>21.2864</ele>
        <time>2013-06-03T13:50:14Z</time>
      </trkpt>
      <trkpt lat="59.9917972" lon="17.8614227">
        <ele>21.767</ele>
        <time>2013-06-03T13:50:15Z</time>
      </trkpt>
      <trkpt lat="59.9917092" lon="17.8613104">
        <ele>21.767</ele>
        <time>2013-06-03T13:50:16Z</time>
      </trkpt>
      <trkpt lat="59.9916201" lon="17.8612005">
        <ele>21.767</ele>
        <time>2013-06-03T13:50:17Z</time>
      </trkpt>
      <trkpt lat="59.9915295" lon="17.8610933">
        <ele>21.767</ele>
        <time>2013-06-03T13:50:18Z</time>
      </trkpt>
      <trkpt lat="59.9914375" lon="17.8609909">
        <ele>22.2476</ele>
        <time>2013-06-03T13:50:19Z</time>
      </trkpt>
      <trkpt lat="59.9913444" lon="17.8608961">
        <ele>22.2476</ele>
        <time>2013-06-03T13:50:20Z</time>
      </trkpt>
      <trkpt lat="59.9912511" lon="17.8608069">
        <ele>22.7283</ele>
        <time>2013-06-03T13:50:21Z</time>
      </trkpt>
      <trkpt lat="59.991158" lon="17.8607215">
        <ele>22.7283</ele>
        <time>2013-06-03T13:50:22Z</time>
      </trkpt>
      <trkpt lat="59.9910668" lon="17.860641">
        <ele>23.209</ele>
        <time>2013-06-03T13:50:23Z</time>
      </trkpt>
      <trkpt lat="59.9909773" lon="17.8605659">
        <ele>23.209</ele>
        <time>2013-06-03T13:50:24Z</time>
      </trkpt>
      <trkpt lat="59.9908893" lon="17.8604964">
        <ele>23.6896</ele>
        <time>2013-06-03T13:50:25Z</time>
      </trkpt>
      <trkpt lat="59.9908033" lon="17.860432">
        <ele>23.6896</ele>
        <time>2013-06-03T13:50:26Z</time>
      </trkpt>
      <trkpt lat="59.9907201" lon="17.8603711">
        <ele>24.1703</ele>
        <time>2013-06-03T13:50:27Z</time>
      </trkpt>
      <trkpt lat="59.9906391" lon="17.8603122">
        <ele>24.1703</ele>
        <time>2013-06-03T13:50:28Z</time>
      </trkpt>
      <trkpt lat="59.9905607" lon="17.8602562">
        <ele>24.651</ele>
        <time>2013-06-03T13:50:29Z</time>
      </trkpt>
      <trkpt lat="59.990485" lon="17.8602024">
        <ele>25.1317</ele>
        <time>2013-06-03T13:50:30Z</time>
      </trkpt>
      <trkpt lat="59.9904103" lon="17.8601505">
        <ele>25.1317</ele>
        <time>2013-06-03T13:50:31Z</time>
      </trkpt>
      <trkpt lat="59.9903358" lon="17.8600977">
        <ele>25.6123</ele>
        <time>2013-06-03T13:50:32Z</time>
      </trkpt>
      <trkpt lat="59.9902618" lon="17.8600417">
        <ele>26.0929</ele>
        <time>2013-06-03T13:50:33Z</time>
      </trkpt>
      <trkpt lat="59.9901898" lon="17.8599793">
        <ele>26.0929</ele>
        <time>2013-06-03T13:50:34Z</time>
      </trkpt>
      <trkpt lat="59.9901208" lon="17.8599099">
        <ele>26.5736</ele>
        <time>2013-06-03T13:50:35Z</time>
      </trkpt>
      <trkpt lat="59.9900557" lon="17.8598315">
        <ele>26.5736</ele>
        <time>2013-06-03T13:50:36Z</time>
      </trkpt>
      <trkpt lat="59.989993" lon="17.8597476">
        <ele>26.5736</ele>
        <time>2013-06-03T13:50:37Z</time>
      </trkpt>
      <trkpt lat="59.9899328" lon="17.8596612">
        <ele>26.5736</ele>
        <time>2013-06-03T13:50:38Z</time>
      </trkpt>
      <trkpt lat="59.9898738" lon="17.8595747">
        <ele>27.0543</ele>
        <time>2013-06-03T13:50:39Z</time>
      </trkpt>
      <trkpt lat="59.9898163" lon="17.859489">
        <ele>27.0543</ele>
        <time>2013-06-03T13:50:40Z</time>
      </trkpt>
      <trkpt lat="59.9897604" lon="17.8594031">
        <ele>27.0543</ele>
        <time>2013-06-03T13:50:41Z</time>
      </trkpt>
      <trkpt lat="59.989706" lon="17.8593145">
        <ele>27.0543</ele>
        <time>2013-06-03T13:50:42Z</time>
      </trkpt>
      <trkpt lat="59.9896542" lon="17.8592186">
        <ele>27.0543</ele>
        <time>2013-06-03T13:50:43Z</time>
      </trkpt>
      <trkpt lat="59.9896064" lon="17.8591137">
        <ele>27.5349</ele>
        <time>2013-06-03T13:50:44Z</time>
      </trkpt>
      <trkpt lat="59.9895618" lon="17.8590044">
        <ele>27.5349</ele>
        <time>2013-06-03T13:50:45Z</time>
      </trkpt>
      <trkpt lat="59.9895194" lon="17.8588929">
        <ele>27.5349</ele>
        <time>2013-06-03T13:50:46Z</time>
      </trkpt>
      <trkpt lat="59.98948" lon="17.8587788">
        <ele>27.5349</ele>
        <time>2013-06-03T13:50:47Z</time>
      </trkpt>
      <trkpt lat="59.9894453" lon="17.8586616">
        <ele>27.5349</ele>
        <time>2013-06-03T13:50:48Z</time>
      </trkpt>
      <trkpt lat="59.9894132" lon="17.8585422">
        <ele>27.5349</ele>
        <time>2013-06-03T13:50:49Z</time>
      </trkpt>
      <trkpt lat="59.9893828" lon="17.8584215">
        <ele>27.5349</ele>
        <time>2013-06-03T13:50:50Z</time>
      </trkpt>
      <trkpt lat="59.9893527" lon="17.8582988">
        <ele>27.5349</ele>
        <time>2013-06-03T13:50:51Z</time>
      </trkpt>
      <trkpt lat="59.9893216" lon="17.8581765">
        <ele>27.5349</ele>
        <time>2013-06-03T13:50:52Z</time>
      </trkpt>
      <trkpt lat="59.9892886" lon="17.8580558">
        <ele>27.5349</ele>
        <time>2013-06-03T13:50:53Z</time>
      </trkpt>
      <trkpt lat="59.9892531" lon="17.8579366">
        <ele>27.5349</ele>
        <time>2013-06-03T13:50:54Z</time>
      </trkpt>
      <trkpt lat="59.9892163" lon="17.8578185">
        <ele>27.5349</ele>
        <time>2013-06-03T13:50:55Z</time>
      </trkpt>
      <trkpt lat="59.9891783" lon="17.857702">
        <ele>27.5349</ele>
        <time>2013-06-03T13:50:56Z</time>
      </trkpt>
      <trkpt lat="59.9891353" lon="17.8575894">
        <ele>27.0543</ele>
        <time>2013-06-03T13:50:57Z</time>
      </trkpt>
      <trkpt lat="59.9890859" lon="17.8574834">
        <ele>27.0543</ele>
        <time>2013-06-03T13:50:58Z</time>
      </trkpt>
      <trkpt lat="59.9890299" lon="17.857386">
        <ele>27.0543</ele>
        <time>2013-06-03T13:50:59Z</time>
      </trkpt>
      <trkpt lat="59.9889685" lon="17.8572944">
        <ele>27.0543</ele>
        <time>2013-06-03T13:51:00Z</time>
      </trkpt>
      <trkpt lat="59.9889052" lon="17.857206">
        <ele>27.0543</ele>
        <time>2013-06-03T13:51:01Z</time>
      </trkpt>
      <trkpt lat="59.9888409" lon="17.8571172">
        <ele>27.0543</ele>
        <time>2013-06-03T13:51:02Z</time>
      </trkpt>
      <trkpt lat="59.988777" lon="17.8570275">
        <ele>27.0543</ele>
        <time>2013-06-03T13:51:03Z</time>
      </trkpt>
      <trkpt lat="59.9887123" lon="17.8569378">
        <ele>27.0543</ele>
        <time>2013-06-03T13:51:04Z</time>
      </trkpt>
      <trkpt lat="59.9886475" lon="17.8568452">
        <ele>27.0543</ele>
        <time>2013-06-03T13:51:05Z</time>
      </trkpt>
      <trkpt lat="59.9885851" lon="17.8567473">
        <ele>27.0543</ele>
        <time>2013-06-03T13:51:06Z</time>
      </trkpt>
      <trkpt lat="59.9885234" lon="17.8566458">
        <ele>26.5736</ele>
        <time>2013-06-03T13:51:07Z</time>
      </trkpt>
      <trkpt lat="59.9884597" lon="17.8565425">
        <ele>26.5736</ele>
        <time>2013-06-03T13:51:08Z</time>
      </trkpt>
      <trkpt lat="59.9883959" lon="17.8564406">
        <ele>26.0929</ele>
        <time>2013-06-03T13:51:09Z</time>
      </trkpt>
      <trkpt lat="59.9883308" lon="17.856336">
        <ele>26.0929</ele>
        <time>2013-06-03T13:51:10Z</time>
      </trkpt>
      <trkpt lat="59.9882652" lon="17.8562289">
        <ele>25.6123</ele>
        <time>2013-06-03T13:51:11Z</time>
      </trkpt>
      <trkpt lat="59.9881991" lon="17.8561215">
        <ele>25.6123</ele>
        <time>2013-06-03T13:51:12Z</time>
      </trkpt>
      <trkpt lat="59.9881316" lon="17.8560122">
        <ele>25.6123</ele>
        <time>2013-06-03T13:51:13Z</time>
      </trkpt>
      <trkpt lat="59.9880643" lon="17.8558993">
        <ele>25.1317</ele>
        <time>2013-06-03T13:51:14Z</time>
      </trkpt>
      <trkpt lat="59.9879976" lon="17.8557865">
        <ele>25.1317</ele>
        <time>2013-06-03T13:51:15Z</time>
      </trkpt>
      <trkpt lat="59.9879306" lon="17.855674">
        <ele>25.1317</ele>
        <time>2013-06-03T13:51:16Z</time>
      </trkpt>
      <trkpt lat="59.9878632" lon="17.8555637">
        <ele>24.651</ele>
        <time>2013-06-03T13:51:17Z</time>
      </trkpt>
      <trkpt lat="59.987797" lon="17.8554549">
        <ele>24.651</ele>
        <time>2013-06-03T13:51:18Z</time>
      </trkpt>
      <trkpt lat="59.9877324" lon="17.855348">
        <ele>24.651</ele>
        <time>2013-06-03T13:51:19Z</time>
      </trkpt>
      <trkpt lat="59.9876691" lon="17.8552407">
        <ele>25.1317</ele>
        <time>2013-06-03T13:51:20Z</time>
      </trkpt>
      <trkpt lat="59.9876066" lon="17.855132">
        <ele>24.651</ele>
        <time>2013-06-03T13:51:21Z</time>
      </trkpt>
      <trkpt lat="59.9875454" lon="17.8550244">
        <ele>25.1317</ele>
        <time>2013-06-03T13:51:22Z</time>
      </trkpt>
      <trkpt lat="59.9874858" lon="17.8549202">
        <ele>25.1317</ele>
        <time>2013-06-03T13:51:23Z</time>
      </trkpt>
      <trkpt lat="59.9874288" lon="17.8548157">
        <ele>25.1317</ele>
        <time>2013-06-03T13:51:24Z</time>
      </trkpt>
      <trkpt lat="59.9873727" lon="17.8547105">
        <ele>25.6123</ele>
        <time>2013-06-03T13:51:25Z</time>
      </trkpt>
      <trkpt lat="59.9873173" lon="17.8546072">
        <ele>25.6123</ele>
        <time>2013-06-03T13:51:26Z</time>
      </trkpt>
      <trkpt lat="59.9872626" lon="17.854499">
        <ele>25.6123</ele>
        <time>2013-06-03T13:51:27Z</time>
      </trkpt>
      <trkpt lat="59.9872081" lon="17.8543836">
        <ele>26.5736</ele>
        <time>2013-06-03T13:51:28Z</time>
      </trkpt>
      <trkpt lat="59.9871525" lon="17.8542717">
        <ele>26.5736</ele>
        <time>2013-06-03T13:51:29Z</time>
      </trkpt>
      <trkpt lat="59.9870978" lon="17.8541624">
        <ele>26.5736</ele>
        <time>2013-06-03T13:51:30Z</time>
      </trkpt>
      <trkpt lat="59.9870404" lon="17.8540561">
        <ele>26.5736</ele>
        <time>2013-06-03T13:51:31Z</time>
      </trkpt>
      <trkpt lat="59.986979" lon="17.8539511">
        <ele>26.0929</ele>
        <time>2013-06-03T13:51:32Z</time>
      </trkpt>
      <trkpt lat="59.9869104" lon="17.8538517">
        <ele>25.6123</ele>
        <time>2013-06-03T13:51:33Z</time>
      </trkpt>
      <trkpt lat="59.9868348" lon="17.8537656">
        <ele>25.1317</ele>
        <time>2013-06-03T13:51:34Z</time>
      </trkpt>
      <trkpt lat="59.9867554" lon="17.8536924">
        <ele>25.1317</ele>
        <time>2013-06-03T13:51:35Z</time>
      </trkpt>
      <trkpt lat="59.9866734" lon="17.8536299">
        <ele>25.1317</ele>
        <time>2013-06-03T13:51:36Z</time>
      </trkpt>
      <trkpt lat="59.9865911" lon="17.8535746">
        <ele>25.1317</ele>
        <time>2013-06-03T13:51:37Z</time>
      </trkpt>
      <trkpt lat="59.9865105" lon="17.8535207">
        <ele>25.1317</ele>
        <time>2013-06-03T13:51:38Z</time>
      </trkpt>
      <trkpt lat="59.9864317" lon="17.8534667">
        <ele>25.6123</ele>
        <time>2013-06-03T13:51:39Z</time>
      </trkpt>
      <trkpt lat="59.9863532" lon="17.8534143">
        <ele>25.6123</ele>
        <time>2013-06-03T13:51:40Z</time>
      </trkpt>
      <trkpt lat="59.9862751" lon="17.8533642">
        <ele>26.0929</ele>
        <time>2013-06-03T13:51:41Z</time>
      </trkpt>
      <trkpt lat="59.9861985" lon="17.8533151">
        <ele>26.0929</ele>
        <time>2013-06-03T13:51:42Z</time>
      </trkpt>
      <trkpt lat="59.986124" lon="17.8532684">
        <ele>26.5736</ele>
        <time>2013-06-03T13:51:43Z</time>
      </trkpt>
      <trkpt lat="59.9860515" lon="17.8532236">
        <ele>27.0543</ele>
        <time>2013-06-03T13:51:44Z</time>
      </trkpt>
      <trkpt lat="59.9859832" lon="17.8531738">
        <ele>28.4962</ele>
        <time>2013-06-03T13:51:45Z</time>
      </trkpt>
      <trkpt lat="59.9859161" lon="17.8531278">
        <ele>29.4575</ele>
        <time>2013-06-03T13:51:46Z</time>
      </trkpt>
      <trkpt lat="59.9858504" lon="17.853085">
        <ele>30.4188</ele>
        <time>2013-06-03T13:51:47Z</time>
      </trkpt>
      <trkpt lat="59.9857831" lon="17.8530512">
        <ele>30.8995</ele>
        <time>2013-06-03T13:51:48Z</time>
      </trkpt>
      <trkpt lat="59.98572" lon="17.8530143">
        <ele>31.8607</ele>
        <time>2013-06-03T13:51:49Z</time>
      </trkpt>
      <trkpt lat="59.9856573" lon="17.8529793">
        <ele>32.8223</ele>
        <time>2013-06-03T13:51:50Z</time>
      </trkpt>
      <trkpt lat="59.9855928" lon="17.8529525">
        <ele>33.3029</ele>
        <time>2013-06-03T13:51:51Z</time>
      </trkpt>
      <trkpt lat="59.9855263" lon="17.8529314">
        <ele>33.3029</ele>
        <time>2013-06-03T13:51:52Z</time>
      </trkpt>
      <trkpt lat="59.9854599" lon="17.8529108">
        <ele>33.7834</ele>
        <time>2013-06-03T13:51:53Z</time>
      </trkpt>
      <trkpt lat="59.9853918" lon="17.8528969">
        <ele>33.7834</ele>
        <time>2013-06-03T13:51:54Z</time>
      </trkpt>
      <trkpt lat="59.9853231" lon="17.852888">
        <ele>34.2642</ele>
        <time>2013-06-03T13:51:55Z</time>
      </trkpt>
      <trkpt lat="59.98525" lon="17.8528869">
        <ele>34.2642</ele>
        <time>2013-06-03T13:51:56Z</time>
      </trkpt>
      <trkpt lat="59.9851703" lon="17.8528985">
        <ele>34.2642</ele>
        <time>2013-06-03T13:51:57Z</time>
      </trkpt>
      <trkpt lat="59.9850906" lon="17.852917">
        <ele>34.2642</ele>
        <time>2013-06-03T13:51:58Z</time>
      </trkpt>
      <trkpt lat="59.9850103" lon="17.8529397">
        <ele>34.2642</ele>
        <time>2013-06-03T13:51:59Z</time>
      </trkpt>
      <trkpt lat="59.9849265" lon="17.8529669">
        <ele>33.3029</ele>
        <time>2013-06-03T13:52:00Z</time>
      </trkpt>
      <trkpt lat="59.9848459" lon="17.8529834">
        <ele>32.3416</ele>
        <time>2013-06-03T13:52:01Z</time>
      </trkpt>
      <trkpt lat="59.9847668" lon="17.8529916">
        <ele>32.3416</ele>
        <time>2013-06-03T13:52:02Z</time>
      </trkpt>
      <trkpt lat="59.9846905" lon="17.8529859">
        <ele>32.3416</ele>
        <time>2013-06-03T13:52:03Z</time>
      </trkpt>
      <trkpt lat="59.9846138" lon="17.8529643">
        <ele>32.3416</ele>
        <time>2013-06-03T13:52:04Z</time>
      </trkpt>
      <trkpt lat="59.9845389" lon="17.8529373">
        <ele>32.3416</ele>
        <time>2013-06-03T13:52:05Z</time>
      </trkpt>
      <trkpt lat="59.9844661" lon="17.8529078">
        <ele>32.3416</ele>
        <time>2013-06-03T13:52:06Z</time>
      </trkpt>
      <trkpt lat="59.9843969" lon="17.8528715">
        <ele>32.8223</ele>
        <time>2013-06-03T13:52:07Z</time>
      </trkpt>
      <trkpt lat="59.9843307" lon="17.8528287">
        <ele>33.3029</ele>
        <time>2013-06-03T13:52:08Z</time>
      </trkpt>
      <trkpt lat="59.9842672" lon="17.8527755">
        <ele>33.7834</ele>
        <time>2013-06-03T13:52:09Z</time>
      </trkpt>
      <trkpt lat="59.9842022" lon="17.8527218">
        <ele>33.3029</ele>
        <time>2013-06-03T13:52:10Z</time>
      </trkpt>
      <trkpt lat="59.9841414" lon="17.8526615">
        <ele>33.7834</ele>
        <time>2013-06-03T13:52:11Z</time>
      </trkpt>
      <trkpt lat="59.9840821" lon="17.852597">
        <ele>33.3029</ele>
        <time>2013-06-03T13:52:12Z</time>
      </trkpt>
      <trkpt lat="59.9840246" lon="17.8525287">
        <ele>33.7834</ele>
        <time>2013-06-03T13:52:13Z</time>
      </trkpt>
      <trkpt lat="59.9839674" lon="17.8524616">
        <ele>34.2642</ele>
        <time>2013-06-03T13:52:14Z</time>
      </trkpt>
      <trkpt lat="59.9839116" lon="17.8523906">
        <ele>34.7449</ele>
        <time>2013-06-03T13:52:15Z</time>
      </trkpt>
      <trkpt lat="59.9838556" lon="17.8523168">
        <ele>35.2255</ele>
        <time>2013-06-03T13:52:16Z</time>
      </trkpt>
      <trkpt lat="59.9837992" lon="17.8522473">
        <ele>35.7061</ele>
        <time>2013-06-03T13:52:17Z</time>
      </trkpt>
      <trkpt lat="59.9837411" lon="17.8521868">
        <ele>36.1868</ele>
        <time>2013-06-03T13:52:18Z</time>
      </trkpt>
      <trkpt lat="59.9836822" lon="17.8521261">
        <ele>35.2255</ele>
        <time>2013-06-03T13:52:19Z</time>
      </trkpt>
      <trkpt lat="59.9836296" lon="17.8520617">
        <ele>34.7449</ele>
        <time>2013-06-03T13:52:20Z</time>
      </trkpt>
      <trkpt lat="59.9835786" lon="17.8520047">
        <ele>35.2255</ele>
        <time>2013-06-03T13:52:21Z</time>
      </trkpt>
      <trkpt lat="59.9835293" lon="17.8519457">
        <ele>35.2255</ele>
        <time>2013-06-03T13:52:22Z</time>
      </trkpt>
      <trkpt lat="59.9834812" lon="17.8518897">
        <ele>35.7061</ele>
        <time>2013-06-03T13:52:23Z</time>
      </trkpt>
      <trkpt lat="59.9834334" lon="17.8518293">
        <ele>35.2255</ele>
        <time>2013-06-03T13:52:24Z</time>
      </trkpt>
      <trkpt lat="59.9833876" lon="17.8517521">
        <ele>34.7449</ele>
        <time>2013-06-03T13:52:25Z</time>
      </trkpt>
      <trkpt lat="59.9833386" lon="17.8516879">
        <ele>34.7449</ele>
        <time>2013-06-03T13:52:26Z</time>
      </trkpt>
      <trkpt lat="59.9832925" lon="17.851625">
        <ele>34.7449</ele>
        <time>2013-06-03T13:52:27Z</time>
      </trkpt>
      <trkpt lat="59.983246" lon="17.8515605">
        <ele>34.2642</ele>
        <time>2013-06-03T13:52:28Z</time>
      </trkpt>
      <trkpt lat="59.9831932" lon="17.8514912">
        <ele>33.3029</ele>
        <time>2013-06-03T13:52:29Z</time>
      </trkpt>
      <trkpt lat="59.9831335" lon="17.8514149">
        <ele>33.3029</ele>
        <time>2013-06-03T13:52:30Z</time>
      </trkpt>
      <trkpt lat="59.983075" lon="17.8513256">
        <ele>33.7834</ele>
        <time>2013-06-03T13:52:31Z</time>
      </trkpt>
      <trkpt lat="59.9830137" lon="17.8512274">
        <ele>33.7834</ele>
        <time>2013-06-03T13:52:32Z</time>
      </trkpt>
      <trkpt lat="59.9829558" lon="17.8511284">
        <ele>33.3029</ele>
        <time>2013-06-03T13:52:33Z</time>
      </trkpt>
      <trkpt lat="59.9828968" lon="17.8510274">
        <ele>33.3029</ele>
        <time>2013-06-03T13:52:34Z</time>
      </trkpt>
      <trkpt lat="59.9828415" lon="17.8509226">
        <ele>32.8223</ele>
        <time>2013-06-03T13:52:35Z</time>
      </trkpt>
      <trkpt lat="59.9827864" lon="17.8508067">
        <ele>32.8223</ele>
        <time>2013-06-03T13:52:36Z</time>
      </trkpt>
      <trkpt lat="59.9827294" lon="17.8506825">
        <ele>32.8223</ele>
        <time>2013-06-03T13:52:37Z</time>
      </trkpt>
      <trkpt lat="59.9826702" lon="17.8505586">
        <ele>32.3416</ele>
        <time>2013-06-03T13:52:38Z</time>
      </trkpt>
      <trkpt lat="59.9826101" lon="17.8504306">
        <ele>31.3801</ele>
        <time>2013-06-03T13:52:39Z</time>
      </trkpt>
      <trkpt lat="59.9825488" lon="17.8503001">
        <ele>31.3801</ele>
        <time>2013-06-03T13:52:40Z</time>
      </trkpt>
      <trkpt lat="59.9824838" lon="17.8501655">
        <ele>31.3801</ele>
        <time>2013-06-03T13:52:41Z</time>
      </trkpt>
      <trkpt lat="59.9824162" lon="17.8500303">
        <ele>31.3801</ele>
        <time>2013-06-03T13:52:42Z</time>
      </trkpt>
      <trkpt lat="59.9823477" lon="17.8499013">
        <ele>30.8995</ele>
        <time>2013-06-03T13:52:43Z</time>
      </trkpt>
      <trkpt lat="59.9822782" lon="17.8497796">
        <ele>30.8995</ele>
        <time>2013-06-03T13:52:44Z</time>
      </trkpt>
      <trkpt lat="59.9822071" lon="17.8496619">
        <ele>30.4188</ele>
        <time>2013-06-03T13:52:45Z</time>
      </trkpt>
      <trkpt lat="59.9821327" lon="17.8495618">
        <ele>30.4188</ele>
        <time>2013-06-03T13:52:46Z</time>
      </trkpt>
      <trkpt lat="59.9820555" lon="17.8494701">
        <ele>30.4188</ele>
        <time>2013-06-03T13:52:47Z</time>
      </trkpt>
      <trkpt lat="59.9819738" lon="17.8493712">
        <ele>30.4188</ele>
        <time>2013-06-03T13:52:48Z</time>
      </trkpt>
      <trkpt lat="59.9818955" lon="17.8492838">
        <ele>30.4188</ele>
        <time>2013-06-03T13:52:49Z</time>
      </trkpt>
      <trkpt lat="59.9818188" lon="17.8491984">
        <ele>30.4188</ele>
        <time>2013-06-03T13:52:50Z</time>
      </trkpt>
      <trkpt lat="59.981743" lon="17.8491139">
        <ele>29.9381</ele>
        <time>2013-06-03T13:52:51Z</time>
      </trkpt>
      <trkpt lat="59.9816686" lon="17.8490196">
        <ele>29.9381</ele>
        <time>2013-06-03T13:52:52Z</time>
      </trkpt>
      <trkpt lat="59.9815966" lon="17.848915">
        <ele>29.4575</ele>
        <time>2013-06-03T13:52:53Z</time>
      </trkpt>
      <trkpt lat="59.9815303" lon="17.8488021">
        <ele>29.4575</ele>
        <time>2013-06-03T13:52:54Z</time>
      </trkpt>
      <trkpt lat="59.9814676" lon="17.8486841">
        <ele>29.4575</ele>
        <time>2013-06-03T13:52:55Z</time>
      </trkpt>
      <trkpt lat="59.9814086" lon="17.8485565">
        <ele>28.9769</ele>
        <time>2013-06-03T13:52:56Z</time>
      </trkpt>
      <trkpt lat="59.9813516" lon="17.848426">
        <ele>28.9769</ele>
        <time>2013-06-03T13:52:57Z</time>
      </trkpt>
      <trkpt lat="59.9812951" lon="17.8482903">
        <ele>28.9769</ele>
        <time>2013-06-03T13:52:58Z</time>
      </trkpt>
      <trkpt lat="59.9812387" lon="17.8481534">
        <ele>28.9769</ele>
        <time>2013-06-03T13:52:59Z</time>
      </trkpt>
      <trkpt lat="59.9811831" lon="17.8480171">
        <ele>28.9769</ele>
        <time>2013-06-03T13:53:00Z</time>
      </trkpt>
      <trkpt lat="59.9811281" lon="17.8478813">
        <ele>28.9769</ele>
        <time>2013-06-03T13:53:01Z</time>
      </trkpt>
      <trkpt lat="59.981073" lon="17.8477494">
        <ele>29.4575</ele>
        <time>2013-06-03T13:53:02Z</time>
      </trkpt>
      <trkpt lat="59.9810185" lon="17.8476189">
        <ele>28.9769</ele>
        <time>2013-06-03T13:53:03Z</time>
      </trkpt>
      <trkpt lat="59.9809629" lon="17.8474939">
        <ele>28.4962</ele>
        <time>2013-06-03T13:53:04Z</time>
      </trkpt>
      <trkpt lat="59.9809095" lon="17.8473744">
        <ele>28.4962</ele>
        <time>2013-06-03T13:53:05Z</time>
      </trkpt>
      <trkpt lat="59.9808584" lon="17.8472578">
        <ele>28.9769</ele>
        <time>2013-06-03T13:53:06Z</time>
      </trkpt>
      <trkpt lat="59.9808041" lon="17.8471482">
        <ele>28.9769</ele>
        <time>2013-06-03T13:53:07Z</time>
      </trkpt>
      <trkpt lat="59.980745" lon="17.8470468">
        <ele>28.9769</ele>
        <time>2013-06-03T13:53:08Z</time>
      </trkpt>
      <trkpt lat="59.9806823" lon="17.8469526">
        <ele>28.9769</ele>
        <time>2013-06-03T13:53:09Z</time>
      </trkpt>
      <trkpt lat="59.9806169" lon="17.8468629">
        <ele>28.9769</ele>
        <time>2013-06-03T13:53:10Z</time>
      </trkpt>
      <trkpt lat="59.9805539" lon="17.8467829">
        <ele>29.4575</ele>
        <time>2013-06-03T13:53:11Z</time>
      </trkpt>
      <trkpt lat="59.9804914" lon="17.8467097">
        <ele>29.4575</ele>
        <time>2013-06-03T13:53:12Z</time>
      </trkpt>
      <trkpt lat="59.980429" lon="17.846642">
        <ele>29.4575</ele>
        <time>2013-06-03T13:53:13Z</time>
      </trkpt>
      <trkpt lat="59.9803679" lon="17.8465794">
        <ele>29.9381</ele>
        <time>2013-06-03T13:53:14Z</time>
      </trkpt>
      <trkpt lat="59.9803068" lon="17.8465222">
        <ele>29.9381</ele>
        <time>2013-06-03T13:53:15Z</time>
      </trkpt>
      <trkpt lat="59.9802461" lon="17.8464724">
        <ele>29.9381</ele>
        <time>2013-06-03T13:53:16Z</time>
      </trkpt>
      <trkpt lat="59.9801848" lon="17.8464254">
        <ele>29.9381</ele>
        <time>2013-06-03T13:53:17Z</time>
      </trkpt>
      <trkpt lat="59.980124" lon="17.8463828">
        <ele>30.4188</ele>
        <time>2013-06-03T13:53:18Z</time>
      </trkpt>
      <trkpt lat="59.9800627" lon="17.8463477">
        <ele>30.4188</ele>
        <time>2013-06-03T13:53:19Z</time>
      </trkpt>
      <trkpt lat="59.9800009" lon="17.8463161">
        <ele>30.8995</ele>
        <time>2013-06-03T13:53:20Z</time>
      </trkpt>
      <trkpt lat="59.9799365" lon="17.8462902">
        <ele>31.3801</ele>
        <time>2013-06-03T13:53:21Z</time>
      </trkpt>
      <trkpt lat="59.9798688" lon="17.8462698">
        <ele>31.3801</ele>
        <time>2013-06-03T13:53:22Z</time>
      </trkpt>
      <trkpt lat="59.9797986" lon="17.8462517">
        <ele>31.3801</ele>
        <time>2013-06-03T13:53:23Z</time>
      </trkpt>
      <trkpt lat="59.9797274" lon="17.8462358">
        <ele>31.3801</ele>
        <time>2013-06-03T13:53:24Z</time>
      </trkpt>
      <trkpt lat="59.979654" lon="17.8462276">
        <ele>31.3801</ele>
        <time>2013-06-03T13:53:25Z</time>
      </trkpt>
      <trkpt lat="59.9795748" lon="17.8462373">
        <ele>30.4188</ele>
        <time>2013-06-03T13:53:26Z</time>
      </trkpt>
      <trkpt lat="59.9794986" lon="17.8462499">
        <ele>30.8995</ele>
        <time>2013-06-03T13:53:27Z</time>
      </trkpt>
      <trkpt lat="59.9794214" lon="17.8462571">
        <ele>30.8995</ele>
        <time>2013-06-03T13:53:28Z</time>
      </trkpt>
      <trkpt lat="59.9793446" lon="17.8462667">
        <ele>30.8995</ele>
        <time>2013-06-03T13:53:29Z</time>
      </trkpt>
      <trkpt lat="59.979266" lon="17.8462835">
        <ele>30.8995</ele>
        <time>2013-06-03T13:53:30Z</time>
      </trkpt>
      <trkpt lat="59.9791861" lon="17.846304">
        <ele>30.4188</ele>
        <time>2013-06-03T13:53:31Z</time>
      </trkpt>
      <trkpt lat="59.9791054" lon="17.8463274">
        <ele>30.4188</ele>
        <time>2013-06-03T13:53:32Z</time>
      </trkpt>
      <trkpt lat="59.9790206" lon="17.8463569">
        <ele>30.8995</ele>
        <time>2013-06-03T13:53:33Z</time>
      </trkpt>
      <trkpt lat="59.9789386" lon="17.8463907">
        <ele>31.3801</ele>
        <time>2013-06-03T13:53:34Z</time>
      </trkpt>
      <trkpt lat="59.978854" lon="17.846414">
        <ele>30.8995</ele>
        <time>2013-06-03T13:53:35Z</time>
      </trkpt>
      <trkpt lat="59.9787683" lon="17.8464306">
        <ele>30.4188</ele>
        <time>2013-06-03T13:53:36Z</time>
      </trkpt>
      <trkpt lat="59.9786843" lon="17.846445">
        <ele>29.9381</ele>
        <time>2013-06-03T13:53:37Z</time>
      </trkpt>
      <trkpt lat="59.9786008" lon="17.846458">
        <ele>29.9381</ele>
        <time>2013-06-03T13:53:38Z</time>
      </trkpt>
      <trkpt lat="59.9785163" lon="17.8464687">
        <ele>29.4575</ele>
        <time>2013-06-03T13:53:39Z</time>
      </trkpt>
      <trkpt lat="59.9784321" lon="17.8464793">
        <ele>29.9381</ele>
        <time>2013-06-03T13:53:40Z</time>
      </trkpt>
      <trkpt lat="59.9783471" lon="17.8464876">
        <ele>29.9381</ele>
        <time>2013-06-03T13:53:41Z</time>
      </trkpt>
      <trkpt lat="59.9782611" lon="17.8464891">
        <ele>29.4575</ele>
        <time>2013-06-03T13:53:42Z</time>
      </trkpt>
      <trkpt lat="59.9781745" lon="17.8464834">
        <ele>29.4575</ele>
        <time>2013-06-03T13:53:43Z</time>
      </trkpt>
      <trkpt lat="59.9780876" lon="17.8464714">
        <ele>29.4575</ele>
        <time>2013-06-03T13:53:44Z</time>
      </trkpt>
      <trkpt lat="59.9780005" lon="17.8464542">
        <ele>28.9769</ele>
        <time>2013-06-03T13:53:45Z</time>
      </trkpt>
      <trkpt lat="59.9779136" lon="17.8464335">
        <ele>28.9769</ele>
        <time>2013-06-03T13:53:46Z</time>
      </trkpt>
      <trkpt lat="59.9778269" lon="17.8464078">
        <ele>28.9769</ele>
        <time>2013-06-03T13:53:47Z</time>
      </trkpt>
      <trkpt lat="59.9777384" lon="17.8463784">
        <ele>28.4962</ele>
        <time>2013-06-03T13:53:48Z</time>
      </trkpt>
      <trkpt lat="59.977653" lon="17.8463385">
        <ele>28.4962</ele>
        <time>2013-06-03T13:53:49Z</time>
      </trkpt>
      <trkpt lat="59.9775678" lon="17.8462995">
        <ele>28.4962</ele>
        <time>2013-06-03T13:53:50Z</time>
      </trkpt>
      <trkpt lat="59.9774839" lon="17.846255">
        <ele>28.9769</ele>
        <time>2013-06-03T13:53:51Z</time>
      </trkpt>
      <trkpt lat="59.9774006" lon="17.8462047">
        <ele>28.9769</ele>
        <time>2013-06-03T13:53:52Z</time>
      </trkpt>
      <trkpt lat="59.9773183" lon="17.8461487">
        <ele>28.9769</ele>
        <time>2013-06-03T13:53:53Z</time>
      </trkpt>
      <trkpt lat="59.977238" lon="17.8460907">
        <ele>29.4575</ele>
        <time>2013-06-03T13:53:54Z</time>
      </trkpt>
      <trkpt lat="59.9771579" lon="17.8460311">
        <ele>29.4575</ele>
        <time>2013-06-03T13:53:55Z</time>
      </trkpt>
      <trkpt lat="59.9770785" lon="17.8459727">
        <ele>29.4575</ele>
        <time>2013-06-03T13:53:56Z</time>
      </trkpt>
      <trkpt lat="59.9769996" lon="17.8459122">
        <ele>29.4575</ele>
        <time>2013-06-03T13:53:57Z</time>
      </trkpt>
      <trkpt lat="59.9769199" lon="17.8458546">
        <ele>29.4575</ele>
        <time>2013-06-03T13:53:58Z</time>
      </trkpt>
      <trkpt lat="59.9768393" lon="17.8457975">
        <ele>29.4575</ele>
        <time>2013-06-03T13:53:59Z</time>
      </trkpt>
      <trkpt lat="59.97676" lon="17.8457375">
        <ele>29.4575</ele>
        <time>2013-06-03T13:54:00Z</time>
      </trkpt>
      <trkpt lat="59.9766802" lon="17.8456789">
        <ele>29.4575</ele>
        <time>2013-06-03T13:54:01Z</time>
      </trkpt>
      <trkpt lat="59.9765991" lon="17.8456213">
        <ele>29.4575</ele>
        <time>2013-06-03T13:54:02Z</time>
      </trkpt>
      <trkpt lat="59.9765166" lon="17.8455635">
        <ele>28.9769</ele>
        <time>2013-06-03T13:54:03Z</time>
      </trkpt>
      <trkpt lat="59.9764336" lon="17.8455061">
        <ele>28.9769</ele>
        <time>2013-06-03T13:54:04Z</time>
      </trkpt>
      <trkpt lat="59.9763515" lon="17.8454475">
        <ele>28.9769</ele>
        <time>2013-06-03T13:54:05Z</time>
      </trkpt>
      <trkpt lat="59.9762702" lon="17.8453892">
        <ele>28.9769</ele>
        <time>2013-06-03T13:54:06Z</time>
      </trkpt>
      <trkpt lat="59.9761896" lon="17.8453309">
        <ele>28.9769</ele>
        <time>2013-06-03T13:54:07Z</time>
      </trkpt>
      <trkpt lat="59.9761087" lon="17.8452743">
        <ele>28.9769</ele>
        <time>2013-06-03T13:54:08Z</time>
      </trkpt>
      <trkpt lat="59.9760284" lon="17.8452162">
        <ele>28.9769</ele>
        <time>2013-06-03T13:54:09Z</time>
      </trkpt>
      <trkpt lat="59.9759485" lon="17.8451571">
        <ele>28.4962</ele>
        <time>2013-06-03T13:54:10Z</time>
      </trkpt>
      <trkpt lat="59.9758672" lon="17.8450983">
        <ele>28.4962</ele>
        <time>2013-06-03T13:54:11Z</time>
      </trkpt>
      <trkpt lat="59.9757855" lon="17.8450411">
        <ele>28.4962</ele>
        <time>2013-06-03T13:54:12Z</time>
      </trkpt>
      <trkpt lat="59.9757026" lon="17.8449822">
        <ele>28.9769</ele>
        <time>2013-06-03T13:54:13Z</time>
      </trkpt>
      <trkpt lat="59.9756183" lon="17.8449197">
        <ele>28.9769</ele>
        <time>2013-06-03T13:54:14Z</time>
      </trkpt>
      <trkpt lat="59.9755349" lon="17.8448538">
        <ele>28.9769</ele>
        <time>2013-06-03T13:54:15Z</time>
      </trkpt>
      <trkpt lat="59.9754519" lon="17.8447777">
        <ele>28.9769</ele>
        <time>2013-06-03T13:54:16Z</time>
      </trkpt>
      <trkpt lat="59.975371" lon="17.8446932">
        <ele>29.4575</ele>
        <time>2013-06-03T13:54:17Z</time>
      </trkpt>
      <trkpt lat="59.9752914" lon="17.8445962">
        <ele>29.4575</ele>
        <time>2013-06-03T13:54:18Z</time>
      </trkpt>
      <trkpt lat="59.975214" lon="17.8444964">
        <ele>29.9381</ele>
        <time>2013-06-03T13:54:19Z</time>
      </trkpt>
      <trkpt lat="59.9751379" lon="17.8443926">
        <ele>30.4188</ele>
        <time>2013-06-03T13:54:20Z</time>
      </trkpt>
      <trkpt lat="59.9750614" lon="17.8442892">
        <ele>30.8995</ele>
        <time>2013-06-03T13:54:21Z</time>
      </trkpt>
      <trkpt lat="59.9749832" lon="17.8441942">
        <ele>30.8995</ele>
        <time>2013-06-03T13:54:22Z</time>
      </trkpt>
      <trkpt lat="59.9749033" lon="17.8441052">
        <ele>31.3801</ele>
        <time>2013-06-03T13:54:23Z</time>
      </trkpt>
      <trkpt lat="59.9748209" lon="17.8440217">
        <ele>31.3801</ele>
        <time>2013-06-03T13:54:24Z</time>
      </trkpt>
      <trkpt lat="59.9747358" lon="17.8439467">
        <ele>31.8607</ele>
        <time>2013-06-03T13:54:25Z</time>
      </trkpt>
      <trkpt lat="59.974649" lon="17.8438767">
        <ele>31.8607</ele>
        <time>2013-06-03T13:54:26Z</time>
      </trkpt>
      <trkpt lat="59.9745613" lon="17.8438204">
        <ele>32.3416</ele>
        <time>2013-06-03T13:54:27Z</time>
      </trkpt>
      <trkpt lat="59.974472" lon="17.8437665">
        <ele>32.8223</ele>
        <time>2013-06-03T13:54:28Z</time>
      </trkpt>
      <trkpt lat="59.9743812" lon="17.8437165">
        <ele>32.8223</ele>
        <time>2013-06-03T13:54:29Z</time>
      </trkpt>
      <trkpt lat="59.9742891" lon="17.8436651">
        <ele>32.8223</ele>
        <time>2013-06-03T13:54:30Z</time>
      </trkpt>
      <trkpt lat="59.9741954" lon="17.8436197">
        <ele>32.3416</ele>
        <time>2013-06-03T13:54:31Z</time>
      </trkpt>
      <trkpt lat="59.9741041" lon="17.843578">
        <ele>32.3416</ele>
        <time>2013-06-03T13:54:32Z</time>
      </trkpt>
      <trkpt lat="59.9740129" lon="17.8435275">
        <ele>31.8607</ele>
        <time>2013-06-03T13:54:33Z</time>
      </trkpt>
      <trkpt lat="59.9739234" lon="17.8434809">
        <ele>31.3801</ele>
        <time>2013-06-03T13:54:34Z</time>
      </trkpt>
      <trkpt lat="59.9738332" lon="17.8434395">
        <ele>31.3801</ele>
        <time>2013-06-03T13:54:35Z</time>
      </trkpt>
      <trkpt lat="59.9737449" lon="17.8433909">
        <ele>30.8995</ele>
        <time>2013-06-03T13:54:36Z</time>
      </trkpt>
      <trkpt lat="59.9736622" lon="17.8433328">
        <ele>30.8995</ele>
        <time>2013-06-03T13:54:37Z</time>
      </trkpt>
      <trkpt lat="59.9735814" lon="17.8432661">
        <ele>30.4188</ele>
        <time>2013-06-03T13:54:38Z</time>
      </trkpt>
      <trkpt lat="59.9735073" lon="17.8431888">
        <ele>30.8995</ele>
        <time>2013-06-03T13:54:39Z</time>
      </trkpt>
      <trkpt lat="59.9734358" lon="17.8431128">
        <ele>31.3801</ele>
        <time>2013-06-03T13:54:40Z</time>
      </trkpt>
      <trkpt lat="59.9733669" lon="17.8430336">
        <ele>31.3801</ele>
        <time>2013-06-03T13:54:41Z</time>
      </trkpt>
      <trkpt lat="59.973298" lon="17.8429566">
        <ele>31.8607</ele>
        <time>2013-06-03T13:54:42Z</time>
      </trkpt>
      <trkpt lat="59.9732284" lon="17.8428812">
        <ele>31.8607</ele>
        <time>2013-06-03T13:54:43Z</time>
      </trkpt>
      <trkpt lat="59.9731591" lon="17.8428046">
        <ele>31.8607</ele>
        <time>2013-06-03T13:54:44Z</time>
      </trkpt>
      <trkpt lat="59.9730918" lon="17.8427273">
        <ele>31.8607</ele>
        <time>2013-06-03T13:54:45Z</time>
      </trkpt>
      <trkpt lat="59.9730245" lon="17.8426531">
        <ele>32.3416</ele>
        <time>2013-06-03T13:54:46Z</time>
      </trkpt>
      <trkpt lat="59.9729561" lon="17.842574">
        <ele>32.3416</ele>
        <time>2013-06-03T13:54:47Z</time>
      </trkpt>
      <trkpt lat="59.9728878" lon="17.8424947">
        <ele>31.8607</ele>
        <time>2013-06-03T13:54:48Z</time>
      </trkpt>
      <trkpt lat="59.972818" lon="17.8424174">
        <ele>31.8607</ele>
        <time>2013-06-03T13:54:49Z</time>
      </trkpt>
      <trkpt lat="59.9727475" lon="17.8423421">
        <ele>31.8607</ele>
        <time>2013-06-03T13:54:50Z</time>
      </trkpt>
      <trkpt lat="59.972677" lon="17.8422646">
        <ele>31.8607</ele>
        <time>2013-06-03T13:54:51Z</time>
      </trkpt>
      <trkpt lat="59.9726065" lon="17.8421844">
        <ele>31.3801</ele>
        <time>2013-06-03T13:54:52Z</time>
      </trkpt>
      <trkpt lat="59.9725361" lon="17.8421019">
        <ele>30.8995</ele>
        <time>2013-06-03T13:54:53Z</time>
      </trkpt>
      <trkpt lat="59.9724667" lon="17.8420161">
        <ele>30.8995</ele>
        <time>2013-06-03T13:54:54Z</time>
      </trkpt>
      <trkpt lat="59.9723998" lon="17.8419286">
        <ele>30.4188</ele>
        <time>2013-06-03T13:54:55Z</time>
      </trkpt>
      <trkpt lat="59.9723351" lon="17.8418369">
        <ele>30.4188</ele>
        <time>2013-06-03T13:54:56Z</time>
      </trkpt>
      <trkpt lat="59.9722711" lon="17.8417431">
        <ele>30.4188</ele>
        <time>2013-06-03T13:54:57Z</time>
      </trkpt>
      <trkpt lat="59.9722067" lon="17.8416509">
        <ele>30.4188</ele>
        <time>2013-06-03T13:54:58Z</time>
      </trkpt>
      <trkpt lat="59.9721439" lon="17.8415587">
        <ele>30.4188</ele>
        <time>2013-06-03T13:54:59Z</time>
      </trkpt>
      <trkpt lat="59.9720797" lon="17.8414691">
        <ele>30.4188</ele>
        <time>2013-06-03T13:55:00Z</time>
      </trkpt>
      <trkpt lat="59.9720134" lon="17.8413835">
        <ele>30.4188</ele>
        <time>2013-06-03T13:55:01Z</time>
      </trkpt>
      <trkpt lat="59.9719449" lon="17.8413021">
        <ele>30.4188</ele>
        <time>2013-06-03T13:55:02Z</time>
      </trkpt>
      <trkpt lat="59.971874" lon="17.8412226">
        <ele>29.9381</ele>
        <time>2013-06-03T13:55:03Z</time>
      </trkpt>
      <trkpt lat="59.9718006" lon="17.8411467">
        <ele>30.4188</ele>
        <time>2013-06-03T13:55:04Z</time>
      </trkpt>
      <trkpt lat="59.9717238" lon="17.8410757">
        <ele>29.9381</ele>
        <time>2013-06-03T13:55:05Z</time>
      </trkpt>
      <trkpt lat="59.9716442" lon="17.8410134">
        <ele>29.9381</ele>
        <time>2013-06-03T13:55:06Z</time>
      </trkpt>
      <trkpt lat="59.9715581" lon="17.8409647">
        <ele>29.4575</ele>
        <time>2013-06-03T13:55:07Z</time>
      </trkpt>
      <trkpt lat="59.9714701" lon="17.840924">
        <ele>29.4575</ele>
        <time>2013-06-03T13:55:08Z</time>
      </trkpt>
      <trkpt lat="59.9713808" lon="17.840891">
        <ele>29.4575</ele>
        <time>2013-06-03T13:55:09Z</time>
      </trkpt>
      <trkpt lat="59.9712928" lon="17.8408628">
        <ele>29.4575</ele>
        <time>2013-06-03T13:55:10Z</time>
      </trkpt>
      <trkpt lat="59.9712041" lon="17.8408426">
        <ele>28.9769</ele>
        <time>2013-06-03T13:55:11Z</time>
      </trkpt>
      <trkpt lat="59.9711142" lon="17.8408246">
        <ele>28.9769</ele>
        <time>2013-06-03T13:55:12Z</time>
      </trkpt>
      <trkpt lat="59.971028" lon="17.8408028">
        <ele>29.4575</ele>
        <time>2013-06-03T13:55:13Z</time>
      </trkpt>
      <trkpt lat="59.9709415" lon="17.8407857">
        <ele>29.9381</ele>
        <time>2013-06-03T13:55:14Z</time>
      </trkpt>
      <trkpt lat="59.9708562" lon="17.8407706">
        <ele>29.9381</ele>
        <time>2013-06-03T13:55:15Z</time>
      </trkpt>
      <trkpt lat="59.9707743" lon="17.8407541">
        <ele>30.4188</ele>
        <time>2013-06-03T13:55:16Z</time>
      </trkpt>
      <trkpt lat="59.9706941" lon="17.840738">
        <ele>30.8995</ele>
        <time>2013-06-03T13:55:17Z</time>
      </trkpt>
      <trkpt lat="59.9706159" lon="17.8407225">
        <ele>31.3801</ele>
        <time>2013-06-03T13:55:18Z</time>
      </trkpt>
      <trkpt lat="59.9705382" lon="17.8407087">
        <ele>31.8607</ele>
        <time>2013-06-03T13:55:19Z</time>
      </trkpt>
      <trkpt lat="59.9704614" lon="17.8406936">
        <ele>31.8607</ele>
        <time>2013-06-03T13:55:20Z</time>
      </trkpt>
      <trkpt lat="59.9703853" lon="17.8406812">
        <ele>32.3416</ele>
        <time>2013-06-03T13:55:21Z</time>
      </trkpt>
      <trkpt lat="59.9703096" lon="17.8406678">
        <ele>32.8223</ele>
        <time>2013-06-03T13:55:22Z</time>
      </trkpt>
      <trkpt lat="59.9702323" lon="17.8406511">
        <ele>32.8223</ele>
        <time>2013-06-03T13:55:23Z</time>
      </trkpt>
      <trkpt lat="59.970153" lon="17.840633">
        <ele>33.3029</ele>
        <time>2013-06-03T13:55:24Z</time>
      </trkpt>
      <trkpt lat="59.970072" lon="17.8406154">
        <ele>32.8223</ele>
        <time>2013-06-03T13:55:25Z</time>
      </trkpt>
      <trkpt lat="59.969991" lon="17.8405987">
        <ele>32.8223</ele>
        <time>2013-06-03T13:55:26Z</time>
      </trkpt>
      <trkpt lat="59.9699095" lon="17.8405855">
        <ele>32.3416</ele>
        <time>2013-06-03T13:55:27Z</time>
      </trkpt>
      <trkpt lat="59.9698263" lon="17.8405714">
        <ele>32.3416</ele>
        <time>2013-06-03T13:55:28Z</time>
      </trkpt>
      <trkpt lat="59.969743" lon="17.840559">
        <ele>31.8607</ele>
        <time>2013-06-03T13:55:29Z</time>
      </trkpt>
      <trkpt lat="59.96966" lon="17.8405437">
        <ele>31.8607</ele>
        <time>2013-06-03T13:55:30Z</time>
      </trkpt>
      <trkpt lat="59.9695776" lon="17.8405278">
        <ele>31.8607</ele>
        <time>2013-06-03T13:55:31Z</time>
      </trkpt>
      <trkpt lat="59.9694954" lon="17.8405129">
        <ele>32.3416</ele>
        <time>2013-06-03T13:55:32Z</time>
      </trkpt>
      <trkpt lat="59.9694144" lon="17.8404979">
        <ele>32.3416</ele>
        <time>2013-06-03T13:55:33Z</time>
      </trkpt>
      <trkpt lat="59.9693336" lon="17.8404798">
        <ele>32.3416</ele>
        <time>2013-06-03T13:55:34Z</time>
      </trkpt>
      <trkpt lat="59.969252" lon="17.8404564">
        <ele>31.8607</ele>
        <time>2013-06-03T13:55:35Z</time>
      </trkpt>
      <trkpt lat="59.9691701" lon="17.8404223">
        <ele>31.8607</ele>
        <time>2013-06-03T13:55:36Z</time>
      </trkpt>
      <trkpt lat="59.9690877" lon="17.8403838">
        <ele>31.8607</ele>
        <time>2013-06-03T13:55:37Z</time>
      </trkpt>
      <trkpt lat="59.9690044" lon="17.840342">
        <ele>31.3801</ele>
        <time>2013-06-03T13:55:38Z</time>
      </trkpt>
      <trkpt lat="59.9689199" lon="17.8402977">
        <ele>31.3801</ele>
        <time>2013-06-03T13:55:39Z</time>
      </trkpt>
      <trkpt lat="59.9688332" lon="17.8402517">
        <ele>31.3801</ele>
        <time>2013-06-03T13:55:40Z</time>
      </trkpt>
      <trkpt lat="59.9687451" lon="17.8402046">
        <ele>30.8995</ele>
        <time>2013-06-03T13:55:41Z</time>
      </trkpt>
      <trkpt lat="59.9686565" lon="17.8401584">
        <ele>30.4188</ele>
        <time>2013-06-03T13:55:42Z</time>
      </trkpt>
      <trkpt lat="59.9685707" lon="17.840114">
        <ele>30.4188</ele>
        <time>2013-06-03T13:55:43Z</time>
      </trkpt>
      <trkpt lat="59.9684842" lon="17.8400661">
        <ele>30.4188</ele>
        <time>2013-06-03T13:55:44Z</time>
      </trkpt>
      <trkpt lat="59.9683993" lon="17.8400152">
        <ele>30.4188</ele>
        <time>2013-06-03T13:55:45Z</time>
      </trkpt>
      <trkpt lat="59.9683157" lon="17.8399682">
        <ele>30.4188</ele>
        <time>2013-06-03T13:55:46Z</time>
      </trkpt>
      <trkpt lat="59.968234" lon="17.8399234">
        <ele>30.4188</ele>
        <time>2013-06-03T13:55:47Z</time>
      </trkpt>
      <trkpt lat="59.9681525" lon="17.8398841">
        <ele>30.8995</ele>
        <time>2013-06-03T13:55:48Z</time>
      </trkpt>
      <trkpt lat="59.9680719" lon="17.8398403">
        <ele>30.8995</ele>
        <time>2013-06-03T13:55:49Z</time>
      </trkpt>
      <trkpt lat="59.9679929" lon="17.8397944">
        <ele>31.3801</ele>
        <time>2013-06-03T13:55:50Z</time>
      </trkpt>
      <trkpt lat="59.9679149" lon="17.8397494">
        <ele>31.3801</ele>
        <time>2013-06-03T13:55:51Z</time>
      </trkpt>
      <trkpt lat="59.9678377" lon="17.8397048">
        <ele>31.8607</ele>
        <time>2013-06-03T13:55:52Z</time>
      </trkpt>
      <trkpt lat="59.9677616" lon="17.8396576">
        <ele>31.8607</ele>
        <time>2013-06-03T13:55:53Z</time>
      </trkpt>
      <trkpt lat="59.9676859" lon="17.8396088">
        <ele>31.8607</ele>
        <time>2013-06-03T13:55:54Z</time>
      </trkpt>
      <trkpt lat="59.9676091" lon="17.8395603">
        <ele>31.8607</ele>
        <time>2013-06-03T13:55:55Z</time>
      </trkpt>
      <trkpt lat="59.96753" lon="17.8395167">
        <ele>31.8607</ele>
        <time>2013-06-03T13:55:56Z</time>
      </trkpt>
      <trkpt lat="59.9674513" lon="17.8394732">
        <ele>31.8607</ele>
        <time>2013-06-03T13:55:57Z</time>
      </trkpt>
      <trkpt lat="59.967372" lon="17.8394265">
        <ele>31.8607</ele>
        <time>2013-06-03T13:55:58Z</time>
      </trkpt>
      <trkpt lat="59.9672915" lon="17.8393775">
        <ele>31.8607</ele>
        <time>2013-06-03T13:55:59Z</time>
      </trkpt>
      <trkpt lat="59.9672073" lon="17.8393283">
        <ele>31.8607</ele>
        <time>2013-06-03T13:56:00Z</time>
      </trkpt>
      <trkpt lat="59.9671203" lon="17.839284">
        <ele>30.8995</ele>
        <time>2013-06-03T13:56:01Z</time>
      </trkpt>
      <trkpt lat="59.9670318" lon="17.8392374">
        <ele>30.8995</ele>
        <time>2013-06-03T13:56:02Z</time>
      </trkpt>
      <trkpt lat="59.9669368" lon="17.8392005">
        <ele>29.9381</ele>
        <time>2013-06-03T13:56:03Z</time>
      </trkpt>
      <trkpt lat="59.9668381" lon="17.8391636">
        <ele>28.9769</ele>
        <time>2013-06-03T13:56:04Z</time>
      </trkpt>
      <trkpt lat="59.966736" lon="17.8391318">
        <ele>28.4962</ele>
        <time>2013-06-03T13:56:05Z</time>
      </trkpt>
      <trkpt lat="59.9666337" lon="17.8391037">
        <ele>28.0155</ele>
        <time>2013-06-03T13:56:06Z</time>
      </trkpt>
      <trkpt lat="59.9665321" lon="17.83908">
        <ele>27.5349</ele>
        <time>2013-06-03T13:56:07Z</time>
      </trkpt>
      <trkpt lat="59.9664319" lon="17.8390602">
        <ele>27.0543</ele>
        <time>2013-06-03T13:56:08Z</time>
      </trkpt>
      <trkpt lat="59.9663343" lon="17.8390401">
        <ele>27.0543</ele>
        <time>2013-06-03T13:56:09Z</time>
      </trkpt>
      <trkpt lat="59.9662386" lon="17.8390199">
        <ele>27.0543</ele>
        <time>2013-06-03T13:56:10Z</time>
      </trkpt>
      <trkpt lat="59.9661446" lon="17.8389982">
        <ele>26.5736</ele>
        <time>2013-06-03T13:56:11Z</time>
      </trkpt>
      <trkpt lat="59.96605" lon="17.8389779">
        <ele>27.0543</ele>
        <time>2013-06-03T13:56:12Z</time>
      </trkpt>
      <trkpt lat="59.9659568" lon="17.8389591">
        <ele>27.0543</ele>
        <time>2013-06-03T13:56:13Z</time>
      </trkpt>
      <trkpt lat="59.9658631" lon="17.8389398">
        <ele>27.0543</ele>
        <time>2013-06-03T13:56:14Z</time>
      </trkpt>
      <trkpt lat="59.9657699" lon="17.8389216">
        <ele>27.0543</ele>
        <time>2013-06-03T13:56:15Z</time>
      </trkpt>
      <trkpt lat="59.9656755" lon="17.8389018">
        <ele>27.0543</ele>
        <time>2013-06-03T13:56:16Z</time>
      </trkpt>
      <trkpt lat="59.9655812" lon="17.8388832">
        <ele>27.0543</ele>
        <time>2013-06-03T13:56:17Z</time>
      </trkpt>
      <trkpt lat="59.9654869" lon="17.838866">
        <ele>27.5349</ele>
        <time>2013-06-03T13:56:18Z</time>
      </trkpt>
      <trkpt lat="59.9653922" lon="17.8388475">
        <ele>27.5349</ele>
        <time>2013-06-03T13:56:19Z</time>
      </trkpt>
      <trkpt lat="59.9652985" lon="17.8388298">
        <ele>27.5349</ele>
        <time>2013-06-03T13:56:20Z</time>
      </trkpt>
      <trkpt lat="59.9652062" lon="17.8388134">
        <ele>27.5349</ele>
        <time>2013-06-03T13:56:21Z</time>
      </trkpt>
      <trkpt lat="59.9651146" lon="17.8387952">
        <ele>27.5349</ele>
        <time>2013-06-03T13:56:22Z</time>
      </trkpt>
      <trkpt lat="59.9650234" lon="17.8387759">
        <ele>27.5349</ele>
        <time>2013-06-03T13:56:23Z</time>
      </trkpt>
      <trkpt lat="59.9649337" lon="17.8387609">
        <ele>27.5349</ele>
        <time>2013-06-03T13:56:24Z</time>
      </trkpt>
      <trkpt lat="59.964844" lon="17.8387447">
        <ele>27.5349</ele>
        <time>2013-06-03T13:56:25Z</time>
      </trkpt>
      <trkpt lat="59.9647561" lon="17.8387266">
        <ele>27.5349</ele>
        <time>2013-06-03T13:56:26Z</time>
      </trkpt>
      <trkpt lat="59.9646699" lon="17.8387074">
        <ele>27.0543</ele>
        <time>2013-06-03T13:56:27Z</time>
      </trkpt>
      <trkpt lat="59.964584" lon="17.8386898">
        <ele>27.0543</ele>
        <time>2013-06-03T13:56:28Z</time>
      </trkpt>
      <trkpt lat="59.9644979" lon="17.8386722">
        <ele>27.0543</ele>
        <time>2013-06-03T13:56:29Z</time>
      </trkpt>
      <trkpt lat="59.9644115" lon="17.8386558">
        <ele>27.0543</ele>
        <time>2013-06-03T13:56:30Z</time>
      </trkpt>
      <trkpt lat="59.9643231" lon="17.8386397">
        <ele>26.5736</ele>
        <time>2013-06-03T13:56:31Z</time>
      </trkpt>
      <trkpt lat="59.964237" lon="17.8386171">
        <ele>26.5736</ele>
        <time>2013-06-03T13:56:32Z</time>
      </trkpt>
      <trkpt lat="59.9641504" lon="17.8386015">
        <ele>26.5736</ele>
        <time>2013-06-03T13:56:33Z</time>
      </trkpt>
      <trkpt lat="59.964065" lon="17.8385858">
        <ele>26.5736</ele>
        <time>2013-06-03T13:56:34Z</time>
      </trkpt>
      <trkpt lat="59.9639826" lon="17.8385599">
        <ele>26.5736</ele>
        <time>2013-06-03T13:56:35Z</time>
      </trkpt>
      <trkpt lat="59.9638944" lon="17.8385411">
        <ele>26.0929</ele>
        <time>2013-06-03T13:56:36Z</time>
      </trkpt>
      <trkpt lat="59.9638054" lon="17.8385261">
        <ele>26.0929</ele>
        <time>2013-06-03T13:56:37Z</time>
      </trkpt>
      <trkpt lat="59.9637141" lon="17.8385164">
        <ele>25.6123</ele>
        <time>2013-06-03T13:56:38Z</time>
      </trkpt>
      <trkpt lat="59.9636235" lon="17.838509">
        <ele>25.6123</ele>
        <time>2013-06-03T13:56:39Z</time>
      </trkpt>
      <trkpt lat="59.9635342" lon="17.8384964">
        <ele>25.1317</ele>
        <time>2013-06-03T13:56:40Z</time>
      </trkpt>
      <trkpt lat="59.963447" lon="17.8384817">
        <ele>25.1317</ele>
        <time>2013-06-03T13:56:41Z</time>
      </trkpt>
      <trkpt lat="59.9633605" lon="17.8384668">
        <ele>25.1317</ele>
        <time>2013-06-03T13:56:42Z</time>
      </trkpt>
      <trkpt lat="59.9632749" lon="17.838452">
        <ele>25.6123</ele>
        <time>2013-06-03T13:56:43Z</time>
      </trkpt>
      <trkpt lat="59.9631896" lon="17.8384347">
        <ele>25.6123</ele>
        <time>2013-06-03T13:56:44Z</time>
      </trkpt>
      <trkpt lat="59.9631042" lon="17.8384145">
        <ele>25.6123</ele>
        <time>2013-06-03T13:56:45Z</time>
      </trkpt>
      <trkpt lat="59.9630186" lon="17.8383917">
        <ele>25.6123</ele>
        <time>2013-06-03T13:56:46Z</time>
      </trkpt>
      <trkpt lat="59.9629343" lon="17.8383714">
        <ele>26.0929</ele>
        <time>2013-06-03T13:56:47Z</time>
      </trkpt>
      <trkpt lat="59.9628504" lon="17.8383443">
        <ele>26.5736</ele>
        <time>2013-06-03T13:56:48Z</time>
      </trkpt>
      <trkpt lat="59.9627658" lon="17.8383061">
        <ele>26.0929</ele>
        <time>2013-06-03T13:56:49Z</time>
      </trkpt>
      <trkpt lat="59.9626788" lon="17.8382616">
        <ele>26.0929</ele>
        <time>2013-06-03T13:56:50Z</time>
      </trkpt>
      <trkpt lat="59.9625928" lon="17.838213">
        <ele>26.0929</ele>
        <time>2013-06-03T13:56:51Z</time>
      </trkpt>
      <trkpt lat="59.9625082" lon="17.838159">
        <ele>26.5736</ele>
        <time>2013-06-03T13:56:52Z</time>
      </trkpt>
      <trkpt lat="59.9624235" lon="17.8381">
        <ele>26.5736</ele>
        <time>2013-06-03T13:56:53Z</time>
      </trkpt>
      <trkpt lat="59.9623388" lon="17.8380337">
        <ele>26.5736</ele>
        <time>2013-06-03T13:56:54Z</time>
      </trkpt>
      <trkpt lat="59.9622534" lon="17.8379626">
        <ele>26.5736</ele>
        <time>2013-06-03T13:56:55Z</time>
      </trkpt>
      <trkpt lat="59.9621681" lon="17.8378848">
        <ele>26.5736</ele>
        <time>2013-06-03T13:56:56Z</time>
      </trkpt>
      <trkpt lat="59.9620837" lon="17.8378045">
        <ele>27.0543</ele>
        <time>2013-06-03T13:56:57Z</time>
      </trkpt>
      <trkpt lat="59.9620003" lon="17.8377254">
        <ele>27.0543</ele>
        <time>2013-06-03T13:56:58Z</time>
      </trkpt>
      <trkpt lat="59.9619193" lon="17.8376497">
        <ele>27.5349</ele>
        <time>2013-06-03T13:56:59Z</time>
      </trkpt>
      <trkpt lat="59.9618406" lon="17.8375778">
        <ele>27.5349</ele>
        <time>2013-06-03T13:57:00Z</time>
      </trkpt>
      <trkpt lat="59.9617647" lon="17.837508">
        <ele>28.0155</ele>
        <time>2013-06-03T13:57:01Z</time>
      </trkpt>
      <trkpt lat="59.9616923" lon="17.8374378">
        <ele>28.4962</ele>
        <time>2013-06-03T13:57:02Z</time>
      </trkpt>
      <trkpt lat="59.9616224" lon="17.8373684">
        <ele>28.9769</ele>
        <time>2013-06-03T13:57:03Z</time>
      </trkpt>
      <trkpt lat="59.9615516" lon="17.8373016">
        <ele>28.9769</ele>
        <time>2013-06-03T13:57:04Z</time>
      </trkpt>
      <trkpt lat="59.9614822" lon="17.837237">
        <ele>28.9769</ele>
        <time>2013-06-03T13:57:05Z</time>
      </trkpt>
      <trkpt lat="59.9614133" lon="17.8371746">
        <ele>28.9769</ele>
        <time>2013-06-03T13:57:06Z</time>
      </trkpt>
      <trkpt lat="59.9613442" lon="17.8371116">
        <ele>28.9769</ele>
        <time>2013-06-03T13:57:07Z</time>
      </trkpt>
      <trkpt lat="59.9612744" lon="17.837048">
        <ele>28.9769</ele>
        <time>2013-06-03T13:57:08Z</time>
      </trkpt>
      <trkpt lat="59.961201" lon="17.8369919">
        <ele>28.0155</ele>
        <time>2013-06-03T13:57:09Z</time>
      </trkpt>
      <trkpt lat="59.9611264" lon="17.836936">
        <ele>28.0155</ele>
        <time>2013-06-03T13:57:10Z</time>
      </trkpt>
      <trkpt lat="59.9610558" lon="17.8368745">
        <ele>27.5349</ele>
        <time>2013-06-03T13:57:11Z</time>
      </trkpt>
      <trkpt lat="59.9609844" lon="17.8368142">
        <ele>27.5349</ele>
        <time>2013-06-03T13:57:12Z</time>
      </trkpt>
      <trkpt lat="59.9609079" lon="17.836763">
        <ele>27.5349</ele>
        <time>2013-06-03T13:57:13Z</time>
      </trkpt>
      <trkpt lat="59.9608321" lon="17.8367179">
        <ele>27.5349</ele>
        <time>2013-06-03T13:57:14Z</time>
      </trkpt>
      <trkpt lat="59.9607543" lon="17.8366726">
        <ele>27.5349</ele>
        <time>2013-06-03T13:57:15Z</time>
      </trkpt>
      <trkpt lat="59.9606767" lon="17.836636">
        <ele>27.5349</ele>
        <time>2013-06-03T13:57:16Z</time>
      </trkpt>
      <trkpt lat="59.960598" lon="17.8366082">
        <ele>28.0155</ele>
        <time>2013-06-03T13:57:17Z</time>
      </trkpt>
      <trkpt lat="59.9605193" lon="17.8365858">
        <ele>28.0155</ele>
        <time>2013-06-03T13:57:18Z</time>
      </trkpt>
      <trkpt lat="59.9604363" lon="17.8365703">
        <ele>28.4962</ele>
        <time>2013-06-03T13:57:19Z</time>
      </trkpt>
      <trkpt lat="59.9603494" lon="17.8365501">
        <ele>28.9769</ele>
        <time>2013-06-03T13:57:20Z</time>
      </trkpt>
      <trkpt lat="59.9602598" lon="17.8365397">
        <ele>28.9769</ele>
        <time>2013-06-03T13:57:21Z</time>
      </trkpt>
      <trkpt lat="59.9601736" lon="17.8365247">
        <ele>28.9769</ele>
        <time>2013-06-03T13:57:22Z</time>
      </trkpt>
      <trkpt lat="59.9600883" lon="17.8365133">
        <ele>28.4962</ele>
        <time>2013-06-03T13:57:23Z</time>
      </trkpt>
      <trkpt lat="59.9599998" lon="17.8364972">
        <ele>27.0543</ele>
        <time>2013-06-03T13:57:24Z</time>
      </trkpt>
      <trkpt lat="59.9599097" lon="17.8364869">
        <ele>26.5736</ele>
        <time>2013-06-03T13:57:25Z</time>
      </trkpt>
      <trkpt lat="59.9598188" lon="17.836476">
        <ele>26.0929</ele>
        <time>2013-06-03T13:57:26Z</time>
      </trkpt>
      <trkpt lat="59.9597279" lon="17.836462">
        <ele>25.6123</ele>
        <time>2013-06-03T13:57:27Z</time>
      </trkpt>
      <trkpt lat="59.9596398" lon="17.8364448">
        <ele>25.1317</ele>
        <time>2013-06-03T13:57:28Z</time>
      </trkpt>
      <trkpt lat="59.959552" lon="17.8364279">
        <ele>25.1317</ele>
        <time>2013-06-03T13:57:29Z</time>
      </trkpt>
      <trkpt lat="59.9594652" lon="17.836405">
        <ele>25.1317</ele>
        <time>2013-06-03T13:57:30Z</time>
      </trkpt>
      <trkpt lat="59.959377" lon="17.8363869">
        <ele>24.1703</ele>
        <time>2013-06-03T13:57:31Z</time>
      </trkpt>
      <trkpt lat="59.9592909" lon="17.8363679">
        <ele>24.1703</ele>
        <time>2013-06-03T13:57:32Z</time>
      </trkpt>
      <trkpt lat="59.959207" lon="17.836352">
        <ele>24.651</ele>
        <time>2013-06-03T13:57:33Z</time>
      </trkpt>
      <trkpt lat="59.9591232" lon="17.8363388">
        <ele>24.651</ele>
        <time>2013-06-03T13:57:34Z</time>
      </trkpt>
      <trkpt lat="59.9590392" lon="17.8363294">
        <ele>24.651</ele>
        <time>2013-06-03T13:57:35Z</time>
      </trkpt>
      <trkpt lat="59.9589564" lon="17.8363211">
        <ele>25.1317</ele>
        <time>2013-06-03T13:57:36Z</time>
      </trkpt>
      <trkpt lat="59.9588757" lon="17.8363113">
        <ele>25.6123</ele>
        <time>2013-06-03T13:57:37Z</time>
      </trkpt>
      <trkpt lat="59.9587959" lon="17.8362994">
        <ele>25.6123</ele>
        <time>2013-06-03T13:57:38Z</time>
      </trkpt>
      <trkpt lat="59.958717" lon="17.8362865">
        <ele>26.0929</ele>
        <time>2013-06-03T13:57:39Z</time>
      </trkpt>
      <trkpt lat="59.9586376" lon="17.8362753">
        <ele>27.0543</ele>
        <time>2013-06-03T13:57:40Z</time>
      </trkpt>
      <trkpt lat="59.9585591" lon="17.8362632">
        <ele>27.5349</ele>
        <time>2013-06-03T13:57:41Z</time>
      </trkpt>
      <trkpt lat="59.958481" lon="17.8362491">
        <ele>28.0155</ele>
        <time>2013-06-03T13:57:42Z</time>
      </trkpt>
      <trkpt lat="59.9584036" lon="17.8362354">
        <ele>28.0155</ele>
        <time>2013-06-03T13:57:43Z</time>
      </trkpt>
      <trkpt lat="59.9583268" lon="17.8362218">
        <ele>28.4962</ele>
        <time>2013-06-03T13:57:44Z</time>
      </trkpt>
      <trkpt lat="59.9582515" lon="17.8362095">
        <ele>28.9769</ele>
        <time>2013-06-03T13:57:45Z</time>
      </trkpt>
      <trkpt lat="59.9581787" lon="17.8361957">
        <ele>28.9769</ele>
        <time>2013-06-03T13:57:46Z</time>
      </trkpt>
      <trkpt lat="59.9581074" lon="17.8361812">
        <ele>29.4575</ele>
        <time>2013-06-03T13:57:47Z</time>
      </trkpt>
      <trkpt lat="59.9580374" lon="17.8361684">
        <ele>29.4575</ele>
        <time>2013-06-03T13:57:48Z</time>
      </trkpt>
      <trkpt lat="59.9579681" lon="17.8361562">
        <ele>29.4575</ele>
        <time>2013-06-03T13:57:49Z</time>
      </trkpt>
      <trkpt lat="59.9579002" lon="17.8361438">
        <ele>29.9381</ele>
        <time>2013-06-03T13:57:50Z</time>
      </trkpt>
      <trkpt lat="59.9578319" lon="17.8361346">
        <ele>29.9381</ele>
        <time>2013-06-03T13:57:51Z</time>
      </trkpt>
      <trkpt lat="59.9577644" lon="17.8361242">
        <ele>29.9381</ele>
        <time>2013-06-03T13:57:52Z</time>
      </trkpt>
      <trkpt lat="59.957698" lon="17.8361099">
        <ele>30.8995</ele>
        <time>2013-06-03T13:57:53Z</time>
      </trkpt>
      <trkpt lat="59.9576303" lon="17.8360979">
        <ele>30.8995</ele>
        <time>2013-06-03T13:57:54Z</time>
      </trkpt>
      <trkpt lat="59.9575614" lon="17.8360857">
        <ele>30.8995</ele>
        <time>2013-06-03T13:57:55Z</time>
      </trkpt>
      <trkpt lat="59.9574919" lon="17.8360723">
        <ele>30.8995</ele>
        <time>2013-06-03T13:57:56Z</time>
      </trkpt>
      <trkpt lat="59.9574219" lon="17.8360581">
        <ele>30.8995</ele>
        <time>2013-06-03T13:57:57Z</time>
      </trkpt>
      <trkpt lat="59.9573496" lon="17.8360476">
        <ele>31.3801</ele>
        <time>2013-06-03T13:57:58Z</time>
      </trkpt>
      <trkpt lat="59.9572751" lon="17.8360398">
        <ele>31.3801</ele>
        <time>2013-06-03T13:57:59Z</time>
      </trkpt>
      <trkpt lat="59.9572007" lon="17.8360313">
        <ele>30.8995</ele>
        <time>2013-06-03T13:58:00Z</time>
      </trkpt>
      <trkpt lat="59.9571259" lon="17.8360275">
        <ele>31.3801</ele>
        <time>2013-06-03T13:58:01Z</time>
      </trkpt>
      <trkpt lat="59.957051" lon="17.8360247">
        <ele>31.3801</ele>
        <time>2013-06-03T13:58:02Z</time>
      </trkpt>
      <trkpt lat="59.9569741" lon="17.8360254">
        <ele>30.8995</ele>
        <time>2013-06-03T13:58:03Z</time>
      </trkpt>
      <trkpt lat="59.9568948" lon="17.8360289">
        <ele>30.4188</ele>
        <time>2013-06-03T13:58:04Z</time>
      </trkpt>
      <trkpt lat="59.9568155" lon="17.8360357">
        <ele>30.4188</ele>
        <time>2013-06-03T13:58:05Z</time>
      </trkpt>
      <trkpt lat="59.9567357" lon="17.8360446">
        <ele>29.9381</ele>
        <time>2013-06-03T13:58:06Z</time>
      </trkpt>
      <trkpt lat="59.9566548" lon="17.8360559">
        <ele>29.4575</ele>
        <time>2013-06-03T13:58:07Z</time>
      </trkpt>
      <trkpt lat="59.9565731" lon="17.8360725">
        <ele>28.4962</ele>
        <time>2013-06-03T13:58:08Z</time>
      </trkpt>
      <trkpt lat="59.9564864" lon="17.8360976">
        <ele>28.4962</ele>
        <time>2013-06-03T13:58:09Z</time>
      </trkpt>
      <trkpt lat="59.9564033" lon="17.8361221">
        <ele>28.0155</ele>
        <time>2013-06-03T13:58:10Z</time>
      </trkpt>
      <trkpt lat="59.9563193" lon="17.8361482">
        <ele>27.5349</ele>
        <time>2013-06-03T13:58:11Z</time>
      </trkpt>
      <trkpt lat="59.9562341" lon="17.836179">
        <ele>27.0543</ele>
        <time>2013-06-03T13:58:12Z</time>
      </trkpt>
      <trkpt lat="59.9561483" lon="17.836216">
        <ele>26.5736</ele>
        <time>2013-06-03T13:58:13Z</time>
      </trkpt>
      <trkpt lat="59.9560622" lon="17.8362574">
        <ele>26.0929</ele>
        <time>2013-06-03T13:58:14Z</time>
      </trkpt>
      <trkpt lat="59.9559757" lon="17.8363036">
        <ele>25.6123</ele>
        <time>2013-06-03T13:58:15Z</time>
      </trkpt>
      <trkpt lat="59.9558883" lon="17.8363528">
        <ele>25.6123</ele>
        <time>2013-06-03T13:58:16Z</time>
      </trkpt>
      <trkpt lat="59.9558003" lon="17.8364041">
        <ele>25.1317</ele>
        <time>2013-06-03T13:58:17Z</time>
      </trkpt>
      <trkpt lat="59.9557116" lon="17.8364597">
        <ele>25.1317</ele>
        <time>2013-06-03T13:58:18Z</time>
      </trkpt>
      <trkpt lat="59.9556225" lon="17.8365185">
        <ele>24.651</ele>
        <time>2013-06-03T13:58:19Z</time>
      </trkpt>
      <trkpt lat="59.9555345" lon="17.8365799">
        <ele>24.651</ele>
        <time>2013-06-03T13:58:20Z</time>
      </trkpt>
      <trkpt lat="59.9554477" lon="17.8366439">
        <ele>24.651</ele>
        <time>2013-06-03T13:58:21Z</time>
      </trkpt>
      <trkpt lat="59.9553609" lon="17.8367075">
        <ele>24.651</ele>
        <time>2013-06-03T13:58:22Z</time>
      </trkpt>
      <trkpt lat="59.9552747" lon="17.8367697">
        <ele>24.651</ele>
        <time>2013-06-03T13:58:23Z</time>
      </trkpt>
      <trkpt lat="59.9551903" lon="17.8368319">
        <ele>24.651</ele>
        <time>2013-06-03T13:58:24Z</time>
      </trkpt>
      <trkpt lat="59.955107" lon="17.8368924">
        <ele>24.1703</ele>
        <time>2013-06-03T13:58:25Z</time>
      </trkpt>
      <trkpt lat="59.9550248" lon="17.8369527">
        <ele>24.1703</ele>
        <time>2013-06-03T13:58:26Z</time>
      </trkpt>
      <trkpt lat="59.954943" lon="17.8370147">
        <ele>24.1703</ele>
        <time>2013-06-03T13:58:27Z</time>
      </trkpt>
      <trkpt lat="59.9548612" lon="17.8370764">
        <ele>24.1703</ele>
        <time>2013-06-03T13:58:28Z</time>
      </trkpt>
      <trkpt lat="59.9547803" lon="17.837138">
        <ele>24.1703</ele>
        <time>2013-06-03T13:58:29Z</time>
      </trkpt>
      <trkpt lat="59.9547005" lon="17.8371991">
        <ele>24.1703</ele>
        <time>2013-06-03T13:58:30Z</time>
      </trkpt>
      <trkpt lat="59.954621" lon="17.8372581">
        <ele>24.1703</ele>
        <time>2013-06-03T13:58:31Z</time>
      </trkpt>
      <trkpt lat="59.9545412" lon="17.8373163">
        <ele>24.1703</ele>
        <time>2013-06-03T13:58:32Z</time>
      </trkpt>
      <trkpt lat="59.954462" lon="17.8373774">
        <ele>24.1703</ele>
        <time>2013-06-03T13:58:33Z</time>
      </trkpt>
      <trkpt lat="59.954384" lon="17.8374373">
        <ele>24.1703</ele>
        <time>2013-06-03T13:58:34Z</time>
      </trkpt>
      <trkpt lat="59.9543069" lon="17.8374949">
        <ele>24.1703</ele>
        <time>2013-06-03T13:58:35Z</time>
      </trkpt>
      <trkpt lat="59.9542306" lon="17.837552">
        <ele>24.1703</ele>
        <time>2013-06-03T13:58:36Z</time>
      </trkpt>
      <trkpt lat="59.9541555" lon="17.8376109">
        <ele>24.651</ele>
        <time>2013-06-03T13:58:37Z</time>
      </trkpt>
      <trkpt lat="59.9540819" lon="17.8376711">
        <ele>24.651</ele>
        <time>2013-06-03T13:58:38Z</time>
      </trkpt>
      <trkpt lat="59.9540084" lon="17.8377291">
        <ele>24.1703</ele>
        <time>2013-06-03T13:58:39Z</time>
      </trkpt>
      <trkpt lat="59.9539349" lon="17.8377834">
        <ele>24.1703</ele>
        <time>2013-06-03T13:58:40Z</time>
      </trkpt>
      <trkpt lat="59.9538623" lon="17.8378366">
        <ele>24.1703</ele>
        <time>2013-06-03T13:58:41Z</time>
      </trkpt>
      <trkpt lat="59.9537912" lon="17.8378912">
        <ele>24.1703</ele>
        <time>2013-06-03T13:58:42Z</time>
      </trkpt>
      <trkpt lat="59.9537199" lon="17.8379495">
        <ele>24.1703</ele>
        <time>2013-06-03T13:58:43Z</time>
      </trkpt>
      <trkpt lat="59.95365" lon="17.8380037">
        <ele>24.1703</ele>
        <time>2013-06-03T13:58:44Z</time>
      </trkpt>
      <trkpt lat="59.9535817" lon="17.8380563">
        <ele>24.1703</ele>
        <time>2013-06-03T13:58:45Z</time>
      </trkpt>
      <trkpt lat="59.953513" lon="17.8381062">
        <ele>24.1703</ele>
        <time>2013-06-03T13:58:46Z</time>
      </trkpt>
      <trkpt lat="59.9534438" lon="17.8381486">
        <ele>24.1703</ele>
        <time>2013-06-03T13:58:47Z</time>
      </trkpt>
      <trkpt lat="59.9533754" lon="17.8381765">
        <ele>24.1703</ele>
        <time>2013-06-03T13:58:48Z</time>
      </trkpt>
      <trkpt lat="59.9533065" lon="17.8381813">
        <ele>24.1703</ele>
        <time>2013-06-03T13:58:49Z</time>
      </trkpt>
      <trkpt lat="59.9532403" lon="17.8381475">
        <ele>24.651</ele>
        <time>2013-06-03T13:58:50Z</time>
      </trkpt>
      <trkpt lat="59.9531857" lon="17.8380652">
        <ele>24.651</ele>
        <time>2013-06-03T13:58:51Z</time>
      </trkpt>
      <trkpt lat="59.9531485" lon="17.8379492">
        <ele>24.651</ele>
        <time>2013-06-03T13:58:52Z</time>
      </trkpt>
      <trkpt lat="59.9531186" lon="17.8378223">
        <ele>25.1317</ele>
        <time>2013-06-03T13:58:53Z</time>
      </trkpt>
      <trkpt lat="59.9530853" lon="17.8376953">
        <ele>25.1317</ele>
        <time>2013-06-03T13:58:54Z</time>
      </trkpt>
      <trkpt lat="59.9530506" lon="17.8375649">
        <ele>25.1317</ele>
        <time>2013-06-03T13:58:55Z</time>
      </trkpt>
      <trkpt lat="59.9530172" lon="17.8374301">
        <ele>25.1317</ele>
        <time>2013-06-03T13:58:56Z</time>
      </trkpt>
      <trkpt lat="59.9529827" lon="17.8372927">
        <ele>24.651</ele>
        <time>2013-06-03T13:58:57Z</time>
      </trkpt>
      <trkpt lat="59.9529461" lon="17.8371536">
        <ele>24.651</ele>
        <time>2013-06-03T13:58:58Z</time>
      </trkpt>
      <trkpt lat="59.952908" lon="17.8370143">
        <ele>24.651</ele>
        <time>2013-06-03T13:58:59Z</time>
      </trkpt>
      <trkpt lat="59.9528683" lon="17.836876">
        <ele>24.1703</ele>
        <time>2013-06-03T13:59:00Z</time>
      </trkpt>
      <trkpt lat="59.9528263" lon="17.8367381">
        <ele>24.1703</ele>
        <time>2013-06-03T13:59:01Z</time>
      </trkpt>
      <trkpt lat="59.9527834" lon="17.8365983">
        <ele>24.1703</ele>
        <time>2013-06-03T13:59:02Z</time>
      </trkpt>
      <trkpt lat="59.9527396" lon="17.8364593">
        <ele>24.1703</ele>
        <time>2013-06-03T13:59:03Z</time>
      </trkpt>
      <trkpt lat="59.9526947" lon="17.8363221">
        <ele>24.1703</ele>
        <time>2013-06-03T13:59:04Z</time>
      </trkpt>
      <trkpt lat="59.9526495" lon="17.836184">
        <ele>23.6896</ele>
        <time>2013-06-03T13:59:05Z</time>
      </trkpt>
      <trkpt lat="59.9526031" lon="17.8360458">
        <ele>23.6896</ele>
        <time>2013-06-03T13:59:06Z</time>
      </trkpt>
      <trkpt lat="59.952555" lon="17.8359035">
        <ele>23.209</ele>
        <time>2013-06-03T13:59:07Z</time>
      </trkpt>
      <trkpt lat="59.9525056" lon="17.8357657">
        <ele>23.209</ele>
        <time>2013-06-03T13:59:08Z</time>
      </trkpt>
      <trkpt lat="59.9524548" lon="17.8356275">
        <ele>23.209</ele>
        <time>2013-06-03T13:59:09Z</time>
      </trkpt>
      <trkpt lat="59.9524024" lon="17.8354852">
        <ele>23.209</ele>
        <time>2013-06-03T13:59:10Z</time>
      </trkpt>
      <trkpt lat="59.9523475" lon="17.83534">
        <ele>23.209</ele>
        <time>2013-06-03T13:59:11Z</time>
      </trkpt>
      <trkpt lat="59.9522916" lon="17.8351923">
        <ele>23.209</ele>
        <time>2013-06-03T13:59:12Z</time>
      </trkpt>
      <trkpt lat="59.9522331" lon="17.8350437">
        <ele>23.209</ele>
        <time>2013-06-03T13:59:13Z</time>
      </trkpt>
      <trkpt lat="59.9521706" lon="17.8348914">
        <ele>23.209</ele>
        <time>2013-06-03T13:59:14Z</time>
      </trkpt>
      <trkpt lat="59.9521059" lon="17.8347335">
        <ele>23.209</ele>
        <time>2013-06-03T13:59:15Z</time>
      </trkpt>
      <trkpt lat="59.9520394" lon="17.8345744">
        <ele>23.209</ele>
        <time>2013-06-03T13:59:16Z</time>
      </trkpt>
      <trkpt lat="59.95197" lon="17.8344152">
        <ele>23.209</ele>
        <time>2013-06-03T13:59:17Z</time>
      </trkpt>
      <trkpt lat="59.9518989" lon="17.8342543">
        <ele>22.7283</ele>
        <time>2013-06-03T13:59:18Z</time>
      </trkpt>
      <trkpt lat="59.9518277" lon="17.8340925">
        <ele>22.7283</ele>
        <time>2013-06-03T13:59:19Z</time>
      </trkpt>
      <trkpt lat="59.9517557" lon="17.8339295">
        <ele>22.7283</ele>
        <time>2013-06-03T13:59:20Z</time>
      </trkpt>
      <trkpt lat="59.9516829" lon="17.8337652">
        <ele>22.7283</ele>
        <time>2013-06-03T13:59:21Z</time>
      </trkpt>
      <trkpt lat="59.9516096" lon="17.8336003">
        <ele>22.7283</ele>
        <time>2013-06-03T13:59:22Z</time>
      </trkpt>
      <trkpt lat="59.9515359" lon="17.8334358">
        <ele>22.7283</ele>
        <time>2013-06-03T13:59:23Z</time>
      </trkpt>
      <trkpt lat="59.9514617" lon="17.8332716">
        <ele>22.7283</ele>
        <time>2013-06-03T13:59:24Z</time>
      </trkpt>
      <trkpt lat="59.9513876" lon="17.8331065">
        <ele>22.7283</ele>
        <time>2013-06-03T13:59:25Z</time>
      </trkpt>
      <trkpt lat="59.951314" lon="17.8329415">
        <ele>22.7283</ele>
        <time>2013-06-03T13:59:26Z</time>
      </trkpt>
      <trkpt lat="59.951241" lon="17.8327784">
        <ele>22.7283</ele>
        <time>2013-06-03T13:59:27Z</time>
      </trkpt>
      <trkpt lat="59.951169" lon="17.8326184">
        <ele>22.7283</ele>
        <time>2013-06-03T13:59:28Z</time>
      </trkpt>
      <trkpt lat="59.9510987" lon="17.8324614">
        <ele>22.7283</ele>
        <time>2013-06-03T13:59:29Z</time>
      </trkpt>
      <trkpt lat="59.9510302" lon="17.8323079">
        <ele>22.7283</ele>
        <time>2013-06-03T13:59:30Z</time>
      </trkpt>
      <trkpt lat="59.9509625" lon="17.8321588">
        <ele>22.7283</ele>
        <time>2013-06-03T13:59:31Z</time>
      </trkpt>
      <trkpt lat="59.9508957" lon="17.8320119">
        <ele>22.7283</ele>
        <time>2013-06-03T13:59:32Z</time>
      </trkpt>
      <trkpt lat="59.9508308" lon="17.8318667">
        <ele>22.7283</ele>
        <time>2013-06-03T13:59:33Z</time>
      </trkpt>
      <trkpt lat="59.9507675" lon="17.8317246">
        <ele>22.7283</ele>
        <time>2013-06-03T13:59:34Z</time>
      </trkpt>
      <trkpt lat="59.950705" lon="17.8315873">
        <ele>23.209</ele>
        <time>2013-06-03T13:59:35Z</time>
      </trkpt>
      <trkpt lat="59.9506454" lon="17.8314509">
        <ele>23.209</ele>
        <time>2013-06-03T13:59:36Z</time>
      </trkpt>
      <trkpt lat="59.9505868" lon="17.8313175">
        <ele>23.209</ele>
        <time>2013-06-03T13:59:37Z</time>
      </trkpt>
      <trkpt lat="59.9505285" lon="17.8311881">
        <ele>23.209</ele>
        <time>2013-06-03T13:59:38Z</time>
      </trkpt>
      <trkpt lat="59.9504718" lon="17.831061">
        <ele>23.209</ele>
        <time>2013-06-03T13:59:39Z</time>
      </trkpt>
      <trkpt lat="59.9504158" lon="17.8309353">
        <ele>23.6896</ele>
        <time>2013-06-03T13:59:40Z</time>
      </trkpt>
      <trkpt lat="59.9503606" lon="17.8308136">
        <ele>23.6896</ele>
        <time>2013-06-03T13:59:41Z</time>
      </trkpt>
      <trkpt lat="59.9503077" lon="17.8306935">
        <ele>23.209</ele>
        <time>2013-06-03T13:59:42Z</time>
      </trkpt>
      <trkpt lat="59.9502568" lon="17.8305722">
        <ele>23.209</ele>
        <time>2013-06-03T13:59:43Z</time>
      </trkpt>
      <trkpt lat="59.9502078" lon="17.8304526">
        <ele>23.209</ele>
        <time>2013-06-03T13:59:44Z</time>
      </trkpt>
      <trkpt lat="59.9501579" lon="17.8303379">
        <ele>23.209</ele>
        <time>2013-06-03T13:59:45Z</time>
      </trkpt>
      <trkpt lat="59.9501065" lon="17.8302308">
        <ele>23.209</ele>
        <time>2013-06-03T13:59:46Z</time>
      </trkpt>
      <trkpt lat="59.9500535" lon="17.8301309">
        <ele>23.209</ele>
        <time>2013-06-03T13:59:47Z</time>
      </trkpt>
      <trkpt lat="59.950003" lon="17.8300267">
        <ele>23.209</ele>
        <time>2013-06-03T13:59:48Z</time>
      </trkpt>
      <trkpt lat="59.9499641" lon="17.8299024">
        <ele>23.209</ele>
        <time>2013-06-03T13:59:49Z</time>
      </trkpt>
      <trkpt lat="59.9499482" lon="17.8297565">
        <ele>23.209</ele>
        <time>2013-06-03T13:59:50Z</time>
      </trkpt>
      <trkpt lat="59.9499566" lon="17.8296081">
        <ele>23.6896</ele>
        <time>2013-06-03T13:59:51Z</time>
      </trkpt>
      <trkpt lat="59.9499773" lon="17.8294622">
        <ele>23.6896</ele>
        <time>2013-06-03T13:59:52Z</time>
      </trkpt>
      <trkpt lat="59.9499996" lon="17.8293136">
        <ele>23.6896</ele>
        <time>2013-06-03T13:59:53Z</time>
      </trkpt>
      <trkpt lat="59.9500175" lon="17.829157">
        <ele>23.209</ele>
        <time>2013-06-03T13:59:54Z</time>
      </trkpt>
      <trkpt lat="59.9500271" lon="17.8289927">
        <ele>23.209</ele>
        <time>2013-06-03T13:59:55Z</time>
      </trkpt>
      <trkpt lat="59.950031" lon="17.8288256">
        <ele>23.209</ele>
        <time>2013-06-03T13:59:56Z</time>
      </trkpt>
      <trkpt lat="59.9500326" lon="17.8286576">
        <ele>23.209</ele>
        <time>2013-06-03T13:59:57Z</time>
      </trkpt>
      <trkpt lat="59.9500331" lon="17.8284887">
        <ele>23.209</ele>
        <time>2013-06-03T13:59:58Z</time>
      </trkpt>
      <trkpt lat="59.9500322" lon="17.828319">
        <ele>23.209</ele>
        <time>2013-06-03T13:59:59Z</time>
      </trkpt>
      <trkpt lat="59.95003" lon="17.8281526">
        <ele>22.7283</ele>
        <time>2013-06-03T14:00:00Z</time>
      </trkpt>
      <trkpt lat="59.9500286" lon="17.8279877">
        <ele>22.7283</ele>
        <time>2013-06-03T14:00:01Z</time>
      </trkpt>
      <trkpt lat="59.950028" lon="17.8278209">
        <ele>22.7283</ele>
        <time>2013-06-03T14:00:02Z</time>
      </trkpt>
      <trkpt lat="59.9500275" lon="17.8276526">
        <ele>22.7283</ele>
        <time>2013-06-03T14:00:03Z</time>
      </trkpt>
      <trkpt lat="59.9500271" lon="17.8274844">
        <ele>22.7283</ele>
        <time>2013-06-03T14:00:04Z</time>
      </trkpt>
      <trkpt lat="59.9500271" lon="17.8273171">
        <ele>22.7283</ele>
        <time>2013-06-03T14:00:05Z</time>
      </trkpt>
      <trkpt lat="59.9500294" lon="17.8271529">
        <ele>22.7283</ele>
        <time>2013-06-03T14:00:06Z</time>
      </trkpt>
      <trkpt lat="59.9500347" lon="17.8269945">
        <ele>22.7283</ele>
        <time>2013-06-03T14:00:07Z</time>
      </trkpt>
      <trkpt lat="59.9500408" lon="17.8268415">
        <ele>22.7283</ele>
        <time>2013-06-03T14:00:08Z</time>
      </trkpt>
      <trkpt lat="59.9500492" lon="17.8266919">
        <ele>22.7283</ele>
        <time>2013-06-03T14:00:09Z</time>
      </trkpt>
      <trkpt lat="59.9500608" lon="17.8265437">
        <ele>22.7283</ele>
        <time>2013-06-03T14:00:10Z</time>
      </trkpt>
      <trkpt lat="59.950075" lon="17.826396">
        <ele>22.7283</ele>
        <time>2013-06-03T14:00:11Z</time>
      </trkpt>
      <trkpt lat="59.9500927" lon="17.8262501">
        <ele>22.7283</ele>
        <time>2013-06-03T14:00:12Z</time>
      </trkpt>
      <trkpt lat="59.9501148" lon="17.8261079">
        <ele>22.7283</ele>
        <time>2013-06-03T14:00:13Z</time>
      </trkpt>
      <trkpt lat="59.9501416" lon="17.8259708">
        <ele>22.7283</ele>
        <time>2013-06-03T14:00:14Z</time>
      </trkpt>
      <trkpt lat="59.950171" lon="17.8258388">
        <ele>22.7283</ele>
        <time>2013-06-03T14:00:15Z</time>
      </trkpt>
      <trkpt lat="59.950201" lon="17.825709">
        <ele>22.7283</ele>
        <time>2013-06-03T14:00:16Z</time>
      </trkpt>
      <trkpt lat="59.9502319" lon="17.8255817">
        <ele>23.209</ele>
        <time>2013-06-03T14:00:17Z</time>
      </trkpt>
      <trkpt lat="59.9502622" lon="17.825458">
        <ele>23.209</ele>
        <time>2013-06-03T14:00:18Z</time>
      </trkpt>
      <trkpt lat="59.9502923" lon="17.8253372">
        <ele>23.209</ele>
        <time>2013-06-03T14:00:19Z</time>
      </trkpt>
      <trkpt lat="59.9503205" lon="17.8252139">
        <ele>23.209</ele>
        <time>2013-06-03T14:00:20Z</time>
      </trkpt>
      <trkpt lat="59.9503481" lon="17.8250902">
        <ele>23.209</ele>
        <time>2013-06-03T14:00:21Z</time>
      </trkpt>
      <trkpt lat="59.9503754" lon="17.8249668">
        <ele>23.209</ele>
        <time>2013-06-03T14:00:22Z</time>
      </trkpt>
      <trkpt lat="59.9504035" lon="17.8248446">
        <ele>23.209</ele>
        <time>2013-06-03T14:00:23Z</time>
      </trkpt>
      <trkpt lat="59.9504321" lon="17.824724">
        <ele>23.209</ele>
        <time>2013-06-03T14:00:24Z</time>
      </trkpt>
      <trkpt lat="59.9504594" lon="17.8246036">
        <ele>23.6896</ele>
        <time>2013-06-03T14:00:25Z</time>
      </trkpt>
      <trkpt lat="59.9504869" lon="17.8244849">
        <ele>23.6896</ele>
        <time>2013-06-03T14:00:26Z</time>
      </trkpt>
      <trkpt lat="59.9505159" lon="17.8243679">
        <ele>23.6896</ele>
        <time>2013-06-03T14:00:27Z</time>
      </trkpt>
      <trkpt lat="59.9505459" lon="17.8242532">
        <ele>23.6896</ele>
        <time>2013-06-03T14:00:28Z</time>
      </trkpt>
      <trkpt lat="59.9505735" lon="17.8241365">
        <ele>23.6896</ele>
        <time>2013-06-03T14:00:29Z</time>
      </trkpt>
      <trkpt lat="59.9505993" lon="17.8240187">
        <ele>24.1703</ele>
        <time>2013-06-03T14:00:30Z</time>
      </trkpt>
      <trkpt lat="59.9506227" lon="17.8238998">
        <ele>24.1703</ele>
        <time>2013-06-03T14:00:31Z</time>
      </trkpt>
      <trkpt lat="59.9506468" lon="17.8237796">
        <ele>23.6896</ele>
        <time>2013-06-03T14:00:32Z</time>
      </trkpt>
      <trkpt lat="59.9506693" lon="17.8236543">
        <ele>23.6896</ele>
        <time>2013-06-03T14:00:33Z</time>
      </trkpt>
      <trkpt lat="59.9506905" lon="17.8235258">
        <ele>23.6896</ele>
        <time>2013-06-03T14:00:34Z</time>
      </trkpt>
      <trkpt lat="59.9507072" lon="17.8233916">
        <ele>23.6896</ele>
        <time>2013-06-03T14:00:35Z</time>
      </trkpt>
      <trkpt lat="59.9507216" lon="17.8232554">
        <ele>23.209</ele>
        <time>2013-06-03T14:00:36Z</time>
      </trkpt>
      <trkpt lat="59.9507345" lon="17.8231202">
        <ele>23.209</ele>
        <time>2013-06-03T14:00:37Z</time>
      </trkpt>
      <trkpt lat="59.9507473" lon="17.8229863">
        <ele>23.209</ele>
        <time>2013-06-03T14:00:38Z</time>
      </trkpt>
      <trkpt lat="59.9507599" lon="17.8228524">
        <ele>23.209</ele>
        <time>2013-06-03T14:00:39Z</time>
      </trkpt>
      <trkpt lat="59.9507739" lon="17.8227181">
        <ele>23.209</ele>
        <time>2013-06-03T14:00:40Z</time>
      </trkpt>
      <trkpt lat="59.9507884" lon="17.8225831">
        <ele>23.6896</ele>
        <time>2013-06-03T14:00:41Z</time>
      </trkpt>
      <trkpt lat="59.9508034" lon="17.8224487">
        <ele>23.6896</ele>
        <time>2013-06-03T14:00:42Z</time>
      </trkpt>
      <trkpt lat="59.9508185" lon="17.8223146">
        <ele>23.6896</ele>
        <time>2013-06-03T14:00:43Z</time>
      </trkpt>
      <trkpt lat="59.9508305" lon="17.8221673">
        <ele>23.6896</ele>
        <time>2013-06-03T14:00:44Z</time>
      </trkpt>
      <trkpt lat="59.9508423" lon="17.8220281">
        <ele>23.6896</ele>
        <time>2013-06-03T14:00:45Z</time>
      </trkpt>
      <trkpt lat="59.9508533" lon="17.8218888">
        <ele>23.6896</ele>
        <time>2013-06-03T14:00:46Z</time>
      </trkpt>
      <trkpt lat="59.9508661" lon="17.8217521">
        <ele>23.209</ele>
        <time>2013-06-03T14:00:47Z</time>
      </trkpt>
      <trkpt lat="59.9508797" lon="17.8216183">
        <ele>23.209</ele>
        <time>2013-06-03T14:00:48Z</time>
      </trkpt>
      <trkpt lat="59.9508924" lon="17.8214869">
        <ele>23.209</ele>
        <time>2013-06-03T14:00:49Z</time>
      </trkpt>
      <trkpt lat="59.9509043" lon="17.8213548">
        <ele>23.209</ele>
        <time>2013-06-03T14:00:50Z</time>
      </trkpt>
      <trkpt lat="59.9509159" lon="17.821222">
        <ele>23.209</ele>
        <time>2013-06-03T14:00:51Z</time>
      </trkpt>
      <trkpt lat="59.9509268" lon="17.8210891">
        <ele>23.209</ele>
        <time>2013-06-03T14:00:52Z</time>
      </trkpt>
      <trkpt lat="59.9509364" lon="17.8209549">
        <ele>23.209</ele>
        <time>2013-06-03T14:00:53Z</time>
      </trkpt>
      <trkpt lat="59.9509463" lon="17.8208243">
        <ele>23.209</ele>
        <time>2013-06-03T14:00:54Z</time>
      </trkpt>
      <trkpt lat="59.9509558" lon="17.820698">
        <ele>23.209</ele>
        <time>2013-06-03T14:00:55Z</time>
      </trkpt>
      <trkpt lat="59.9509655" lon="17.8205752">
        <ele>23.209</ele>
        <time>2013-06-03T14:00:56Z</time>
      </trkpt>
      <trkpt lat="59.9509729" lon="17.8204501">
        <ele>23.209</ele>
        <time>2013-06-03T14:00:57Z</time>
      </trkpt>
      <trkpt lat="59.9509786" lon="17.8203234">
        <ele>23.209</ele>
        <time>2013-06-03T14:00:58Z</time>
      </trkpt>
      <trkpt lat="59.9509846" lon="17.8201973">
        <ele>23.209</ele>
        <time>2013-06-03T14:00:59Z</time>
      </trkpt>
      <trkpt lat="59.950991" lon="17.8200696">
        <ele>23.209</ele>
        <time>2013-06-03T14:01:00Z</time>
      </trkpt>
      <trkpt lat="59.9509977" lon="17.8199423">
        <ele>23.6896</ele>
        <time>2013-06-03T14:01:01Z</time>
      </trkpt>
      <trkpt lat="59.9510039" lon="17.8198158">
        <ele>23.6896</ele>
        <time>2013-06-03T14:01:02Z</time>
      </trkpt>
      <trkpt lat="59.9510091" lon="17.8196895">
        <ele>23.6896</ele>
        <time>2013-06-03T14:01:03Z</time>
      </trkpt>
      <trkpt lat="59.9510142" lon="17.819563">
        <ele>23.6896</ele>
        <time>2013-06-03T14:01:04Z</time>
      </trkpt>
      <trkpt lat="59.9510167" lon="17.8194351">
        <ele>23.6896</ele>
        <time>2013-06-03T14:01:05Z</time>
      </trkpt>
      <trkpt lat="59.9510182" lon="17.8193065">
        <ele>23.6896</ele>
        <time>2013-06-03T14:01:06Z</time>
      </trkpt>
      <trkpt lat="59.9510205" lon="17.8191772">
        <ele>23.6896</ele>
        <time>2013-06-03T14:01:07Z</time>
      </trkpt>
      <trkpt lat="59.9510239" lon="17.8190474">
        <ele>23.6896</ele>
        <time>2013-06-03T14:01:08Z</time>
      </trkpt>
      <trkpt lat="59.9510298" lon="17.8189176">
        <ele>23.6896</ele>
        <time>2013-06-03T14:01:09Z</time>
      </trkpt>
      <trkpt lat="59.9510385" lon="17.8187894">
        <ele>24.1703</ele>
        <time>2013-06-03T14:01:10Z</time>
      </trkpt>
      <trkpt lat="59.9510494" lon="17.8186632">
        <ele>24.1703</ele>
        <time>2013-06-03T14:01:11Z</time>
      </trkpt>
      <trkpt lat="59.9510623" lon="17.8185389">
        <ele>24.1703</ele>
        <time>2013-06-03T14:01:12Z</time>
      </trkpt>
      <trkpt lat="59.9510759" lon="17.8184156">
        <ele>24.1703</ele>
        <time>2013-06-03T14:01:13Z</time>
      </trkpt>
      <trkpt lat="59.9510893" lon="17.8182926">
        <ele>24.1703</ele>
        <time>2013-06-03T14:01:14Z</time>
      </trkpt>
      <trkpt lat="59.9511022" lon="17.818168">
        <ele>24.1703</ele>
        <time>2013-06-03T14:01:15Z</time>
      </trkpt>
      <trkpt lat="59.9511149" lon="17.8180412">
        <ele>24.1703</ele>
        <time>2013-06-03T14:01:16Z</time>
      </trkpt>
      <trkpt lat="59.9511279" lon="17.8179147">
        <ele>24.1703</ele>
        <time>2013-06-03T14:01:17Z</time>
      </trkpt>
      <trkpt lat="59.951141" lon="17.8177897">
        <ele>23.6896</ele>
        <time>2013-06-03T14:01:18Z</time>
      </trkpt>
      <trkpt lat="59.9511538" lon="17.8176614">
        <ele>23.6896</ele>
        <time>2013-06-03T14:01:19Z</time>
      </trkpt>
      <trkpt lat="59.9511666" lon="17.8175273">
        <ele>23.6896</ele>
        <time>2013-06-03T14:01:20Z</time>
      </trkpt>
      <trkpt lat="59.9511801" lon="17.8173869">
        <ele>23.6896</ele>
        <time>2013-06-03T14:01:21Z</time>
      </trkpt>
      <trkpt lat="59.9511956" lon="17.8172481">
        <ele>23.6896</ele>
        <time>2013-06-03T14:01:22Z</time>
      </trkpt>
      <trkpt lat="59.9512115" lon="17.8171162">
        <ele>23.6896</ele>
        <time>2013-06-03T14:01:23Z</time>
      </trkpt>
      <trkpt lat="59.951226" lon="17.8169862">
        <ele>23.6896</ele>
        <time>2013-06-03T14:01:24Z</time>
      </trkpt>
      <trkpt lat="59.9512365" lon="17.8168537">
        <ele>23.6896</ele>
        <time>2013-06-03T14:01:25Z</time>
      </trkpt>
      <trkpt lat="59.9512489" lon="17.8167203">
        <ele>23.6896</ele>
        <time>2013-06-03T14:01:26Z</time>
      </trkpt>
      <trkpt lat="59.9512627" lon="17.8165876">
        <ele>23.6896</ele>
        <time>2013-06-03T14:01:27Z</time>
      </trkpt>
      <trkpt lat="59.9512739" lon="17.8164527">
        <ele>23.6896</ele>
        <time>2013-06-03T14:01:28Z</time>
      </trkpt>
      <trkpt lat="59.9512864" lon="17.8163185">
        <ele>23.6896</ele>
        <time>2013-06-03T14:01:29Z</time>
      </trkpt>
      <trkpt lat="59.9512982" lon="17.8161845">
        <ele>23.209</ele>
        <time>2013-06-03T14:01:30Z</time>
      </trkpt>
      <trkpt lat="59.9513091" lon="17.8160505">
        <ele>23.6896</ele>
        <time>2013-06-03T14:01:31Z</time>
      </trkpt>
      <trkpt lat="59.9513195" lon="17.8159145">
        <ele>23.6896</ele>
        <time>2013-06-03T14:01:32Z</time>
      </trkpt>
      <trkpt lat="59.9513278" lon="17.8157744">
        <ele>23.6896</ele>
        <time>2013-06-03T14:01:33Z</time>
      </trkpt>
      <trkpt lat="59.951336" lon="17.8156335">
        <ele>23.209</ele>
        <time>2013-06-03T14:01:34Z</time>
      </trkpt>
      <trkpt lat="59.951343" lon="17.815493">
        <ele>23.209</ele>
        <time>2013-06-03T14:01:35Z</time>
      </trkpt>
      <trkpt lat="59.9513498" lon="17.8153521">
        <ele>23.209</ele>
        <time>2013-06-03T14:01:36Z</time>
      </trkpt>
      <trkpt lat="59.9513558" lon="17.8152101">
        <ele>23.209</ele>
        <time>2013-06-03T14:01:37Z</time>
      </trkpt>
      <trkpt lat="59.9513603" lon="17.8150677">
        <ele>23.209</ele>
        <time>2013-06-03T14:01:38Z</time>
      </trkpt>
      <trkpt lat="59.9513635" lon="17.8149236">
        <ele>23.209</ele>
        <time>2013-06-03T14:01:39Z</time>
      </trkpt>
      <trkpt lat="59.951366" lon="17.8147766">
        <ele>23.209</ele>
        <time>2013-06-03T14:01:40Z</time>
      </trkpt>
      <trkpt lat="59.9513686" lon="17.8146298">
        <ele>23.209</ele>
        <time>2013-06-03T14:01:41Z</time>
      </trkpt>
      <trkpt lat="59.9513712" lon="17.8144828">
        <ele>23.6896</ele>
        <time>2013-06-03T14:01:42Z</time>
      </trkpt>
      <trkpt lat="59.9513738" lon="17.8143335">
        <ele>23.6896</ele>
        <time>2013-06-03T14:01:43Z</time>
      </trkpt>
      <trkpt lat="59.9513754" lon="17.8141828">
        <ele>23.6896</ele>
        <time>2013-06-03T14:01:44Z</time>
      </trkpt>
      <trkpt lat="59.9513754" lon="17.8140304">
        <ele>23.6896</ele>
        <time>2013-06-03T14:01:45Z</time>
      </trkpt>
      <trkpt lat="59.9513746" lon="17.8138773">
        <ele>23.209</ele>
        <time>2013-06-03T14:01:46Z</time>
      </trkpt>
      <trkpt lat="59.9513746" lon="17.813724">
        <ele>23.209</ele>
        <time>2013-06-03T14:01:47Z</time>
      </trkpt>
      <trkpt lat="59.9513748" lon="17.8135726">
        <ele>23.209</ele>
        <time>2013-06-03T14:01:48Z</time>
      </trkpt>
      <trkpt lat="59.9513758" lon="17.8134246">
        <ele>23.209</ele>
        <time>2013-06-03T14:01:49Z</time>
      </trkpt>
      <trkpt lat="59.9513764" lon="17.8132806">
        <ele>23.209</ele>
        <time>2013-06-03T14:01:50Z</time>
      </trkpt>
      <trkpt lat="59.9513763" lon="17.8131376">
        <ele>23.6896</ele>
        <time>2013-06-03T14:01:51Z</time>
      </trkpt>
      <trkpt lat="59.9513763" lon="17.812994">
        <ele>23.6896</ele>
        <time>2013-06-03T14:01:52Z</time>
      </trkpt>
      <trkpt lat="59.9513759" lon="17.8128506">
        <ele>23.6896</ele>
        <time>2013-06-03T14:01:53Z</time>
      </trkpt>
      <trkpt lat="59.9513769" lon="17.8127082">
        <ele>23.6896</ele>
        <time>2013-06-03T14:01:54Z</time>
      </trkpt>
      <trkpt lat="59.9513795" lon="17.8125663">
        <ele>23.6896</ele>
        <time>2013-06-03T14:01:55Z</time>
      </trkpt>
      <trkpt lat="59.9513811" lon="17.8124243">
        <ele>23.6896</ele>
        <time>2013-06-03T14:01:56Z</time>
      </trkpt>
      <trkpt lat="59.9513819" lon="17.8122837">
        <ele>24.1703</ele>
        <time>2013-06-03T14:01:57Z</time>
      </trkpt>
      <trkpt lat="59.951384" lon="17.8121439">
        <ele>24.1703</ele>
        <time>2013-06-03T14:01:58Z</time>
      </trkpt>
      <trkpt lat="59.9513883" lon="17.8120056">
        <ele>24.1703</ele>
        <time>2013-06-03T14:01:59Z</time>
      </trkpt>
      <trkpt lat="59.9513946" lon="17.8118696">
        <ele>24.1703</ele>
        <time>2013-06-03T14:02:00Z</time>
      </trkpt>
      <trkpt lat="59.9514038" lon="17.8117356">
        <ele>24.651</ele>
        <time>2013-06-03T14:02:01Z</time>
      </trkpt>
      <trkpt lat="59.9514169" lon="17.8116032">
        <ele>24.651</ele>
        <time>2013-06-03T14:02:02Z</time>
      </trkpt>
      <trkpt lat="59.9514321" lon="17.8114737">
        <ele>24.651</ele>
        <time>2013-06-03T14:02:03Z</time>
      </trkpt>
      <trkpt lat="59.9514479" lon="17.8113451">
        <ele>24.651</ele>
        <time>2013-06-03T14:02:04Z</time>
      </trkpt>
      <trkpt lat="59.9514644" lon="17.8112178">
        <ele>24.651</ele>
        <time>2013-06-03T14:02:05Z</time>
      </trkpt>
      <trkpt lat="59.9514821" lon="17.8110933">
        <ele>25.1317</ele>
        <time>2013-06-03T14:02:06Z</time>
      </trkpt>
      <trkpt lat="59.9515012" lon="17.81097">
        <ele>25.1317</ele>
        <time>2013-06-03T14:02:07Z</time>
      </trkpt>
      <trkpt lat="59.9515215" lon="17.8108464">
        <ele>25.1317</ele>
        <time>2013-06-03T14:02:08Z</time>
      </trkpt>
      <trkpt lat="59.951543" lon="17.8107227">
        <ele>25.1317</ele>
        <time>2013-06-03T14:02:09Z</time>
      </trkpt>
      <trkpt lat="59.9515651" lon="17.8105992">
        <ele>25.1317</ele>
        <time>2013-06-03T14:02:10Z</time>
      </trkpt>
      <trkpt lat="59.951588" lon="17.8104772">
        <ele>25.6123</ele>
        <time>2013-06-03T14:02:11Z</time>
      </trkpt>
      <trkpt lat="59.9516129" lon="17.8103578">
        <ele>25.6123</ele>
        <time>2013-06-03T14:02:12Z</time>
      </trkpt>
      <trkpt lat="59.9516396" lon="17.8102404">
        <ele>26.0929</ele>
        <time>2013-06-03T14:02:13Z</time>
      </trkpt>
      <trkpt lat="59.9516678" lon="17.8101262">
        <ele>26.0929</ele>
        <time>2013-06-03T14:02:14Z</time>
      </trkpt>
      <trkpt lat="59.9516965" lon="17.8100149">
        <ele>26.0929</ele>
        <time>2013-06-03T14:02:15Z</time>
      </trkpt>
      <trkpt lat="59.9517245" lon="17.8099045">
        <ele>26.0929</ele>
        <time>2013-06-03T14:02:16Z</time>
      </trkpt>
      <trkpt lat="59.9517525" lon="17.8097944">
        <ele>26.0929</ele>
        <time>2013-06-03T14:02:17Z</time>
      </trkpt>
      <trkpt lat="59.9517815" lon="17.8096857">
        <ele>26.0929</ele>
        <time>2013-06-03T14:02:18Z</time>
      </trkpt>
      <trkpt lat="59.9518113" lon="17.8095768">
        <ele>26.0929</ele>
        <time>2013-06-03T14:02:19Z</time>
      </trkpt>
      <trkpt lat="59.9518415" lon="17.8094664">
        <ele>26.0929</ele>
        <time>2013-06-03T14:02:20Z</time>
      </trkpt>
      <trkpt lat="59.9518715" lon="17.8093557">
        <ele>26.0929</ele>
        <time>2013-06-03T14:02:21Z</time>
      </trkpt>
      <trkpt lat="59.9519015" lon="17.8092442">
        <ele>26.0929</ele>
        <time>2013-06-03T14:02:22Z</time>
      </trkpt>
      <trkpt lat="59.9519315" lon="17.8091318">
        <ele>26.0929</ele>
        <time>2013-06-03T14:02:23Z</time>
      </trkpt>
      <trkpt lat="59.951961" lon="17.8090203">
        <ele>26.0929</ele>
        <time>2013-06-03T14:02:24Z</time>
      </trkpt>
      <trkpt lat="59.9519913" lon="17.8089144">
        <ele>26.0929</ele>
        <time>2013-06-03T14:02:25Z</time>
      </trkpt>
      <trkpt lat="59.9520218" lon="17.8088122">
        <ele>26.0929</ele>
        <time>2013-06-03T14:02:26Z</time>
      </trkpt>
      <trkpt lat="59.9520506" lon="17.8087086">
        <ele>26.5736</ele>
        <time>2013-06-03T14:02:27Z</time>
      </trkpt>
      <trkpt lat="59.9520788" lon="17.8086045">
        <ele>26.5736</ele>
        <time>2013-06-03T14:02:28Z</time>
      </trkpt>
      <trkpt lat="59.9521072" lon="17.8084992">
        <ele>26.5736</ele>
        <time>2013-06-03T14:02:29Z</time>
      </trkpt>
      <trkpt lat="59.9521361" lon="17.8083942">
        <ele>26.5736</ele>
        <time>2013-06-03T14:02:30Z</time>
      </trkpt>
      <trkpt lat="59.9521643" lon="17.8082874">
        <ele>26.5736</ele>
        <time>2013-06-03T14:02:31Z</time>
      </trkpt>
      <trkpt lat="59.9521922" lon="17.8081816">
        <ele>27.0543</ele>
        <time>2013-06-03T14:02:32Z</time>
      </trkpt>
      <trkpt lat="59.9522203" lon="17.8080777">
        <ele>27.0543</ele>
        <time>2013-06-03T14:02:33Z</time>
      </trkpt>
      <trkpt lat="59.9522482" lon="17.8079735">
        <ele>27.5349</ele>
        <time>2013-06-03T14:02:34Z</time>
      </trkpt>
      <trkpt lat="59.9522757" lon="17.8078694">
        <ele>27.5349</ele>
        <time>2013-06-03T14:02:35Z</time>
      </trkpt>
      <trkpt lat="59.9523022" lon="17.8077647">
        <ele>27.5349</ele>
        <time>2013-06-03T14:02:36Z</time>
      </trkpt>
      <trkpt lat="59.9523286" lon="17.8076596">
        <ele>27.5349</ele>
        <time>2013-06-03T14:02:37Z</time>
      </trkpt>
      <trkpt lat="59.9523558" lon="17.8075546">
        <ele>28.0155</ele>
        <time>2013-06-03T14:02:38Z</time>
      </trkpt>
      <trkpt lat="59.9523824" lon="17.8074492">
        <ele>28.0155</ele>
        <time>2013-06-03T14:02:39Z</time>
      </trkpt>
      <trkpt lat="59.9524093" lon="17.8073457">
        <ele>28.4962</ele>
        <time>2013-06-03T14:02:40Z</time>
      </trkpt>
      <trkpt lat="59.9524368" lon="17.8072425">
        <ele>28.9769</ele>
        <time>2013-06-03T14:02:41Z</time>
      </trkpt>
      <trkpt lat="59.952464" lon="17.8071395">
        <ele>29.4575</ele>
        <time>2013-06-03T14:02:42Z</time>
      </trkpt>
      <trkpt lat="59.9524907" lon="17.8070359">
        <ele>29.4575</ele>
        <time>2013-06-03T14:02:43Z</time>
      </trkpt>
      <trkpt lat="59.9525164" lon="17.8069344">
        <ele>29.9381</ele>
        <time>2013-06-03T14:02:44Z</time>
      </trkpt>
      <trkpt lat="59.9525409" lon="17.8068354">
        <ele>30.4188</ele>
        <time>2013-06-03T14:02:45Z</time>
      </trkpt>
      <trkpt lat="59.952566" lon="17.8067354">
        <ele>30.8995</ele>
        <time>2013-06-03T14:02:46Z</time>
      </trkpt>
      <trkpt lat="59.9525905" lon="17.8066367">
        <ele>30.8995</ele>
        <time>2013-06-03T14:02:47Z</time>
      </trkpt>
      <trkpt lat="59.9526125" lon="17.8065357">
        <ele>31.3801</ele>
        <time>2013-06-03T14:02:48Z</time>
      </trkpt>
      <trkpt lat="59.9526329" lon="17.8064334">
        <ele>31.3801</ele>
        <time>2013-06-03T14:02:49Z</time>
      </trkpt>
      <trkpt lat="59.9526508" lon="17.806329">
        <ele>32.3416</ele>
        <time>2013-06-03T14:02:50Z</time>
      </trkpt>
      <trkpt lat="59.952671" lon="17.8062222">
        <ele>32.8223</ele>
        <time>2013-06-03T14:02:51Z</time>
      </trkpt>
      <trkpt lat="59.9526905" lon="17.8061118">
        <ele>32.8223</ele>
        <time>2013-06-03T14:02:52Z</time>
      </trkpt>
      <trkpt lat="59.9527087" lon="17.8059956">
        <ele>33.3029</ele>
        <time>2013-06-03T14:02:53Z</time>
      </trkpt>
      <trkpt lat="59.9527256" lon="17.8058769">
        <ele>33.3029</ele>
        <time>2013-06-03T14:02:54Z</time>
      </trkpt>
      <trkpt lat="59.9527413" lon="17.8057571">
        <ele>33.3029</ele>
        <time>2013-06-03T14:02:55Z</time>
      </trkpt>
      <trkpt lat="59.9527558" lon="17.8056411">
        <ele>33.3029</ele>
        <time>2013-06-03T14:02:56Z</time>
      </trkpt>
      <trkpt lat="59.9527713" lon="17.8055234">
        <ele>33.3029</ele>
        <time>2013-06-03T14:02:57Z</time>
      </trkpt>
      <trkpt lat="59.9527859" lon="17.8054016">
        <ele>33.3029</ele>
        <time>2013-06-03T14:02:58Z</time>
      </trkpt>
      <trkpt lat="59.9528014" lon="17.805279">
        <ele>32.3416</ele>
        <time>2013-06-03T14:02:59Z</time>
      </trkpt>
      <trkpt lat="59.9528103" lon="17.8051541">
        <ele>32.3416</ele>
        <time>2013-06-03T14:03:00Z</time>
      </trkpt>
      <trkpt lat="59.952821" lon="17.805039">
        <ele>32.3416</ele>
        <time>2013-06-03T14:03:01Z</time>
      </trkpt>
      <trkpt lat="59.952833" lon="17.8049241">
        <ele>32.8223</ele>
        <time>2013-06-03T14:03:02Z</time>
      </trkpt>
      <trkpt lat="59.9528481" lon="17.8048095">
        <ele>33.3029</ele>
        <time>2013-06-03T14:03:03Z</time>
      </trkpt>
      <trkpt lat="59.9528662" lon="17.8046934">
        <ele>32.3416</ele>
        <time>2013-06-03T14:03:04Z</time>
      </trkpt>
      <trkpt lat="59.9528862" lon="17.8045755">
        <ele>32.3416</ele>
        <time>2013-06-03T14:03:05Z</time>
      </trkpt>
      <trkpt lat="59.9529171" lon="17.8044674">
        <ele>31.8607</ele>
        <time>2013-06-03T14:03:06Z</time>
      </trkpt>
      <trkpt lat="59.9529461" lon="17.8043664">
        <ele>31.8607</ele>
        <time>2013-06-03T14:03:07Z</time>
      </trkpt>
      <trkpt lat="59.9529791" lon="17.8042711">
        <ele>31.8607</ele>
        <time>2013-06-03T14:03:08Z</time>
      </trkpt>
      <trkpt lat="59.9530153" lon="17.8041873">
        <ele>31.8607</ele>
        <time>2013-06-03T14:03:09Z</time>
      </trkpt>
      <trkpt lat="59.9530531" lon="17.8041117">
        <ele>32.3416</ele>
        <time>2013-06-03T14:03:10Z</time>
      </trkpt>
      <trkpt lat="59.9530911" lon="17.8040418">
        <ele>32.3416</ele>
        <time>2013-06-03T14:03:11Z</time>
      </trkpt>
      <trkpt lat="59.9531603" lon="17.8039134">
        <ele>32.3416</ele>
        <time>2013-06-03T14:03:13Z</time>
      </trkpt>
      <trkpt lat="59.9531923" lon="17.8038491">
        <ele>32.8223</ele>
        <time>2013-06-03T14:03:14Z</time>
      </trkpt>
      <trkpt lat="59.9532292" lon="17.8037914">
        <ele>32.8223</ele>
        <time>2013-06-03T14:03:15Z</time>
      </trkpt>
      <trkpt lat="59.9532636" lon="17.8037265">
        <ele>33.3029</ele>
        <time>2013-06-03T14:03:16Z</time>
      </trkpt>
      <trkpt lat="59.9532971" lon="17.8036606">
        <ele>33.3029</ele>
        <time>2013-06-03T14:03:17Z</time>
      </trkpt>
      <trkpt lat="59.9533299" lon="17.8035894">
        <ele>32.8223</ele>
        <time>2013-06-03T14:03:18Z</time>
      </trkpt>
      <trkpt lat="59.953363" lon="17.8035086">
        <ele>32.8223</ele>
        <time>2013-06-03T14:03:19Z</time>
      </trkpt>
      <trkpt lat="59.9533934" lon="17.8034209">
        <ele>32.8223</ele>
        <time>2013-06-03T14:03:20Z</time>
      </trkpt>
      <trkpt lat="59.9534237" lon="17.8033358">
        <ele>32.8223</ele>
        <time>2013-06-03T14:03:21Z</time>
      </trkpt>
      <trkpt lat="59.9534544" lon="17.8032447">
        <ele>33.3029</ele>
        <time>2013-06-03T14:03:22Z</time>
      </trkpt>
      <trkpt lat="59.9534829" lon="17.8031478">
        <ele>33.3029</ele>
        <time>2013-06-03T14:03:23Z</time>
      </trkpt>
      <trkpt lat="59.9535127" lon="17.803054">
        <ele>33.3029</ele>
        <time>2013-06-03T14:03:24Z</time>
      </trkpt>
      <trkpt lat="59.9535406" lon="17.8029494">
        <ele>32.8223</ele>
        <time>2013-06-03T14:03:25Z</time>
      </trkpt>
      <trkpt lat="59.9535691" lon="17.8028466">
        <ele>32.3416</ele>
        <time>2013-06-03T14:03:26Z</time>
      </trkpt>
      <trkpt lat="59.9535938" lon="17.8027397">
        <ele>31.8607</ele>
        <time>2013-06-03T14:03:27Z</time>
      </trkpt>
      <trkpt lat="59.9536147" lon="17.8026288">
        <ele>31.3801</ele>
        <time>2013-06-03T14:03:28Z</time>
      </trkpt>
      <trkpt lat="59.9536374" lon="17.8025142">
        <ele>31.3801</ele>
        <time>2013-06-03T14:03:29Z</time>
      </trkpt>
      <trkpt lat="59.9536635" lon="17.802399">
        <ele>31.3801</ele>
        <time>2013-06-03T14:03:30Z</time>
      </trkpt>
      <trkpt lat="59.9536914" lon="17.8022771">
        <ele>31.3801</ele>
        <time>2013-06-03T14:03:31Z</time>
      </trkpt>
      <trkpt lat="59.9537187" lon="17.8021496">
        <ele>31.3801</ele>
        <time>2013-06-03T14:03:32Z</time>
      </trkpt>
      <trkpt lat="59.9537468" lon="17.8020179">
        <ele>30.8995</ele>
        <time>2013-06-03T14:03:33Z</time>
      </trkpt>
      <trkpt lat="59.9537831" lon="17.8018972">
        <ele>30.8995</ele>
        <time>2013-06-03T14:03:34Z</time>
      </trkpt>
      <trkpt lat="59.9538364" lon="17.8017667">
        <ele>30.4188</ele>
        <time>2013-06-03T14:03:35Z</time>
      </trkpt>
      <trkpt lat="59.9538881" lon="17.8016464">
        <ele>29.9381</ele>
        <time>2013-06-03T14:03:36Z</time>
      </trkpt>
      <trkpt lat="59.9539362" lon="17.8015238">
        <ele>29.4575</ele>
        <time>2013-06-03T14:03:37Z</time>
      </trkpt>
      <trkpt lat="59.9539759" lon="17.8013657">
        <ele>29.4575</ele>
        <time>2013-06-03T14:03:38Z</time>
      </trkpt>
      <trkpt lat="59.9540224" lon="17.8012297">
        <ele>29.4575</ele>
        <time>2013-06-03T14:03:39Z</time>
      </trkpt>
      <trkpt lat="59.9540712" lon="17.8010975">
        <ele>29.4575</ele>
        <time>2013-06-03T14:03:40Z</time>
      </trkpt>
      <trkpt lat="59.9541201" lon="17.8009654">
        <ele>28.9769</ele>
        <time>2013-06-03T14:03:41Z</time>
      </trkpt>
      <trkpt lat="59.9541688" lon="17.80084">
        <ele>28.4962</ele>
        <time>2013-06-03T14:03:42Z</time>
      </trkpt>
      <trkpt lat="59.9542165" lon="17.8007139">
        <ele>28.0155</ele>
        <time>2013-06-03T14:03:43Z</time>
      </trkpt>
      <trkpt lat="59.9542646" lon="17.800586">
        <ele>28.0155</ele>
        <time>2013-06-03T14:03:44Z</time>
      </trkpt>
      <trkpt lat="59.9543152" lon="17.8004608">
        <ele>27.5349</ele>
        <time>2013-06-03T14:03:45Z</time>
      </trkpt>
      <trkpt lat="59.9543668" lon="17.8003369">
        <ele>27.5349</ele>
        <time>2013-06-03T14:03:46Z</time>
      </trkpt>
      <trkpt lat="59.9544185" lon="17.8002136">
        <ele>27.5349</ele>
        <time>2013-06-03T14:03:47Z</time>
      </trkpt>
      <trkpt lat="59.9544698" lon="17.8000916">
        <ele>27.5349</ele>
        <time>2013-06-03T14:03:48Z</time>
      </trkpt>
      <trkpt lat="59.9545254" lon="17.7999828">
        <ele>27.5349</ele>
        <time>2013-06-03T14:03:49Z</time>
      </trkpt>
      <trkpt lat="59.9545751" lon="17.7998553">
        <ele>27.0543</ele>
        <time>2013-06-03T14:03:50Z</time>
      </trkpt>
      <trkpt lat="59.954626" lon="17.7997289">
        <ele>27.0543</ele>
        <time>2013-06-03T14:03:51Z</time>
      </trkpt>
      <trkpt lat="59.95468" lon="17.7996038">
        <ele>27.0543</ele>
        <time>2013-06-03T14:03:52Z</time>
      </trkpt>
      <trkpt lat="59.9547327" lon="17.7994889">
        <ele>27.0543</ele>
        <time>2013-06-03T14:03:53Z</time>
      </trkpt>
      <trkpt lat="59.9547839" lon="17.7993796">
        <ele>27.0543</ele>
        <time>2013-06-03T14:03:54Z</time>
      </trkpt>
      <trkpt lat="59.9548356" lon="17.7992808">
        <ele>26.5736</ele>
        <time>2013-06-03T14:03:55Z</time>
      </trkpt>
      <trkpt lat="59.9548871" lon="17.7991851">
        <ele>26.5736</ele>
        <time>2013-06-03T14:03:56Z</time>
      </trkpt>
      <trkpt lat="59.9549382" lon="17.7990931">
        <ele>26.5736</ele>
        <time>2013-06-03T14:03:57Z</time>
      </trkpt>
      <trkpt lat="59.9549886" lon="17.7990024">
        <ele>26.5736</ele>
        <time>2013-06-03T14:03:58Z</time>
      </trkpt>
      <trkpt lat="59.9550382" lon="17.7989099">
        <ele>26.5736</ele>
        <time>2013-06-03T14:03:59Z</time>
      </trkpt>
      <trkpt lat="59.9550864" lon="17.7988156">
        <ele>26.0929</ele>
        <time>2013-06-03T14:04:00Z</time>
      </trkpt>
      <trkpt lat="59.9551339" lon="17.798717">
        <ele>26.0929</ele>
        <time>2013-06-03T14:04:01Z</time>
      </trkpt>
      <trkpt lat="59.9551801" lon="17.7986116">
        <ele>26.0929</ele>
        <time>2013-06-03T14:04:02Z</time>
      </trkpt>
      <trkpt lat="59.9552258" lon="17.7984997">
        <ele>25.6123</ele>
        <time>2013-06-03T14:04:03Z</time>
      </trkpt>
      <trkpt lat="59.9552713" lon="17.7983848">
        <ele>25.6123</ele>
        <time>2013-06-03T14:04:04Z</time>
      </trkpt>
      <trkpt lat="59.9553143" lon="17.7982667">
        <ele>25.1317</ele>
        <time>2013-06-03T14:04:05Z</time>
      </trkpt>
      <trkpt lat="59.9553551" lon="17.7981434">
        <ele>25.1317</ele>
        <time>2013-06-03T14:04:06Z</time>
      </trkpt>
      <trkpt lat="59.9553956" lon="17.7980187">
        <ele>24.651</ele>
        <time>2013-06-03T14:04:07Z</time>
      </trkpt>
      <trkpt lat="59.9554369" lon="17.7978915">
        <ele>24.1703</ele>
        <time>2013-06-03T14:04:08Z</time>
      </trkpt>
      <trkpt lat="59.9554763" lon="17.7977577">
        <ele>24.1703</ele>
        <time>2013-06-03T14:04:09Z</time>
      </trkpt>
      <trkpt lat="59.9555159" lon="17.7976227">
        <ele>24.1703</ele>
        <time>2013-06-03T14:04:10Z</time>
      </trkpt>
      <trkpt lat="59.9555552" lon="17.7974894">
        <ele>24.1703</ele>
        <time>2013-06-03T14:04:11Z</time>
      </trkpt>
      <trkpt lat="59.9555945" lon="17.7973563">
        <ele>23.6896</ele>
        <time>2013-06-03T14:04:12Z</time>
      </trkpt>
      <trkpt lat="59.9556334" lon="17.7972207">
        <ele>23.6896</ele>
        <time>2013-06-03T14:04:13Z</time>
      </trkpt>
      <trkpt lat="59.9556702" lon="17.7970801">
        <ele>23.6896</ele>
        <time>2013-06-03T14:04:14Z</time>
      </trkpt>
      <trkpt lat="59.9557049" lon="17.7969362">
        <ele>23.6896</ele>
        <time>2013-06-03T14:04:15Z</time>
      </trkpt>
      <trkpt lat="59.9557374" lon="17.7967908">
        <ele>23.6896</ele>
        <time>2013-06-03T14:04:16Z</time>
      </trkpt>
      <trkpt lat="59.9557673" lon="17.7966445">
        <ele>23.6896</ele>
        <time>2013-06-03T14:04:17Z</time>
      </trkpt>
      <trkpt lat="59.9557955" lon="17.7964982">
        <ele>23.6896</ele>
        <time>2013-06-03T14:04:18Z</time>
      </trkpt>
      <trkpt lat="59.9558209" lon="17.796352">
        <ele>23.6896</ele>
        <time>2013-06-03T14:04:19Z</time>
      </trkpt>
      <trkpt lat="59.9558441" lon="17.7962059">
        <ele>24.1703</ele>
        <time>2013-06-03T14:04:20Z</time>
      </trkpt>
      <trkpt lat="59.9558664" lon="17.7960603">
        <ele>24.1703</ele>
        <time>2013-06-03T14:04:21Z</time>
      </trkpt>
      <trkpt lat="59.9558891" lon="17.7959158">
        <ele>24.1703</ele>
        <time>2013-06-03T14:04:22Z</time>
      </trkpt>
      <trkpt lat="59.9559126" lon="17.7957729">
        <ele>24.1703</ele>
        <time>2013-06-03T14:04:23Z</time>
      </trkpt>
      <trkpt lat="59.9559365" lon="17.7956313">
        <ele>24.651</ele>
        <time>2013-06-03T14:04:24Z</time>
      </trkpt>
      <trkpt lat="59.9559626" lon="17.7954926">
        <ele>24.651</ele>
        <time>2013-06-03T14:04:25Z</time>
      </trkpt>
      <trkpt lat="59.9559903" lon="17.7953564">
        <ele>24.651</ele>
        <time>2013-06-03T14:04:26Z</time>
      </trkpt>
      <trkpt lat="59.9560196" lon="17.7952211">
        <ele>24.651</ele>
        <time>2013-06-03T14:04:27Z</time>
      </trkpt>
      <trkpt lat="59.9560504" lon="17.7950855">
        <ele>25.1317</ele>
        <time>2013-06-03T14:04:28Z</time>
      </trkpt>
      <trkpt lat="59.9560818" lon="17.794949">
        <ele>25.1317</ele>
        <time>2013-06-03T14:04:29Z</time>
      </trkpt>
      <trkpt lat="59.9561145" lon="17.794814">
        <ele>25.1317</ele>
        <time>2013-06-03T14:04:30Z</time>
      </trkpt>
      <trkpt lat="59.9561478" lon="17.7946805">
        <ele>25.6123</ele>
        <time>2013-06-03T14:04:31Z</time>
      </trkpt>
      <trkpt lat="59.9561814" lon="17.7945497">
        <ele>25.6123</ele>
        <time>2013-06-03T14:04:32Z</time>
      </trkpt>
      <trkpt lat="59.9562135" lon="17.7944214">
        <ele>26.0929</ele>
        <time>2013-06-03T14:04:33Z</time>
      </trkpt>
      <trkpt lat="59.9562462" lon="17.7942878">
        <ele>25.6123</ele>
        <time>2013-06-03T14:04:34Z</time>
      </trkpt>
      <trkpt lat="59.9562755" lon="17.794153">
        <ele>25.6123</ele>
        <time>2013-06-03T14:04:35Z</time>
      </trkpt>
      <trkpt lat="59.9563059" lon="17.7940199">
        <ele>26.0929</ele>
        <time>2013-06-03T14:04:36Z</time>
      </trkpt>
      <trkpt lat="59.9563348" lon="17.7938867">
        <ele>26.0929</ele>
        <time>2013-06-03T14:04:37Z</time>
      </trkpt>
      <trkpt lat="59.9563631" lon="17.7937562">
        <ele>26.0929</ele>
        <time>2013-06-03T14:04:38Z</time>
      </trkpt>
      <trkpt lat="59.9563902" lon="17.7936267">
        <ele>26.0929</ele>
        <time>2013-06-03T14:04:39Z</time>
      </trkpt>
      <trkpt lat="59.9564162" lon="17.7934983">
        <ele>25.6123</ele>
        <time>2013-06-03T14:04:40Z</time>
      </trkpt>
      <trkpt lat="59.956467" lon="17.793247">
        <ele>26.0929</ele>
        <time>2013-06-03T14:04:42Z</time>
      </trkpt>
      <trkpt lat="59.9564913" lon="17.7931235">
        <ele>26.0929</ele>
        <time>2013-06-03T14:04:43Z</time>
      </trkpt>
      <trkpt lat="59.9565148" lon="17.7930009">
        <ele>26.0929</ele>
        <time>2013-06-03T14:04:44Z</time>
      </trkpt>
      <trkpt lat="59.9565373" lon="17.7928771">
        <ele>26.0929</ele>
        <time>2013-06-03T14:04:45Z</time>
      </trkpt>
      <trkpt lat="59.9565602" lon="17.7927523">
        <ele>26.0929</ele>
        <time>2013-06-03T14:04:46Z</time>
      </trkpt>
      <trkpt lat="59.9565833" lon="17.7926274">
        <ele>26.5736</ele>
        <time>2013-06-03T14:04:47Z</time>
      </trkpt>
      <trkpt lat="59.9566053" lon="17.7925019">
        <ele>26.5736</ele>
        <time>2013-06-03T14:04:48Z</time>
      </trkpt>
      <trkpt lat="59.9566263" lon="17.7923752">
        <ele>26.5736</ele>
        <time>2013-06-03T14:04:49Z</time>
      </trkpt>
      <trkpt lat="59.9566477" lon="17.7922488">
        <ele>26.5736</ele>
        <time>2013-06-03T14:04:50Z</time>
      </trkpt>
      <trkpt lat="59.9566697" lon="17.7921214">
        <ele>27.0543</ele>
        <time>2013-06-03T14:04:51Z</time>
      </trkpt>
      <trkpt lat="59.9566911" lon="17.7919922">
        <ele>27.5349</ele>
        <time>2013-06-03T14:04:52Z</time>
      </trkpt>
      <trkpt lat="59.9567129" lon="17.7918633">
        <ele>27.5349</ele>
        <time>2013-06-03T14:04:53Z</time>
      </trkpt>
      <trkpt lat="59.956734" lon="17.7917339">
        <ele>27.0543</ele>
        <time>2013-06-03T14:04:54Z</time>
      </trkpt>
      <trkpt lat="59.9567526" lon="17.7916021">
        <ele>27.0543</ele>
        <time>2013-06-03T14:04:55Z</time>
      </trkpt>
      <trkpt lat="59.9567687" lon="17.791469">
        <ele>27.0543</ele>
        <time>2013-06-03T14:04:56Z</time>
      </trkpt>
      <trkpt lat="59.9567801" lon="17.791337">
        <ele>27.0543</ele>
        <time>2013-06-03T14:04:57Z</time>
      </trkpt>
      <trkpt lat="59.9567828" lon="17.791205">
        <ele>27.0543</ele>
        <time>2013-06-03T14:04:58Z</time>
      </trkpt>
      <trkpt lat="59.9567775" lon="17.7910678">
        <ele>27.0543</ele>
        <time>2013-06-03T14:04:59Z</time>
      </trkpt>
      <trkpt lat="59.9567627" lon="17.7909366">
        <ele>26.5736</ele>
        <time>2013-06-03T14:05:00Z</time>
      </trkpt>
      <trkpt lat="59.9567424" lon="17.7908052">
        <ele>26.5736</ele>
        <time>2013-06-03T14:05:01Z</time>
      </trkpt>
      <trkpt lat="59.9567169" lon="17.7906766">
        <ele>26.5736</ele>
        <time>2013-06-03T14:05:02Z</time>
      </trkpt>
      <trkpt lat="59.9566875" lon="17.7905414">
        <ele>26.5736</ele>
        <time>2013-06-03T14:05:03Z</time>
      </trkpt>
      <trkpt lat="59.9566565" lon="17.7904012">
        <ele>26.0929</ele>
        <time>2013-06-03T14:05:04Z</time>
      </trkpt>
      <trkpt lat="59.9566284" lon="17.7902519">
        <ele>26.0929</ele>
        <time>2013-06-03T14:05:05Z</time>
      </trkpt>
      <trkpt lat="59.9566087" lon="17.790096">
        <ele>26.0929</ele>
        <time>2013-06-03T14:05:06Z</time>
      </trkpt>
      <trkpt lat="59.9566043" lon="17.7899362">
        <ele>26.5736</ele>
        <time>2013-06-03T14:05:07Z</time>
      </trkpt>
      <trkpt lat="59.9566182" lon="17.7897805">
        <ele>26.5736</ele>
        <time>2013-06-03T14:05:08Z</time>
      </trkpt>
      <trkpt lat="59.9566537" lon="17.7896457">
        <ele>26.5736</ele>
        <time>2013-06-03T14:05:09Z</time>
      </trkpt>
      <trkpt lat="59.9567055" lon="17.7895255">
        <ele>26.0929</ele>
        <time>2013-06-03T14:05:10Z</time>
      </trkpt>
      <trkpt lat="59.9567622" lon="17.7894236">
        <ele>25.1317</ele>
        <time>2013-06-03T14:05:11Z</time>
      </trkpt>
      <trkpt lat="59.9568317" lon="17.7893299">
        <ele>24.1703</ele>
        <time>2013-06-03T14:05:12Z</time>
      </trkpt>
      <trkpt lat="59.9569091" lon="17.7892483">
        <ele>24.651</ele>
        <time>2013-06-03T14:05:13Z</time>
      </trkpt>
      <trkpt lat="59.9569854" lon="17.7891663">
        <ele>24.651</ele>
        <time>2013-06-03T14:05:14Z</time>
      </trkpt>
      <trkpt lat="59.9570562" lon="17.7890777">
        <ele>24.651</ele>
        <time>2013-06-03T14:05:15Z</time>
      </trkpt>
      <trkpt lat="59.9571235" lon="17.7889766">
        <ele>25.1317</ele>
        <time>2013-06-03T14:05:16Z</time>
      </trkpt>
      <trkpt lat="59.9571854" lon="17.7888657">
        <ele>25.6123</ele>
        <time>2013-06-03T14:05:17Z</time>
      </trkpt>
      <trkpt lat="59.9572408" lon="17.7887456">
        <ele>25.6123</ele>
        <time>2013-06-03T14:05:18Z</time>
      </trkpt>
      <trkpt lat="59.9572931" lon="17.7886264">
        <ele>26.0929</ele>
        <time>2013-06-03T14:05:19Z</time>
      </trkpt>
      <trkpt lat="59.9573392" lon="17.7885047">
        <ele>26.5736</ele>
        <time>2013-06-03T14:05:20Z</time>
      </trkpt>
      <trkpt lat="59.9573812" lon="17.7883832">
        <ele>27.5349</ele>
        <time>2013-06-03T14:05:21Z</time>
      </trkpt>
      <trkpt lat="59.957418" lon="17.7882549">
        <ele>28.0155</ele>
        <time>2013-06-03T14:05:22Z</time>
      </trkpt>
      <trkpt lat="59.9574501" lon="17.7881166">
        <ele>28.0155</ele>
        <time>2013-06-03T14:05:23Z</time>
      </trkpt>
      <trkpt lat="59.9574842" lon="17.7879873">
        <ele>28.0155</ele>
        <time>2013-06-03T14:05:24Z</time>
      </trkpt>
      <trkpt lat="59.9575182" lon="17.7878587">
        <ele>28.0155</ele>
        <time>2013-06-03T14:05:25Z</time>
      </trkpt>
      <trkpt lat="59.9575531" lon="17.7877293">
        <ele>28.0155</ele>
        <time>2013-06-03T14:05:26Z</time>
      </trkpt>
      <trkpt lat="59.9575894" lon="17.7876007">
        <ele>28.0155</ele>
        <time>2013-06-03T14:05:27Z</time>
      </trkpt>
      <trkpt lat="59.9576241" lon="17.7874754">
        <ele>28.4962</ele>
        <time>2013-06-03T14:05:28Z</time>
      </trkpt>
      <trkpt lat="59.9576548" lon="17.7873463">
        <ele>28.4962</ele>
        <time>2013-06-03T14:05:29Z</time>
      </trkpt>
      <trkpt lat="59.9576806" lon="17.7872142">
        <ele>28.4962</ele>
        <time>2013-06-03T14:05:30Z</time>
      </trkpt>
      <trkpt lat="59.9577054" lon="17.7870801">
        <ele>28.4962</ele>
        <time>2013-06-03T14:05:31Z</time>
      </trkpt>
      <trkpt lat="59.9577333" lon="17.7869456">
        <ele>28.4962</ele>
        <time>2013-06-03T14:05:32Z</time>
      </trkpt>
      <trkpt lat="59.9577696" lon="17.7868145">
        <ele>28.0155</ele>
        <time>2013-06-03T14:05:33Z</time>
      </trkpt>
      <trkpt lat="59.9578161" lon="17.7866919">
        <ele>28.0155</ele>
        <time>2013-06-03T14:05:34Z</time>
      </trkpt>
      <trkpt lat="59.9578717" lon="17.7865828">
        <ele>27.5349</ele>
        <time>2013-06-03T14:05:35Z</time>
      </trkpt>
      <trkpt lat="59.9579332" lon="17.7864871">
        <ele>27.5349</ele>
        <time>2013-06-03T14:05:36Z</time>
      </trkpt>
      <trkpt lat="59.9579989" lon="17.7863983">
        <ele>27.5349</ele>
        <time>2013-06-03T14:05:37Z</time>
      </trkpt>
      <trkpt lat="59.958067" lon="17.7863088">
        <ele>28.0155</ele>
        <time>2013-06-03T14:05:38Z</time>
      </trkpt>
      <trkpt lat="59.9581368" lon="17.7862208">
        <ele>28.0155</ele>
        <time>2013-06-03T14:05:39Z</time>
      </trkpt>
      <trkpt lat="59.9582084" lon="17.7861353">
        <ele>28.4962</ele>
        <time>2013-06-03T14:05:40Z</time>
      </trkpt>
      <trkpt lat="59.9582811" lon="17.7860499">
        <ele>28.4962</ele>
        <time>2013-06-03T14:05:41Z</time>
      </trkpt>
      <trkpt lat="59.9583545" lon="17.7859633">
        <ele>28.9769</ele>
        <time>2013-06-03T14:05:42Z</time>
      </trkpt>
      <trkpt lat="59.958429" lon="17.7858771">
        <ele>28.9769</ele>
        <time>2013-06-03T14:05:43Z</time>
      </trkpt>
      <trkpt lat="59.9585027" lon="17.785795">
        <ele>28.9769</ele>
        <time>2013-06-03T14:05:44Z</time>
      </trkpt>
      <trkpt lat="59.958575" lon="17.7857198">
        <ele>29.4575</ele>
        <time>2013-06-03T14:05:45Z</time>
      </trkpt>
      <trkpt lat="59.958645" lon="17.7856483">
        <ele>29.4575</ele>
        <time>2013-06-03T14:05:46Z</time>
      </trkpt>
      <trkpt lat="59.9587139" lon="17.7855834">
        <ele>29.9381</ele>
        <time>2013-06-03T14:05:47Z</time>
      </trkpt>
      <trkpt lat="59.9587823" lon="17.7855265">
        <ele>29.9381</ele>
        <time>2013-06-03T14:05:48Z</time>
      </trkpt>
      <trkpt lat="59.9588502" lon="17.7854744">
        <ele>29.9381</ele>
        <time>2013-06-03T14:05:49Z</time>
      </trkpt>
      <trkpt lat="59.9589179" lon="17.7854246">
        <ele>29.9381</ele>
        <time>2013-06-03T14:05:50Z</time>
      </trkpt>
      <trkpt lat="59.958986" lon="17.7853743">
        <ele>30.4188</ele>
        <time>2013-06-03T14:05:51Z</time>
      </trkpt>
      <trkpt lat="59.9590549" lon="17.7853229">
        <ele>30.4188</ele>
        <time>2013-06-03T14:05:52Z</time>
      </trkpt>
      <trkpt lat="59.9591237" lon="17.7852688">
        <ele>30.4188</ele>
        <time>2013-06-03T14:05:53Z</time>
      </trkpt>
      <trkpt lat="59.9591911" lon="17.7852123">
        <ele>30.8995</ele>
        <time>2013-06-03T14:05:54Z</time>
      </trkpt>
      <trkpt lat="59.9592558" lon="17.7851527">
        <ele>30.8995</ele>
        <time>2013-06-03T14:05:55Z</time>
      </trkpt>
      <trkpt lat="59.959318" lon="17.7850857">
        <ele>30.8995</ele>
        <time>2013-06-03T14:05:56Z</time>
      </trkpt>
      <trkpt lat="59.9593771" lon="17.7850103">
        <ele>31.3801</ele>
        <time>2013-06-03T14:05:57Z</time>
      </trkpt>
      <trkpt lat="59.9594335" lon="17.7849294">
        <ele>31.8607</ele>
        <time>2013-06-03T14:05:58Z</time>
      </trkpt>
      <trkpt lat="59.9594879" lon="17.7848442">
        <ele>31.8607</ele>
        <time>2013-06-03T14:05:59Z</time>
      </trkpt>
      <trkpt lat="59.9595423" lon="17.7847546">
        <ele>31.8607</ele>
        <time>2013-06-03T14:06:00Z</time>
      </trkpt>
      <trkpt lat="59.9595972" lon="17.7846655">
        <ele>31.8607</ele>
        <time>2013-06-03T14:06:01Z</time>
      </trkpt>
      <trkpt lat="59.9596521" lon="17.7845759">
        <ele>31.8607</ele>
        <time>2013-06-03T14:06:02Z</time>
      </trkpt>
      <trkpt lat="59.9597055" lon="17.784485">
        <ele>31.3801</ele>
        <time>2013-06-03T14:06:03Z</time>
      </trkpt>
      <trkpt lat="59.9597584" lon="17.7843914">
        <ele>31.3801</ele>
        <time>2013-06-03T14:06:04Z</time>
      </trkpt>
      <trkpt lat="59.9598111" lon="17.7842969">
        <ele>31.3801</ele>
        <time>2013-06-03T14:06:05Z</time>
      </trkpt>
      <trkpt lat="59.9598614" lon="17.7841962">
        <ele>31.3801</ele>
        <time>2013-06-03T14:06:06Z</time>
      </trkpt>
      <trkpt lat="59.9599095" lon="17.7840897">
        <ele>31.3801</ele>
        <time>2013-06-03T14:06:07Z</time>
      </trkpt>
      <trkpt lat="59.9599567" lon="17.7839856">
        <ele>30.8995</ele>
        <time>2013-06-03T14:06:08Z</time>
      </trkpt>
      <trkpt lat="59.9600026" lon="17.7838789">
        <ele>30.8995</ele>
        <time>2013-06-03T14:06:09Z</time>
      </trkpt>
      <trkpt lat="59.9600462" lon="17.7837684">
        <ele>30.4188</ele>
        <time>2013-06-03T14:06:10Z</time>
      </trkpt>
      <trkpt lat="59.9600874" lon="17.783655">
        <ele>30.4188</ele>
        <time>2013-06-03T14:06:11Z</time>
      </trkpt>
      <trkpt lat="59.9601269" lon="17.7835425">
        <ele>30.4188</ele>
        <time>2013-06-03T14:06:12Z</time>
      </trkpt>
      <trkpt lat="59.9601639" lon="17.7834323">
        <ele>30.4188</ele>
        <time>2013-06-03T14:06:13Z</time>
      </trkpt>
      <trkpt lat="59.9602" lon="17.7833271">
        <ele>30.4188</ele>
        <time>2013-06-03T14:06:14Z</time>
      </trkpt>
      <trkpt lat="59.9602369" lon="17.783227">
        <ele>30.4188</ele>
        <time>2013-06-03T14:06:15Z</time>
      </trkpt>
      <trkpt lat="59.9602732" lon="17.7831256">
        <ele>30.4188</ele>
        <time>2013-06-03T14:06:16Z</time>
      </trkpt>
      <trkpt lat="59.9603091" lon="17.783023">
        <ele>30.4188</ele>
        <time>2013-06-03T14:06:17Z</time>
      </trkpt>
      <trkpt lat="59.9603457" lon="17.7829226">
        <ele>30.4188</ele>
        <time>2013-06-03T14:06:18Z</time>
      </trkpt>
      <trkpt lat="59.9603809" lon="17.7828189">
        <ele>30.4188</ele>
        <time>2013-06-03T14:06:19Z</time>
      </trkpt>
      <trkpt lat="59.9604146" lon="17.7827098">
        <ele>30.4188</ele>
        <time>2013-06-03T14:06:20Z</time>
      </trkpt>
      <trkpt lat="59.9604472" lon="17.7825965">
        <ele>30.4188</ele>
        <time>2013-06-03T14:06:21Z</time>
      </trkpt>
      <trkpt lat="59.9604808" lon="17.7824812">
        <ele>30.4188</ele>
        <time>2013-06-03T14:06:22Z</time>
      </trkpt>
      <trkpt lat="59.9605155" lon="17.7823641">
        <ele>30.4188</ele>
        <time>2013-06-03T14:06:23Z</time>
      </trkpt>
      <trkpt lat="59.9605519" lon="17.7822471">
        <ele>30.4188</ele>
        <time>2013-06-03T14:06:24Z</time>
      </trkpt>
      <trkpt lat="59.9605928" lon="17.7821332">
        <ele>29.9381</ele>
        <time>2013-06-03T14:06:25Z</time>
      </trkpt>
      <trkpt lat="59.9606392" lon="17.7820233">
        <ele>29.9381</ele>
        <time>2013-06-03T14:06:26Z</time>
      </trkpt>
      <trkpt lat="59.9606893" lon="17.7819193">
        <ele>29.4575</ele>
        <time>2013-06-03T14:06:27Z</time>
      </trkpt>
      <trkpt lat="59.9607415" lon="17.7818227">
        <ele>29.4575</ele>
        <time>2013-06-03T14:06:28Z</time>
      </trkpt>
      <trkpt lat="59.9607952" lon="17.78173">
        <ele>29.4575</ele>
        <time>2013-06-03T14:06:29Z</time>
      </trkpt>
      <trkpt lat="59.9608496" lon="17.7816388">
        <ele>28.9769</ele>
        <time>2013-06-03T14:06:30Z</time>
      </trkpt>
      <trkpt lat="59.9609037" lon="17.7815472">
        <ele>28.9769</ele>
        <time>2013-06-03T14:06:31Z</time>
      </trkpt>
      <trkpt lat="59.9609571" lon="17.7814554">
        <ele>28.9769</ele>
        <time>2013-06-03T14:06:32Z</time>
      </trkpt>
      <trkpt lat="59.9610076" lon="17.7813582">
        <ele>28.9769</ele>
        <time>2013-06-03T14:06:33Z</time>
      </trkpt>
      <trkpt lat="59.961057" lon="17.7812597">
        <ele>29.4575</ele>
        <time>2013-06-03T14:06:34Z</time>
      </trkpt>
      <trkpt lat="59.9611055" lon="17.7811643">
        <ele>29.4575</ele>
        <time>2013-06-03T14:06:35Z</time>
      </trkpt>
      <trkpt lat="59.9611538" lon="17.7810744">
        <ele>29.4575</ele>
        <time>2013-06-03T14:06:36Z</time>
      </trkpt>
      <trkpt lat="59.9612015" lon="17.780983">
        <ele>29.4575</ele>
        <time>2013-06-03T14:06:37Z</time>
      </trkpt>
      <trkpt lat="59.9612497" lon="17.7808884">
        <ele>28.9769</ele>
        <time>2013-06-03T14:06:38Z</time>
      </trkpt>
      <trkpt lat="59.9612976" lon="17.7807916">
        <ele>28.9769</ele>
        <time>2013-06-03T14:06:39Z</time>
      </trkpt>
      <trkpt lat="59.9613437" lon="17.78069">
        <ele>28.9769</ele>
        <time>2013-06-03T14:06:40Z</time>
      </trkpt>
      <trkpt lat="59.961391" lon="17.7805899">
        <ele>29.4575</ele>
        <time>2013-06-03T14:06:41Z</time>
      </trkpt>
      <trkpt lat="59.9614413" lon="17.780495">
        <ele>29.4575</ele>
        <time>2013-06-03T14:06:42Z</time>
      </trkpt>
      <trkpt lat="59.9614925" lon="17.7804007">
        <ele>29.9381</ele>
        <time>2013-06-03T14:06:43Z</time>
      </trkpt>
      <trkpt lat="59.9615432" lon="17.7803055">
        <ele>29.9381</ele>
        <time>2013-06-03T14:06:44Z</time>
      </trkpt>
      <trkpt lat="59.9615914" lon="17.7802086">
        <ele>29.9381</ele>
        <time>2013-06-03T14:06:45Z</time>
      </trkpt>
      <trkpt lat="59.9616371" lon="17.7801103">
        <ele>30.4188</ele>
        <time>2013-06-03T14:06:46Z</time>
      </trkpt>
      <trkpt lat="59.9616811" lon="17.7800102">
        <ele>30.4188</ele>
        <time>2013-06-03T14:06:47Z</time>
      </trkpt>
      <trkpt lat="59.9617242" lon="17.7799094">
        <ele>30.4188</ele>
        <time>2013-06-03T14:06:48Z</time>
      </trkpt>
      <trkpt lat="59.9617666" lon="17.7798073">
        <ele>30.4188</ele>
        <time>2013-06-03T14:06:49Z</time>
      </trkpt>
      <trkpt lat="59.9618084" lon="17.779705">
        <ele>30.4188</ele>
        <time>2013-06-03T14:06:50Z</time>
      </trkpt>
      <trkpt lat="59.9618506" lon="17.7796027">
        <ele>30.4188</ele>
        <time>2013-06-03T14:06:51Z</time>
      </trkpt>
      <trkpt lat="59.9618935" lon="17.7795001">
        <ele>30.4188</ele>
        <time>2013-06-03T14:06:52Z</time>
      </trkpt>
      <trkpt lat="59.9619386" lon="17.7793974">
        <ele>30.4188</ele>
        <time>2013-06-03T14:06:53Z</time>
      </trkpt>
      <trkpt lat="59.9619842" lon="17.7792955">
        <ele>30.4188</ele>
        <time>2013-06-03T14:06:54Z</time>
      </trkpt>
      <trkpt lat="59.9620301" lon="17.7791918">
        <ele>30.4188</ele>
        <time>2013-06-03T14:06:55Z</time>
      </trkpt>
      <trkpt lat="59.9620754" lon="17.7790866">
        <ele>30.4188</ele>
        <time>2013-06-03T14:06:56Z</time>
      </trkpt>
      <trkpt lat="59.9621208" lon="17.7789811">
        <ele>30.4188</ele>
        <time>2013-06-03T14:06:57Z</time>
      </trkpt>
      <trkpt lat="59.9621665" lon="17.7788743">
        <ele>30.4188</ele>
        <time>2013-06-03T14:06:58Z</time>
      </trkpt>
      <trkpt lat="59.9622117" lon="17.778763">
        <ele>30.4188</ele>
        <time>2013-06-03T14:06:59Z</time>
      </trkpt>
      <trkpt lat="59.9622563" lon="17.7786476">
        <ele>30.4188</ele>
        <time>2013-06-03T14:07:00Z</time>
      </trkpt>
      <trkpt lat="59.9623023" lon="17.7785353">
        <ele>30.4188</ele>
        <time>2013-06-03T14:07:01Z</time>
      </trkpt>
      <trkpt lat="59.96235" lon="17.7784256">
        <ele>30.4188</ele>
        <time>2013-06-03T14:07:02Z</time>
      </trkpt>
      <trkpt lat="59.9623982" lon="17.7783168">
        <ele>30.4188</ele>
        <time>2013-06-03T14:07:03Z</time>
      </trkpt>
      <trkpt lat="59.9624462" lon="17.7782083">
        <ele>30.8995</ele>
        <time>2013-06-03T14:07:04Z</time>
      </trkpt>
      <trkpt lat="59.9624949" lon="17.7781013">
        <ele>30.8995</ele>
        <time>2013-06-03T14:07:05Z</time>
      </trkpt>
      <trkpt lat="59.9625446" lon="17.7779937">
        <ele>30.8995</ele>
        <time>2013-06-03T14:07:06Z</time>
      </trkpt>
      <trkpt lat="59.9625943" lon="17.777886">
        <ele>30.4188</ele>
        <time>2013-06-03T14:07:07Z</time>
      </trkpt>
      <trkpt lat="59.962645" lon="17.7777803">
        <ele>30.4188</ele>
        <time>2013-06-03T14:07:08Z</time>
      </trkpt>
      <trkpt lat="59.9626961" lon="17.7776771">
        <ele>30.4188</ele>
        <time>2013-06-03T14:07:09Z</time>
      </trkpt>
      <trkpt lat="59.9627472" lon="17.7775752">
        <ele>30.4188</ele>
        <time>2013-06-03T14:07:10Z</time>
      </trkpt>
      <trkpt lat="59.962797" lon="17.7774729">
        <ele>30.4188</ele>
        <time>2013-06-03T14:07:11Z</time>
      </trkpt>
      <trkpt lat="59.9628462" lon="17.7773704">
        <ele>30.4188</ele>
        <time>2013-06-03T14:07:12Z</time>
      </trkpt>
      <trkpt lat="59.9628938" lon="17.7772654">
        <ele>30.4188</ele>
        <time>2013-06-03T14:07:13Z</time>
      </trkpt>
      <trkpt lat="59.9629389" lon="17.7771582">
        <ele>30.8995</ele>
        <time>2013-06-03T14:07:14Z</time>
      </trkpt>
      <trkpt lat="59.9629822" lon="17.77705">
        <ele>30.8995</ele>
        <time>2013-06-03T14:07:15Z</time>
      </trkpt>
      <trkpt lat="59.9630227" lon="17.7769397">
        <ele>30.8995</ele>
        <time>2013-06-03T14:07:16Z</time>
      </trkpt>
      <trkpt lat="59.9630611" lon="17.7768292">
        <ele>31.3801</ele>
        <time>2013-06-03T14:07:17Z</time>
      </trkpt>
      <trkpt lat="59.9630975" lon="17.7767158">
        <ele>31.8607</ele>
        <time>2013-06-03T14:07:18Z</time>
      </trkpt>
      <trkpt lat="59.9631336" lon="17.7766038">
        <ele>31.8607</ele>
        <time>2013-06-03T14:07:19Z</time>
      </trkpt>
      <trkpt lat="59.9631683" lon="17.7764928">
        <ele>31.8607</ele>
        <time>2013-06-03T14:07:20Z</time>
      </trkpt>
      <trkpt lat="59.9632026" lon="17.7763807">
        <ele>32.3416</ele>
        <time>2013-06-03T14:07:21Z</time>
      </trkpt>
      <trkpt lat="59.9632381" lon="17.7762663">
        <ele>32.3416</ele>
        <time>2013-06-03T14:07:22Z</time>
      </trkpt>
      <trkpt lat="59.9632745" lon="17.7761499">
        <ele>31.8607</ele>
        <time>2013-06-03T14:07:23Z</time>
      </trkpt>
      <trkpt lat="59.9633113" lon="17.7760354">
        <ele>31.8607</ele>
        <time>2013-06-03T14:07:24Z</time>
      </trkpt>
      <trkpt lat="59.9633492" lon="17.7759174">
        <ele>31.8607</ele>
        <time>2013-06-03T14:07:25Z</time>
      </trkpt>
      <trkpt lat="59.9633871" lon="17.7757953">
        <ele>31.3801</ele>
        <time>2013-06-03T14:07:26Z</time>
      </trkpt>
      <trkpt lat="59.9634258" lon="17.7756719">
        <ele>31.3801</ele>
        <time>2013-06-03T14:07:27Z</time>
      </trkpt>
      <trkpt lat="59.9634652" lon="17.7755493">
        <ele>31.3801</ele>
        <time>2013-06-03T14:07:28Z</time>
      </trkpt>
      <trkpt lat="59.9635039" lon="17.7754278">
        <ele>31.3801</ele>
        <time>2013-06-03T14:07:29Z</time>
      </trkpt>
      <trkpt lat="59.9635425" lon="17.7753051">
        <ele>30.8995</ele>
        <time>2013-06-03T14:07:30Z</time>
      </trkpt>
      <trkpt lat="59.9635791" lon="17.7751802">
        <ele>30.8995</ele>
        <time>2013-06-03T14:07:31Z</time>
      </trkpt>
      <trkpt lat="59.9636124" lon="17.775052">
        <ele>30.8995</ele>
        <time>2013-06-03T14:07:32Z</time>
      </trkpt>
      <trkpt lat="59.9636418" lon="17.7749223">
        <ele>30.8995</ele>
        <time>2013-06-03T14:07:33Z</time>
      </trkpt>
      <trkpt lat="59.9636682" lon="17.7747928">
        <ele>30.8995</ele>
        <time>2013-06-03T14:07:34Z</time>
      </trkpt>
      <trkpt lat="59.9636919" lon="17.7746624">
        <ele>30.8995</ele>
        <time>2013-06-03T14:07:35Z</time>
      </trkpt>
      <trkpt lat="59.9637128" lon="17.774533">
        <ele>30.8995</ele>
        <time>2013-06-03T14:07:36Z</time>
      </trkpt>
      <trkpt lat="59.9637328" lon="17.774408">
        <ele>31.3801</ele>
        <time>2013-06-03T14:07:37Z</time>
      </trkpt>
      <trkpt lat="59.9637517" lon="17.7742846">
        <ele>31.3801</ele>
        <time>2013-06-03T14:07:38Z</time>
      </trkpt>
      <trkpt lat="59.9637712" lon="17.774162">
        <ele>31.8607</ele>
        <time>2013-06-03T14:07:39Z</time>
      </trkpt>
      <trkpt lat="59.9637931" lon="17.7740367">
        <ele>31.8607</ele>
        <time>2013-06-03T14:07:40Z</time>
      </trkpt>
      <trkpt lat="59.9638152" lon="17.773908">
        <ele>31.8607</ele>
        <time>2013-06-03T14:07:41Z</time>
      </trkpt>
      <trkpt lat="59.963837" lon="17.7737766">
        <ele>32.3416</ele>
        <time>2013-06-03T14:07:42Z</time>
      </trkpt>
      <trkpt lat="59.9638589" lon="17.7736431">
        <ele>32.3416</ele>
        <time>2013-06-03T14:07:43Z</time>
      </trkpt>
      <trkpt lat="59.9638791" lon="17.7735053">
        <ele>32.3416</ele>
        <time>2013-06-03T14:07:44Z</time>
      </trkpt>
      <trkpt lat="59.9638962" lon="17.7733642">
        <ele>32.3416</ele>
        <time>2013-06-03T14:07:45Z</time>
      </trkpt>
      <trkpt lat="59.9639081" lon="17.7732259">
        <ele>32.8223</ele>
        <time>2013-06-03T14:07:46Z</time>
      </trkpt>
      <trkpt lat="59.9639173" lon="17.7730916">
        <ele>32.3416</ele>
        <time>2013-06-03T14:07:47Z</time>
      </trkpt>
      <trkpt lat="59.9639221" lon="17.7729539">
        <ele>32.3416</ele>
        <time>2013-06-03T14:07:48Z</time>
      </trkpt>
      <trkpt lat="59.9639209" lon="17.7728119">
        <ele>31.8607</ele>
        <time>2013-06-03T14:07:49Z</time>
      </trkpt>
      <trkpt lat="59.9639128" lon="17.7726651">
        <ele>31.8607</ele>
        <time>2013-06-03T14:07:50Z</time>
      </trkpt>
      <trkpt lat="59.9638988" lon="17.7725161">
        <ele>31.3801</ele>
        <time>2013-06-03T14:07:51Z</time>
      </trkpt>
      <trkpt lat="59.9638801" lon="17.7723729">
        <ele>31.3801</ele>
        <time>2013-06-03T14:07:52Z</time>
      </trkpt>
      <trkpt lat="59.9638578" lon="17.7722354">
        <ele>31.3801</ele>
        <time>2013-06-03T14:07:53Z</time>
      </trkpt>
      <trkpt lat="59.9638304" lon="17.7721024">
        <ele>31.8607</ele>
        <time>2013-06-03T14:07:54Z</time>
      </trkpt>
      <trkpt lat="59.963801" lon="17.7719742">
        <ele>31.8607</ele>
        <time>2013-06-03T14:07:55Z</time>
      </trkpt>
      <trkpt lat="59.9637723" lon="17.771848">
        <ele>31.8607</ele>
        <time>2013-06-03T14:07:56Z</time>
      </trkpt>
      <trkpt lat="59.9637439" lon="17.7717232">
        <ele>31.8607</ele>
        <time>2013-06-03T14:07:57Z</time>
      </trkpt>
      <trkpt lat="59.9637147" lon="17.7716003">
        <ele>31.8607</ele>
        <time>2013-06-03T14:07:58Z</time>
      </trkpt>
      <trkpt lat="59.9636852" lon="17.7714791">
        <ele>31.8607</ele>
        <time>2013-06-03T14:07:59Z</time>
      </trkpt>
      <trkpt lat="59.9636563" lon="17.7713573">
        <ele>31.8607</ele>
        <time>2013-06-03T14:08:00Z</time>
      </trkpt>
      <trkpt lat="59.9636278" lon="17.7712342">
        <ele>31.8607</ele>
        <time>2013-06-03T14:08:01Z</time>
      </trkpt>
      <trkpt lat="59.9635994" lon="17.7711115">
        <ele>31.8607</ele>
        <time>2013-06-03T14:08:02Z</time>
      </trkpt>
      <trkpt lat="59.963574" lon="17.7709919">
        <ele>31.8607</ele>
        <time>2013-06-03T14:08:03Z</time>
      </trkpt>
      <trkpt lat="59.9635494" lon="17.7708664">
        <ele>32.3416</ele>
        <time>2013-06-03T14:08:04Z</time>
      </trkpt>
      <trkpt lat="59.9635294" lon="17.7707419">
        <ele>32.3416</ele>
        <time>2013-06-03T14:08:05Z</time>
      </trkpt>
      <trkpt lat="59.9635134" lon="17.7706193">
        <ele>32.8223</ele>
        <time>2013-06-03T14:08:06Z</time>
      </trkpt>
      <trkpt lat="59.9635009" lon="17.770497">
        <ele>32.8223</ele>
        <time>2013-06-03T14:08:07Z</time>
      </trkpt>
      <trkpt lat="59.9634928" lon="17.770382">
        <ele>33.3029</ele>
        <time>2013-06-03T14:08:08Z</time>
      </trkpt>
      <trkpt lat="59.9634871" lon="17.7702609">
        <ele>32.8223</ele>
        <time>2013-06-03T14:08:09Z</time>
      </trkpt>
      <trkpt lat="59.9634837" lon="17.7701398">
        <ele>32.8223</ele>
        <time>2013-06-03T14:08:10Z</time>
      </trkpt>
      <trkpt lat="59.9634834" lon="17.7700139">
        <ele>32.3416</ele>
        <time>2013-06-03T14:08:11Z</time>
      </trkpt>
      <trkpt lat="59.9634857" lon="17.7698843">
        <ele>32.3416</ele>
        <time>2013-06-03T14:08:12Z</time>
      </trkpt>
      <trkpt lat="59.9634932" lon="17.7697526">
        <ele>31.8607</ele>
        <time>2013-06-03T14:08:13Z</time>
      </trkpt>
      <trkpt lat="59.9635101" lon="17.7696188">
        <ele>31.8607</ele>
        <time>2013-06-03T14:08:14Z</time>
      </trkpt>
      <trkpt lat="59.9635362" lon="17.7694849">
        <ele>31.3801</ele>
        <time>2013-06-03T14:08:15Z</time>
      </trkpt>
      <trkpt lat="59.9635678" lon="17.7693532">
        <ele>31.3801</ele>
        <time>2013-06-03T14:08:16Z</time>
      </trkpt>
      <trkpt lat="59.9636025" lon="17.7692248">
        <ele>31.3801</ele>
        <time>2013-06-03T14:08:17Z</time>
      </trkpt>
      <trkpt lat="59.9636398" lon="17.7691008">
        <ele>30.8995</ele>
        <time>2013-06-03T14:08:18Z</time>
      </trkpt>
      <trkpt lat="59.9636765" lon="17.7689766">
        <ele>30.8995</ele>
        <time>2013-06-03T14:08:19Z</time>
      </trkpt>
      <trkpt lat="59.9637114" lon="17.7688504">
        <ele>30.4188</ele>
        <time>2013-06-03T14:08:20Z</time>
      </trkpt>
      <trkpt lat="59.9637479" lon="17.7687265">
        <ele>30.4188</ele>
        <time>2013-06-03T14:08:21Z</time>
      </trkpt>
      <trkpt lat="59.9637841" lon="17.7686005">
        <ele>30.4188</ele>
        <time>2013-06-03T14:08:22Z</time>
      </trkpt>
      <trkpt lat="59.96382" lon="17.7684768">
        <ele>30.4188</ele>
        <time>2013-06-03T14:08:23Z</time>
      </trkpt>
      <trkpt lat="59.963853" lon="17.768354">
        <ele>30.8995</ele>
        <time>2013-06-03T14:08:24Z</time>
      </trkpt>
      <trkpt lat="59.9638835" lon="17.768235">
        <ele>30.8995</ele>
        <time>2013-06-03T14:08:25Z</time>
      </trkpt>
      <trkpt lat="59.9639138" lon="17.7681204">
        <ele>31.3801</ele>
        <time>2013-06-03T14:08:26Z</time>
      </trkpt>
      <trkpt lat="59.9639405" lon="17.7680071">
        <ele>31.8607</ele>
        <time>2013-06-03T14:08:27Z</time>
      </trkpt>
      <trkpt lat="59.9639661" lon="17.7678909">
        <ele>31.3801</ele>
        <time>2013-06-03T14:08:28Z</time>
      </trkpt>
      <trkpt lat="59.9639915" lon="17.7677796">
        <ele>31.3801</ele>
        <time>2013-06-03T14:08:29Z</time>
      </trkpt>
      <trkpt lat="59.9640148" lon="17.7676686">
        <ele>31.8607</ele>
        <time>2013-06-03T14:08:30Z</time>
      </trkpt>
      <trkpt lat="59.9640391" lon="17.7675542">
        <ele>31.3801</ele>
        <time>2013-06-03T14:08:31Z</time>
      </trkpt>
      <trkpt lat="59.964061" lon="17.7674451">
        <ele>31.3801</ele>
        <time>2013-06-03T14:08:32Z</time>
      </trkpt>
      <trkpt lat="59.9640805" lon="17.7673346">
        <ele>30.8995</ele>
        <time>2013-06-03T14:08:33Z</time>
      </trkpt>
      <trkpt lat="59.9640973" lon="17.7672189">
        <ele>30.4188</ele>
        <time>2013-06-03T14:08:34Z</time>
      </trkpt>
      <trkpt lat="59.9641106" lon="17.7670956">
        <ele>30.8995</ele>
        <time>2013-06-03T14:08:35Z</time>
      </trkpt>
      <trkpt lat="59.9641241" lon="17.7669773">
        <ele>30.8995</ele>
        <time>2013-06-03T14:08:36Z</time>
      </trkpt>
      <trkpt lat="59.9641339" lon="17.7668726">
        <ele>31.3801</ele>
        <time>2013-06-03T14:08:37Z</time>
      </trkpt>
      <trkpt lat="59.9641458" lon="17.7667664">
        <ele>31.3801</ele>
        <time>2013-06-03T14:08:38Z</time>
      </trkpt>
      <trkpt lat="59.9641522" lon="17.7666422">
        <ele>30.8995</ele>
        <time>2013-06-03T14:08:39Z</time>
      </trkpt>
      <trkpt lat="59.964155" lon="17.7665144">
        <ele>30.4188</ele>
        <time>2013-06-03T14:08:40Z</time>
      </trkpt>
      <trkpt lat="59.964156" lon="17.7663722">
        <ele>30.4188</ele>
        <time>2013-06-03T14:08:41Z</time>
      </trkpt>
      <trkpt lat="59.9641586" lon="17.7662267">
        <ele>29.9381</ele>
        <time>2013-06-03T14:08:42Z</time>
      </trkpt>
      <trkpt lat="59.9641624" lon="17.7660762">
        <ele>29.4575</ele>
        <time>2013-06-03T14:08:43Z</time>
      </trkpt>
      <trkpt lat="59.9641624" lon="17.7659174">
        <ele>28.9769</ele>
        <time>2013-06-03T14:08:44Z</time>
      </trkpt>
      <trkpt lat="59.9641614" lon="17.7657397">
        <ele>27.5349</ele>
        <time>2013-06-03T14:08:45Z</time>
      </trkpt>
      <trkpt lat="59.9641617" lon="17.7655545">
        <ele>26.5736</ele>
        <time>2013-06-03T14:08:46Z</time>
      </trkpt>
      <trkpt lat="59.9641697" lon="17.7653718">
        <ele>26.0929</ele>
        <time>2013-06-03T14:08:47Z</time>
      </trkpt>
      <trkpt lat="59.9641858" lon="17.7651834">
        <ele>26.0929</ele>
        <time>2013-06-03T14:08:48Z</time>
      </trkpt>
      <trkpt lat="59.9642137" lon="17.7649984">
        <ele>26.0929</ele>
        <time>2013-06-03T14:08:49Z</time>
      </trkpt>
      <trkpt lat="59.9642541" lon="17.7648182">
        <ele>26.5736</ele>
        <time>2013-06-03T14:08:50Z</time>
      </trkpt>
      <trkpt lat="59.9642987" lon="17.7646434">
        <ele>27.0543</ele>
        <time>2013-06-03T14:08:51Z</time>
      </trkpt>
      <trkpt lat="59.9643442" lon="17.7644711">
        <ele>27.5349</ele>
        <time>2013-06-03T14:08:52Z</time>
      </trkpt>
      <trkpt lat="59.9643894" lon="17.7643018">
        <ele>28.0155</ele>
        <time>2013-06-03T14:08:53Z</time>
      </trkpt>
      <trkpt lat="59.9644326" lon="17.7641364">
        <ele>28.4962</ele>
        <time>2013-06-03T14:08:54Z</time>
      </trkpt>
      <trkpt lat="59.9644756" lon="17.7639748">
        <ele>28.9769</ele>
        <time>2013-06-03T14:08:55Z</time>
      </trkpt>
      <trkpt lat="59.9645167" lon="17.7638133">
        <ele>28.9769</ele>
        <time>2013-06-03T14:08:56Z</time>
      </trkpt>
      <trkpt lat="59.9645577" lon="17.76365">
        <ele>28.9769</ele>
        <time>2013-06-03T14:08:57Z</time>
      </trkpt>
      <trkpt lat="59.9645982" lon="17.7634868">
        <ele>28.9769</ele>
        <time>2013-06-03T14:08:58Z</time>
      </trkpt>
      <trkpt lat="59.9646383" lon="17.7633264">
        <ele>28.9769</ele>
        <time>2013-06-03T14:08:59Z</time>
      </trkpt>
      <trkpt lat="59.9646789" lon="17.7631709">
        <ele>28.9769</ele>
        <time>2013-06-03T14:09:00Z</time>
      </trkpt>
      <trkpt lat="59.9647202" lon="17.7630206">
        <ele>28.9769</ele>
        <time>2013-06-03T14:09:01Z</time>
      </trkpt>
      <trkpt lat="59.9647622" lon="17.762875">
        <ele>28.9769</ele>
        <time>2013-06-03T14:09:02Z</time>
      </trkpt>
      <trkpt lat="59.9648056" lon="17.7627335">
        <ele>28.9769</ele>
        <time>2013-06-03T14:09:03Z</time>
      </trkpt>
      <trkpt lat="59.9648514" lon="17.7625957">
        <ele>28.9769</ele>
        <time>2013-06-03T14:09:04Z</time>
      </trkpt>
      <trkpt lat="59.9648991" lon="17.7624607">
        <ele>28.9769</ele>
        <time>2013-06-03T14:09:05Z</time>
      </trkpt>
      <trkpt lat="59.9649482" lon="17.7623266">
        <ele>28.9769</ele>
        <time>2013-06-03T14:09:06Z</time>
      </trkpt>
      <trkpt lat="59.964998" lon="17.7621929">
        <ele>28.9769</ele>
        <time>2013-06-03T14:09:07Z</time>
      </trkpt>
      <trkpt lat="59.9650481" lon="17.7620613">
        <ele>28.9769</ele>
        <time>2013-06-03T14:09:08Z</time>
      </trkpt>
      <trkpt lat="59.9650981" lon="17.7619328">
        <ele>29.4575</ele>
        <time>2013-06-03T14:09:09Z</time>
      </trkpt>
      <trkpt lat="59.9651461" lon="17.7618047">
        <ele>29.4575</ele>
        <time>2013-06-03T14:09:10Z</time>
      </trkpt>
      <trkpt lat="59.9651886" lon="17.7616691">
        <ele>28.9769</ele>
        <time>2013-06-03T14:09:11Z</time>
      </trkpt>
      <trkpt lat="59.9652289" lon="17.761536">
        <ele>28.9769</ele>
        <time>2013-06-03T14:09:12Z</time>
      </trkpt>
      <trkpt lat="59.9652732" lon="17.7614105">
        <ele>28.4962</ele>
        <time>2013-06-03T14:09:13Z</time>
      </trkpt>
      <trkpt lat="59.9653189" lon="17.7612821">
        <ele>28.0155</ele>
        <time>2013-06-03T14:09:14Z</time>
      </trkpt>
      <trkpt lat="59.9653663" lon="17.7611542">
        <ele>27.0543</ele>
        <time>2013-06-03T14:09:15Z</time>
      </trkpt>
      <trkpt lat="59.9654165" lon="17.7610299">
        <ele>26.5736</ele>
        <time>2013-06-03T14:09:16Z</time>
      </trkpt>
      <trkpt lat="59.9654688" lon="17.7609086">
        <ele>26.0929</ele>
        <time>2013-06-03T14:09:17Z</time>
      </trkpt>
      <trkpt lat="59.9655241" lon="17.7607946">
        <ele>25.6123</ele>
        <time>2013-06-03T14:09:18Z</time>
      </trkpt>
      <trkpt lat="59.9655817" lon="17.7606915">
        <ele>24.651</ele>
        <time>2013-06-03T14:09:19Z</time>
      </trkpt>
      <trkpt lat="59.9656424" lon="17.7605943">
        <ele>24.1703</ele>
        <time>2013-06-03T14:09:20Z</time>
      </trkpt>
      <trkpt lat="59.9657043" lon="17.7605037">
        <ele>24.1703</ele>
        <time>2013-06-03T14:09:21Z</time>
      </trkpt>
      <trkpt lat="59.9657652" lon="17.7604088">
        <ele>25.1317</ele>
        <time>2013-06-03T14:09:22Z</time>
      </trkpt>
      <trkpt lat="59.9658248" lon="17.7603105">
        <ele>25.1317</ele>
        <time>2013-06-03T14:09:23Z</time>
      </trkpt>
      <trkpt lat="59.9658839" lon="17.7602113">
        <ele>25.1317</ele>
        <time>2013-06-03T14:09:24Z</time>
      </trkpt>
      <trkpt lat="59.9659447" lon="17.7601074">
        <ele>25.1317</ele>
        <time>2013-06-03T14:09:25Z</time>
      </trkpt>
      <trkpt lat="59.9660051" lon="17.7600001">
        <ele>25.6123</ele>
        <time>2013-06-03T14:09:26Z</time>
      </trkpt>
      <trkpt lat="59.9660638" lon="17.7598907">
        <ele>26.0929</ele>
        <time>2013-06-03T14:09:27Z</time>
      </trkpt>
      <trkpt lat="59.9661221" lon="17.7597796">
        <ele>25.6123</ele>
        <time>2013-06-03T14:09:28Z</time>
      </trkpt>
      <trkpt lat="59.966181" lon="17.75967">
        <ele>26.0929</ele>
        <time>2013-06-03T14:09:29Z</time>
      </trkpt>
      <trkpt lat="59.9662397" lon="17.7595614">
        <ele>26.0929</ele>
        <time>2013-06-03T14:09:30Z</time>
      </trkpt>
      <trkpt lat="59.9662971" lon="17.7594565">
        <ele>26.5736</ele>
        <time>2013-06-03T14:09:31Z</time>
      </trkpt>
      <trkpt lat="59.9663556" lon="17.7593587">
        <ele>26.5736</ele>
        <time>2013-06-03T14:09:32Z</time>
      </trkpt>
      <trkpt lat="59.9664166" lon="17.7592659">
        <ele>26.5736</ele>
        <time>2013-06-03T14:09:33Z</time>
      </trkpt>
      <trkpt lat="59.966478" lon="17.7591775">
        <ele>26.5736</ele>
        <time>2013-06-03T14:09:34Z</time>
      </trkpt>
      <trkpt lat="59.9665402" lon="17.7590921">
        <ele>26.0929</ele>
        <time>2013-06-03T14:09:35Z</time>
      </trkpt>
      <trkpt lat="59.9666043" lon="17.7590123">
        <ele>26.0929</ele>
        <time>2013-06-03T14:09:36Z</time>
      </trkpt>
      <trkpt lat="59.9666702" lon="17.7589391">
        <ele>25.6123</ele>
        <time>2013-06-03T14:09:37Z</time>
      </trkpt>
      <trkpt lat="59.9667369" lon="17.7588714">
        <ele>25.6123</ele>
        <time>2013-06-03T14:09:38Z</time>
      </trkpt>
      <trkpt lat="59.9668041" lon="17.7588097">
        <ele>25.1317</ele>
        <time>2013-06-03T14:09:39Z</time>
      </trkpt>
      <trkpt lat="59.9668714" lon="17.7587526">
        <ele>24.651</ele>
        <time>2013-06-03T14:09:40Z</time>
      </trkpt>
      <trkpt lat="59.966939" lon="17.758701">
        <ele>24.1703</ele>
        <time>2013-06-03T14:09:41Z</time>
      </trkpt>
      <trkpt lat="59.9670064" lon="17.7586536">
        <ele>23.209</ele>
        <time>2013-06-03T14:09:42Z</time>
      </trkpt>
      <trkpt lat="59.9670731" lon="17.7586088">
        <ele>22.7283</ele>
        <time>2013-06-03T14:09:43Z</time>
      </trkpt>
      <trkpt lat="59.9671394" lon="17.7585624">
        <ele>22.2476</ele>
        <time>2013-06-03T14:09:44Z</time>
      </trkpt>
      <trkpt lat="59.9672057" lon="17.7585176">
        <ele>21.2864</ele>
        <time>2013-06-03T14:09:45Z</time>
      </trkpt>
      <trkpt lat="59.9672705" lon="17.7584679">
        <ele>21.2864</ele>
        <time>2013-06-03T14:09:46Z</time>
      </trkpt>
      <trkpt lat="59.9673347" lon="17.7584128">
        <ele>20.8057</ele>
        <time>2013-06-03T14:09:47Z</time>
      </trkpt>
      <trkpt lat="59.9674003" lon="17.7583614">
        <ele>20.325</ele>
        <time>2013-06-03T14:09:48Z</time>
      </trkpt>
      <trkpt lat="59.9674611" lon="17.7583097">
        <ele>19.3638</ele>
        <time>2013-06-03T14:09:49Z</time>
      </trkpt>
      <trkpt lat="59.9675222" lon="17.7582545">
        <ele>19.3638</ele>
        <time>2013-06-03T14:09:50Z</time>
      </trkpt>
      <trkpt lat="59.9675817" lon="17.7581937">
        <ele>18.8831</ele>
        <time>2013-06-03T14:09:51Z</time>
      </trkpt>
      <trkpt lat="59.9676407" lon="17.758134">
        <ele>19.3638</ele>
        <time>2013-06-03T14:09:52Z</time>
      </trkpt>
      <trkpt lat="59.9676994" lon="17.7580706">
        <ele>19.3638</ele>
        <time>2013-06-03T14:09:53Z</time>
      </trkpt>
      <trkpt lat="59.9677589" lon="17.7580068">
        <ele>19.3638</ele>
        <time>2013-06-03T14:09:54Z</time>
      </trkpt>
      <trkpt lat="59.9678148" lon="17.7579318">
        <ele>19.8444</ele>
        <time>2013-06-03T14:09:55Z</time>
      </trkpt>
      <trkpt lat="59.9678702" lon="17.7578565">
        <ele>20.325</ele>
        <time>2013-06-03T14:09:56Z</time>
      </trkpt>
      <trkpt lat="59.9679267" lon="17.7577862">
        <ele>20.8057</ele>
        <time>2013-06-03T14:09:57Z</time>
      </trkpt>
      <trkpt lat="59.9679812" lon="17.757709">
        <ele>21.2864</ele>
        <time>2013-06-03T14:09:58Z</time>
      </trkpt>
      <trkpt lat="59.9680372" lon="17.7576358">
        <ele>21.2864</ele>
        <time>2013-06-03T14:09:59Z</time>
      </trkpt>
      <trkpt lat="59.96809" lon="17.7575613">
        <ele>21.767</ele>
        <time>2013-06-03T14:10:00Z</time>
      </trkpt>
      <trkpt lat="59.9681406" lon="17.7574917">
        <ele>21.767</ele>
        <time>2013-06-03T14:10:01Z</time>
      </trkpt>
      <trkpt lat="59.9681888" lon="17.7574245">
        <ele>22.2476</ele>
        <time>2013-06-03T14:10:02Z</time>
      </trkpt>
      <trkpt lat="59.9682346" lon="17.7573578">
        <ele>22.2476</ele>
        <time>2013-06-03T14:10:03Z</time>
      </trkpt>
      <trkpt lat="59.9682788" lon="17.7572939">
        <ele>22.2476</ele>
        <time>2013-06-03T14:10:04Z</time>
      </trkpt>
      <trkpt lat="59.9683232" lon="17.7572292">
        <ele>22.7283</ele>
        <time>2013-06-03T14:10:05Z</time>
      </trkpt>
      <trkpt lat="59.9683697" lon="17.757164">
        <ele>22.7283</ele>
        <time>2013-06-03T14:10:06Z</time>
      </trkpt>
      <trkpt lat="59.9684204" lon="17.7570963">
        <ele>23.209</ele>
        <time>2013-06-03T14:10:07Z</time>
      </trkpt>
      <trkpt lat="59.9684719" lon="17.7570274">
        <ele>23.209</ele>
        <time>2013-06-03T14:10:08Z</time>
      </trkpt>
      <trkpt lat="59.968523" lon="17.7569573">
        <ele>23.6896</ele>
        <time>2013-06-03T14:10:09Z</time>
      </trkpt>
      <trkpt lat="59.9685738" lon="17.7568846">
        <ele>23.6896</ele>
        <time>2013-06-03T14:10:10Z</time>
      </trkpt>
      <trkpt lat="59.9686256" lon="17.7568077">
        <ele>23.6896</ele>
        <time>2013-06-03T14:10:11Z</time>
      </trkpt>
      <trkpt lat="59.9686739" lon="17.7567283">
        <ele>23.6896</ele>
        <time>2013-06-03T14:10:12Z</time>
      </trkpt>
      <trkpt lat="59.9687199" lon="17.756649">
        <ele>24.1703</ele>
        <time>2013-06-03T14:10:13Z</time>
      </trkpt>
      <trkpt lat="59.9687656" lon="17.7565683">
        <ele>24.651</ele>
        <time>2013-06-03T14:10:14Z</time>
      </trkpt>
      <trkpt lat="59.9688112" lon="17.756487">
        <ele>24.651</ele>
        <time>2013-06-03T14:10:15Z</time>
      </trkpt>
      <trkpt lat="59.9688576" lon="17.7564018">
        <ele>25.1317</ele>
        <time>2013-06-03T14:10:16Z</time>
      </trkpt>
      <trkpt lat="59.9689023" lon="17.7563087">
        <ele>25.1317</ele>
        <time>2013-06-03T14:10:17Z</time>
      </trkpt>
      <trkpt lat="59.9689482" lon="17.7562115">
        <ele>25.1317</ele>
        <time>2013-06-03T14:10:18Z</time>
      </trkpt>
      <trkpt lat="59.9689954" lon="17.7561118">
        <ele>25.6123</ele>
        <time>2013-06-03T14:10:19Z</time>
      </trkpt>
      <trkpt lat="59.9690435" lon="17.7560033">
        <ele>26.0929</ele>
        <time>2013-06-03T14:10:20Z</time>
      </trkpt>
      <trkpt lat="59.9690906" lon="17.7558983">
        <ele>26.0929</ele>
        <time>2013-06-03T14:10:21Z</time>
      </trkpt>
      <trkpt lat="59.9691379" lon="17.7557937">
        <ele>26.5736</ele>
        <time>2013-06-03T14:10:22Z</time>
      </trkpt>
      <trkpt lat="59.969185" lon="17.7556883">
        <ele>26.5736</ele>
        <time>2013-06-03T14:10:23Z</time>
      </trkpt>
      <trkpt lat="59.969232" lon="17.7555828">
        <ele>27.0543</ele>
        <time>2013-06-03T14:10:24Z</time>
      </trkpt>
      <trkpt lat="59.9692789" lon="17.7554778">
        <ele>27.5349</ele>
        <time>2013-06-03T14:10:25Z</time>
      </trkpt>
      <trkpt lat="59.969328" lon="17.7553742">
        <ele>28.0155</ele>
        <time>2013-06-03T14:10:26Z</time>
      </trkpt>
      <trkpt lat="59.9693763" lon="17.7552689">
        <ele>28.4962</ele>
        <time>2013-06-03T14:10:27Z</time>
      </trkpt>
      <trkpt lat="59.9694255" lon="17.7551628">
        <ele>28.9769</ele>
        <time>2013-06-03T14:10:28Z</time>
      </trkpt>
      <trkpt lat="59.9694756" lon="17.7550555">
        <ele>28.9769</ele>
        <time>2013-06-03T14:10:29Z</time>
      </trkpt>
      <trkpt lat="59.9695258" lon="17.7549489">
        <ele>29.4575</ele>
        <time>2013-06-03T14:10:30Z</time>
      </trkpt>
      <trkpt lat="59.9695759" lon="17.7548422">
        <ele>28.9769</ele>
        <time>2013-06-03T14:10:31Z</time>
      </trkpt>
      <trkpt lat="59.9696273" lon="17.7547381">
        <ele>29.4575</ele>
        <time>2013-06-03T14:10:32Z</time>
      </trkpt>
      <trkpt lat="59.9696786" lon="17.7546366">
        <ele>29.4575</ele>
        <time>2013-06-03T14:10:33Z</time>
      </trkpt>
      <trkpt lat="59.9697267" lon="17.7545321">
        <ele>28.9769</ele>
        <time>2013-06-03T14:10:34Z</time>
      </trkpt>
      <trkpt lat="59.9697751" lon="17.7544282">
        <ele>29.4575</ele>
        <time>2013-06-03T14:10:35Z</time>
      </trkpt>
      <trkpt lat="59.9698243" lon="17.7543243">
        <ele>28.9769</ele>
        <time>2013-06-03T14:10:36Z</time>
      </trkpt>
      <trkpt lat="59.9698746" lon="17.7542192">
        <ele>28.9769</ele>
        <time>2013-06-03T14:10:37Z</time>
      </trkpt>
      <trkpt lat="59.9699266" lon="17.7541145">
        <ele>28.9769</ele>
        <time>2013-06-03T14:10:38Z</time>
      </trkpt>
      <trkpt lat="59.9699786" lon="17.7540031">
        <ele>28.9769</ele>
        <time>2013-06-03T14:10:39Z</time>
      </trkpt>
      <trkpt lat="59.97003" lon="17.753886">
        <ele>28.9769</ele>
        <time>2013-06-03T14:10:40Z</time>
      </trkpt>
      <trkpt lat="59.9700818" lon="17.7537659">
        <ele>29.4575</ele>
        <time>2013-06-03T14:10:41Z</time>
      </trkpt>
      <trkpt lat="59.9701331" lon="17.7536434">
        <ele>29.4575</ele>
        <time>2013-06-03T14:10:42Z</time>
      </trkpt>
      <trkpt lat="59.9701826" lon="17.7535175">
        <ele>29.4575</ele>
        <time>2013-06-03T14:10:43Z</time>
      </trkpt>
      <trkpt lat="59.9702298" lon="17.7533903">
        <ele>29.4575</ele>
        <time>2013-06-03T14:10:44Z</time>
      </trkpt>
      <trkpt lat="59.9702759" lon="17.7532608">
        <ele>29.4575</ele>
        <time>2013-06-03T14:10:45Z</time>
      </trkpt>
      <trkpt lat="59.9703227" lon="17.7531319">
        <ele>29.9381</ele>
        <time>2013-06-03T14:10:46Z</time>
      </trkpt>
      <trkpt lat="59.9703682" lon="17.7530044">
        <ele>29.9381</ele>
        <time>2013-06-03T14:10:47Z</time>
      </trkpt>
      <trkpt lat="59.9704131" lon="17.7528749">
        <ele>29.4575</ele>
        <time>2013-06-03T14:10:48Z</time>
      </trkpt>
      <trkpt lat="59.9704588" lon="17.7527454">
        <ele>29.4575</ele>
        <time>2013-06-03T14:10:49Z</time>
      </trkpt>
      <trkpt lat="59.9705075" lon="17.7526198">
        <ele>29.4575</ele>
        <time>2013-06-03T14:10:50Z</time>
      </trkpt>
      <trkpt lat="59.9705582" lon="17.7524979">
        <ele>29.4575</ele>
        <time>2013-06-03T14:10:51Z</time>
      </trkpt>
      <trkpt lat="59.9706095" lon="17.7523815">
        <ele>28.9769</ele>
        <time>2013-06-03T14:10:52Z</time>
      </trkpt>
      <trkpt lat="59.9706643" lon="17.7522705">
        <ele>28.9769</ele>
        <time>2013-06-03T14:10:53Z</time>
      </trkpt>
      <trkpt lat="59.9707233" lon="17.7521674">
        <ele>28.4962</ele>
        <time>2013-06-03T14:10:54Z</time>
      </trkpt>
      <trkpt lat="59.970785" lon="17.7520728">
        <ele>28.0155</ele>
        <time>2013-06-03T14:10:55Z</time>
      </trkpt>
      <trkpt lat="59.9708609" lon="17.7519552">
        <ele>27.5349</ele>
        <time>2013-06-03T14:10:56Z</time>
      </trkpt>
      <trkpt lat="59.9709291" lon="17.7518663">
        <ele>27.0543</ele>
        <time>2013-06-03T14:10:57Z</time>
      </trkpt>
      <trkpt lat="59.9710047" lon="17.7518034">
        <ele>26.0929</ele>
        <time>2013-06-03T14:10:58Z</time>
      </trkpt>
      <trkpt lat="59.9710691" lon="17.7517316">
        <ele>25.1317</ele>
        <time>2013-06-03T14:10:59Z</time>
      </trkpt>
      <trkpt lat="59.9711326" lon="17.7516462">
        <ele>24.651</ele>
        <time>2013-06-03T14:11:00Z</time>
      </trkpt>
      <trkpt lat="59.9711953" lon="17.7515678">
        <ele>24.1703</ele>
        <time>2013-06-03T14:11:01Z</time>
      </trkpt>
      <trkpt lat="59.9712581" lon="17.7514923">
        <ele>24.1703</ele>
        <time>2013-06-03T14:11:02Z</time>
      </trkpt>
      <trkpt lat="59.9713161" lon="17.7514109">
        <ele>24.651</ele>
        <time>2013-06-03T14:11:03Z</time>
      </trkpt>
      <trkpt lat="59.9713709" lon="17.7513393">
        <ele>24.651</ele>
        <time>2013-06-03T14:11:04Z</time>
      </trkpt>
      <trkpt lat="59.9714233" lon="17.7512706">
        <ele>25.1317</ele>
        <time>2013-06-03T14:11:05Z</time>
      </trkpt>
      <trkpt lat="59.9714783" lon="17.7512038">
        <ele>25.1317</ele>
        <time>2013-06-03T14:11:06Z</time>
      </trkpt>
      <trkpt lat="59.9715317" lon="17.7511319">
        <ele>25.1317</ele>
        <time>2013-06-03T14:11:07Z</time>
      </trkpt>
      <trkpt lat="59.9715829" lon="17.7510587">
        <ele>25.6123</ele>
        <time>2013-06-03T14:11:08Z</time>
      </trkpt>
      <trkpt lat="59.9716316" lon="17.7509834">
        <ele>26.0929</ele>
        <time>2013-06-03T14:11:09Z</time>
      </trkpt>
      <trkpt lat="59.9716787" lon="17.7509063">
        <ele>26.5736</ele>
        <time>2013-06-03T14:11:10Z</time>
      </trkpt>
      <trkpt lat="59.9717243" lon="17.7508272">
        <ele>26.5736</ele>
        <time>2013-06-03T14:11:11Z</time>
      </trkpt>
      <trkpt lat="59.9717682" lon="17.7507454">
        <ele>27.0543</ele>
        <time>2013-06-03T14:11:12Z</time>
      </trkpt>
      <trkpt lat="59.9718104" lon="17.750663">
        <ele>27.5349</ele>
        <time>2013-06-03T14:11:13Z</time>
      </trkpt>
      <trkpt lat="59.9718524" lon="17.7505812">
        <ele>28.0155</ele>
        <time>2013-06-03T14:11:14Z</time>
      </trkpt>
      <trkpt lat="59.9718928" lon="17.7505015">
        <ele>28.0155</ele>
        <time>2013-06-03T14:11:15Z</time>
      </trkpt>
      <trkpt lat="59.9719332" lon="17.7504286">
        <ele>28.9769</ele>
        <time>2013-06-03T14:11:16Z</time>
      </trkpt>
      <trkpt lat="59.9719736" lon="17.7503584">
        <ele>29.4575</ele>
        <time>2013-06-03T14:11:17Z</time>
      </trkpt>
      <trkpt lat="59.9720023" lon="17.7502491">
        <ele>30.8995</ele>
        <time>2013-06-03T14:11:18Z</time>
      </trkpt>
      <trkpt lat="59.9720332" lon="17.7501529">
        <ele>31.8607</ele>
        <time>2013-06-03T14:11:19Z</time>
      </trkpt>
      <trkpt lat="59.9720646" lon="17.7500673">
        <ele>32.8223</ele>
        <time>2013-06-03T14:11:20Z</time>
      </trkpt>
      <trkpt lat="59.9721" lon="17.7499895">
        <ele>33.3029</ele>
        <time>2013-06-03T14:11:21Z</time>
      </trkpt>
      <trkpt lat="59.972132" lon="17.7499057">
        <ele>33.3029</ele>
        <time>2013-06-03T14:11:22Z</time>
      </trkpt>
      <trkpt lat="59.9721675" lon="17.749834">
        <ele>33.7834</ele>
        <time>2013-06-03T14:11:23Z</time>
      </trkpt>
      <trkpt lat="59.9722024" lon="17.7497656">
        <ele>33.7834</ele>
        <time>2013-06-03T14:11:24Z</time>
      </trkpt>
      <trkpt lat="59.9722356" lon="17.7496903">
        <ele>33.7834</ele>
        <time>2013-06-03T14:11:25Z</time>
      </trkpt>
      <trkpt lat="59.972273" lon="17.7496222">
        <ele>34.2642</ele>
        <time>2013-06-03T14:11:26Z</time>
      </trkpt>
      <trkpt lat="59.9723154" lon="17.7495658">
        <ele>34.2642</ele>
        <time>2013-06-03T14:11:27Z</time>
      </trkpt>
      <trkpt lat="59.9723545" lon="17.7494975">
        <ele>33.7834</ele>
        <time>2013-06-03T14:11:28Z</time>
      </trkpt>
      <trkpt lat="59.9723908" lon="17.7494224">
        <ele>33.3029</ele>
        <time>2013-06-03T14:11:29Z</time>
      </trkpt>
      <trkpt lat="59.9724302" lon="17.7493394">
        <ele>33.3029</ele>
        <time>2013-06-03T14:11:30Z</time>
      </trkpt>
      <trkpt lat="59.9724687" lon="17.7492566">
        <ele>32.8223</ele>
        <time>2013-06-03T14:11:31Z</time>
      </trkpt>
      <trkpt lat="59.9725027" lon="17.7491676">
        <ele>32.8223</ele>
        <time>2013-06-03T14:11:32Z</time>
      </trkpt>
      <trkpt lat="59.9725362" lon="17.7490732">
        <ele>32.8223</ele>
        <time>2013-06-03T14:11:33Z</time>
      </trkpt>
      <trkpt lat="59.9725697" lon="17.7489738">
        <ele>33.7834</ele>
        <time>2013-06-03T14:11:34Z</time>
      </trkpt>
      <trkpt lat="59.9726044" lon="17.7488816">
        <ele>34.2642</ele>
        <time>2013-06-03T14:11:35Z</time>
      </trkpt>
      <trkpt lat="59.9726432" lon="17.7487966">
        <ele>34.7449</ele>
        <time>2013-06-03T14:11:36Z</time>
      </trkpt>
      <trkpt lat="59.9726811" lon="17.748711">
        <ele>33.7834</ele>
        <time>2013-06-03T14:11:37Z</time>
      </trkpt>
      <trkpt lat="59.9727221" lon="17.7486185">
        <ele>33.3029</ele>
        <time>2013-06-03T14:11:38Z</time>
      </trkpt>
      <trkpt lat="59.9727671" lon="17.7485219">
        <ele>33.3029</ele>
        <time>2013-06-03T14:11:39Z</time>
      </trkpt>
      <trkpt lat="59.9728111" lon="17.7484226">
        <ele>33.3029</ele>
        <time>2013-06-03T14:11:40Z</time>
      </trkpt>
      <trkpt lat="59.9728599" lon="17.7483234">
        <ele>32.8223</ele>
        <time>2013-06-03T14:11:41Z</time>
      </trkpt>
      <trkpt lat="59.9729114" lon="17.7482233">
        <ele>32.8223</ele>
        <time>2013-06-03T14:11:42Z</time>
      </trkpt>
      <trkpt lat="59.9729646" lon="17.7481201">
        <ele>32.8223</ele>
        <time>2013-06-03T14:11:43Z</time>
      </trkpt>
      <trkpt lat="59.9730234" lon="17.7480257">
        <ele>32.3416</ele>
        <time>2013-06-03T14:11:44Z</time>
      </trkpt>
      <trkpt lat="59.973083" lon="17.7479341">
        <ele>31.8607</ele>
        <time>2013-06-03T14:11:45Z</time>
      </trkpt>
      <trkpt lat="59.9731447" lon="17.7478616">
        <ele>31.3801</ele>
        <time>2013-06-03T14:11:46Z</time>
      </trkpt>
      <trkpt lat="59.9732072" lon="17.7477948">
        <ele>30.8995</ele>
        <time>2013-06-03T14:11:47Z</time>
      </trkpt>
      <trkpt lat="59.9732702" lon="17.7477314">
        <ele>30.8995</ele>
        <time>2013-06-03T14:11:48Z</time>
      </trkpt>
      <trkpt lat="59.9733332" lon="17.7476656">
        <ele>30.8995</ele>
        <time>2013-06-03T14:11:49Z</time>
      </trkpt>
      <trkpt lat="59.9733929" lon="17.7476019">
        <ele>30.8995</ele>
        <time>2013-06-03T14:11:50Z</time>
      </trkpt>
      <trkpt lat="59.9734523" lon="17.7475382">
        <ele>30.8995</ele>
        <time>2013-06-03T14:11:51Z</time>
      </trkpt>
      <trkpt lat="59.9735087" lon="17.7474737">
        <ele>30.8995</ele>
        <time>2013-06-03T14:11:52Z</time>
      </trkpt>
      <trkpt lat="59.9735652" lon="17.7474171">
        <ele>30.8995</ele>
        <time>2013-06-03T14:11:53Z</time>
      </trkpt>
      <trkpt lat="59.9736208" lon="17.7473615">
        <ele>31.3801</ele>
        <time>2013-06-03T14:11:54Z</time>
      </trkpt>
      <trkpt lat="59.9736735" lon="17.7473032">
        <ele>30.4188</ele>
        <time>2013-06-03T14:11:55Z</time>
      </trkpt>
      <trkpt lat="59.9737255" lon="17.7472468">
        <ele>30.4188</ele>
        <time>2013-06-03T14:11:56Z</time>
      </trkpt>
      <trkpt lat="59.973778" lon="17.7471877">
        <ele>30.8995</ele>
        <time>2013-06-03T14:11:57Z</time>
      </trkpt>
      <trkpt lat="59.9738284" lon="17.7471259">
        <ele>30.8995</ele>
        <time>2013-06-03T14:11:58Z</time>
      </trkpt>
      <trkpt lat="59.9738794" lon="17.747059">
        <ele>30.8995</ele>
        <time>2013-06-03T14:11:59Z</time>
      </trkpt>
      <trkpt lat="59.9739303" lon="17.7469981">
        <ele>30.4188</ele>
        <time>2013-06-03T14:12:00Z</time>
      </trkpt>
      <trkpt lat="59.9739793" lon="17.7469297">
        <ele>30.4188</ele>
        <time>2013-06-03T14:12:01Z</time>
      </trkpt>
      <trkpt lat="59.9740306" lon="17.7468655">
        <ele>30.8995</ele>
        <time>2013-06-03T14:12:02Z</time>
      </trkpt>
      <trkpt lat="59.9740834" lon="17.7468007">
        <ele>30.4188</ele>
        <time>2013-06-03T14:12:03Z</time>
      </trkpt>
      <trkpt lat="59.9741368" lon="17.7467357">
        <ele>30.4188</ele>
        <time>2013-06-03T14:12:04Z</time>
      </trkpt>
      <trkpt lat="59.9741901" lon="17.7466707">
        <ele>30.4188</ele>
        <time>2013-06-03T14:12:05Z</time>
      </trkpt>
      <trkpt lat="59.9742429" lon="17.7466038">
        <ele>30.4188</ele>
        <time>2013-06-03T14:12:06Z</time>
      </trkpt>
      <trkpt lat="59.9742931" lon="17.7465226">
        <ele>30.4188</ele>
        <time>2013-06-03T14:12:07Z</time>
      </trkpt>
      <trkpt lat="59.974345" lon="17.7464512">
        <ele>30.4188</ele>
        <time>2013-06-03T14:12:08Z</time>
      </trkpt>
      <trkpt lat="59.9743968" lon="17.7463826">
        <ele>30.4188</ele>
        <time>2013-06-03T14:12:09Z</time>
      </trkpt>
      <trkpt lat="59.974447" lon="17.7463141">
        <ele>30.8995</ele>
        <time>2013-06-03T14:12:10Z</time>
      </trkpt>
      <trkpt lat="59.9744962" lon="17.7462486">
        <ele>30.8995</ele>
        <time>2013-06-03T14:12:11Z</time>
      </trkpt>
      <trkpt lat="59.9745443" lon="17.7461848">
        <ele>31.3801</ele>
        <time>2013-06-03T14:12:12Z</time>
      </trkpt>
      <trkpt lat="59.9745894" lon="17.7461172">
        <ele>31.3801</ele>
        <time>2013-06-03T14:12:13Z</time>
      </trkpt>
      <trkpt lat="59.9746318" lon="17.7460478">
        <ele>31.3801</ele>
        <time>2013-06-03T14:12:14Z</time>
      </trkpt>
      <trkpt lat="59.974675" lon="17.7459765">
        <ele>31.3801</ele>
        <time>2013-06-03T14:12:15Z</time>
      </trkpt>
      <trkpt lat="59.9747174" lon="17.7458983">
        <ele>31.8607</ele>
        <time>2013-06-03T14:12:16Z</time>
      </trkpt>
      <trkpt lat="59.9747602" lon="17.7458168">
        <ele>31.8607</ele>
        <time>2013-06-03T14:12:17Z</time>
      </trkpt>
      <trkpt lat="59.9748039" lon="17.7457305">
        <ele>32.8223</ele>
        <time>2013-06-03T14:12:18Z</time>
      </trkpt>
      <trkpt lat="59.9748479" lon="17.7456367">
        <ele>33.3029</ele>
        <time>2013-06-03T14:12:19Z</time>
      </trkpt>
      <trkpt lat="59.9748862" lon="17.745528">
        <ele>33.3029</ele>
        <time>2013-06-03T14:12:20Z</time>
      </trkpt>
      <trkpt lat="59.974918" lon="17.7453959">
        <ele>33.3029</ele>
        <time>2013-06-03T14:12:21Z</time>
      </trkpt>
      <trkpt lat="59.9749582" lon="17.7452895">
        <ele>33.7834</ele>
        <time>2013-06-03T14:12:22Z</time>
      </trkpt>
      <trkpt lat="59.9749992" lon="17.7451839">
        <ele>34.2642</ele>
        <time>2013-06-03T14:12:23Z</time>
      </trkpt>
      <trkpt lat="59.9750404" lon="17.7450741">
        <ele>34.2642</ele>
        <time>2013-06-03T14:12:24Z</time>
      </trkpt>
      <trkpt lat="59.9750809" lon="17.7449605">
        <ele>34.7449</ele>
        <time>2013-06-03T14:12:25Z</time>
      </trkpt>
      <trkpt lat="59.9751194" lon="17.7448433">
        <ele>34.7449</ele>
        <time>2013-06-03T14:12:26Z</time>
      </trkpt>
      <trkpt lat="59.9751562" lon="17.744724">
        <ele>35.2255</ele>
        <time>2013-06-03T14:12:27Z</time>
      </trkpt>
      <trkpt lat="59.9751913" lon="17.7446048">
        <ele>35.2255</ele>
        <time>2013-06-03T14:12:28Z</time>
      </trkpt>
      <trkpt lat="59.975224" lon="17.7444842">
        <ele>35.2255</ele>
        <time>2013-06-03T14:12:29Z</time>
      </trkpt>
      <trkpt lat="59.9752533" lon="17.7443594">
        <ele>35.2255</ele>
        <time>2013-06-03T14:12:30Z</time>
      </trkpt>
      <trkpt lat="59.9752825" lon="17.7442369">
        <ele>35.2255</ele>
        <time>2013-06-03T14:12:31Z</time>
      </trkpt>
      <trkpt lat="59.9753084" lon="17.7441146">
        <ele>35.2255</ele>
        <time>2013-06-03T14:12:32Z</time>
      </trkpt>
      <trkpt lat="59.9753332" lon="17.7439961">
        <ele>35.2255</ele>
        <time>2013-06-03T14:12:33Z</time>
      </trkpt>
      <trkpt lat="59.9753586" lon="17.7438801">
        <ele>35.2255</ele>
        <time>2013-06-03T14:12:34Z</time>
      </trkpt>
      <trkpt lat="59.975383" lon="17.743765">
        <ele>35.2255</ele>
        <time>2013-06-03T14:12:35Z</time>
      </trkpt>
      <trkpt lat="59.9754048" lon="17.7436481">
        <ele>34.7449</ele>
        <time>2013-06-03T14:12:36Z</time>
      </trkpt>
      <trkpt lat="59.9754274" lon="17.74353">
        <ele>34.7449</ele>
        <time>2013-06-03T14:12:37Z</time>
      </trkpt>
      <trkpt lat="59.9754524" lon="17.7434124">
        <ele>34.7449</ele>
        <time>2013-06-03T14:12:38Z</time>
      </trkpt>
      <trkpt lat="59.9754792" lon="17.7432949">
        <ele>34.7449</ele>
        <time>2013-06-03T14:12:39Z</time>
      </trkpt>
      <trkpt lat="59.9755079" lon="17.7431777">
        <ele>34.7449</ele>
        <time>2013-06-03T14:12:40Z</time>
      </trkpt>
      <trkpt lat="59.9755382" lon="17.7430612">
        <ele>34.7449</ele>
        <time>2013-06-03T14:12:41Z</time>
      </trkpt>
      <trkpt lat="59.9755683" lon="17.742946">
        <ele>34.7449</ele>
        <time>2013-06-03T14:12:42Z</time>
      </trkpt>
      <trkpt lat="59.9755984" lon="17.7428348">
        <ele>34.7449</ele>
        <time>2013-06-03T14:12:43Z</time>
      </trkpt>
      <trkpt lat="59.9756295" lon="17.7427217">
        <ele>34.7449</ele>
        <time>2013-06-03T14:12:44Z</time>
      </trkpt>
      <trkpt lat="59.975655" lon="17.7426063">
        <ele>34.7449</ele>
        <time>2013-06-03T14:12:45Z</time>
      </trkpt>
      <trkpt lat="59.9756809" lon="17.742492">
        <ele>34.7449</ele>
        <time>2013-06-03T14:12:46Z</time>
      </trkpt>
      <trkpt lat="59.9757069" lon="17.7423752">
        <ele>34.2642</ele>
        <time>2013-06-03T14:12:47Z</time>
      </trkpt>
      <trkpt lat="59.9757332" lon="17.7422567">
        <ele>34.2642</ele>
        <time>2013-06-03T14:12:48Z</time>
      </trkpt>
      <trkpt lat="59.9757599" lon="17.7421413">
        <ele>33.7834</ele>
        <time>2013-06-03T14:12:49Z</time>
      </trkpt>
      <trkpt lat="59.9757881" lon="17.7420297">
        <ele>33.7834</ele>
        <time>2013-06-03T14:12:50Z</time>
      </trkpt>
      <trkpt lat="59.9758171" lon="17.741917">
        <ele>33.7834</ele>
        <time>2013-06-03T14:12:51Z</time>
      </trkpt>
      <trkpt lat="59.9758466" lon="17.7418015">
        <ele>33.7834</ele>
        <time>2013-06-03T14:12:52Z</time>
      </trkpt>
      <trkpt lat="59.9758761" lon="17.7416832">
        <ele>33.3029</ele>
        <time>2013-06-03T14:12:53Z</time>
      </trkpt>
      <trkpt lat="59.9759047" lon="17.7415616">
        <ele>33.3029</ele>
        <time>2013-06-03T14:12:54Z</time>
      </trkpt>
      <trkpt lat="59.9759337" lon="17.7414383">
        <ele>33.3029</ele>
        <time>2013-06-03T14:12:55Z</time>
      </trkpt>
      <trkpt lat="59.9759638" lon="17.7413144">
        <ele>33.3029</ele>
        <time>2013-06-03T14:12:56Z</time>
      </trkpt>
      <trkpt lat="59.9759962" lon="17.7411895">
        <ele>32.8223</ele>
        <time>2013-06-03T14:12:57Z</time>
      </trkpt>
      <trkpt lat="59.9760311" lon="17.741062">
        <ele>32.8223</ele>
        <time>2013-06-03T14:12:58Z</time>
      </trkpt>
      <trkpt lat="59.9760682" lon="17.7409317">
        <ele>32.8223</ele>
        <time>2013-06-03T14:12:59Z</time>
      </trkpt>
      <trkpt lat="59.9761077" lon="17.7408005">
        <ele>32.8223</ele>
        <time>2013-06-03T14:13:00Z</time>
      </trkpt>
      <trkpt lat="59.9761497" lon="17.7406664">
        <ele>32.3416</ele>
        <time>2013-06-03T14:13:01Z</time>
      </trkpt>
      <trkpt lat="59.9761923" lon="17.7405315">
        <ele>32.3416</ele>
        <time>2013-06-03T14:13:02Z</time>
      </trkpt>
      <trkpt lat="59.9762368" lon="17.7403964">
        <ele>32.3416</ele>
        <time>2013-06-03T14:13:03Z</time>
      </trkpt>
      <trkpt lat="59.9762839" lon="17.7402571">
        <ele>32.3416</ele>
        <time>2013-06-03T14:13:04Z</time>
      </trkpt>
      <trkpt lat="59.9763325" lon="17.7401109">
        <ele>32.3416</ele>
        <time>2013-06-03T14:13:05Z</time>
      </trkpt>
      <trkpt lat="59.9763839" lon="17.7399557">
        <ele>31.8607</ele>
        <time>2013-06-03T14:13:06Z</time>
      </trkpt>
      <trkpt lat="59.9764418" lon="17.7398074">
        <ele>31.8607</ele>
        <time>2013-06-03T14:13:07Z</time>
      </trkpt>
      <trkpt lat="59.9765085" lon="17.7396676">
        <ele>31.8607</ele>
        <time>2013-06-03T14:13:08Z</time>
      </trkpt>
      <trkpt lat="59.9765836" lon="17.7395451">
        <ele>31.3801</ele>
        <time>2013-06-03T14:13:09Z</time>
      </trkpt>
      <trkpt lat="59.9766561" lon="17.7394372">
        <ele>31.3801</ele>
        <time>2013-06-03T14:13:10Z</time>
      </trkpt>
      <trkpt lat="59.9767447" lon="17.7393735">
        <ele>31.8607</ele>
        <time>2013-06-03T14:13:11Z</time>
      </trkpt>
      <trkpt lat="59.9768335" lon="17.7393339">
        <ele>32.8223</ele>
        <time>2013-06-03T14:13:12Z</time>
      </trkpt>
      <trkpt lat="59.976909" lon="17.7393127">
        <ele>32.8223</ele>
        <time>2013-06-03T14:13:13Z</time>
      </trkpt>
      <trkpt lat="59.9769866" lon="17.7392843">
        <ele>32.8223</ele>
        <time>2013-06-03T14:13:14Z</time>
      </trkpt>
      <trkpt lat="59.9770686" lon="17.7392493">
        <ele>33.7834</ele>
        <time>2013-06-03T14:13:15Z</time>
      </trkpt>
      <trkpt lat="59.9771578" lon="17.7392257">
        <ele>34.2642</ele>
        <time>2013-06-03T14:13:16Z</time>
      </trkpt>
      <trkpt lat="59.9772406" lon="17.739199">
        <ele>34.2642</ele>
        <time>2013-06-03T14:13:17Z</time>
      </trkpt>
      <trkpt lat="59.9773233" lon="17.7391536">
        <ele>34.2642</ele>
        <time>2013-06-03T14:13:18Z</time>
      </trkpt>
      <trkpt lat="59.9774008" lon="17.739083">
        <ele>34.7449</ele>
        <time>2013-06-03T14:13:19Z</time>
      </trkpt>
      <trkpt lat="59.9774756" lon="17.7390465">
        <ele>34.7449</ele>
        <time>2013-06-03T14:13:20Z</time>
      </trkpt>
      <trkpt lat="59.9775539" lon="17.7390164">
        <ele>34.7449</ele>
        <time>2013-06-03T14:13:21Z</time>
      </trkpt>
      <trkpt lat="59.9776297" lon="17.738991">
        <ele>34.7449</ele>
        <time>2013-06-03T14:13:22Z</time>
      </trkpt>
      <trkpt lat="59.9776923" lon="17.7389939">
        <ele>34.7449</ele>
        <time>2013-06-03T14:13:23Z</time>
      </trkpt>
      <trkpt lat="59.9777503" lon="17.7390062">
        <ele>34.7449</ele>
        <time>2013-06-03T14:13:24Z</time>
      </trkpt>
      <trkpt lat="59.977803" lon="17.7390268">
        <ele>35.2255</ele>
        <time>2013-06-03T14:13:25Z</time>
      </trkpt>
      <trkpt lat="59.9778584" lon="17.7390475">
        <ele>35.2255</ele>
        <time>2013-06-03T14:13:26Z</time>
      </trkpt>
      <trkpt lat="59.9779107" lon="17.7390725">
        <ele>35.2255</ele>
        <time>2013-06-03T14:13:27Z</time>
      </trkpt>
      <trkpt lat="59.9779607" lon="17.7391015">
        <ele>35.2255</ele>
        <time>2013-06-03T14:13:28Z</time>
      </trkpt>
      <trkpt lat="59.9780099" lon="17.7391283">
        <ele>35.7061</ele>
        <time>2013-06-03T14:13:29Z</time>
      </trkpt>
      <trkpt lat="59.9780596" lon="17.739156">
        <ele>35.2255</ele>
        <time>2013-06-03T14:13:30Z</time>
      </trkpt>
      <trkpt lat="59.9781072" lon="17.7391853">
        <ele>34.7449</ele>
        <time>2013-06-03T14:13:31Z</time>
      </trkpt>
      <trkpt lat="59.9781538" lon="17.7392063">
        <ele>35.2255</ele>
        <time>2013-06-03T14:13:32Z</time>
      </trkpt>
      <trkpt lat="59.978205" lon="17.7392182">
        <ele>34.7449</ele>
        <time>2013-06-03T14:13:33Z</time>
      </trkpt>
      <trkpt lat="59.9782533" lon="17.7392331">
        <ele>34.7449</ele>
        <time>2013-06-03T14:13:34Z</time>
      </trkpt>
      <trkpt lat="59.9782987" lon="17.7392454">
        <ele>34.7449</ele>
        <time>2013-06-03T14:13:35Z</time>
      </trkpt>
      <trkpt lat="59.978343" lon="17.7392589">
        <ele>34.2642</ele>
        <time>2013-06-03T14:13:36Z</time>
      </trkpt>
      <trkpt lat="59.9783917" lon="17.7392786">
        <ele>33.7834</ele>
        <time>2013-06-03T14:13:37Z</time>
      </trkpt>
      <trkpt lat="59.9784414" lon="17.7392984">
        <ele>33.7834</ele>
        <time>2013-06-03T14:13:38Z</time>
      </trkpt>
      <trkpt lat="59.9784947" lon="17.7393181">
        <ele>34.2642</ele>
        <time>2013-06-03T14:13:39Z</time>
      </trkpt>
      <trkpt lat="59.9785497" lon="17.7393326">
        <ele>33.7834</ele>
        <time>2013-06-03T14:13:40Z</time>
      </trkpt>
      <trkpt lat="59.9786055" lon="17.7393429">
        <ele>33.3029</ele>
        <time>2013-06-03T14:13:41Z</time>
      </trkpt>
      <trkpt lat="59.9786652" lon="17.7393455">
        <ele>33.7834</ele>
        <time>2013-06-03T14:13:42Z</time>
      </trkpt>
    </trkseg>
  </trk>
</gpx>